<?xml version='1.0' encoding='UTF-8'?><gpx version="1.1" creator="JPX - https://github.com/jenetics/jpx" xmlns="http://www.topografix.com/GPX/1/1"><trk><trkseg><trkpt lat="44.0613568" lon="11.8460331"><ele>219.28571428571428</ele><time>2026-05-03T07:27:38.468Z</time></trkpt><trkpt lat="44.0613464" lon="11.8459445"><ele>218.57142857142856</ele><time>2026-05-03T07:27:49.48Z</time></trkpt><trkpt lat="44.0612663" lon="11.8458862"><ele>217.85714285714283</ele><time>2026-05-03T07:30:20.637Z</time></trkpt><trkpt lat="44.061175" lon="11.8458791"><ele>217.14285714285714</ele><time>2026-05-03T07:30:23.636Z</time></trkpt><trkpt lat="44.061109" lon="11.845866"><ele>216.42857142857144</ele><time>2026-05-03T07:30:25.636Z</time></trkpt><trkpt lat="44.0610451" lon="11.8458507"><ele>215.7142857142857</ele><time>2026-05-03T07:30:27.634Z</time></trkpt><trkpt lat="44.0609763" lon="11.8458297"><ele>215.0</ele><time>2026-05-03T07:30:29.636Z</time></trkpt><trkpt lat="44.0608895" lon="11.8458348"><ele>215.0</ele><time>2026-05-03T07:30:31.639Z</time></trkpt><trkpt lat="44.0607833" lon="11.8458172"><ele>215.0</ele><time>2026-05-03T07:30:33.63Z</time></trkpt><trkpt lat="44.0606806" lon="11.8457552"><ele>215.0</ele><time>2026-05-03T07:30:35.63Z</time></trkpt><trkpt lat="44.0606047" lon="11.8456206"><ele>215.0</ele><time>2026-05-03T07:30:37.623Z</time></trkpt><trkpt lat="44.0605864" lon="11.845522"><ele>215.0</ele><time>2026-05-03T07:30:38.636Z</time></trkpt><trkpt lat="44.0605776" lon="11.8454137"><ele>216.28571428571428</ele><time>2026-05-03T07:30:39.629Z</time></trkpt><trkpt lat="44.060566" lon="11.8453132"><ele>217.57142857142858</ele><time>2026-05-03T07:30:40.628Z</time></trkpt><trkpt lat="44.060558" lon="11.8452167"><ele>218.85714285714286</ele><time>2026-05-03T07:30:41.652Z</time></trkpt><trkpt lat="44.0605439" lon="11.8451246"><ele>220.14285714285714</ele><time>2026-05-03T07:30:42.626Z</time></trkpt><trkpt lat="44.060529" lon="11.8450269"><ele>221.42857142857144</ele><time>2026-05-03T07:30:43.627Z</time></trkpt><trkpt lat="44.0605113" lon="11.8449344"><ele>222.71428571428572</ele><time>2026-05-03T07:30:44.637Z</time></trkpt><trkpt lat="44.0604855" lon="11.8448444"><ele>224.0</ele><time>2026-05-03T07:30:45.632Z</time></trkpt><trkpt lat="44.0604499" lon="11.8447615"><ele>224.0</ele><time>2026-05-03T07:30:46.633Z</time></trkpt><trkpt lat="44.0603581" lon="11.8446571"><ele>223.99999999999997</ele><time>2026-05-03T07:30:48.634Z</time></trkpt><trkpt lat="44.0602986" lon="11.8446261"><ele>223.99999999999997</ele><time>2026-05-03T07:30:49.621Z</time></trkpt><trkpt lat="44.0601709" lon="11.8446067"><ele>224.0</ele><time>2026-05-03T07:30:51.629Z</time></trkpt><trkpt lat="44.0601064" lon="11.8445949"><ele>224.0</ele><time>2026-05-03T07:30:52.622Z</time></trkpt><trkpt lat="44.0599939" lon="11.8445782"><ele>225.6</ele><time>2026-05-03T07:30:54.628Z</time></trkpt><trkpt lat="44.0598968" lon="11.8445478"><ele>227.2</ele><time>2026-05-03T07:30:56.626Z</time></trkpt><trkpt lat="44.059801" lon="11.8445253"><ele>228.79999999999998</ele><time>2026-05-03T07:30:58.64Z</time></trkpt><trkpt lat="44.0597063" lon="11.8444904"><ele>230.39999999999998</ele><time>2026-05-03T07:31:00.63Z</time></trkpt><trkpt lat="44.0596211" lon="11.8444644"><ele>232.0</ele><time>2026-05-03T07:31:02.635Z</time></trkpt><trkpt lat="44.0595373" lon="11.8444547"><ele>231.99999999999997</ele><time>2026-05-03T07:31:04.637Z</time></trkpt><trkpt lat="44.0594687" lon="11.8444565"><ele>232.0</ele><time>2026-05-03T07:31:06.634Z</time></trkpt><trkpt lat="44.0594035" lon="11.8444527"><ele>232.0</ele><time>2026-05-03T07:31:08.645Z</time></trkpt><trkpt lat="44.0593345" lon="11.8444726"><ele>232.0</ele><time>2026-05-03T07:31:10.64Z</time></trkpt><trkpt lat="44.0592661" lon="11.8444815"><ele>231.99999999999997</ele><time>2026-05-03T07:31:12.652Z</time></trkpt><trkpt lat="44.0591708" lon="11.844474"><ele>232.0</ele><time>2026-05-03T07:31:15.634Z</time></trkpt><trkpt lat="44.0590874" lon="11.8444821"><ele>232.99999999999997</ele><time>2026-05-03T07:31:17.633Z</time></trkpt><trkpt lat="44.059001" lon="11.8445102"><ele>234.0</ele><time>2026-05-03T07:31:19.635Z</time></trkpt><trkpt lat="44.0589216" lon="11.8445389"><ele>235.0</ele><time>2026-05-03T07:31:21.634Z</time></trkpt><trkpt lat="44.0588358" lon="11.8445673"><ele>236.0</ele><time>2026-05-03T07:31:23.633Z</time></trkpt><trkpt lat="44.0587419" lon="11.8445903"><ele>236.99999999999997</ele><time>2026-05-03T07:31:25.633Z</time></trkpt><trkpt lat="44.058655" lon="11.8445903"><ele>238.0</ele><time>2026-05-03T07:31:27.642Z</time></trkpt><trkpt lat="44.0585655" lon="11.8445799"><ele>238.0</ele><time>2026-05-03T07:31:29.638Z</time></trkpt><trkpt lat="44.0584762" lon="11.8445493"><ele>238.0</ele><time>2026-05-03T07:31:31.638Z</time></trkpt><trkpt lat="44.0583925" lon="11.8445117"><ele>238.0</ele><time>2026-05-03T07:31:33.635Z</time></trkpt><trkpt lat="44.0582982" lon="11.8444722"><ele>238.0</ele><time>2026-05-03T07:31:35.634Z</time></trkpt><trkpt lat="44.0582054" lon="11.8444124"><ele>238.0</ele><time>2026-05-03T07:31:37.628Z</time></trkpt><trkpt lat="44.0581123" lon="11.8443472"><ele>236.8</ele><time>2026-05-03T07:31:39.633Z</time></trkpt><trkpt lat="44.0580239" lon="11.8442893"><ele>235.60000000000002</ele><time>2026-05-03T07:31:41.63Z</time></trkpt><trkpt lat="44.0579355" lon="11.8442233"><ele>234.39999999999998</ele><time>2026-05-03T07:31:43.653Z</time></trkpt><trkpt lat="44.0578436" lon="11.8441651"><ele>233.2</ele><time>2026-05-03T07:31:45.64Z</time></trkpt><trkpt lat="44.0577557" lon="11.8440996"><ele>232.0</ele><time>2026-05-03T07:31:47.644Z</time></trkpt><trkpt lat="44.0576628" lon="11.8440364"><ele>232.0</ele><time>2026-05-03T07:31:49.644Z</time></trkpt><trkpt lat="44.0575767" lon="11.8439669"><ele>232.0</ele><time>2026-05-03T07:31:51.645Z</time></trkpt><trkpt lat="44.0574897" lon="11.843911"><ele>232.0</ele><time>2026-05-03T07:31:53.642Z</time></trkpt><trkpt lat="44.0574096" lon="11.8438515"><ele>232.0</ele><time>2026-05-03T07:31:55.641Z</time></trkpt><trkpt lat="44.0573289" lon="11.8437828"><ele>232.0</ele><time>2026-05-03T07:31:57.644Z</time></trkpt><trkpt lat="44.0572563" lon="11.843712"><ele>232.99999999999997</ele><time>2026-05-03T07:31:59.646Z</time></trkpt><trkpt lat="44.0571881" lon="11.8436345"><ele>234.0</ele><time>2026-05-03T07:32:01.643Z</time></trkpt><trkpt lat="44.0571257" lon="11.8435419"><ele>235.0</ele><time>2026-05-03T07:32:03.643Z</time></trkpt><trkpt lat="44.0570577" lon="11.8434622"><ele>236.0</ele><time>2026-05-03T07:32:05.653Z</time></trkpt><trkpt lat="44.0569885" lon="11.8433839"><ele>236.99999999999997</ele><time>2026-05-03T07:32:07.645Z</time></trkpt><trkpt lat="44.0569302" lon="11.8433043"><ele>238.0</ele><time>2026-05-03T07:32:09.646Z</time></trkpt><trkpt lat="44.056871" lon="11.843231"><ele>237.99999999999997</ele><time>2026-05-03T07:32:11.645Z</time></trkpt><trkpt lat="44.0568144" lon="11.8431495"><ele>238.0</ele><time>2026-05-03T07:32:13.647Z</time></trkpt><trkpt lat="44.0567636" lon="11.8430678"><ele>238.0</ele><time>2026-05-03T07:32:15.643Z</time></trkpt><trkpt lat="44.0567176" lon="11.8429804"><ele>238.0</ele><time>2026-05-03T07:32:17.647Z</time></trkpt><trkpt lat="44.0566759" lon="11.8428947"><ele>237.99999999999997</ele><time>2026-05-03T07:32:19.652Z</time></trkpt><trkpt lat="44.056628" lon="11.8428127"><ele>238.0</ele><time>2026-05-03T07:32:21.652Z</time></trkpt><trkpt lat="44.0565805" lon="11.8427302"><ele>238.14285714285714</ele><time>2026-05-03T07:32:23.654Z</time></trkpt><trkpt lat="44.0565431" lon="11.8426551"><ele>238.28571428571428</ele><time>2026-05-03T07:32:25.643Z</time></trkpt><trkpt lat="44.056501" lon="11.8425765"><ele>238.42857142857144</ele><time>2026-05-03T07:32:27.647Z</time></trkpt><trkpt lat="44.0564568" lon="11.8425092"><ele>238.57142857142858</ele><time>2026-05-03T07:32:29.645Z</time></trkpt><trkpt lat="44.0563869" lon="11.8424299"><ele>238.71428571428572</ele><time>2026-05-03T07:32:32.644Z</time></trkpt><trkpt lat="44.0563262" lon="11.8423673"><ele>238.8571428571429</ele><time>2026-05-03T07:32:34.643Z</time></trkpt><trkpt lat="44.0562686" lon="11.8423112"><ele>239.00000000000003</ele><time>2026-05-03T07:32:36.643Z</time></trkpt><trkpt lat="44.0562081" lon="11.8422644"><ele>239.00000000000003</ele><time>2026-05-03T07:32:38.657Z</time></trkpt><trkpt lat="44.0561469" lon="11.8422245"><ele>239.0</ele><time>2026-05-03T07:32:40.647Z</time></trkpt><trkpt lat="44.0560747" lon="11.8421883"><ele>239.0</ele><time>2026-05-03T07:32:42.644Z</time></trkpt><trkpt lat="44.0560064" lon="11.8421715"><ele>239.0</ele><time>2026-05-03T07:32:44.645Z</time></trkpt><trkpt lat="44.0559331" lon="11.842147"><ele>239.00000000000003</ele><time>2026-05-03T07:32:46.643Z</time></trkpt><trkpt lat="44.0558538" lon="11.8421267"><ele>239.0</ele><time>2026-05-03T07:32:48.644Z</time></trkpt><trkpt lat="44.0557711" lon="11.8421052"><ele>240.33333333333334</ele><time>2026-05-03T07:32:50.646Z</time></trkpt><trkpt lat="44.0556905" lon="11.8420889"><ele>241.66666666666669</ele><time>2026-05-03T07:32:52.648Z</time></trkpt><trkpt lat="44.0556171" lon="11.8420751"><ele>243.0</ele><time>2026-05-03T07:32:54.648Z</time></trkpt><trkpt lat="44.0555418" lon="11.8420572"><ele>244.33333333333331</ele><time>2026-05-03T07:32:56.654Z</time></trkpt><trkpt lat="44.0554646" lon="11.8420492"><ele>245.66666666666666</ele><time>2026-05-03T07:32:58.642Z</time></trkpt><trkpt lat="44.0553921" lon="11.8420376"><ele>247.0</ele><time>2026-05-03T07:33:00.645Z</time></trkpt><trkpt lat="44.0553155" lon="11.8420314"><ele>246.99999999999997</ele><time>2026-05-03T07:33:02.65Z</time></trkpt><trkpt lat="44.0552346" lon="11.8420302"><ele>247.0</ele><time>2026-05-03T07:33:04.649Z</time></trkpt><trkpt lat="44.0551469" lon="11.8420205"><ele>247.0</ele><time>2026-05-03T07:33:06.644Z</time></trkpt><trkpt lat="44.0550659" lon="11.8419945"><ele>247.0</ele><time>2026-05-03T07:33:08.636Z</time></trkpt><trkpt lat="44.0549846" lon="11.8419708"><ele>246.99999999999997</ele><time>2026-05-03T07:33:10.641Z</time></trkpt><trkpt lat="44.0549138" lon="11.8419625"><ele>247.0</ele><time>2026-05-03T07:33:12.646Z</time></trkpt><trkpt lat="44.0548409" lon="11.8419571"><ele>247.16666666666666</ele><time>2026-05-03T07:33:14.651Z</time></trkpt><trkpt lat="44.0547648" lon="11.8419491"><ele>247.33333333333331</ele><time>2026-05-03T07:33:16.68Z</time></trkpt><trkpt lat="44.0546894" lon="11.8419336"><ele>247.5</ele><time>2026-05-03T07:33:18.648Z</time></trkpt><trkpt lat="44.0546128" lon="11.8419157"><ele>247.66666666666669</ele><time>2026-05-03T07:33:20.649Z</time></trkpt><trkpt lat="44.054538" lon="11.8418946"><ele>247.83333333333334</ele><time>2026-05-03T07:33:22.652Z</time></trkpt><trkpt lat="44.0544542" lon="11.8418691"><ele>248.0</ele><time>2026-05-03T07:33:24.641Z</time></trkpt><trkpt lat="44.0543646" lon="11.8418411"><ele>248.00000000000003</ele><time>2026-05-03T07:33:26.636Z</time></trkpt><trkpt lat="44.054287" lon="11.8417999"><ele>248.0</ele><time>2026-05-03T07:33:28.642Z</time></trkpt><trkpt lat="44.0542067" lon="11.8417519"><ele>248.0</ele><time>2026-05-03T07:33:30.641Z</time></trkpt><trkpt lat="44.0541272" lon="11.8416916"><ele>248.0</ele><time>2026-05-03T07:33:32.644Z</time></trkpt><trkpt lat="44.0540458" lon="11.8416275"><ele>248.00000000000003</ele><time>2026-05-03T07:33:34.645Z</time></trkpt><trkpt lat="44.0539724" lon="11.841557"><ele>248.0</ele><time>2026-05-03T07:33:36.648Z</time></trkpt><trkpt lat="44.0539028" lon="11.8414922"><ele>249.4</ele><time>2026-05-03T07:33:38.651Z</time></trkpt><trkpt lat="44.053823" lon="11.8414374"><ele>250.8</ele><time>2026-05-03T07:33:40.647Z</time></trkpt><trkpt lat="44.0537451" lon="11.841368"><ele>252.2</ele><time>2026-05-03T07:33:42.641Z</time></trkpt><trkpt lat="44.0536691" lon="11.8413129"><ele>253.6</ele><time>2026-05-03T07:33:44.643Z</time></trkpt><trkpt lat="44.053591" lon="11.8412462"><ele>255.0</ele><time>2026-05-03T07:33:46.655Z</time></trkpt><trkpt lat="44.0535127" lon="11.8411767"><ele>255.0</ele><time>2026-05-03T07:33:48.645Z</time></trkpt><trkpt lat="44.0534284" lon="11.84111"><ele>255.0</ele><time>2026-05-03T07:33:50.64Z</time></trkpt><trkpt lat="44.0533437" lon="11.8410449"><ele>255.0</ele><time>2026-05-03T07:33:52.637Z</time></trkpt><trkpt lat="44.0532641" lon="11.8409751"><ele>255.0</ele><time>2026-05-03T07:33:54.635Z</time></trkpt><trkpt lat="44.0531893" lon="11.8409107"><ele>255.0</ele><time>2026-05-03T07:33:56.649Z</time></trkpt><trkpt lat="44.0531152" lon="11.8408488"><ele>255.2</ele><time>2026-05-03T07:33:58.648Z</time></trkpt><trkpt lat="44.0530369" lon="11.8407883"><ele>255.4</ele><time>2026-05-03T07:34:00.641Z</time></trkpt><trkpt lat="44.0529548" lon="11.8407272"><ele>255.60000000000002</ele><time>2026-05-03T07:34:02.65Z</time></trkpt><trkpt lat="44.0528791" lon="11.8406548"><ele>255.8</ele><time>2026-05-03T07:34:04.64Z</time></trkpt><trkpt lat="44.0527939" lon="11.8405795"><ele>256.0</ele><time>2026-05-03T07:34:06.646Z</time></trkpt><trkpt lat="44.0527095" lon="11.8405088"><ele>256.0</ele><time>2026-05-03T07:34:08.642Z</time></trkpt><trkpt lat="44.0526267" lon="11.8404466"><ele>256.0</ele><time>2026-05-03T07:34:10.636Z</time></trkpt><trkpt lat="44.052533" lon="11.840372"><ele>256.0</ele><time>2026-05-03T07:34:12.636Z</time></trkpt><trkpt lat="44.052444" lon="11.840302"><ele>256.0</ele><time>2026-05-03T07:34:14.637Z</time></trkpt><trkpt lat="44.0523626" lon="11.8402315"><ele>256.0</ele><time>2026-05-03T07:34:16.635Z</time></trkpt><trkpt lat="44.0522789" lon="11.8401563"><ele>254.5</ele><time>2026-05-03T07:34:18.634Z</time></trkpt><trkpt lat="44.0521812" lon="11.8400821"><ele>253.0</ele><time>2026-05-03T07:34:20.634Z</time></trkpt><trkpt lat="44.0520821" lon="11.8400081"><ele>251.5</ele><time>2026-05-03T07:34:22.632Z</time></trkpt><trkpt lat="44.0519761" lon="11.83998"><ele>250.0</ele><time>2026-05-03T07:34:24.633Z</time></trkpt><trkpt lat="44.051901" lon="11.8401233"><ele>251.6</ele><time>2026-05-03T07:34:26.627Z</time></trkpt><trkpt lat="44.0518893" lon="11.8402171"><ele>253.2</ele><time>2026-05-03T07:34:27.632Z</time></trkpt><trkpt lat="44.0518929" lon="11.8403069"><ele>254.8</ele><time>2026-05-03T07:34:28.632Z</time></trkpt><trkpt lat="44.0519559" lon="11.840454"><ele>256.4</ele><time>2026-05-03T07:34:30.63Z</time></trkpt><trkpt lat="44.0520327" lon="11.8405519"><ele>258.0</ele><time>2026-05-03T07:34:32.634Z</time></trkpt><trkpt lat="44.0521059" lon="11.8406386"><ele>258.0</ele><time>2026-05-03T07:34:34.639Z</time></trkpt><trkpt lat="44.0521649" lon="11.8407215"><ele>258.0</ele><time>2026-05-03T07:34:36.649Z</time></trkpt><trkpt lat="44.0522133" lon="11.8407946"><ele>258.0</ele><time>2026-05-03T07:34:38.644Z</time></trkpt><trkpt lat="44.0522733" lon="11.8408948"><ele>258.0</ele><time>2026-05-03T07:34:41.643Z</time></trkpt><trkpt lat="44.0523347" lon="11.8409848"><ele>258.0</ele><time>2026-05-03T07:34:44.652Z</time></trkpt><trkpt lat="44.0523875" lon="11.8410889"><ele>258.0</ele><time>2026-05-03T07:34:47.645Z</time></trkpt><trkpt lat="44.0524378" lon="11.8411799"><ele>260.5</ele><time>2026-05-03T07:34:50.648Z</time></trkpt><trkpt lat="44.0524985" lon="11.8412604"><ele>263.0</ele><time>2026-05-03T07:34:53.643Z</time></trkpt><trkpt lat="44.0525568" lon="11.8413344"><ele>265.5</ele><time>2026-05-03T07:34:56.648Z</time></trkpt><trkpt lat="44.0526037" lon="11.8414142"><ele>268.0</ele><time>2026-05-03T07:34:59.643Z</time></trkpt><trkpt lat="44.0526603" lon="11.8414922"><ele>270.5</ele><time>2026-05-03T07:35:02.642Z</time></trkpt><trkpt lat="44.0527065" lon="11.8415708"><ele>273.0</ele><time>2026-05-03T07:35:05.657Z</time></trkpt><trkpt lat="44.0527407" lon="11.8416589"><ele>273.0</ele><time>2026-05-03T07:35:09.641Z</time></trkpt><trkpt lat="44.0527234" lon="11.8417524"><ele>273.0</ele><time>2026-05-03T07:35:13.652Z</time></trkpt><trkpt lat="44.0526604" lon="11.8418101"><ele>273.0</ele><time>2026-05-03T07:35:16.65Z</time></trkpt><trkpt lat="44.0525848" lon="11.841838"><ele>273.0</ele><time>2026-05-03T07:35:20.647Z</time></trkpt><trkpt lat="44.0525165" lon="11.8418465"><ele>273.0</ele><time>2026-05-03T07:35:24.651Z</time></trkpt><trkpt lat="44.0524491" lon="11.8418685"><ele>273.0</ele><time>2026-05-03T07:35:28.653Z</time></trkpt><trkpt lat="44.0523808" lon="11.8418931"><ele>273.0</ele><time>2026-05-03T07:35:32.642Z</time></trkpt><trkpt lat="44.052308" lon="11.8419348"><ele>275.57142857142856</ele><time>2026-05-03T07:35:36.656Z</time></trkpt><trkpt lat="44.0522423" lon="11.8419634"><ele>278.1428571428571</ele><time>2026-05-03T07:35:40.648Z</time></trkpt><trkpt lat="44.0521713" lon="11.8420029"><ele>280.7142857142857</ele><time>2026-05-03T07:35:44.654Z</time></trkpt><trkpt lat="44.0521082" lon="11.8420256"><ele>283.2857142857143</ele><time>2026-05-03T07:35:47.647Z</time></trkpt><trkpt lat="44.0520334" lon="11.8420452"><ele>285.85714285714283</ele><time>2026-05-03T07:35:51.646Z</time></trkpt><trkpt lat="44.0519664" lon="11.842064"><ele>288.42857142857144</ele><time>2026-05-03T07:35:55.651Z</time></trkpt><trkpt lat="44.0518945" lon="11.8420728"><ele>291.0</ele><time>2026-05-03T07:35:59.644Z</time></trkpt><trkpt lat="44.0518155" lon="11.8420729"><ele>291.0</ele><time>2026-05-03T07:36:03.647Z</time></trkpt><trkpt lat="44.0517392" lon="11.8420957"><ele>291.0</ele><time>2026-05-03T07:36:07.644Z</time></trkpt><trkpt lat="44.0516659" lon="11.8421388"><ele>291.0</ele><time>2026-05-03T07:36:12.645Z</time></trkpt><trkpt lat="44.0516587" lon="11.8422277"><ele>291.0</ele><time>2026-05-03T07:36:16.64Z</time></trkpt><trkpt lat="44.0517295" lon="11.8422968"><ele>291.0</ele><time>2026-05-03T07:36:20.645Z</time></trkpt><trkpt lat="44.0517924" lon="11.8423305"><ele>291.0</ele><time>2026-05-03T07:36:23.641Z</time></trkpt><trkpt lat="44.0518554" lon="11.8423845"><ele>291.0</ele><time>2026-05-03T07:36:26.646Z</time></trkpt><trkpt lat="44.0519094" lon="11.8424619"><ele>291.0</ele><time>2026-05-03T07:36:29.646Z</time></trkpt><trkpt lat="44.0519477" lon="11.8425448"><ele>291.0</ele><time>2026-05-03T07:36:32.645Z</time></trkpt><trkpt lat="44.051993" lon="11.8426214"><ele>291.0</ele><time>2026-05-03T07:36:35.641Z</time></trkpt><trkpt lat="44.0520435" lon="11.8427012"><ele>291.0</ele><time>2026-05-03T07:36:38.655Z</time></trkpt><trkpt lat="44.0520886" lon="11.8427833"><ele>291.0</ele><time>2026-05-03T07:36:41.644Z</time></trkpt><trkpt lat="44.0521361" lon="11.8428632"><ele>291.0</ele><time>2026-05-03T07:36:44.645Z</time></trkpt><trkpt lat="44.052191" lon="11.8429311"><ele>292.5</ele><time>2026-05-03T07:36:47.648Z</time></trkpt><trkpt lat="44.05225" lon="11.8430122"><ele>294.0</ele><time>2026-05-03T07:36:50.645Z</time></trkpt><trkpt lat="44.0523188" lon="11.8430693"><ele>295.5</ele><time>2026-05-03T07:36:53.646Z</time></trkpt><trkpt lat="44.0523763" lon="11.8431194"><ele>297.0</ele><time>2026-05-03T07:36:56.64Z</time></trkpt><trkpt lat="44.0524258" lon="11.843177"><ele>298.5</ele><time>2026-05-03T07:36:59.643Z</time></trkpt><trkpt lat="44.0524889" lon="11.8432429"><ele>300.0</ele><time>2026-05-03T07:37:03.647Z</time></trkpt><trkpt lat="44.0525524" lon="11.8433119"><ele>299.99999999999994</ele><time>2026-05-03T07:37:07.644Z</time></trkpt><trkpt lat="44.0526037" lon="11.8433647"><ele>300.0</ele><time>2026-05-03T07:37:10.642Z</time></trkpt><trkpt lat="44.0526692" lon="11.8434369"><ele>300.0</ele><time>2026-05-03T07:37:14.644Z</time></trkpt><trkpt lat="44.0527199" lon="11.8434912"><ele>300.0</ele><time>2026-05-03T07:37:17.651Z</time></trkpt><trkpt lat="44.0527675" lon="11.84356"><ele>300.0</ele><time>2026-05-03T07:37:20.646Z</time></trkpt><trkpt lat="44.0528229" lon="11.8436297"><ele>299.99999999999994</ele><time>2026-05-03T07:37:23.661Z</time></trkpt><trkpt lat="44.0528793" lon="11.8436967"><ele>300.0</ele><time>2026-05-03T07:37:26.647Z</time></trkpt><trkpt lat="44.0529311" lon="11.8437729"><ele>303.1666666666667</ele><time>2026-05-03T07:37:29.646Z</time></trkpt><trkpt lat="44.0529967" lon="11.8438562"><ele>306.3333333333333</ele><time>2026-05-03T07:37:32.645Z</time></trkpt><trkpt lat="44.0530521" lon="11.8439676"><ele>309.5</ele><time>2026-05-03T07:37:35.639Z</time></trkpt><trkpt lat="44.0531013" lon="11.8440569"><ele>312.66666666666663</ele><time>2026-05-03T07:37:37.637Z</time></trkpt><trkpt lat="44.0531492" lon="11.8441537"><ele>315.8333333333333</ele><time>2026-05-03T07:37:39.646Z</time></trkpt><trkpt lat="44.0531841" lon="11.8442337"><ele>319.0</ele><time>2026-05-03T07:37:41.644Z</time></trkpt><trkpt lat="44.0532164" lon="11.844315"><ele>318.42857142857144</ele><time>2026-05-03T07:37:43.641Z</time></trkpt><trkpt lat="44.0532572" lon="11.8444273"><ele>317.85714285714283</ele><time>2026-05-03T07:37:46.656Z</time></trkpt><trkpt lat="44.0532946" lon="11.8445053"><ele>317.2857142857143</ele><time>2026-05-03T07:37:48.653Z</time></trkpt><trkpt lat="44.0533276" lon="11.8445874"><ele>316.7142857142857</ele><time>2026-05-03T07:37:50.646Z</time></trkpt><trkpt lat="44.0533492" lon="11.8446769"><ele>316.1428571428571</ele><time>2026-05-03T07:37:52.644Z</time></trkpt><trkpt lat="44.0533653" lon="11.8447715"><ele>315.57142857142856</ele><time>2026-05-03T07:37:54.682Z</time></trkpt><trkpt lat="44.0533736" lon="11.8448829"><ele>315.0</ele><time>2026-05-03T07:37:56.656Z</time></trkpt><trkpt lat="44.0533673" lon="11.8449989"><ele>315.0</ele><time>2026-05-03T07:37:58.646Z</time></trkpt><trkpt lat="44.0533619" lon="11.8451153"><ele>315.0</ele><time>2026-05-03T07:38:00.637Z</time></trkpt><trkpt lat="44.0533603" lon="11.8452235"><ele>315.0</ele><time>2026-05-03T07:38:02.637Z</time></trkpt><trkpt lat="44.0533697" lon="11.8453269"><ele>315.0</ele><time>2026-05-03T07:38:04.637Z</time></trkpt><trkpt lat="44.0533968" lon="11.8454126"><ele>315.0</ele><time>2026-05-03T07:38:06.632Z</time></trkpt><trkpt lat="44.0534449" lon="11.8454834"><ele>315.0</ele><time>2026-05-03T07:38:08.636Z</time></trkpt><trkpt lat="44.0535082" lon="11.8455304"><ele>315.0</ele><time>2026-05-03T07:38:10.635Z</time></trkpt><trkpt lat="44.0535911" lon="11.8455656"><ele>317.5</ele><time>2026-05-03T07:38:12.636Z</time></trkpt><trkpt lat="44.0537112" lon="11.8455946"><ele>320.0</ele><time>2026-05-03T07:38:14.635Z</time></trkpt><trkpt lat="44.0537752" lon="11.845608"><ele>322.5</ele><time>2026-05-03T07:38:15.629Z</time></trkpt><trkpt lat="44.053836" lon="11.8456321"><ele>325.0</ele><time>2026-05-03T07:38:16.63Z</time></trkpt><trkpt lat="44.0538954" lon="11.8456684"><ele>327.5</ele><time>2026-05-03T07:38:17.628Z</time></trkpt><trkpt lat="44.0539976" lon="11.8457632"><ele>330.0</ele><time>2026-05-03T07:38:19.632Z</time></trkpt><trkpt lat="44.0540624" lon="11.8458874"><ele>330.3333333333333</ele><time>2026-05-03T07:38:21.626Z</time></trkpt><trkpt lat="44.0540973" lon="11.8459866"><ele>330.6666666666667</ele><time>2026-05-03T07:38:23.645Z</time></trkpt><trkpt lat="44.0541097" lon="11.8460817"><ele>331.0</ele><time>2026-05-03T07:38:25.645Z</time></trkpt><trkpt lat="44.0541227" lon="11.8461943"><ele>331.33333333333337</ele><time>2026-05-03T07:38:28.649Z</time></trkpt><trkpt lat="44.0541435" lon="11.8463147"><ele>331.6666666666667</ele><time>2026-05-03T07:38:31.645Z</time></trkpt><trkpt lat="44.054184" lon="11.8464141"><ele>332.0</ele><time>2026-05-03T07:38:34.646Z</time></trkpt><trkpt lat="44.0542357" lon="11.8465272"><ele>332.0</ele><time>2026-05-03T07:38:37.646Z</time></trkpt><trkpt lat="44.0542825" lon="11.8465977"><ele>332.0</ele><time>2026-05-03T07:38:39.65Z</time></trkpt><trkpt lat="44.0543558" lon="11.84668"><ele>332.0</ele><time>2026-05-03T07:38:42.644Z</time></trkpt><trkpt lat="44.0544197" lon="11.8467074"><ele>332.0</ele><time>2026-05-03T07:38:44.642Z</time></trkpt><trkpt lat="44.0544964" lon="11.8467421"><ele>332.0</ele><time>2026-05-03T07:38:46.641Z</time></trkpt><trkpt lat="44.0545691" lon="11.8467636"><ele>332.0</ele><time>2026-05-03T07:38:48.641Z</time></trkpt><trkpt lat="44.0546434" lon="11.8467998"><ele>331.0</ele><time>2026-05-03T07:38:50.638Z</time></trkpt><trkpt lat="44.0547129" lon="11.8468603"><ele>330.0</ele><time>2026-05-03T07:38:52.645Z</time></trkpt><trkpt lat="44.0547902" lon="11.8469246"><ele>329.0</ele><time>2026-05-03T07:38:54.641Z</time></trkpt><trkpt lat="44.0548852" lon="11.8470139"><ele>328.0</ele><time>2026-05-03T07:38:56.636Z</time></trkpt><trkpt lat="44.0549863" lon="11.8470704"><ele>327.0</ele><time>2026-05-03T07:38:58.639Z</time></trkpt><trkpt lat="44.0550894" lon="11.8471178"><ele>327.0</ele><time>2026-05-03T07:39:00.634Z</time></trkpt><trkpt lat="44.0551913" lon="11.8471471"><ele>327.0</ele><time>2026-05-03T07:39:02.632Z</time></trkpt><trkpt lat="44.0552803" lon="11.8471681"><ele>327.0</ele><time>2026-05-03T07:39:04.632Z</time></trkpt><trkpt lat="44.0553643" lon="11.8472113"><ele>327.0</ele><time>2026-05-03T07:39:06.628Z</time></trkpt><trkpt lat="44.055449" lon="11.8472548"><ele>327.0</ele><time>2026-05-03T07:39:08.632Z</time></trkpt><trkpt lat="44.0555297" lon="11.8473098"><ele>327.0</ele><time>2026-05-03T07:39:10.632Z</time></trkpt><trkpt lat="44.0555637" lon="11.8474176"><ele>327.0</ele><time>2026-05-03T07:39:13.648Z</time></trkpt><trkpt lat="44.0555184" lon="11.8474954"><ele>327.0</ele><time>2026-05-03T07:39:15.646Z</time></trkpt><trkpt lat="44.0554423" lon="11.8475543"><ele>327.0</ele><time>2026-05-03T07:39:17.648Z</time></trkpt><trkpt lat="44.0553465" lon="11.8475609"><ele>327.0</ele><time>2026-05-03T07:39:19.651Z</time></trkpt><trkpt lat="44.0552464" lon="11.8475119"><ele>327.0</ele><time>2026-05-03T07:39:21.635Z</time></trkpt><trkpt lat="44.0551597" lon="11.8474231"><ele>327.0</ele><time>2026-05-03T07:39:23.635Z</time></trkpt><trkpt lat="44.0550999" lon="11.8473082"><ele>327.0</ele><time>2026-05-03T07:39:25.653Z</time></trkpt><trkpt lat="44.0550214" lon="11.8472453"><ele>327.0</ele><time>2026-05-03T07:39:27.639Z</time></trkpt><trkpt lat="44.0549279" lon="11.8472671"><ele>327.0</ele><time>2026-05-03T07:39:29.647Z</time></trkpt><trkpt lat="44.0548312" lon="11.8473172"><ele>327.0</ele><time>2026-05-03T07:39:31.641Z</time></trkpt><trkpt lat="44.0547377" lon="11.8473673"><ele>327.6</ele><time>2026-05-03T07:39:33.648Z</time></trkpt><trkpt lat="44.0546468" lon="11.8474094"><ele>328.20000000000005</ele><time>2026-05-03T07:39:35.65Z</time></trkpt><trkpt lat="44.054553" lon="11.8474455"><ele>328.8</ele><time>2026-05-03T07:39:37.637Z</time></trkpt><trkpt lat="44.0544487" lon="11.8475101"><ele>329.4</ele><time>2026-05-03T07:39:39.636Z</time></trkpt><trkpt lat="44.0543539" lon="11.8475666"><ele>330.0</ele><time>2026-05-03T07:39:41.639Z</time></trkpt><trkpt lat="44.0542498" lon="11.8476415"><ele>330.0</ele><time>2026-05-03T07:39:43.64Z</time></trkpt><trkpt lat="44.0541985" lon="11.8476946"><ele>330.0</ele><time>2026-05-03T07:39:44.634Z</time></trkpt><trkpt lat="44.0541142" lon="11.847822"><ele>330.0</ele><time>2026-05-03T07:39:46.63Z</time></trkpt><trkpt lat="44.0540532" lon="11.8479417"><ele>330.0</ele><time>2026-05-03T07:39:48.638Z</time></trkpt><trkpt lat="44.0540017" lon="11.8480455"><ele>330.0</ele><time>2026-05-03T07:39:50.634Z</time></trkpt><trkpt lat="44.0539435" lon="11.8481355"><ele>333.8333333333333</ele><time>2026-05-03T07:39:52.641Z</time></trkpt><trkpt lat="44.0538774" lon="11.8482229"><ele>337.6666666666667</ele><time>2026-05-03T07:39:54.636Z</time></trkpt><trkpt lat="44.0538133" lon="11.8482966"><ele>341.5</ele><time>2026-05-03T07:39:56.641Z</time></trkpt><trkpt lat="44.0537471" lon="11.8483651"><ele>345.33333333333337</ele><time>2026-05-03T07:39:58.63Z</time></trkpt><trkpt lat="44.0536831" lon="11.8484288"><ele>349.1666666666667</ele><time>2026-05-03T07:40:00.632Z</time></trkpt><trkpt lat="44.0536369" lon="11.8485101"><ele>353.0</ele><time>2026-05-03T07:40:02.633Z</time></trkpt><trkpt lat="44.0535762" lon="11.8486034"><ele>353.0</ele><time>2026-05-03T07:40:04.635Z</time></trkpt><trkpt lat="44.0535218" lon="11.8487249"><ele>353.0</ele><time>2026-05-03T07:40:06.634Z</time></trkpt><trkpt lat="44.0534702" lon="11.8488479"><ele>353.0</ele><time>2026-05-03T07:40:08.646Z</time></trkpt><trkpt lat="44.0534253" lon="11.8489588"><ele>353.0</ele><time>2026-05-03T07:40:10.633Z</time></trkpt><trkpt lat="44.053391" lon="11.8490647"><ele>353.0</ele><time>2026-05-03T07:40:12.634Z</time></trkpt><trkpt lat="44.0533609" lon="11.8491693"><ele>353.0</ele><time>2026-05-03T07:40:14.633Z</time></trkpt><trkpt lat="44.0533129" lon="11.8492647"><ele>353.0</ele><time>2026-05-03T07:40:16.633Z</time></trkpt><trkpt lat="44.0532742" lon="11.8493519"><ele>353.0</ele><time>2026-05-03T07:40:18.635Z</time></trkpt><trkpt lat="44.0532414" lon="11.8494416"><ele>353.0</ele><time>2026-05-03T07:40:20.638Z</time></trkpt><trkpt lat="44.0532048" lon="11.8495216"><ele>353.0</ele><time>2026-05-03T07:40:22.635Z</time></trkpt><trkpt lat="44.0531568" lon="11.8496264"><ele>353.0</ele><time>2026-05-03T07:40:25.642Z</time></trkpt><trkpt lat="44.0531076" lon="11.8497026"><ele>353.83333333333337</ele><time>2026-05-03T07:40:28.658Z</time></trkpt><trkpt lat="44.0530567" lon="11.8497649"><ele>354.6666666666667</ele><time>2026-05-03T07:40:31.634Z</time></trkpt><trkpt lat="44.053004" lon="11.8498598"><ele>355.5</ele><time>2026-05-03T07:40:35.637Z</time></trkpt><trkpt lat="44.0529208" lon="11.8499025"><ele>356.3333333333333</ele><time>2026-05-03T07:40:38.638Z</time></trkpt><trkpt lat="44.0528425" lon="11.8499036"><ele>357.16666666666663</ele><time>2026-05-03T07:40:40.637Z</time></trkpt><trkpt lat="44.0527534" lon="11.8498877"><ele>358.0</ele><time>2026-05-03T07:40:42.63Z</time></trkpt><trkpt lat="44.0526747" lon="11.8498712"><ele>358.00000000000006</ele><time>2026-05-03T07:40:44.633Z</time></trkpt><trkpt lat="44.0526003" lon="11.8498691"><ele>358.0</ele><time>2026-05-03T07:40:46.63Z</time></trkpt><trkpt lat="44.0525258" lon="11.8498811"><ele>358.0</ele><time>2026-05-03T07:40:48.632Z</time></trkpt><trkpt lat="44.0524591" lon="11.8499096"><ele>358.0</ele><time>2026-05-03T07:40:50.635Z</time></trkpt><trkpt lat="44.0523932" lon="11.8499588"><ele>358.0</ele><time>2026-05-03T07:40:52.635Z</time></trkpt><trkpt lat="44.0523299" lon="11.8500058"><ele>358.00000000000006</ele><time>2026-05-03T07:40:54.637Z</time></trkpt><trkpt lat="44.0522738" lon="11.8500545"><ele>358.0</ele><time>2026-05-03T07:40:56.642Z</time></trkpt><trkpt lat="44.0522168" lon="11.850108"><ele>357.14285714285717</ele><time>2026-05-03T07:40:58.636Z</time></trkpt><trkpt lat="44.0521583" lon="11.8501543"><ele>356.2857142857143</ele><time>2026-05-03T07:41:00.639Z</time></trkpt><trkpt lat="44.0521009" lon="11.8502035"><ele>355.42857142857144</ele><time>2026-05-03T07:41:02.637Z</time></trkpt><trkpt lat="44.0520382" lon="11.8502555"><ele>354.57142857142856</ele><time>2026-05-03T07:41:04.642Z</time></trkpt><trkpt lat="44.0519725" lon="11.8503167"><ele>353.7142857142857</ele><time>2026-05-03T07:41:06.639Z</time></trkpt><trkpt lat="44.0519009" lon="11.8503485"><ele>352.8571428571429</ele><time>2026-05-03T07:41:08.638Z</time></trkpt><trkpt lat="44.0518284" lon="11.85035"><ele>352.0</ele><time>2026-05-03T07:41:10.645Z</time></trkpt><trkpt lat="44.0517464" lon="11.8503378"><ele>352.0</ele><time>2026-05-03T07:41:12.654Z</time></trkpt><trkpt lat="44.0516422" lon="11.8503253"><ele>352.0</ele><time>2026-05-03T07:41:14.648Z</time></trkpt><trkpt lat="44.0515331" lon="11.8503055"><ele>352.0</ele><time>2026-05-03T07:41:16.635Z</time></trkpt><trkpt lat="44.0514096" lon="11.8502846"><ele>352.0</ele><time>2026-05-03T07:41:18.634Z</time></trkpt><trkpt lat="44.0513429" lon="11.8502881"><ele>352.0</ele><time>2026-05-03T07:41:19.63Z</time></trkpt><trkpt lat="44.0512731" lon="11.8503006"><ele>352.0</ele><time>2026-05-03T07:41:20.638Z</time></trkpt><trkpt lat="44.0511986" lon="11.8503158"><ele>352.0</ele><time>2026-05-03T07:41:21.639Z</time></trkpt><trkpt lat="44.0511207" lon="11.8503335"><ele>352.0</ele><time>2026-05-03T07:41:22.638Z</time></trkpt><trkpt lat="44.0510452" lon="11.8503457"><ele>352.0</ele><time>2026-05-03T07:41:23.637Z</time></trkpt><trkpt lat="44.0509669" lon="11.8503683"><ele>352.0</ele><time>2026-05-03T07:41:24.635Z</time></trkpt><trkpt lat="44.050892" lon="11.8504067"><ele>352.0</ele><time>2026-05-03T07:41:25.642Z</time></trkpt><trkpt lat="44.050832" lon="11.8504532"><ele>354.3333333333333</ele><time>2026-05-03T07:41:26.641Z</time></trkpt><trkpt lat="44.0507538" lon="11.8505467"><ele>356.66666666666663</ele><time>2026-05-03T07:41:28.644Z</time></trkpt><trkpt lat="44.050676" lon="11.8506073"><ele>359.0</ele><time>2026-05-03T07:41:30.656Z</time></trkpt><trkpt lat="44.050602" lon="11.8506383"><ele>361.3333333333333</ele><time>2026-05-03T07:41:32.644Z</time></trkpt><trkpt lat="44.0505464" lon="11.850702"><ele>363.6666666666667</ele><time>2026-05-03T07:41:35.646Z</time></trkpt><trkpt lat="44.0505005" lon="11.8507763"><ele>366.0</ele><time>2026-05-03T07:41:39.649Z</time></trkpt><trkpt lat="44.0504476" lon="11.8508515"><ele>366.0</ele><time>2026-05-03T07:41:43.649Z</time></trkpt><trkpt lat="44.0503974" lon="11.8509104"><ele>366.0</ele><time>2026-05-03T07:41:46.641Z</time></trkpt><trkpt lat="44.0503443" lon="11.8509676"><ele>366.0</ele><time>2026-05-03T07:41:49.646Z</time></trkpt><trkpt lat="44.0502748" lon="11.8510163"><ele>366.0</ele><time>2026-05-03T07:41:52.632Z</time></trkpt><trkpt lat="44.050179" lon="11.8510364"><ele>366.0</ele><time>2026-05-03T07:41:55.636Z</time></trkpt><trkpt lat="44.0500858" lon="11.8510162"><ele>366.0</ele><time>2026-05-03T07:41:58.631Z</time></trkpt><trkpt lat="44.0500015" lon="11.8509701"><ele>365.2857142857143</ele><time>2026-05-03T07:42:01.647Z</time></trkpt><trkpt lat="44.0499273" lon="11.8509255"><ele>364.57142857142856</ele><time>2026-05-03T07:42:04.629Z</time></trkpt><trkpt lat="44.0498559" lon="11.8508619"><ele>363.8571428571429</ele><time>2026-05-03T07:42:07.627Z</time></trkpt><trkpt lat="44.0498013" lon="11.8507957"><ele>363.1428571428571</ele><time>2026-05-03T07:42:10.629Z</time></trkpt><trkpt lat="44.0497512" lon="11.8507418"><ele>362.4285714285714</ele><time>2026-05-03T07:42:13.63Z</time></trkpt><trkpt lat="44.0496844" lon="11.8507068"><ele>361.7142857142857</ele><time>2026-05-03T07:42:17.629Z</time></trkpt><trkpt lat="44.0496371" lon="11.8506436"><ele>361.0</ele><time>2026-05-03T07:42:21.627Z</time></trkpt><trkpt lat="44.049581" lon="11.8505726"><ele>361.0</ele><time>2026-05-03T07:42:26.63Z</time></trkpt><trkpt lat="44.0495351" lon="11.8505094"><ele>361.0</ele><time>2026-05-03T07:42:30.635Z</time></trkpt><trkpt lat="44.0494766" lon="11.8504594"><ele>361.0</ele><time>2026-05-03T07:42:34.642Z</time></trkpt><trkpt lat="44.0494103" lon="11.8504076"><ele>361.0</ele><time>2026-05-03T07:42:38.631Z</time></trkpt><trkpt lat="44.0493419" lon="11.8503409"><ele>361.0</ele><time>2026-05-03T07:42:42.63Z</time></trkpt><trkpt lat="44.0492756" lon="11.8502769"><ele>361.0</ele><time>2026-05-03T07:42:46.636Z</time></trkpt><trkpt lat="44.0492248" lon="11.8502244"><ele>361.0</ele><time>2026-05-03T07:42:49.634Z</time></trkpt><trkpt lat="44.0491769" lon="11.8501662"><ele>365.7142857142857</ele><time>2026-05-03T07:42:53.64Z</time></trkpt><trkpt lat="44.0491171" lon="11.8501154"><ele>370.4285714285714</ele><time>2026-05-03T07:42:57.636Z</time></trkpt><trkpt lat="44.0490645" lon="11.8500605"><ele>375.1428571428571</ele><time>2026-05-03T07:43:01.648Z</time></trkpt><trkpt lat="44.0490055" lon="11.8500006"><ele>379.8571428571429</ele><time>2026-05-03T07:43:05.642Z</time></trkpt><trkpt lat="44.0489465" lon="11.8499474"><ele>384.57142857142856</ele><time>2026-05-03T07:43:09.647Z</time></trkpt><trkpt lat="44.0489036" lon="11.8498759"><ele>389.2857142857143</ele><time>2026-05-03T07:43:13.651Z</time></trkpt><trkpt lat="44.0488504" lon="11.8497968"><ele>394.0</ele><time>2026-05-03T07:43:17.645Z</time></trkpt><trkpt lat="44.0488085" lon="11.8497307"><ele>394.0</ele><time>2026-05-03T07:43:20.65Z</time></trkpt><trkpt lat="44.048748" lon="11.8496966"><ele>394.0</ele><time>2026-05-03T07:43:25.652Z</time></trkpt><trkpt lat="44.0486822" lon="11.8497212"><ele>394.0</ele><time>2026-05-03T07:43:29.646Z</time></trkpt><trkpt lat="44.0486186" lon="11.849721"><ele>394.0</ele><time>2026-05-03T07:43:33.666Z</time></trkpt><trkpt lat="44.0485495" lon="11.8497427"><ele>394.0</ele><time>2026-05-03T07:43:37.643Z</time></trkpt><trkpt lat="44.0484699" lon="11.8497563"><ele>394.0</ele><time>2026-05-03T07:43:41.644Z</time></trkpt><trkpt lat="44.0483845" lon="11.8497618"><ele>394.0</ele><time>2026-05-03T07:43:44.643Z</time></trkpt><trkpt lat="44.0483098" lon="11.8497573"><ele>396.7142857142857</ele><time>2026-05-03T07:43:47.641Z</time></trkpt><trkpt lat="44.0482209" lon="11.8497597"><ele>399.42857142857144</ele><time>2026-05-03T07:43:50.638Z</time></trkpt><trkpt lat="44.0481523" lon="11.8497493"><ele>402.1428571428571</ele><time>2026-05-03T07:43:53.636Z</time></trkpt><trkpt lat="44.0480777" lon="11.8497326"><ele>404.8571428571429</ele><time>2026-05-03T07:43:57.639Z</time></trkpt><trkpt lat="44.0480025" lon="11.8497102"><ele>407.57142857142856</ele><time>2026-05-03T07:44:02.643Z</time></trkpt><trkpt lat="44.0479372" lon="11.8496981"><ele>410.2857142857143</ele><time>2026-05-03T07:44:06.644Z</time></trkpt><trkpt lat="44.0478722" lon="11.8496685"><ele>413.0</ele><time>2026-05-03T07:44:11.647Z</time></trkpt><trkpt lat="44.0478054" lon="11.8496784"><ele>413.0</ele><time>2026-05-03T07:44:15.645Z</time></trkpt><trkpt lat="44.0477392" lon="11.8496671"><ele>413.0</ele><time>2026-05-03T07:44:19.642Z</time></trkpt><trkpt lat="44.0476747" lon="11.849634"><ele>413.0</ele><time>2026-05-03T07:44:25.648Z</time></trkpt><trkpt lat="44.0475987" lon="11.8496401"><ele>413.0</ele><time>2026-05-03T07:44:30.655Z</time></trkpt><trkpt lat="44.0475318" lon="11.8496696"><ele>413.0</ele><time>2026-05-03T07:44:34.646Z</time></trkpt><trkpt lat="44.0474561" lon="11.8496831"><ele>413.0</ele><time>2026-05-03T07:44:37.648Z</time></trkpt><trkpt lat="44.047382" lon="11.8496861"><ele>413.0</ele><time>2026-05-03T07:44:40.644Z</time></trkpt><trkpt lat="44.0473059" lon="11.8497144"><ele>415.7142857142857</ele><time>2026-05-03T07:44:44.656Z</time></trkpt><trkpt lat="44.0472438" lon="11.849773"><ele>418.42857142857144</ele><time>2026-05-03T07:44:47.649Z</time></trkpt><trkpt lat="44.0471913" lon="11.8498456"><ele>421.1428571428571</ele><time>2026-05-03T07:44:51.645Z</time></trkpt><trkpt lat="44.0471449" lon="11.8499136"><ele>423.8571428571429</ele><time>2026-05-03T07:44:55.651Z</time></trkpt><trkpt lat="44.0471178" lon="11.8500132"><ele>426.57142857142856</ele><time>2026-05-03T07:44:59.645Z</time></trkpt><trkpt lat="44.0470865" lon="11.8500928"><ele>429.2857142857143</ele><time>2026-05-03T07:45:02.636Z</time></trkpt><trkpt lat="44.0470312" lon="11.8501638"><ele>432.0</ele><time>2026-05-03T07:45:05.636Z</time></trkpt><trkpt lat="44.046982" lon="11.8502368"><ele>433.3333333333333</ele><time>2026-05-03T07:45:08.641Z</time></trkpt><trkpt lat="44.0469306" lon="11.8503124"><ele>434.66666666666663</ele><time>2026-05-03T07:45:11.635Z</time></trkpt><trkpt lat="44.0468795" lon="11.8504028"><ele>436.0</ele><time>2026-05-03T07:45:14.635Z</time></trkpt><trkpt lat="44.0468343" lon="11.850484"><ele>437.3333333333333</ele><time>2026-05-03T07:45:17.64Z</time></trkpt><trkpt lat="44.0467829" lon="11.8505533"><ele>438.66666666666663</ele><time>2026-05-03T07:45:20.64Z</time></trkpt><trkpt lat="44.0467342" lon="11.8506322"><ele>440.0</ele><time>2026-05-03T07:45:24.639Z</time></trkpt><trkpt lat="44.046673" lon="11.8506891"><ele>443.4285714285714</ele><time>2026-05-03T07:45:29.633Z</time></trkpt><trkpt lat="44.0466276" lon="11.8507614"><ele>446.8571428571429</ele><time>2026-05-03T07:45:33.637Z</time></trkpt><trkpt lat="44.0465915" lon="11.8508429"><ele>450.28571428571433</ele><time>2026-05-03T07:45:36.632Z</time></trkpt><trkpt lat="44.0465584" lon="11.8509322"><ele>453.7142857142857</ele><time>2026-05-03T07:45:39.631Z</time></trkpt><trkpt lat="44.0465328" lon="11.851014"><ele>457.14285714285717</ele><time>2026-05-03T07:45:42.628Z</time></trkpt><trkpt lat="44.0465287" lon="11.8511054"><ele>460.5714285714286</ele><time>2026-05-03T07:45:46.632Z</time></trkpt><trkpt lat="44.0465241" lon="11.8512073"><ele>464.00000000000006</ele><time>2026-05-03T07:45:51.636Z</time></trkpt><trkpt lat="44.0465521" lon="11.8512974"><ele>464.00000000000006</ele><time>2026-05-03T07:45:57.64Z</time></trkpt><trkpt lat="44.0465366" lon="11.8513943"><ele>464.0</ele><time>2026-05-03T07:46:02.635Z</time></trkpt><trkpt lat="44.0465148" lon="11.8514844"><ele>464.00000000000006</ele><time>2026-05-03T07:46:07.637Z</time></trkpt><trkpt lat="44.0464874" lon="11.8515659"><ele>464.00000000000006</ele><time>2026-05-03T07:46:13.638Z</time></trkpt><trkpt lat="44.0464672" lon="11.8516543"><ele>464.0</ele><time>2026-05-03T07:46:18.641Z</time></trkpt><trkpt lat="44.0464426" lon="11.8517537"><ele>464.00000000000006</ele><time>2026-05-03T07:46:24.642Z</time></trkpt><trkpt lat="44.0464177" lon="11.8518424"><ele>464.00000000000006</ele><time>2026-05-03T07:46:29.636Z</time></trkpt><trkpt lat="44.046398" lon="11.8519311"><ele>459.4285714285715</ele><time>2026-05-03T07:46:34.636Z</time></trkpt><trkpt lat="44.0463435" lon="11.8519944"><ele>454.8571428571429</ele><time>2026-05-03T07:46:39.654Z</time></trkpt><trkpt lat="44.0462813" lon="11.8520092"><ele>450.28571428571433</ele><time>2026-05-03T07:46:43.634Z</time></trkpt><trkpt lat="44.046205" lon="11.8520294"><ele>445.7142857142858</ele><time>2026-05-03T07:46:47.628Z</time></trkpt><trkpt lat="44.0461411" lon="11.8520142"><ele>441.1428571428571</ele><time>2026-05-03T07:46:50.628Z</time></trkpt><trkpt lat="44.0460641" lon="11.8519694"><ele>436.57142857142856</ele><time>2026-05-03T07:46:53.63Z</time></trkpt><trkpt lat="44.0459917" lon="11.8519492"><ele>432.0</ele><time>2026-05-03T07:46:56.624Z</time></trkpt><trkpt lat="44.0459093" lon="11.8519456"><ele>432.0</ele><time>2026-05-03T07:46:59.622Z</time></trkpt><trkpt lat="44.045832" lon="11.8519423"><ele>432.0</ele><time>2026-05-03T07:47:02.618Z</time></trkpt><trkpt lat="44.0457597" lon="11.8519343"><ele>432.0</ele><time>2026-05-03T07:47:05.617Z</time></trkpt><trkpt lat="44.0456664" lon="11.8519489"><ele>432.0</ele><time>2026-05-03T07:47:08.616Z</time></trkpt><trkpt lat="44.0456033" lon="11.8519492"><ele>432.0</ele><time>2026-05-03T07:47:10.648Z</time></trkpt><trkpt lat="44.0455314" lon="11.8519425"><ele>432.0</ele><time>2026-05-03T07:47:12.616Z</time></trkpt><trkpt lat="44.0454505" lon="11.8519567"><ele>437.3333333333333</ele><time>2026-05-03T07:47:15.622Z</time></trkpt><trkpt lat="44.045375" lon="11.8519883"><ele>442.66666666666663</ele><time>2026-05-03T07:47:18.622Z</time></trkpt><trkpt lat="44.0453121" lon="11.8520622"><ele>448.0</ele><time>2026-05-03T07:47:21.616Z</time></trkpt><trkpt lat="44.045242" lon="11.8521496"><ele>453.3333333333333</ele><time>2026-05-03T07:47:24.62Z</time></trkpt><trkpt lat="44.0451855" lon="11.8522286"><ele>458.66666666666663</ele><time>2026-05-03T07:47:26.619Z</time></trkpt><trkpt lat="44.0451272" lon="11.8523285"><ele>464.0</ele><time>2026-05-03T07:47:28.626Z</time></trkpt><trkpt lat="44.0450871" lon="11.8524727"><ele>464.0</ele><time>2026-05-03T07:47:30.624Z</time></trkpt><trkpt lat="44.0450312" lon="11.852613"><ele>464.0</ele><time>2026-05-03T07:47:32.623Z</time></trkpt><trkpt lat="44.0449767" lon="11.8527356"><ele>464.0</ele><time>2026-05-03T07:47:34.623Z</time></trkpt><trkpt lat="44.0449259" lon="11.852841"><ele>464.0</ele><time>2026-05-03T07:47:36.62Z</time></trkpt><trkpt lat="44.0448864" lon="11.8529322"><ele>464.0</ele><time>2026-05-03T07:47:38.622Z</time></trkpt><trkpt lat="44.0448597" lon="11.8530237"><ele>465.00000000000006</ele><time>2026-05-03T07:47:40.636Z</time></trkpt><trkpt lat="44.0448348" lon="11.8531116"><ele>466.0</ele><time>2026-05-03T07:47:42.626Z</time></trkpt><trkpt lat="44.0448201" lon="11.8532096"><ele>467.00000000000006</ele><time>2026-05-03T07:47:44.624Z</time></trkpt><trkpt lat="44.0447924" lon="11.853299"><ele>468.00000000000006</ele><time>2026-05-03T07:47:46.622Z</time></trkpt><trkpt lat="44.0447616" lon="11.853382"><ele>469.0</ele><time>2026-05-03T07:47:48.621Z</time></trkpt><trkpt lat="44.0447199" lon="11.8534499"><ele>470.00000000000006</ele><time>2026-05-03T07:47:50.623Z</time></trkpt><trkpt lat="44.0446726" lon="11.8535578"><ele>471.00000000000006</ele><time>2026-05-03T07:47:53.622Z</time></trkpt><trkpt lat="44.0446445" lon="11.853646"><ele>471.0</ele><time>2026-05-03T07:47:55.631Z</time></trkpt><trkpt lat="44.0446274" lon="11.8537437"><ele>471.0</ele><time>2026-05-03T07:47:57.623Z</time></trkpt><trkpt lat="44.0446046" lon="11.8538375"><ele>471.0</ele><time>2026-05-03T07:47:59.628Z</time></trkpt><trkpt lat="44.0445826" lon="11.8539321"><ele>471.0</ele><time>2026-05-03T07:48:01.628Z</time></trkpt><trkpt lat="44.0445515" lon="11.8540277"><ele>471.0</ele><time>2026-05-03T07:48:03.623Z</time></trkpt><trkpt lat="44.044506" lon="11.8541078"><ele>471.0</ele><time>2026-05-03T07:48:05.625Z</time></trkpt><trkpt lat="44.0444336" lon="11.8541808"><ele>471.0</ele><time>2026-05-03T07:48:07.628Z</time></trkpt><trkpt lat="44.0443492" lon="11.8542224"><ele>471.0</ele><time>2026-05-03T07:48:09.628Z</time></trkpt><trkpt lat="44.0442396" lon="11.8542772"><ele>471.0</ele><time>2026-05-03T07:48:11.644Z</time></trkpt><trkpt lat="44.0441355" lon="11.8543496"><ele>471.0</ele><time>2026-05-03T07:48:13.616Z</time></trkpt><trkpt lat="44.0440491" lon="11.8544174"><ele>471.0</ele><time>2026-05-03T07:48:15.628Z</time></trkpt><trkpt lat="44.0439848" lon="11.854505"><ele>468.8333333333333</ele><time>2026-05-03T07:48:17.626Z</time></trkpt><trkpt lat="44.0439152" lon="11.8545988"><ele>466.66666666666663</ele><time>2026-05-03T07:48:20.641Z</time></trkpt><trkpt lat="44.0438589" lon="11.8546495"><ele>464.5</ele><time>2026-05-03T07:48:22.637Z</time></trkpt><trkpt lat="44.0438" lon="11.8546849"><ele>462.3333333333333</ele><time>2026-05-03T07:48:24.635Z</time></trkpt><trkpt lat="44.043718" lon="11.8547262"><ele>460.16666666666663</ele><time>2026-05-03T07:48:26.631Z</time></trkpt><trkpt lat="44.0436519" lon="11.8547952"><ele>458.0</ele><time>2026-05-03T07:48:28.635Z</time></trkpt><trkpt lat="44.0436178" lon="11.8548771"><ele>458.0</ele><time>2026-05-03T07:48:30.632Z</time></trkpt><trkpt lat="44.043579" lon="11.8549702"><ele>458.0</ele><time>2026-05-03T07:48:32.634Z</time></trkpt><trkpt lat="44.0435457" lon="11.8550449"><ele>458.0</ele><time>2026-05-03T07:48:34.646Z</time></trkpt><trkpt lat="44.0435057" lon="11.8551479"><ele>458.0</ele><time>2026-05-03T07:48:37.639Z</time></trkpt><trkpt lat="44.0434546" lon="11.8552037"><ele>458.0</ele><time>2026-05-03T07:48:40.638Z</time></trkpt><trkpt lat="44.0433968" lon="11.855276"><ele>458.0</ele><time>2026-05-03T07:48:43.638Z</time></trkpt><trkpt lat="44.0433726" lon="11.8553802"><ele>458.0</ele><time>2026-05-03T07:48:46.637Z</time></trkpt><trkpt lat="44.0433675" lon="11.8554765"><ele>459.3333333333333</ele><time>2026-05-03T07:48:50.635Z</time></trkpt><trkpt lat="44.0433607" lon="11.8553321"><ele>460.66666666666663</ele><time>2026-05-03T07:49:08.629Z</time></trkpt><trkpt lat="44.0433494" lon="11.855214"><ele>462.0</ele><time>2026-05-03T07:49:10.628Z</time></trkpt><trkpt lat="44.0432927" lon="11.8551648"><ele>463.33333333333337</ele><time>2026-05-03T07:49:12.632Z</time></trkpt><trkpt lat="44.0432317" lon="11.8551306"><ele>464.6666666666667</ele><time>2026-05-03T07:49:14.631Z</time></trkpt><trkpt lat="44.0431728" lon="11.8550706"><ele>466.0</ele><time>2026-05-03T07:49:16.63Z</time></trkpt><trkpt lat="44.0431234" lon="11.8549429"><ele>460.4</ele><time>2026-05-03T07:49:18.621Z</time></trkpt><trkpt lat="44.0430622" lon="11.8548094"><ele>454.8</ele><time>2026-05-03T07:49:20.616Z</time></trkpt><trkpt lat="44.0429976" lon="11.8546995"><ele>449.19999999999993</ele><time>2026-05-03T07:49:22.621Z</time></trkpt><trkpt lat="44.0429571" lon="11.854555"><ele>443.59999999999997</ele><time>2026-05-03T07:49:24.62Z</time></trkpt><trkpt lat="44.0429345" lon="11.8544557"><ele>438.0</ele><time>2026-05-03T07:49:25.617Z</time></trkpt><trkpt lat="44.042896" lon="11.854335"><ele>436.0</ele><time>2026-05-03T07:49:26.614Z</time></trkpt><trkpt lat="44.0428439" lon="11.8542109"><ele>433.99999999999994</ele><time>2026-05-03T07:49:27.618Z</time></trkpt><trkpt lat="44.0427848" lon="11.8540848"><ele>431.99999999999994</ele><time>2026-05-03T07:49:28.621Z</time></trkpt><trkpt lat="44.0427314" lon="11.8539738"><ele>430.0</ele><time>2026-05-03T07:49:29.617Z</time></trkpt><trkpt lat="44.0426792" lon="11.8538782"><ele>428.0</ele><time>2026-05-03T07:49:30.619Z</time></trkpt><trkpt lat="44.0426384" lon="11.8538108"><ele>428.0</ele><time>2026-05-03T07:49:31.62Z</time></trkpt><trkpt lat="44.0425605" lon="11.8537083"><ele>427.99999999999994</ele><time>2026-05-03T07:49:33.617Z</time></trkpt><trkpt lat="44.0424822" lon="11.8535855"><ele>427.99999999999994</ele><time>2026-05-03T07:49:35.613Z</time></trkpt><trkpt lat="44.0424259" lon="11.8534311"><ele>428.0</ele><time>2026-05-03T07:49:37.617Z</time></trkpt><trkpt lat="44.0424" lon="11.8533208"><ele>428.0</ele><time>2026-05-03T07:49:39.617Z</time></trkpt><trkpt lat="44.0423508" lon="11.8534018"><ele>423.79999999999995</ele><time>2026-05-03T07:49:42.623Z</time></trkpt><trkpt lat="44.0423232" lon="11.8535679"><ele>419.59999999999997</ele><time>2026-05-03T07:49:44.631Z</time></trkpt><trkpt lat="44.042307" lon="11.8536631"><ele>415.4</ele><time>2026-05-03T07:49:45.614Z</time></trkpt><trkpt lat="44.0422929" lon="11.8537497"><ele>411.20000000000005</ele><time>2026-05-03T07:49:46.618Z</time></trkpt><trkpt lat="44.0422678" lon="11.8539018"><ele>407.0</ele><time>2026-05-03T07:49:48.605Z</time></trkpt><trkpt lat="44.0422032" lon="11.85403"><ele>406.99999999999994</ele><time>2026-05-03T07:49:50.607Z</time></trkpt><trkpt lat="44.0421185" lon="11.8541102"><ele>407.0</ele><time>2026-05-03T07:49:52.597Z</time></trkpt><trkpt lat="44.0420076" lon="11.8541032"><ele>407.0</ele><time>2026-05-03T07:49:54.601Z</time></trkpt><trkpt lat="44.0419455" lon="11.8540774"><ele>407.0</ele><time>2026-05-03T07:49:55.609Z</time></trkpt><trkpt lat="44.0418774" lon="11.8540342"><ele>406.99999999999994</ele><time>2026-05-03T07:49:56.605Z</time></trkpt><trkpt lat="44.0418038" lon="11.8539721"><ele>407.0</ele><time>2026-05-03T07:49:57.605Z</time></trkpt><trkpt lat="44.0417297" lon="11.8539105"><ele>406.99999999999994</ele><time>2026-05-03T07:49:58.605Z</time></trkpt><trkpt lat="44.041653" lon="11.8538741"><ele>407.0</ele><time>2026-05-03T07:49:59.605Z</time></trkpt><trkpt lat="44.0415771" lon="11.8538561"><ele>407.0</ele><time>2026-05-03T07:50:00.615Z</time></trkpt><trkpt lat="44.0415028" lon="11.8538434"><ele>407.0</ele><time>2026-05-03T07:50:01.607Z</time></trkpt><trkpt lat="44.0414386" lon="11.8538451"><ele>406.99999999999994</ele><time>2026-05-03T07:50:02.595Z</time></trkpt><trkpt lat="44.041375" lon="11.8538517"><ele>407.0</ele><time>2026-05-03T07:50:03.601Z</time></trkpt><trkpt lat="44.0412622" lon="11.8538991"><ele>405.49999999999994</ele><time>2026-05-03T07:50:05.605Z</time></trkpt><trkpt lat="44.0411594" lon="11.8539005"><ele>404.0</ele><time>2026-05-03T07:50:07.604Z</time></trkpt><trkpt lat="44.0410511" lon="11.8538009"><ele>402.5</ele><time>2026-05-03T07:50:09.599Z</time></trkpt><trkpt lat="44.0410118" lon="11.8537207"><ele>401.0</ele><time>2026-05-03T07:50:10.601Z</time></trkpt><trkpt lat="44.0409849" lon="11.8536295"><ele>399.49999999999994</ele><time>2026-05-03T07:50:11.602Z</time></trkpt><trkpt lat="44.040964" lon="11.8535379"><ele>398.0</ele><time>2026-05-03T07:50:12.606Z</time></trkpt><trkpt lat="44.0409642" lon="11.8533725"><ele>397.99999999999994</ele><time>2026-05-03T07:50:14.608Z</time></trkpt><trkpt lat="44.0409869" lon="11.8532558"><ele>398.0</ele><time>2026-05-03T07:50:16.617Z</time></trkpt><trkpt lat="44.0409999" lon="11.8531525"><ele>398.0</ele><time>2026-05-03T07:50:18.621Z</time></trkpt><trkpt lat="44.0409959" lon="11.8530416"><ele>398.0</ele><time>2026-05-03T07:50:20.624Z</time></trkpt><trkpt lat="44.0409644" lon="11.8529368"><ele>397.99999999999994</ele><time>2026-05-03T07:50:22.627Z</time></trkpt><trkpt lat="44.0409148" lon="11.8528623"><ele>398.0</ele><time>2026-05-03T07:50:24.623Z</time></trkpt><trkpt lat="44.0408701" lon="11.852773"><ele>397.99999999999994</ele><time>2026-05-03T07:50:27.627Z</time></trkpt><trkpt lat="44.0408428" lon="11.8526825"><ele>398.0</ele><time>2026-05-03T07:50:31.631Z</time></trkpt><trkpt lat="44.0408565" lon="11.8525768"><ele>398.0</ele><time>2026-05-03T07:50:36.633Z</time></trkpt><trkpt lat="44.0408895" lon="11.8524778"><ele>398.0</ele><time>2026-05-03T07:50:41.633Z</time></trkpt><trkpt lat="44.0409039" lon="11.8523921"><ele>398.0</ele><time>2026-05-03T07:50:45.631Z</time></trkpt><trkpt lat="44.0408822" lon="11.8522984"><ele>397.99999999999994</ele><time>2026-05-03T07:50:49.63Z</time></trkpt><trkpt lat="44.0408321" lon="11.8522132"><ele>398.0</ele><time>2026-05-03T07:50:52.63Z</time></trkpt><trkpt lat="44.0407623" lon="11.8521581"><ele>401.79999999999995</ele><time>2026-05-03T07:50:55.631Z</time></trkpt><trkpt lat="44.0406937" lon="11.8521273"><ele>405.6</ele><time>2026-05-03T07:50:59.626Z</time></trkpt><trkpt lat="44.040627" lon="11.8520934"><ele>409.4</ele><time>2026-05-03T07:51:01.622Z</time></trkpt><trkpt lat="44.0405386" lon="11.8520757"><ele>413.20000000000005</ele><time>2026-05-03T07:51:03.618Z</time></trkpt><trkpt lat="44.0404214" lon="11.8521005"><ele>417.0</ele><time>2026-05-03T07:51:05.612Z</time></trkpt><trkpt lat="44.0403162" lon="11.8520696"><ele>417.0</ele><time>2026-05-03T07:51:07.609Z</time></trkpt><trkpt lat="44.0402647" lon="11.8519845"><ele>417.0</ele><time>2026-05-03T07:51:09.621Z</time></trkpt><trkpt lat="44.0402793" lon="11.8518671"><ele>417.0</ele><time>2026-05-03T07:51:11.616Z</time></trkpt><trkpt lat="44.0403272" lon="11.8517262"><ele>417.0</ele><time>2026-05-03T07:51:13.619Z</time></trkpt><trkpt lat="44.0403723" lon="11.8515678"><ele>417.0</ele><time>2026-05-03T07:51:15.608Z</time></trkpt><trkpt lat="44.0403833" lon="11.8514749"><ele>414.0</ele><time>2026-05-03T07:51:16.606Z</time></trkpt><trkpt lat="44.0403792" lon="11.8513796"><ele>411.0</ele><time>2026-05-03T07:51:17.622Z</time></trkpt><trkpt lat="44.0403648" lon="11.8512942"><ele>408.0</ele><time>2026-05-03T07:51:18.607Z</time></trkpt><trkpt lat="44.0403166" lon="11.8511687"><ele>405.0</ele><time>2026-05-03T07:51:20.605Z</time></trkpt><trkpt lat="44.0402999" lon="11.851074"><ele>402.0</ele><time>2026-05-03T07:51:22.617Z</time></trkpt><trkpt lat="44.0403812" lon="11.8510131"><ele>399.0</ele><time>2026-05-03T07:51:25.617Z</time></trkpt><trkpt lat="44.0404798" lon="11.8510037"><ele>399.0</ele><time>2026-05-03T07:51:27.609Z</time></trkpt><trkpt lat="44.0405811" lon="11.8509608"><ele>399.0</ele><time>2026-05-03T07:51:29.611Z</time></trkpt><trkpt lat="44.0406616" lon="11.850921"><ele>399.0</ele><time>2026-05-03T07:51:31.617Z</time></trkpt><trkpt lat="44.0407194" lon="11.8508731"><ele>399.0</ele><time>2026-05-03T07:51:33.624Z</time></trkpt><trkpt lat="44.0407194" lon="11.8507634"><ele>399.0</ele><time>2026-05-03T07:51:36.622Z</time></trkpt><trkpt lat="44.0407028" lon="11.850673"><ele>399.0</ele><time>2026-05-03T07:51:38.622Z</time></trkpt><trkpt lat="44.0406745" lon="11.8505674"><ele>398.2</ele><time>2026-05-03T07:51:40.628Z</time></trkpt><trkpt lat="44.0406125" lon="11.8504375"><ele>397.4</ele><time>2026-05-03T07:51:42.621Z</time></trkpt><trkpt lat="44.0405438" lon="11.8503057"><ele>396.6</ele><time>2026-05-03T07:51:44.618Z</time></trkpt><trkpt lat="44.0404949" lon="11.8501598"><ele>395.8</ele><time>2026-05-03T07:51:46.613Z</time></trkpt><trkpt lat="44.0404707" lon="11.85004"><ele>395.0</ele><time>2026-05-03T07:51:48.661Z</time></trkpt><trkpt lat="44.0404587" lon="11.8499481"><ele>394.99999999999994</ele><time>2026-05-03T07:51:50.631Z</time></trkpt><trkpt lat="44.0404639" lon="11.8498597"><ele>395.0</ele><time>2026-05-03T07:51:52.622Z</time></trkpt><trkpt lat="44.0404856" lon="11.8497428"><ele>395.0</ele><time>2026-05-03T07:51:57.632Z</time></trkpt><trkpt lat="44.0404779" lon="11.8496361"><ele>395.0</ele><time>2026-05-03T07:52:01.632Z</time></trkpt><trkpt lat="44.0405034" lon="11.8495279"><ele>394.99999999999994</ele><time>2026-05-03T07:52:05.629Z</time></trkpt><trkpt lat="44.0405252" lon="11.8494265"><ele>395.0</ele><time>2026-05-03T07:52:09.625Z</time></trkpt><trkpt lat="44.0405345" lon="11.8493353"><ele>392.3333333333333</ele><time>2026-05-03T07:52:12.628Z</time></trkpt><trkpt lat="44.0405218" lon="11.849236"><ele>389.66666666666663</ele><time>2026-05-03T07:52:16.636Z</time></trkpt><trkpt lat="44.0404857" lon="11.849161"><ele>387.0</ele><time>2026-05-03T07:52:19.629Z</time></trkpt><trkpt lat="44.0404128" lon="11.8490765"><ele>384.3333333333333</ele><time>2026-05-03T07:52:22.626Z</time></trkpt><trkpt lat="44.0403517" lon="11.8490359"><ele>381.66666666666663</ele><time>2026-05-03T07:52:24.622Z</time></trkpt><trkpt lat="44.040286" lon="11.848964"><ele>379.0</ele><time>2026-05-03T07:52:28.622Z</time></trkpt><trkpt lat="44.0402964" lon="11.8488645"><ele>379.0</ele><time>2026-05-03T07:52:31.628Z</time></trkpt><trkpt lat="44.040337" lon="11.8487885"><ele>379.0</ele><time>2026-05-03T07:52:34.618Z</time></trkpt><trkpt lat="44.04043" lon="11.8487665"><ele>379.0</ele><time>2026-05-03T07:52:36.612Z</time></trkpt><trkpt lat="44.040507" lon="11.8486425"><ele>379.0</ele><time>2026-05-03T07:52:38.596Z</time></trkpt><trkpt lat="44.0405352" lon="11.8485579"><ele>379.0</ele><time>2026-05-03T07:52:39.602Z</time></trkpt><trkpt lat="44.0405514" lon="11.8484492"><ele>379.0</ele><time>2026-05-03T07:52:40.603Z</time></trkpt><trkpt lat="44.0405605" lon="11.8483399"><ele>374.8333333333333</ele><time>2026-05-03T07:52:41.605Z</time></trkpt><trkpt lat="44.0405699" lon="11.8482325"><ele>370.66666666666663</ele><time>2026-05-03T07:52:42.604Z</time></trkpt><trkpt lat="44.0405558" lon="11.8481454"><ele>366.5</ele><time>2026-05-03T07:52:43.604Z</time></trkpt><trkpt lat="44.0404705" lon="11.8480821"><ele>362.3333333333333</ele><time>2026-05-03T07:52:45.608Z</time></trkpt><trkpt lat="44.0404064" lon="11.8480995"><ele>358.1666666666667</ele><time>2026-05-03T07:52:46.615Z</time></trkpt><trkpt lat="44.0402861" lon="11.84813"><ele>354.0</ele><time>2026-05-03T07:52:48.602Z</time></trkpt><trkpt lat="44.0401928" lon="11.8481248"><ele>354.0</ele><time>2026-05-03T07:52:50.609Z</time></trkpt><trkpt lat="44.0401599" lon="11.8480356"><ele>354.0</ele><time>2026-05-03T07:52:52.614Z</time></trkpt><trkpt lat="44.0401657" lon="11.847942"><ele>354.0</ele><time>2026-05-03T07:52:54.617Z</time></trkpt><trkpt lat="44.0401764" lon="11.8478356"><ele>354.0</ele><time>2026-05-03T07:52:57.618Z</time></trkpt><trkpt lat="44.0401742" lon="11.8477274"><ele>354.0</ele><time>2026-05-03T07:53:00.619Z</time></trkpt><trkpt lat="44.0401586" lon="11.8476411"><ele>354.0</ele><time>2026-05-03T07:53:03.622Z</time></trkpt><trkpt lat="44.0401397" lon="11.8475572"><ele>354.0</ele><time>2026-05-03T07:53:06.627Z</time></trkpt><trkpt lat="44.0401226" lon="11.8474516"><ele>353.7142857142857</ele><time>2026-05-03T07:53:10.624Z</time></trkpt><trkpt lat="44.0401114" lon="11.8473551"><ele>353.4285714285714</ele><time>2026-05-03T07:53:13.623Z</time></trkpt><trkpt lat="44.0401049" lon="11.8472631"><ele>353.1428571428571</ele><time>2026-05-03T07:53:16.625Z</time></trkpt><trkpt lat="44.0401089" lon="11.8471679"><ele>352.8571428571429</ele><time>2026-05-03T07:53:19.624Z</time></trkpt><trkpt lat="44.0400933" lon="11.847082"><ele>352.57142857142856</ele><time>2026-05-03T07:53:22.621Z</time></trkpt><trkpt lat="44.0400626" lon="11.8469861"><ele>352.2857142857143</ele><time>2026-05-03T07:53:27.62Z</time></trkpt><trkpt lat="44.0400167" lon="11.846923"><ele>352.0</ele><time>2026-05-03T07:53:32.624Z</time></trkpt><trkpt lat="44.0399779" lon="11.8468538"><ele>355.57142857142856</ele><time>2026-05-03T07:53:36.621Z</time></trkpt><trkpt lat="44.0399469" lon="11.8467581"><ele>359.1428571428571</ele><time>2026-05-03T07:53:41.621Z</time></trkpt><trkpt lat="44.0399029" lon="11.8466649"><ele>362.71428571428567</ele><time>2026-05-03T07:53:46.623Z</time></trkpt><trkpt lat="44.0398568" lon="11.8465858"><ele>366.2857142857143</ele><time>2026-05-03T07:53:51.641Z</time></trkpt><trkpt lat="44.0398163" lon="11.846505"><ele>369.85714285714283</ele><time>2026-05-03T07:53:56.626Z</time></trkpt><trkpt lat="44.0397865" lon="11.8464226"><ele>373.4285714285714</ele><time>2026-05-03T07:54:00.628Z</time></trkpt><trkpt lat="44.039743" lon="11.8463561"><ele>377.0</ele><time>2026-05-03T07:54:05.635Z</time></trkpt><trkpt lat="44.0396966" lon="11.8462878"><ele>376.99999999999994</ele><time>2026-05-03T07:54:09.623Z</time></trkpt><trkpt lat="44.0396431" lon="11.8462238"><ele>377.0</ele><time>2026-05-03T07:54:13.618Z</time></trkpt><trkpt lat="44.039616" lon="11.8461306"><ele>377.0</ele><time>2026-05-03T07:54:19.624Z</time></trkpt><trkpt lat="44.0395973" lon="11.8460258"><ele>377.0</ele><time>2026-05-03T07:54:23.618Z</time></trkpt><trkpt lat="44.0396258" lon="11.8459374"><ele>377.0</ele><time>2026-05-03T07:54:27.62Z</time></trkpt><trkpt lat="44.0396862" lon="11.8458696"><ele>376.99999999999994</ele><time>2026-05-03T07:54:30.616Z</time></trkpt><trkpt lat="44.0397276" lon="11.8457775"><ele>377.0</ele><time>2026-05-03T07:54:35.625Z</time></trkpt><trkpt lat="44.0397209" lon="11.8456781"><ele>379.4285714285714</ele><time>2026-05-03T07:54:39.636Z</time></trkpt><trkpt lat="44.0397112" lon="11.845574"><ele>381.85714285714283</ele><time>2026-05-03T07:54:43.623Z</time></trkpt><trkpt lat="44.0396963" lon="11.8454862"><ele>384.2857142857143</ele><time>2026-05-03T07:54:48.64Z</time></trkpt><trkpt lat="44.039677" lon="11.845398"><ele>386.71428571428567</ele><time>2026-05-03T07:54:53.659Z</time></trkpt><trkpt lat="44.0396561" lon="11.8453005"><ele>389.14285714285717</ele><time>2026-05-03T07:54:59.642Z</time></trkpt><trkpt lat="44.039677" lon="11.8451904"><ele>391.57142857142856</ele><time>2026-05-03T07:55:03.637Z</time></trkpt><trkpt lat="44.0396464" lon="11.8451042"><ele>394.0</ele><time>2026-05-03T07:55:07.651Z</time></trkpt><trkpt lat="44.0396425" lon="11.8450033"><ele>396.7142857142857</ele><time>2026-05-03T07:55:13.641Z</time></trkpt><trkpt lat="44.0396465" lon="11.8448987"><ele>399.42857142857144</ele><time>2026-05-03T07:55:18.636Z</time></trkpt><trkpt lat="44.039666" lon="11.8448088"><ele>402.1428571428571</ele><time>2026-05-03T07:55:21.643Z</time></trkpt><trkpt lat="44.039683" lon="11.8447157"><ele>404.8571428571429</ele><time>2026-05-03T07:55:25.639Z</time></trkpt><trkpt lat="44.0396646" lon="11.8446153"><ele>407.57142857142856</ele><time>2026-05-03T07:55:31.637Z</time></trkpt><trkpt lat="44.0396219" lon="11.84455"><ele>410.2857142857143</ele><time>2026-05-03T07:55:35.633Z</time></trkpt><trkpt lat="44.0395784" lon="11.8444643"><ele>413.0</ele><time>2026-05-03T07:55:40.635Z</time></trkpt><trkpt lat="44.039562" lon="11.8443649"><ele>414.57142857142856</ele><time>2026-05-03T07:55:46.633Z</time></trkpt><trkpt lat="44.0395153" lon="11.8442862"><ele>416.1428571428571</ele><time>2026-05-03T07:55:52.627Z</time></trkpt><trkpt lat="44.0394826" lon="11.8442103"><ele>417.7142857142857</ele><time>2026-05-03T07:55:57.641Z</time></trkpt><trkpt lat="44.0394508" lon="11.8441218"><ele>419.2857142857143</ele><time>2026-05-03T07:56:02.631Z</time></trkpt><trkpt lat="44.039424" lon="11.8440342"><ele>420.85714285714283</ele><time>2026-05-03T07:56:06.636Z</time></trkpt><trkpt lat="44.039412" lon="11.8439384"><ele>422.42857142857144</ele><time>2026-05-03T07:56:09.626Z</time></trkpt><trkpt lat="44.0394216" lon="11.84384"><ele>424.0</ele><time>2026-05-03T07:56:11.632Z</time></trkpt><trkpt lat="44.0394269" lon="11.8437344"><ele>424.00000000000006</ele><time>2026-05-03T07:56:14.629Z</time></trkpt><trkpt lat="44.0394287" lon="11.8436443"><ele>424.0</ele><time>2026-05-03T07:56:17.626Z</time></trkpt><trkpt lat="44.0394724" lon="11.8435746"><ele>424.0</ele><time>2026-05-03T07:56:20.609Z</time></trkpt><trkpt lat="44.0395566" lon="11.8435445"><ele>424.0</ele><time>2026-05-03T07:56:22.62Z</time></trkpt><trkpt lat="44.0396292" lon="11.8435353"><ele>424.00000000000006</ele><time>2026-05-03T07:56:24.618Z</time></trkpt><trkpt lat="44.0397258" lon="11.8434676"><ele>424.0</ele><time>2026-05-03T07:56:26.63Z</time></trkpt><trkpt lat="44.0397854" lon="11.843423"><ele>424.83333333333337</ele><time>2026-05-03T07:56:27.621Z</time></trkpt><trkpt lat="44.039852" lon="11.8433719"><ele>425.6666666666667</ele><time>2026-05-03T07:56:28.622Z</time></trkpt><trkpt lat="44.0399203" lon="11.8433149"><ele>426.5</ele><time>2026-05-03T07:56:29.617Z</time></trkpt><trkpt lat="44.0399991" lon="11.843255"><ele>427.33333333333337</ele><time>2026-05-03T07:56:30.614Z</time></trkpt><trkpt lat="44.0400704" lon="11.8431901"><ele>428.1666666666667</ele><time>2026-05-03T07:56:31.608Z</time></trkpt><trkpt lat="44.040131" lon="11.8431194"><ele>429.0</ele><time>2026-05-03T07:56:32.606Z</time></trkpt><trkpt lat="44.0401877" lon="11.8430504"><ele>423.0</ele><time>2026-05-03T07:56:33.612Z</time></trkpt><trkpt lat="44.040238" lon="11.8429622"><ele>417.0</ele><time>2026-05-03T07:56:34.622Z</time></trkpt><trkpt lat="44.0402759" lon="11.8428719"><ele>411.0</ele><time>2026-05-03T07:56:35.616Z</time></trkpt><trkpt lat="44.0403015" lon="11.8427858"><ele>405.0</ele><time>2026-05-03T07:56:36.618Z</time></trkpt><trkpt lat="44.0402983" lon="11.842652"><ele>399.0</ele><time>2026-05-03T07:56:38.626Z</time></trkpt><trkpt lat="44.0402486" lon="11.8425093"><ele>393.0</ele><time>2026-05-03T07:56:40.63Z</time></trkpt><trkpt lat="44.040156" lon="11.8424204"><ele>393.00000000000006</ele><time>2026-05-03T07:56:42.622Z</time></trkpt><trkpt lat="44.0400889" lon="11.8423896"><ele>393.0</ele><time>2026-05-03T07:56:43.607Z</time></trkpt><trkpt lat="44.040011" lon="11.8423453"><ele>393.0</ele><time>2026-05-03T07:56:44.61Z</time></trkpt><trkpt lat="44.0399348" lon="11.8423016"><ele>393.0</ele><time>2026-05-03T07:56:45.612Z</time></trkpt><trkpt lat="44.0398648" lon="11.8422744"><ele>393.0</ele><time>2026-05-03T07:56:46.6Z</time></trkpt><trkpt lat="44.0398093" lon="11.8422323"><ele>393.00000000000006</ele><time>2026-05-03T07:56:47.608Z</time></trkpt><trkpt lat="44.039751" lon="11.8421808"><ele>393.0</ele><time>2026-05-03T07:56:48.595Z</time></trkpt><trkpt lat="44.0396877" lon="11.8421221"><ele>394.5714285714286</ele><time>2026-05-03T07:56:49.603Z</time></trkpt><trkpt lat="44.0396238" lon="11.8420694"><ele>396.14285714285717</ele><time>2026-05-03T07:56:50.588Z</time></trkpt><trkpt lat="44.0395636" lon="11.8420162"><ele>397.7142857142857</ele><time>2026-05-03T07:56:51.595Z</time></trkpt><trkpt lat="44.039513" lon="11.8419564"><ele>399.28571428571433</ele><time>2026-05-03T07:56:52.606Z</time></trkpt><trkpt lat="44.0394699" lon="11.841882"><ele>400.85714285714283</ele><time>2026-05-03T07:56:53.599Z</time></trkpt><trkpt lat="44.0394373" lon="11.8417941"><ele>402.42857142857144</ele><time>2026-05-03T07:56:54.605Z</time></trkpt><trkpt lat="44.0394111" lon="11.841692"><ele>404.0</ele><time>2026-05-03T07:56:55.605Z</time></trkpt><trkpt lat="44.0393912" lon="11.8415905"><ele>403.99999999999994</ele><time>2026-05-03T07:56:56.603Z</time></trkpt><trkpt lat="44.0393667" lon="11.8414935"><ele>404.0</ele><time>2026-05-03T07:56:57.618Z</time></trkpt><trkpt lat="44.0393579" lon="11.8414037"><ele>404.0</ele><time>2026-05-03T07:56:58.612Z</time></trkpt><trkpt lat="44.0394357" lon="11.8413622"><ele>404.0</ele><time>2026-05-03T07:57:01.621Z</time></trkpt><trkpt lat="44.0395024" lon="11.8413705"><ele>403.99999999999994</ele><time>2026-05-03T07:57:03.615Z</time></trkpt><trkpt lat="44.0395688" lon="11.8413772"><ele>404.0</ele><time>2026-05-03T07:57:05.62Z</time></trkpt><trkpt lat="44.0396752" lon="11.8413267"><ele>404.0</ele><time>2026-05-03T07:57:07.606Z</time></trkpt><trkpt lat="44.0397274" lon="11.8412717"><ele>404.0</ele><time>2026-05-03T07:57:08.607Z</time></trkpt><trkpt lat="44.0398194" lon="11.8411521"><ele>404.0</ele><time>2026-05-03T07:57:10.61Z</time></trkpt><trkpt lat="44.0398836" lon="11.8410386"><ele>404.0</ele><time>2026-05-03T07:57:12.616Z</time></trkpt><trkpt lat="44.0399633" lon="11.8409397"><ele>404.0</ele><time>2026-05-03T07:57:14.622Z</time></trkpt><trkpt lat="44.0400518" lon="11.8408568"><ele>400.99999999999994</ele><time>2026-05-03T07:57:16.62Z</time></trkpt><trkpt lat="44.0401501" lon="11.8407892"><ele>398.0</ele><time>2026-05-03T07:57:18.629Z</time></trkpt><trkpt lat="44.0402587" lon="11.8407544"><ele>395.0</ele><time>2026-05-03T07:57:20.618Z</time></trkpt><trkpt lat="44.0403171" lon="11.840703"><ele>392.0</ele><time>2026-05-03T07:57:21.627Z</time></trkpt><trkpt lat="44.0403625" lon="11.8406214"><ele>388.99999999999994</ele><time>2026-05-03T07:57:22.618Z</time></trkpt><trkpt lat="44.04041" lon="11.8405425"><ele>386.0</ele><time>2026-05-03T07:57:23.621Z</time></trkpt><trkpt lat="44.0404624" lon="11.8404676"><ele>385.99999999999994</ele><time>2026-05-03T07:57:24.617Z</time></trkpt><trkpt lat="44.0405114" lon="11.8403949"><ele>386.0</ele><time>2026-05-03T07:57:25.624Z</time></trkpt><trkpt lat="44.0405528" lon="11.840313"><ele>386.0</ele><time>2026-05-03T07:57:26.618Z</time></trkpt><trkpt lat="44.0405869" lon="11.8402256"><ele>386.0</ele><time>2026-05-03T07:57:27.618Z</time></trkpt><trkpt lat="44.0406228" lon="11.8401531"><ele>385.99999999999994</ele><time>2026-05-03T07:57:28.634Z</time></trkpt><trkpt lat="44.0406994" lon="11.8400715"><ele>386.0</ele><time>2026-05-03T07:57:30.615Z</time></trkpt><trkpt lat="44.0408097" lon="11.8399764"><ele>384.20000000000005</ele><time>2026-05-03T07:57:32.608Z</time></trkpt><trkpt lat="44.0408605" lon="11.8399073"><ele>382.40000000000003</ele><time>2026-05-03T07:57:33.607Z</time></trkpt><trkpt lat="44.0409466" lon="11.8398125"><ele>380.6</ele><time>2026-05-03T07:57:35.611Z</time></trkpt><trkpt lat="44.0410354" lon="11.8397498"><ele>378.8</ele><time>2026-05-03T07:57:37.619Z</time></trkpt><trkpt lat="44.0411462" lon="11.8397482"><ele>377.0</ele><time>2026-05-03T07:57:39.612Z</time></trkpt><trkpt lat="44.0412136" lon="11.8397593"><ele>377.0</ele><time>2026-05-03T07:57:40.614Z</time></trkpt><trkpt lat="44.0412783" lon="11.8397662"><ele>377.0</ele><time>2026-05-03T07:57:41.608Z</time></trkpt><trkpt lat="44.0413821" lon="11.8397329"><ele>377.0</ele><time>2026-05-03T07:57:43.614Z</time></trkpt><trkpt lat="44.0414329" lon="11.8396557"><ele>377.0</ele><time>2026-05-03T07:57:45.639Z</time></trkpt><trkpt lat="44.0414746" lon="11.8395605"><ele>377.0</ele><time>2026-05-03T07:57:47.633Z</time></trkpt><trkpt lat="44.0414735" lon="11.8394306"><ele>377.0</ele><time>2026-05-03T07:57:49.624Z</time></trkpt><trkpt lat="44.0414447" lon="11.8393263"><ele>379.1666666666667</ele><time>2026-05-03T07:57:51.621Z</time></trkpt><trkpt lat="44.0414175" lon="11.8392148"><ele>381.33333333333337</ele><time>2026-05-03T07:57:53.63Z</time></trkpt><trkpt lat="44.0413939" lon="11.8390957"><ele>383.5</ele><time>2026-05-03T07:57:55.624Z</time></trkpt><trkpt lat="44.041363" lon="11.8389975"><ele>385.6666666666667</ele><time>2026-05-03T07:57:57.626Z</time></trkpt><trkpt lat="44.0413154" lon="11.8389033"><ele>387.8333333333333</ele><time>2026-05-03T07:57:59.651Z</time></trkpt><trkpt lat="44.041269" lon="11.8388231"><ele>390.0</ele><time>2026-05-03T07:58:01.626Z</time></trkpt><trkpt lat="44.0412267" lon="11.8387494"><ele>390.0</ele><time>2026-05-03T07:58:03.62Z</time></trkpt><trkpt lat="44.0411843" lon="11.8386734"><ele>390.0</ele><time>2026-05-03T07:58:05.622Z</time></trkpt><trkpt lat="44.0411429" lon="11.8385973"><ele>390.0</ele><time>2026-05-03T07:58:07.617Z</time></trkpt><trkpt lat="44.0411072" lon="11.8385177"><ele>390.0</ele><time>2026-05-03T07:58:09.622Z</time></trkpt><trkpt lat="44.0410682" lon="11.8384384"><ele>390.0</ele><time>2026-05-03T07:58:11.624Z</time></trkpt><trkpt lat="44.0410285" lon="11.8383245"><ele>390.0</ele><time>2026-05-03T07:58:14.625Z</time></trkpt><trkpt lat="44.0410761" lon="11.8382384"><ele>390.0</ele><time>2026-05-03T07:58:17.633Z</time></trkpt><trkpt lat="44.0411769" lon="11.8382564"><ele>388.1666666666667</ele><time>2026-05-03T07:58:19.615Z</time></trkpt><trkpt lat="44.0412364" lon="11.8382902"><ele>386.3333333333333</ele><time>2026-05-03T07:58:20.625Z</time></trkpt><trkpt lat="44.0412982" lon="11.8383233"><ele>384.5</ele><time>2026-05-03T07:58:21.617Z</time></trkpt><trkpt lat="44.0413615" lon="11.8383606"><ele>382.66666666666663</ele><time>2026-05-03T07:58:22.624Z</time></trkpt><trkpt lat="44.0414645" lon="11.8383856"><ele>380.8333333333333</ele><time>2026-05-03T07:58:24.627Z</time></trkpt><trkpt lat="44.0415296" lon="11.838274"><ele>379.0</ele><time>2026-05-03T07:58:26.642Z</time></trkpt><trkpt lat="44.0415754" lon="11.8381824"><ele>379.00000000000006</ele><time>2026-05-03T07:58:28.644Z</time></trkpt><trkpt lat="44.0416232" lon="11.8381066"><ele>379.0</ele><time>2026-05-03T07:58:31.645Z</time></trkpt><trkpt lat="44.0416904" lon="11.8380752"><ele>379.0</ele><time>2026-05-03T07:58:40.638Z</time></trkpt><trkpt lat="44.0417574" lon="11.8380759"><ele>379.0</ele><time>2026-05-03T07:58:43.638Z</time></trkpt><trkpt lat="44.0418396" lon="11.8380979"><ele>379.0</ele><time>2026-05-03T07:58:46.634Z</time></trkpt><trkpt lat="44.0419038" lon="11.8381247"><ele>379.00000000000006</ele><time>2026-05-03T07:58:48.629Z</time></trkpt><trkpt lat="44.0419619" lon="11.838165"><ele>379.0</ele><time>2026-05-03T07:58:50.631Z</time></trkpt><trkpt lat="44.0420531" lon="11.8382072"><ele>375.16666666666663</ele><time>2026-05-03T07:58:53.628Z</time></trkpt><trkpt lat="44.042118" lon="11.8382464"><ele>371.3333333333333</ele><time>2026-05-03T07:58:55.638Z</time></trkpt><trkpt lat="44.0421819" lon="11.8382849"><ele>367.5</ele><time>2026-05-03T07:58:57.641Z</time></trkpt><trkpt lat="44.042248" lon="11.8383347"><ele>363.6666666666667</ele><time>2026-05-03T07:58:59.633Z</time></trkpt><trkpt lat="44.0423119" lon="11.8383879"><ele>359.83333333333337</ele><time>2026-05-03T07:59:01.657Z</time></trkpt><trkpt lat="44.0423783" lon="11.8384391"><ele>356.0</ele><time>2026-05-03T07:59:03.638Z</time></trkpt><trkpt lat="44.0424522" lon="11.8385043"><ele>356.0</ele><time>2026-05-03T07:59:05.638Z</time></trkpt><trkpt lat="44.0425213" lon="11.8385687"><ele>356.0</ele><time>2026-05-03T07:59:07.638Z</time></trkpt><trkpt lat="44.0425931" lon="11.8386146"><ele>356.0</ele><time>2026-05-03T07:59:09.637Z</time></trkpt><trkpt lat="44.0426717" lon="11.8386301"><ele>356.0</ele><time>2026-05-03T07:59:11.637Z</time></trkpt><trkpt lat="44.0427384" lon="11.8385732"><ele>356.0</ele><time>2026-05-03T07:59:13.649Z</time></trkpt><trkpt lat="44.0427856" lon="11.8384638"><ele>356.0</ele><time>2026-05-03T07:59:15.643Z</time></trkpt><trkpt lat="44.0428022" lon="11.8383385"><ele>356.0</ele><time>2026-05-03T07:59:17.633Z</time></trkpt><trkpt lat="44.0428028" lon="11.8382288"><ele>356.0</ele><time>2026-05-03T07:59:19.638Z</time></trkpt><trkpt lat="44.0427968" lon="11.8381257"><ele>356.0</ele><time>2026-05-03T07:59:21.634Z</time></trkpt><trkpt lat="44.0427924" lon="11.8380248"><ele>356.0</ele><time>2026-05-03T07:59:23.635Z</time></trkpt><trkpt lat="44.0427897" lon="11.8379107"><ele>356.0</ele><time>2026-05-03T07:59:25.639Z</time></trkpt><trkpt lat="44.0427932" lon="11.8377317"><ele>356.0</ele><time>2026-05-03T07:59:27.63Z</time></trkpt><trkpt lat="44.0428017" lon="11.8376446"><ele>358.0</ele><time>2026-05-03T07:59:28.622Z</time></trkpt><trkpt lat="44.042828" lon="11.8375634"><ele>360.0</ele><time>2026-05-03T07:59:29.635Z</time></trkpt><trkpt lat="44.042876" lon="11.8375058"><ele>362.0</ele><time>2026-05-03T07:59:30.637Z</time></trkpt><trkpt lat="44.0429516" lon="11.8374841"><ele>364.0</ele><time>2026-05-03T07:59:31.634Z</time></trkpt><trkpt lat="44.0430411" lon="11.8374942"><ele>366.0</ele><time>2026-05-03T07:59:32.647Z</time></trkpt><trkpt lat="44.0431367" lon="11.8374956"><ele>368.0</ele><time>2026-05-03T07:59:33.626Z</time></trkpt><trkpt lat="44.0432338" lon="11.8374881"><ele>362.0</ele><time>2026-05-03T07:59:34.63Z</time></trkpt><trkpt lat="44.0433363" lon="11.8374784"><ele>356.0</ele><time>2026-05-03T07:59:35.627Z</time></trkpt><trkpt lat="44.0434473" lon="11.8374636"><ele>350.0</ele><time>2026-05-03T07:59:36.632Z</time></trkpt><trkpt lat="44.0435633" lon="11.837447"><ele>344.0</ele><time>2026-05-03T07:59:37.628Z</time></trkpt><trkpt lat="44.0436824" lon="11.8374279"><ele>344.0</ele><time>2026-05-03T07:59:38.625Z</time></trkpt><trkpt lat="44.0438018" lon="11.8374119"><ele>344.0</ele><time>2026-05-03T07:59:39.644Z</time></trkpt><trkpt lat="44.0439141" lon="11.8374"><ele>344.0</ele><time>2026-05-03T07:59:40.637Z</time></trkpt><trkpt lat="44.0440144" lon="11.8373941"><ele>344.0</ele><time>2026-05-03T07:59:41.629Z</time></trkpt><trkpt lat="44.0440982" lon="11.8374"><ele>344.0</ele><time>2026-05-03T07:59:42.638Z</time></trkpt><trkpt lat="44.0441712" lon="11.8374355"><ele>343.0</ele><time>2026-05-03T07:59:43.634Z</time></trkpt><trkpt lat="44.0442199" lon="11.8375063"><ele>342.0</ele><time>2026-05-03T07:59:44.637Z</time></trkpt><trkpt lat="44.044248" lon="11.8375982"><ele>341.0</ele><time>2026-05-03T07:59:45.638Z</time></trkpt><trkpt lat="44.0442517" lon="11.8377119"><ele>340.0</ele><time>2026-05-03T07:59:46.63Z</time></trkpt><trkpt lat="44.0442493" lon="11.8378336"><ele>339.0</ele><time>2026-05-03T07:59:47.633Z</time></trkpt><trkpt lat="44.0442452" lon="11.8379584"><ele>338.0</ele><time>2026-05-03T07:59:48.633Z</time></trkpt><trkpt lat="44.0442495" lon="11.8380862"><ele>337.0</ele><time>2026-05-03T07:59:49.639Z</time></trkpt><trkpt lat="44.0442607" lon="11.8382142"><ele>336.0</ele><time>2026-05-03T07:59:50.642Z</time></trkpt><trkpt lat="44.044268" lon="11.8383423"><ele>335.0</ele><time>2026-05-03T07:59:51.638Z</time></trkpt><trkpt lat="44.0442781" lon="11.83847"><ele>334.0</ele><time>2026-05-03T07:59:52.64Z</time></trkpt><trkpt lat="44.04429" lon="11.8385929"><ele>333.0</ele><time>2026-05-03T07:59:53.637Z</time></trkpt><trkpt lat="44.0443008" lon="11.8387119"><ele>332.1666666666667</ele><time>2026-05-03T07:59:54.648Z</time></trkpt><trkpt lat="44.0443122" lon="11.8388306"><ele>331.3333333333333</ele><time>2026-05-03T07:59:55.635Z</time></trkpt><trkpt lat="44.0443244" lon="11.8389454"><ele>330.5</ele><time>2026-05-03T07:59:56.641Z</time></trkpt><trkpt lat="44.0443327" lon="11.839057"><ele>329.66666666666663</ele><time>2026-05-03T07:59:57.641Z</time></trkpt><trkpt lat="44.0443343" lon="11.8391524"><ele>328.8333333333333</ele><time>2026-05-03T07:59:58.644Z</time></trkpt><trkpt lat="44.0443618" lon="11.8392925"><ele>328.0</ele><time>2026-05-03T08:00:00.649Z</time></trkpt><trkpt lat="44.0444343" lon="11.8392961"><ele>328.0</ele><time>2026-05-03T08:00:02.642Z</time></trkpt><trkpt lat="44.0444818" lon="11.8392297"><ele>328.0</ele><time>2026-05-03T08:00:03.664Z</time></trkpt><trkpt lat="44.0445309" lon="11.8391449"><ele>328.0</ele><time>2026-05-03T08:00:04.629Z</time></trkpt><trkpt lat="44.0445839" lon="11.8390529"><ele>328.0</ele><time>2026-05-03T08:00:05.637Z</time></trkpt><trkpt lat="44.0446554" lon="11.8389781"><ele>328.0</ele><time>2026-05-03T08:00:06.618Z</time></trkpt><trkpt lat="44.0447361" lon="11.8389189"><ele>328.0</ele><time>2026-05-03T08:00:07.616Z</time></trkpt><trkpt lat="44.0448186" lon="11.8388745"><ele>328.0</ele><time>2026-05-03T08:00:08.625Z</time></trkpt><trkpt lat="44.0449065" lon="11.8388266"><ele>328.0</ele><time>2026-05-03T08:00:09.625Z</time></trkpt><trkpt lat="44.0449945" lon="11.8387664"><ele>328.0</ele><time>2026-05-03T08:00:10.625Z</time></trkpt><trkpt lat="44.0450829" lon="11.8386772"><ele>328.0</ele><time>2026-05-03T08:00:11.621Z</time></trkpt><trkpt lat="44.0451658" lon="11.8385734"><ele>328.0</ele><time>2026-05-03T08:00:12.631Z</time></trkpt><trkpt lat="44.0452463" lon="11.8384624"><ele>326.79999999999995</ele><time>2026-05-03T08:00:13.635Z</time></trkpt><trkpt lat="44.0453271" lon="11.8383615"><ele>325.6</ele><time>2026-05-03T08:00:14.626Z</time></trkpt><trkpt lat="44.0454013" lon="11.8382657"><ele>324.4</ele><time>2026-05-03T08:00:15.631Z</time></trkpt><trkpt lat="44.045483" lon="11.8381691"><ele>323.20000000000005</ele><time>2026-05-03T08:00:16.626Z</time></trkpt><trkpt lat="44.0455702" lon="11.8380828"><ele>322.0</ele><time>2026-05-03T08:00:17.618Z</time></trkpt><trkpt lat="44.0456635" lon="11.8379916"><ele>322.0</ele><time>2026-05-03T08:00:18.63Z</time></trkpt><trkpt lat="44.045752" lon="11.8378951"><ele>322.0</ele><time>2026-05-03T08:00:19.622Z</time></trkpt><trkpt lat="44.0458244" lon="11.8378052"><ele>322.0</ele><time>2026-05-03T08:00:20.626Z</time></trkpt><trkpt lat="44.0458888" lon="11.837724"><ele>322.0</ele><time>2026-05-03T08:00:21.631Z</time></trkpt><trkpt lat="44.0459549" lon="11.8376465"><ele>322.0</ele><time>2026-05-03T08:00:22.625Z</time></trkpt><trkpt lat="44.0460315" lon="11.8375686"><ele>319.20000000000005</ele><time>2026-05-03T08:00:23.626Z</time></trkpt><trkpt lat="44.0461231" lon="11.8375065"><ele>316.40000000000003</ele><time>2026-05-03T08:00:24.632Z</time></trkpt><trkpt lat="44.0462214" lon="11.8374501"><ele>313.6</ele><time>2026-05-03T08:00:25.636Z</time></trkpt><trkpt lat="44.0463228" lon="11.8373957"><ele>310.8</ele><time>2026-05-03T08:00:26.637Z</time></trkpt><trkpt lat="44.0464192" lon="11.8373306"><ele>308.0</ele><time>2026-05-03T08:00:27.637Z</time></trkpt><trkpt lat="44.0464996" lon="11.8372413"><ele>308.0</ele><time>2026-05-03T08:00:28.639Z</time></trkpt><trkpt lat="44.0465751" lon="11.8371396"><ele>308.0</ele><time>2026-05-03T08:00:29.629Z</time></trkpt><trkpt lat="44.0466422" lon="11.8370292"><ele>308.0</ele><time>2026-05-03T08:00:30.631Z</time></trkpt><trkpt lat="44.0467014" lon="11.8369109"><ele>308.0</ele><time>2026-05-03T08:00:31.632Z</time></trkpt><trkpt lat="44.0467479" lon="11.8367858"><ele>308.0</ele><time>2026-05-03T08:00:32.637Z</time></trkpt><trkpt lat="44.0467915" lon="11.8366594"><ele>306.33333333333337</ele><time>2026-05-03T08:00:33.64Z</time></trkpt><trkpt lat="44.0468375" lon="11.8365389"><ele>304.6666666666667</ele><time>2026-05-03T08:00:34.653Z</time></trkpt><trkpt lat="44.0468864" lon="11.8364267"><ele>303.0</ele><time>2026-05-03T08:00:35.634Z</time></trkpt><trkpt lat="44.0469326" lon="11.8363307"><ele>301.3333333333333</ele><time>2026-05-03T08:00:36.65Z</time></trkpt><trkpt lat="44.0469735" lon="11.8362551"><ele>299.66666666666663</ele><time>2026-05-03T08:00:37.629Z</time></trkpt><trkpt lat="44.0470188" lon="11.8361851"><ele>298.0</ele><time>2026-05-03T08:00:39.634Z</time></trkpt><trkpt lat="44.0470805" lon="11.8361152"><ele>298.0</ele><time>2026-05-03T08:09:09.634Z</time></trkpt><trkpt lat="44.0471396" lon="11.8360348"><ele>298.0</ele><time>2026-05-03T08:09:11.626Z</time></trkpt><trkpt lat="44.0471937" lon="11.8359579"><ele>298.0</ele><time>2026-05-03T08:09:13.627Z</time></trkpt><trkpt lat="44.047247" lon="11.8358793"><ele>298.0</ele><time>2026-05-03T08:09:15.626Z</time></trkpt><trkpt lat="44.0473022" lon="11.8358211"><ele>298.0</ele><time>2026-05-03T08:09:17.632Z</time></trkpt><trkpt lat="44.0473723" lon="11.8357442"><ele>298.0</ele><time>2026-05-03T08:09:20.631Z</time></trkpt><trkpt lat="44.0474277" lon="11.8356862"><ele>299.5</ele><time>2026-05-03T08:09:22.638Z</time></trkpt><trkpt lat="44.0474874" lon="11.8356008"><ele>301.0</ele><time>2026-05-03T08:09:24.636Z</time></trkpt><trkpt lat="44.0475238" lon="11.8354796"><ele>302.5</ele><time>2026-05-03T08:09:26.629Z</time></trkpt><trkpt lat="44.0474939" lon="11.835346"><ele>304.0</ele><time>2026-05-03T08:09:28.626Z</time></trkpt><trkpt lat="44.0474543" lon="11.8352777"><ele>305.5</ele><time>2026-05-03T08:09:29.62Z</time></trkpt><trkpt lat="44.0474182" lon="11.8351939"><ele>307.0</ele><time>2026-05-03T08:09:30.621Z</time></trkpt><trkpt lat="44.0473736" lon="11.8351103"><ele>308.5</ele><time>2026-05-03T08:09:31.625Z</time></trkpt><trkpt lat="44.0473391" lon="11.8350308"><ele>310.0</ele><time>2026-05-03T08:09:32.623Z</time></trkpt><trkpt lat="44.0472935" lon="11.8348644"><ele>311.5</ele><time>2026-05-03T08:09:34.617Z</time></trkpt><trkpt lat="44.0472685" lon="11.834771"><ele>313.0</ele><time>2026-05-03T08:09:35.617Z</time></trkpt><trkpt lat="44.0472507" lon="11.8346749"><ele>314.5</ele><time>2026-05-03T08:09:36.616Z</time></trkpt><trkpt lat="44.047237" lon="11.8345799"><ele>316.0</ele><time>2026-05-03T08:09:37.615Z</time></trkpt><trkpt lat="44.0472187" lon="11.8344826"><ele>316.00000000000006</ele><time>2026-05-03T08:09:38.618Z</time></trkpt><trkpt lat="44.0471993" lon="11.8343849"><ele>316.0</ele><time>2026-05-03T08:09:39.619Z</time></trkpt><trkpt lat="44.0471699" lon="11.8342827"><ele>316.0</ele><time>2026-05-03T08:09:40.616Z</time></trkpt><trkpt lat="44.0471375" lon="11.8341856"><ele>316.0</ele><time>2026-05-03T08:09:41.621Z</time></trkpt><trkpt lat="44.0471008" lon="11.8340908"><ele>316.0</ele><time>2026-05-03T08:09:42.614Z</time></trkpt><trkpt lat="44.0470662" lon="11.8340033"><ele>316.00000000000006</ele><time>2026-05-03T08:09:43.616Z</time></trkpt><trkpt lat="44.0470325" lon="11.8339172"><ele>316.0</ele><time>2026-05-03T08:09:44.617Z</time></trkpt><trkpt lat="44.0470004" lon="11.8338332"><ele>315.7142857142857</ele><time>2026-05-03T08:09:45.612Z</time></trkpt><trkpt lat="44.0469794" lon="11.8337424"><ele>315.42857142857144</ele><time>2026-05-03T08:09:46.616Z</time></trkpt><trkpt lat="44.04696" lon="11.8336533"><ele>315.1428571428571</ele><time>2026-05-03T08:09:47.617Z</time></trkpt><trkpt lat="44.0469402" lon="11.8335558"><ele>314.8571428571429</ele><time>2026-05-03T08:09:48.618Z</time></trkpt><trkpt lat="44.0469366" lon="11.8334622"><ele>314.57142857142856</ele><time>2026-05-03T08:09:49.612Z</time></trkpt><trkpt lat="44.046934" lon="11.8333608"><ele>314.2857142857143</ele><time>2026-05-03T08:09:50.626Z</time></trkpt><trkpt lat="44.0469395" lon="11.8332522"><ele>314.0</ele><time>2026-05-03T08:09:51.611Z</time></trkpt><trkpt lat="44.0469431" lon="11.8331491"><ele>312.0</ele><time>2026-05-03T08:09:52.618Z</time></trkpt><trkpt lat="44.0469391" lon="11.8330487"><ele>310.0</ele><time>2026-05-03T08:09:53.615Z</time></trkpt><trkpt lat="44.0469226" lon="11.8329512"><ele>308.0</ele><time>2026-05-03T08:09:54.626Z</time></trkpt><trkpt lat="44.0469025" lon="11.8328595"><ele>306.0</ele><time>2026-05-03T08:09:55.614Z</time></trkpt><trkpt lat="44.0468571" lon="11.832696"><ele>304.0</ele><time>2026-05-03T08:09:57.613Z</time></trkpt><trkpt lat="44.0468201" lon="11.8325333"><ele>301.8</ele><time>2026-05-03T08:09:59.614Z</time></trkpt><trkpt lat="44.0468" lon="11.8323671"><ele>299.59999999999997</ele><time>2026-05-03T08:10:01.611Z</time></trkpt><trkpt lat="44.0467695" lon="11.8322122"><ele>297.4</ele><time>2026-05-03T08:10:03.617Z</time></trkpt><trkpt lat="44.0467405" lon="11.832131"><ele>295.2</ele><time>2026-05-03T08:10:04.617Z</time></trkpt><trkpt lat="44.0466755" lon="11.8319884"><ele>293.0</ele><time>2026-05-03T08:10:06.616Z</time></trkpt><trkpt lat="44.0466296" lon="11.8319094"><ele>294.83333333333337</ele><time>2026-05-03T08:10:07.622Z</time></trkpt><trkpt lat="44.0465867" lon="11.8318263"><ele>296.6666666666667</ele><time>2026-05-03T08:10:08.617Z</time></trkpt><trkpt lat="44.0465516" lon="11.8317251"><ele>298.5</ele><time>2026-05-03T08:10:09.616Z</time></trkpt><trkpt lat="44.0465166" lon="11.8316352"><ele>300.3333333333333</ele><time>2026-05-03T08:10:10.616Z</time></trkpt><trkpt lat="44.0464829" lon="11.8315564"><ele>302.16666666666663</ele><time>2026-05-03T08:10:11.614Z</time></trkpt><trkpt lat="44.046394" lon="11.8314255"><ele>304.0</ele><time>2026-05-03T08:10:13.612Z</time></trkpt><trkpt lat="44.04635" lon="11.8313383"><ele>304.0</ele><time>2026-05-03T08:10:14.611Z</time></trkpt><trkpt lat="44.0463281" lon="11.8312347"><ele>304.0</ele><time>2026-05-03T08:10:15.622Z</time></trkpt><trkpt lat="44.0463122" lon="11.831125"><ele>304.0</ele><time>2026-05-03T08:10:16.614Z</time></trkpt><trkpt lat="44.0462938" lon="11.8310248"><ele>304.0</ele><time>2026-05-03T08:10:17.613Z</time></trkpt><trkpt lat="44.0462687" lon="11.8309283"><ele>304.0</ele><time>2026-05-03T08:10:18.615Z</time></trkpt><trkpt lat="44.0462348" lon="11.8308434"><ele>304.0</ele><time>2026-05-03T08:10:19.608Z</time></trkpt><trkpt lat="44.0461942" lon="11.8307547"><ele>301.3333333333333</ele><time>2026-05-03T08:10:20.614Z</time></trkpt><trkpt lat="44.0461485" lon="11.8306554"><ele>298.66666666666663</ele><time>2026-05-03T08:10:21.646Z</time></trkpt><trkpt lat="44.0461025" lon="11.8305587"><ele>296.0</ele><time>2026-05-03T08:10:22.614Z</time></trkpt><trkpt lat="44.0460614" lon="11.8304641"><ele>293.3333333333333</ele><time>2026-05-03T08:10:23.62Z</time></trkpt><trkpt lat="44.0460249" lon="11.8303638"><ele>290.6666666666667</ele><time>2026-05-03T08:10:24.613Z</time></trkpt><trkpt lat="44.045993" lon="11.8302593"><ele>288.0</ele><time>2026-05-03T08:10:25.623Z</time></trkpt><trkpt lat="44.0459684" lon="11.8301506"><ele>285.5</ele><time>2026-05-03T08:10:26.612Z</time></trkpt><trkpt lat="44.0459461" lon="11.8300352"><ele>283.0</ele><time>2026-05-03T08:10:27.613Z</time></trkpt><trkpt lat="44.0459322" lon="11.8299222"><ele>280.5</ele><time>2026-05-03T08:10:28.614Z</time></trkpt><trkpt lat="44.0459116" lon="11.8298189"><ele>278.0</ele><time>2026-05-03T08:10:29.614Z</time></trkpt><trkpt lat="44.045891" lon="11.8297138"><ele>275.5</ele><time>2026-05-03T08:10:30.622Z</time></trkpt><trkpt lat="44.0458605" lon="11.8296165"><ele>273.0</ele><time>2026-05-03T08:10:31.609Z</time></trkpt><trkpt lat="44.0458345" lon="11.8295206"><ele>273.0</ele><time>2026-05-03T08:10:32.615Z</time></trkpt><trkpt lat="44.0458007" lon="11.8293574"><ele>273.0</ele><time>2026-05-03T08:10:34.617Z</time></trkpt><trkpt lat="44.0458486" lon="11.8291801"><ele>273.0</ele><time>2026-05-03T08:10:36.612Z</time></trkpt><trkpt lat="44.0458962" lon="11.8290884"><ele>273.0</ele><time>2026-05-03T08:10:37.623Z</time></trkpt><trkpt lat="44.0459392" lon="11.8289992"><ele>273.0</ele><time>2026-05-03T08:10:38.617Z</time></trkpt><trkpt lat="44.0459802" lon="11.8289113"><ele>271.3333333333333</ele><time>2026-05-03T08:10:39.616Z</time></trkpt><trkpt lat="44.0460148" lon="11.8288338"><ele>269.6666666666667</ele><time>2026-05-03T08:10:40.619Z</time></trkpt><trkpt lat="44.0460725" lon="11.8287063"><ele>268.0</ele><time>2026-05-03T08:10:42.626Z</time></trkpt><trkpt lat="44.0461475" lon="11.8286508"><ele>266.33333333333337</ele><time>2026-05-03T08:10:44.621Z</time></trkpt><trkpt lat="44.0462408" lon="11.8286937"><ele>264.6666666666667</ele><time>2026-05-03T08:10:46.622Z</time></trkpt><trkpt lat="44.0463008" lon="11.8287229"><ele>263.0</ele><time>2026-05-03T08:10:47.629Z</time></trkpt><trkpt lat="44.0463708" lon="11.8287456"><ele>263.0</ele><time>2026-05-03T08:10:48.623Z</time></trkpt><trkpt lat="44.0464544" lon="11.8287672"><ele>263.0</ele><time>2026-05-03T08:10:49.62Z</time></trkpt><trkpt lat="44.0465402" lon="11.8287987"><ele>263.0</ele><time>2026-05-03T08:10:50.621Z</time></trkpt><trkpt lat="44.0466208" lon="11.8288378"><ele>263.0</ele><time>2026-05-03T08:10:51.643Z</time></trkpt><trkpt lat="44.0466851" lon="11.8288823"><ele>263.0</ele><time>2026-05-03T08:10:52.625Z</time></trkpt><trkpt lat="44.0467426" lon="11.828945"><ele>263.0</ele><time>2026-05-03T08:10:53.625Z</time></trkpt><trkpt lat="44.0467996" lon="11.8290159"><ele>260.0</ele><time>2026-05-03T08:10:54.625Z</time></trkpt><trkpt lat="44.0468553" lon="11.8290843"><ele>257.0</ele><time>2026-05-03T08:10:55.635Z</time></trkpt><trkpt lat="44.0469013" lon="11.8291447"><ele>254.0</ele><time>2026-05-03T08:10:56.62Z</time></trkpt><trkpt lat="44.0470132" lon="11.829139"><ele>251.0</ele><time>2026-05-03T08:10:58.625Z</time></trkpt><trkpt lat="44.0470722" lon="11.8290903"><ele>248.00000000000003</ele><time>2026-05-03T08:10:59.625Z</time></trkpt><trkpt lat="44.0471267" lon="11.8290268"><ele>245.0</ele><time>2026-05-03T08:11:00.615Z</time></trkpt><trkpt lat="44.047166" lon="11.8288831"><ele>245.0</ele><time>2026-05-03T08:11:02.619Z</time></trkpt><trkpt lat="44.0471017" lon="11.8288042"><ele>245.0</ele><time>2026-05-03T08:11:04.622Z</time></trkpt><trkpt lat="44.0469885" lon="11.8287244"><ele>245.0</ele><time>2026-05-03T08:11:06.618Z</time></trkpt><trkpt lat="44.0469238" lon="11.8286651"><ele>245.0</ele><time>2026-05-03T08:11:07.615Z</time></trkpt><trkpt lat="44.0468488" lon="11.8285766"><ele>245.0</ele><time>2026-05-03T08:11:08.602Z</time></trkpt><trkpt lat="44.0467878" lon="11.8284797"><ele>243.4</ele><time>2026-05-03T08:11:09.605Z</time></trkpt><trkpt lat="44.0467425" lon="11.8283611"><ele>241.8</ele><time>2026-05-03T08:11:10.606Z</time></trkpt><trkpt lat="44.046711" lon="11.8282689"><ele>240.2</ele><time>2026-05-03T08:11:11.604Z</time></trkpt><trkpt lat="44.0466855" lon="11.8281861"><ele>238.6</ele><time>2026-05-03T08:11:12.619Z</time></trkpt><trkpt lat="44.0467222" lon="11.828032"><ele>237.0</ele><time>2026-05-03T08:11:14.6Z</time></trkpt><trkpt lat="44.0467755" lon="11.8278983"><ele>237.0</ele><time>2026-05-03T08:11:16.604Z</time></trkpt><trkpt lat="44.0468023" lon="11.8277545"><ele>237.0</ele><time>2026-05-03T08:11:18.613Z</time></trkpt><trkpt lat="44.0467996" lon="11.8276633"><ele>237.0</ele><time>2026-05-03T08:11:19.605Z</time></trkpt><trkpt lat="44.046813" lon="11.8275737"><ele>237.0</ele><time>2026-05-03T08:11:20.606Z</time></trkpt><trkpt lat="44.046865" lon="11.8274388"><ele>237.0</ele><time>2026-05-03T08:11:22.629Z</time></trkpt><trkpt lat="44.0469282" lon="11.8273451"><ele>237.0</ele><time>2026-05-03T08:11:24.612Z</time></trkpt><trkpt lat="44.0469434" lon="11.827237"><ele>235.6</ele><time>2026-05-03T08:11:26.624Z</time></trkpt><trkpt lat="44.046901" lon="11.8271128"><ele>234.2</ele><time>2026-05-03T08:11:28.617Z</time></trkpt><trkpt lat="44.0468926" lon="11.8269773"><ele>232.8</ele><time>2026-05-03T08:11:30.61Z</time></trkpt><trkpt lat="44.0468936" lon="11.8268216"><ele>231.4</ele><time>2026-05-03T08:11:32.615Z</time></trkpt><trkpt lat="44.0468713" lon="11.8266625"><ele>230.0</ele><time>2026-05-03T08:11:34.615Z</time></trkpt><trkpt lat="44.0468628" lon="11.8264944"><ele>229.75</ele><time>2026-05-03T08:11:36.612Z</time></trkpt><trkpt lat="44.0468653" lon="11.8263334"><ele>229.5</ele><time>2026-05-03T08:11:38.618Z</time></trkpt><trkpt lat="44.046856" lon="11.8261753"><ele>229.25</ele><time>2026-05-03T08:11:40.615Z</time></trkpt><trkpt lat="44.0468381" lon="11.8260262"><ele>229.0</ele><time>2026-05-03T08:11:42.616Z</time></trkpt><trkpt lat="44.0468598" lon="11.8258718"><ele>229.0</ele><time>2026-05-03T08:11:44.619Z</time></trkpt><trkpt lat="44.0468058" lon="11.8257259"><ele>228.99999999999997</ele><time>2026-05-03T08:11:46.619Z</time></trkpt><trkpt lat="44.0467621" lon="11.8256587"><ele>228.99999999999997</ele><time>2026-05-03T08:11:47.627Z</time></trkpt><trkpt lat="44.0467251" lon="11.825503"><ele>229.0</ele><time>2026-05-03T08:11:49.617Z</time></trkpt><trkpt lat="44.0466829" lon="11.8253535"><ele>229.0</ele><time>2026-05-03T08:11:51.621Z</time></trkpt><trkpt lat="44.0466569" lon="11.825272"><ele>231.5</ele><time>2026-05-03T08:11:52.624Z</time></trkpt><trkpt lat="44.0465943" lon="11.8251303"><ele>234.0</ele><time>2026-05-03T08:11:54.618Z</time></trkpt><trkpt lat="44.046542" lon="11.8249976"><ele>236.5</ele><time>2026-05-03T08:11:56.611Z</time></trkpt><trkpt lat="44.0465457" lon="11.8248461"><ele>239.0</ele><time>2026-05-03T08:11:58.621Z</time></trkpt><trkpt lat="44.0465973" lon="11.8246956"><ele>237.2</ele><time>2026-05-03T08:12:00.616Z</time></trkpt><trkpt lat="44.0466344" lon="11.8246234"><ele>235.39999999999998</ele><time>2026-05-03T08:12:01.617Z</time></trkpt><trkpt lat="44.0467092" lon="11.824499"><ele>233.6</ele><time>2026-05-03T08:12:03.611Z</time></trkpt><trkpt lat="44.0467876" lon="11.8243829"><ele>231.8</ele><time>2026-05-03T08:12:05.607Z</time></trkpt><trkpt lat="44.0468282" lon="11.8242414"><ele>230.0</ele><time>2026-05-03T08:12:07.62Z</time></trkpt><trkpt lat="44.0468398" lon="11.8241014"><ele>230.0</ele><time>2026-05-03T08:12:09.624Z</time></trkpt><trkpt lat="44.0468614" lon="11.8239339"><ele>230.0</ele><time>2026-05-03T08:12:11.617Z</time></trkpt><trkpt lat="44.0468712" lon="11.823759"><ele>230.0</ele><time>2026-05-03T08:12:13.616Z</time></trkpt><trkpt lat="44.0468853" lon="11.8235853"><ele>230.0</ele><time>2026-05-03T08:12:15.62Z</time></trkpt><trkpt lat="44.0468934" lon="11.8234871"><ele>230.0</ele><time>2026-05-03T08:12:16.618Z</time></trkpt><trkpt lat="44.0469044" lon="11.8233988"><ele>230.2</ele><time>2026-05-03T08:12:17.619Z</time></trkpt><trkpt lat="44.0469158" lon="11.8233118"><ele>230.4</ele><time>2026-05-03T08:12:18.618Z</time></trkpt><trkpt lat="44.0469317" lon="11.8231561"><ele>230.60000000000002</ele><time>2026-05-03T08:12:20.613Z</time></trkpt><trkpt lat="44.0469361" lon="11.8229983"><ele>230.8</ele><time>2026-05-03T08:12:22.622Z</time></trkpt><trkpt lat="44.0469165" lon="11.8228463"><ele>231.0</ele><time>2026-05-03T08:12:24.633Z</time></trkpt><trkpt lat="44.0468844" lon="11.8227114"><ele>231.20000000000002</ele><time>2026-05-03T08:12:26.625Z</time></trkpt><trkpt lat="44.0468473" lon="11.8225625"><ele>231.40000000000003</ele><time>2026-05-03T08:12:28.618Z</time></trkpt><trkpt lat="44.046812" lon="11.8224154"><ele>231.6</ele><time>2026-05-03T08:12:30.613Z</time></trkpt><trkpt lat="44.0467614" lon="11.8222967"><ele>231.8</ele><time>2026-05-03T08:12:32.613Z</time></trkpt><trkpt lat="44.0466788" lon="11.8221835"><ele>232.0</ele><time>2026-05-03T08:12:34.613Z</time></trkpt><trkpt lat="44.0466051" lon="11.8220554"><ele>232.2</ele><time>2026-05-03T08:12:36.618Z</time></trkpt><trkpt lat="44.0465354" lon="11.8219325"><ele>232.39999999999998</ele><time>2026-05-03T08:12:38.619Z</time></trkpt><trkpt lat="44.0464818" lon="11.8218064"><ele>232.60000000000002</ele><time>2026-05-03T08:12:40.619Z</time></trkpt><trkpt lat="44.0464247" lon="11.821673"><ele>232.8</ele><time>2026-05-03T08:12:42.619Z</time></trkpt><trkpt lat="44.0463832" lon="11.8215439"><ele>233.0</ele><time>2026-05-03T08:12:44.62Z</time></trkpt><trkpt lat="44.0463423" lon="11.8214199"><ele>233.0</ele><time>2026-05-03T08:12:46.618Z</time></trkpt><trkpt lat="44.0463202" lon="11.821285"><ele>233.0</ele><time>2026-05-03T08:12:48.628Z</time></trkpt><trkpt lat="44.0463017" lon="11.8211509"><ele>233.0</ele><time>2026-05-03T08:12:50.622Z</time></trkpt><trkpt lat="44.0462741" lon="11.821008"><ele>233.0</ele><time>2026-05-03T08:12:52.621Z</time></trkpt><trkpt lat="44.0462447" lon="11.8208573"><ele>233.0</ele><time>2026-05-03T08:12:54.609Z</time></trkpt><trkpt lat="44.0461961" lon="11.8207079"><ele>233.0</ele><time>2026-05-03T08:12:56.617Z</time></trkpt><trkpt lat="44.0461453" lon="11.820558"><ele>233.0</ele><time>2026-05-03T08:12:58.613Z</time></trkpt><trkpt lat="44.0461021" lon="11.820412"><ele>233.0</ele><time>2026-05-03T08:13:00.615Z</time></trkpt><trkpt lat="44.0460697" lon="11.8202596"><ele>233.0</ele><time>2026-05-03T08:13:02.616Z</time></trkpt><trkpt lat="44.0460389" lon="11.8201015"><ele>233.4</ele><time>2026-05-03T08:13:04.62Z</time></trkpt><trkpt lat="44.0460007" lon="11.8199546"><ele>233.8</ele><time>2026-05-03T08:13:06.614Z</time></trkpt><trkpt lat="44.0459666" lon="11.8198136"><ele>234.2</ele><time>2026-05-03T08:13:08.613Z</time></trkpt><trkpt lat="44.0459374" lon="11.8196636"><ele>234.6</ele><time>2026-05-03T08:13:10.625Z</time></trkpt><trkpt lat="44.0459046" lon="11.8195194"><ele>235.0</ele><time>2026-05-03T08:13:12.621Z</time></trkpt><trkpt lat="44.0458325" lon="11.8194341"><ele>235.6</ele><time>2026-05-03T08:13:14.619Z</time></trkpt><trkpt lat="44.0457436" lon="11.8194448"><ele>236.2</ele><time>2026-05-03T08:13:16.629Z</time></trkpt><trkpt lat="44.0456541" lon="11.8195175"><ele>236.8</ele><time>2026-05-03T08:13:18.628Z</time></trkpt><trkpt lat="44.0455613" lon="11.8195756"><ele>237.4</ele><time>2026-05-03T08:13:20.63Z</time></trkpt><trkpt lat="44.0454674" lon="11.8196317"><ele>238.0</ele><time>2026-05-03T08:13:22.632Z</time></trkpt><trkpt lat="44.0453795" lon="11.8196712"><ele>237.99999999999997</ele><time>2026-05-03T08:13:24.629Z</time></trkpt><trkpt lat="44.0452936" lon="11.8196871"><ele>238.0</ele><time>2026-05-03T08:13:26.642Z</time></trkpt><trkpt lat="44.0452043" lon="11.8197015"><ele>238.0</ele><time>2026-05-03T08:13:28.628Z</time></trkpt><trkpt lat="44.045115" lon="11.8197186"><ele>238.0</ele><time>2026-05-03T08:13:30.629Z</time></trkpt><trkpt lat="44.0450239" lon="11.8197312"><ele>237.99999999999997</ele><time>2026-05-03T08:13:32.628Z</time></trkpt><trkpt lat="44.0449387" lon="11.8197524"><ele>238.0</ele><time>2026-05-03T08:13:34.63Z</time></trkpt><trkpt lat="44.044861" lon="11.8197867"><ele>239.66666666666666</ele><time>2026-05-03T08:13:36.625Z</time></trkpt><trkpt lat="44.0447775" lon="11.8198438"><ele>241.33333333333331</ele><time>2026-05-03T08:13:38.625Z</time></trkpt><trkpt lat="44.0446902" lon="11.8198997"><ele>243.0</ele><time>2026-05-03T08:13:40.628Z</time></trkpt><trkpt lat="44.0446136" lon="11.8199832"><ele>244.66666666666669</ele><time>2026-05-03T08:13:42.62Z</time></trkpt><trkpt lat="44.044547" lon="11.8200699"><ele>246.33333333333334</ele><time>2026-05-03T08:13:44.628Z</time></trkpt><trkpt lat="44.0444802" lon="11.820056"><ele>248.0</ele><time>2026-05-03T08:13:46.626Z</time></trkpt><trkpt lat="44.0444229" lon="11.8199513"><ele>248.0</ele><time>2026-05-03T08:13:48.631Z</time></trkpt><trkpt lat="44.0443846" lon="11.8198243"><ele>248.0</ele><time>2026-05-03T08:13:50.632Z</time></trkpt><trkpt lat="44.0443346" lon="11.8197024"><ele>248.0</ele><time>2026-05-03T08:13:52.626Z</time></trkpt><trkpt lat="44.0442948" lon="11.819579"><ele>248.0</ele><time>2026-05-03T08:13:54.621Z</time></trkpt><trkpt lat="44.044251" lon="11.8194486"><ele>248.0</ele><time>2026-05-03T08:13:56.625Z</time></trkpt><trkpt lat="44.0442005" lon="11.8193275"><ele>247.4</ele><time>2026-05-03T08:13:58.616Z</time></trkpt><trkpt lat="44.0441406" lon="11.8192219"><ele>246.8</ele><time>2026-05-03T08:14:00.615Z</time></trkpt><trkpt lat="44.0440835" lon="11.8191053"><ele>246.2</ele><time>2026-05-03T08:14:02.617Z</time></trkpt><trkpt lat="44.0440164" lon="11.8189734"><ele>245.6</ele><time>2026-05-03T08:14:04.622Z</time></trkpt><trkpt lat="44.0439565" lon="11.8188446"><ele>245.0</ele><time>2026-05-03T08:14:06.62Z</time></trkpt><trkpt lat="44.0439261" lon="11.8187677"><ele>246.16666666666669</ele><time>2026-05-03T08:14:07.616Z</time></trkpt><trkpt lat="44.0438972" lon="11.8186865"><ele>247.33333333333334</ele><time>2026-05-03T08:14:08.613Z</time></trkpt><trkpt lat="44.0438638" lon="11.8186119"><ele>248.5</ele><time>2026-05-03T08:14:09.617Z</time></trkpt><trkpt lat="44.0438256" lon="11.8185417"><ele>249.66666666666669</ele><time>2026-05-03T08:14:10.617Z</time></trkpt><trkpt lat="44.0437921" lon="11.8184674"><ele>250.83333333333334</ele><time>2026-05-03T08:14:11.616Z</time></trkpt><trkpt lat="44.0437251" lon="11.8183261"><ele>252.0</ele><time>2026-05-03T08:14:13.625Z</time></trkpt><trkpt lat="44.0436593" lon="11.818201"><ele>252.0</ele><time>2026-05-03T08:14:15.619Z</time></trkpt><trkpt lat="44.0436008" lon="11.8180817"><ele>252.0</ele><time>2026-05-03T08:14:17.621Z</time></trkpt><trkpt lat="44.0435423" lon="11.817954"><ele>252.0</ele><time>2026-05-03T08:14:19.619Z</time></trkpt><trkpt lat="44.0434849" lon="11.817799"><ele>252.0</ele><time>2026-05-03T08:14:21.619Z</time></trkpt><trkpt lat="44.0434392" lon="11.8176456"><ele>251.0</ele><time>2026-05-03T08:14:23.614Z</time></trkpt><trkpt lat="44.0433837" lon="11.817503"><ele>250.0</ele><time>2026-05-03T08:14:25.614Z</time></trkpt><trkpt lat="44.0433293" lon="11.8173721"><ele>249.0</ele><time>2026-05-03T08:14:27.618Z</time></trkpt><trkpt lat="44.0432633" lon="11.8173613"><ele>248.0</ele><time>2026-05-03T08:14:30.628Z</time></trkpt><trkpt lat="44.0432843" lon="11.8174799"><ele>247.0</ele><time>2026-05-03T08:14:32.627Z</time></trkpt><trkpt lat="44.0433264" lon="11.8176048"><ele>247.83333333333331</ele><time>2026-05-03T08:14:34.627Z</time></trkpt><trkpt lat="44.0433648" lon="11.8177212"><ele>248.66666666666666</ele><time>2026-05-03T08:14:36.626Z</time></trkpt><trkpt lat="44.0433969" lon="11.8178427"><ele>249.5</ele><time>2026-05-03T08:14:38.625Z</time></trkpt><trkpt lat="44.0434152" lon="11.8179559"><ele>250.33333333333331</ele><time>2026-05-03T08:14:40.626Z</time></trkpt><trkpt lat="44.0434186" lon="11.818058"><ele>251.16666666666666</ele><time>2026-05-03T08:14:42.627Z</time></trkpt><trkpt lat="44.0434114" lon="11.8181539"><ele>252.0</ele><time>2026-05-03T08:14:44.625Z</time></trkpt><trkpt lat="44.0433917" lon="11.818247"><ele>252.0</ele><time>2026-05-03T08:14:46.628Z</time></trkpt><trkpt lat="44.043343" lon="11.8183562"><ele>252.0</ele><time>2026-05-03T08:14:49.627Z</time></trkpt><trkpt lat="44.043285" lon="11.8184332"><ele>252.0</ele><time>2026-05-03T08:14:52.633Z</time></trkpt><trkpt lat="44.0432031" lon="11.8184767"><ele>252.0</ele><time>2026-05-03T08:14:55.638Z</time></trkpt><trkpt lat="44.0431168" lon="11.8184929"><ele>252.0</ele><time>2026-05-03T08:14:58.632Z</time></trkpt><trkpt lat="44.0430297" lon="11.8184843"><ele>252.0</ele><time>2026-05-03T08:15:01.633Z</time></trkpt><trkpt lat="44.0429379" lon="11.8184393"><ele>253.33333333333334</ele><time>2026-05-03T08:15:04.624Z</time></trkpt><trkpt lat="44.0428758" lon="11.8183998"><ele>254.66666666666669</ele><time>2026-05-03T08:15:06.628Z</time></trkpt><trkpt lat="44.0428175" lon="11.8183571"><ele>256.0</ele><time>2026-05-03T08:15:08.626Z</time></trkpt><trkpt lat="44.0427661" lon="11.8183039"><ele>257.33333333333337</ele><time>2026-05-03T08:15:10.625Z</time></trkpt><trkpt lat="44.0426963" lon="11.8182241"><ele>258.6666666666667</ele><time>2026-05-03T08:15:13.63Z</time></trkpt><trkpt lat="44.042624" lon="11.8181375"><ele>260.0</ele><time>2026-05-03T08:15:16.626Z</time></trkpt><trkpt lat="44.0425707" lon="11.8180738"><ele>260.00000000000006</ele><time>2026-05-03T08:15:18.628Z</time></trkpt><trkpt lat="44.0425224" lon="11.8180085"><ele>260.0</ele><time>2026-05-03T08:15:20.628Z</time></trkpt><trkpt lat="44.0424743" lon="11.8179426"><ele>260.0</ele><time>2026-05-03T08:15:22.631Z</time></trkpt><trkpt lat="44.042424" lon="11.8178861"><ele>260.0</ele><time>2026-05-03T08:15:24.63Z</time></trkpt><trkpt lat="44.0423768" lon="11.8178245"><ele>260.0</ele><time>2026-05-03T08:15:26.623Z</time></trkpt><trkpt lat="44.0423339" lon="11.8177489"><ele>260.00000000000006</ele><time>2026-05-03T08:15:28.621Z</time></trkpt><trkpt lat="44.0422794" lon="11.817684"><ele>260.0</ele><time>2026-05-03T08:15:30.628Z</time></trkpt><trkpt lat="44.0422159" lon="11.8176171"><ele>260.83333333333337</ele><time>2026-05-03T08:15:32.627Z</time></trkpt><trkpt lat="44.0421479" lon="11.8175523"><ele>261.6666666666667</ele><time>2026-05-03T08:15:34.629Z</time></trkpt><trkpt lat="44.042087" lon="11.8174826"><ele>262.5</ele><time>2026-05-03T08:15:36.626Z</time></trkpt><trkpt lat="44.0420358" lon="11.817396"><ele>263.3333333333333</ele><time>2026-05-03T08:15:38.623Z</time></trkpt><trkpt lat="44.0419798" lon="11.8173179"><ele>264.16666666666663</ele><time>2026-05-03T08:15:40.625Z</time></trkpt><trkpt lat="44.0419182" lon="11.8172438"><ele>265.0</ele><time>2026-05-03T08:15:42.625Z</time></trkpt><trkpt lat="44.0418587" lon="11.8171831"><ele>264.99999999999994</ele><time>2026-05-03T08:15:44.626Z</time></trkpt><trkpt lat="44.0418015" lon="11.81712"><ele>265.0</ele><time>2026-05-03T08:15:46.632Z</time></trkpt><trkpt lat="44.041751" lon="11.8170593"><ele>265.0</ele><time>2026-05-03T08:15:48.629Z</time></trkpt><trkpt lat="44.0416996" lon="11.817003"><ele>265.0</ele><time>2026-05-03T08:15:50.63Z</time></trkpt><trkpt lat="44.0416465" lon="11.8169459"><ele>265.0</ele><time>2026-05-03T08:15:52.632Z</time></trkpt><trkpt lat="44.0415943" lon="11.8168861"><ele>264.99999999999994</ele><time>2026-05-03T08:15:54.627Z</time></trkpt><trkpt lat="44.041542" lon="11.8168324"><ele>265.0</ele><time>2026-05-03T08:15:56.626Z</time></trkpt><trkpt lat="44.0414948" lon="11.816764"><ele>266.4285714285714</ele><time>2026-05-03T08:15:58.626Z</time></trkpt><trkpt lat="44.0414449" lon="11.8166988"><ele>267.85714285714283</ele><time>2026-05-03T08:16:00.642Z</time></trkpt><trkpt lat="44.0413829" lon="11.8166566"><ele>269.2857142857143</ele><time>2026-05-03T08:16:02.628Z</time></trkpt><trkpt lat="44.0413197" lon="11.8166215"><ele>270.71428571428567</ele><time>2026-05-03T08:16:04.622Z</time></trkpt><trkpt lat="44.0412558" lon="11.8165873"><ele>272.1428571428571</ele><time>2026-05-03T08:16:06.626Z</time></trkpt><trkpt lat="44.0411913" lon="11.8165492"><ele>273.57142857142856</ele><time>2026-05-03T08:16:08.624Z</time></trkpt><trkpt lat="44.0411001" lon="11.8165092"><ele>275.0</ele><time>2026-05-03T08:16:11.625Z</time></trkpt><trkpt lat="44.0410361" lon="11.8164908"><ele>275.0</ele><time>2026-05-03T08:16:13.625Z</time></trkpt><trkpt lat="44.0409779" lon="11.8164541"><ele>275.0</ele><time>2026-05-03T08:16:15.63Z</time></trkpt><trkpt lat="44.0409166" lon="11.8164234"><ele>275.0</ele><time>2026-05-03T08:16:17.631Z</time></trkpt><trkpt lat="44.0408258" lon="11.8163768"><ele>275.0</ele><time>2026-05-03T08:16:20.626Z</time></trkpt><trkpt lat="44.0407579" lon="11.8163455"><ele>275.0</ele><time>2026-05-03T08:16:23.526Z</time></trkpt><trkpt lat="44.0406929" lon="11.8163025"><ele>275.0</ele><time>2026-05-03T08:16:26.624Z</time></trkpt><trkpt lat="44.0406193" lon="11.8162649"><ele>275.0</ele><time>2026-05-03T08:16:29.631Z</time></trkpt><trkpt lat="44.0405523" lon="11.816228"><ele>277.0</ele><time>2026-05-03T08:16:32.628Z</time></trkpt><trkpt lat="44.0404796" lon="11.8161842"><ele>279.0</ele><time>2026-05-03T08:16:35.623Z</time></trkpt><trkpt lat="44.0404062" lon="11.8161453"><ele>281.0</ele><time>2026-05-03T08:16:38.626Z</time></trkpt><trkpt lat="44.0403359" lon="11.8161142"><ele>283.0</ele><time>2026-05-03T08:16:41.627Z</time></trkpt><trkpt lat="44.0402576" lon="11.8160788"><ele>285.0</ele><time>2026-05-03T08:16:44.624Z</time></trkpt><trkpt lat="44.0401848" lon="11.8160383"><ele>287.0</ele><time>2026-05-03T08:16:47.626Z</time></trkpt><trkpt lat="44.040115" lon="11.8160021"><ele>286.1666666666667</ele><time>2026-05-03T08:16:50.622Z</time></trkpt><trkpt lat="44.040029" lon="11.8159616"><ele>285.33333333333337</ele><time>2026-05-03T08:16:53.628Z</time></trkpt><trkpt lat="44.0399515" lon="11.815914"><ele>284.5</ele><time>2026-05-03T08:16:56.624Z</time></trkpt><trkpt lat="44.0398819" lon="11.8158673"><ele>283.6666666666667</ele><time>2026-05-03T08:16:59.632Z</time></trkpt><trkpt lat="44.0398117" lon="11.8158204"><ele>282.8333333333333</ele><time>2026-05-03T08:17:02.638Z</time></trkpt><trkpt lat="44.0397379" lon="11.8157617"><ele>282.0</ele><time>2026-05-03T08:17:05.621Z</time></trkpt><trkpt lat="44.0396601" lon="11.8156966"><ele>285.0</ele><time>2026-05-03T08:17:08.623Z</time></trkpt><trkpt lat="44.0395833" lon="11.8156212"><ele>288.0</ele><time>2026-05-03T08:17:11.625Z</time></trkpt><trkpt lat="44.0395165" lon="11.8155495"><ele>291.0</ele><time>2026-05-03T08:17:14.622Z</time></trkpt><trkpt lat="44.0394418" lon="11.8154752"><ele>294.0</ele><time>2026-05-03T08:17:17.617Z</time></trkpt><trkpt lat="44.0393685" lon="11.8153923"><ele>297.0</ele><time>2026-05-03T08:17:20.62Z</time></trkpt><trkpt lat="44.0393104" lon="11.8153324"><ele>300.0</ele><time>2026-05-03T08:17:22.626Z</time></trkpt><trkpt lat="44.0392624" lon="11.8152705"><ele>300.0</ele><time>2026-05-03T08:17:24.627Z</time></trkpt><trkpt lat="44.0392036" lon="11.8151801"><ele>300.0</ele><time>2026-05-03T08:17:27.62Z</time></trkpt><trkpt lat="44.0391483" lon="11.815089"><ele>300.0</ele><time>2026-05-03T08:17:30.618Z</time></trkpt><trkpt lat="44.0390918" lon="11.8149885"><ele>300.0</ele><time>2026-05-03T08:17:33.634Z</time></trkpt><trkpt lat="44.0390359" lon="11.8148907"><ele>300.0</ele><time>2026-05-03T08:17:36.617Z</time></trkpt><trkpt lat="44.0389739" lon="11.8147983"><ele>300.0</ele><time>2026-05-03T08:17:39.619Z</time></trkpt><trkpt lat="44.0389147" lon="11.8146924"><ele>300.2857142857143</ele><time>2026-05-03T08:17:42.62Z</time></trkpt><trkpt lat="44.0388722" lon="11.8146166"><ele>300.57142857142856</ele><time>2026-05-03T08:17:44.62Z</time></trkpt><trkpt lat="44.0388272" lon="11.8145488"><ele>300.8571428571429</ele><time>2026-05-03T08:17:46.622Z</time></trkpt><trkpt lat="44.0387873" lon="11.8144778"><ele>301.1428571428571</ele><time>2026-05-03T08:17:48.626Z</time></trkpt><trkpt lat="44.0387463" lon="11.8144072"><ele>301.42857142857144</ele><time>2026-05-03T08:17:50.619Z</time></trkpt><trkpt lat="44.0386992" lon="11.8143351"><ele>301.7142857142857</ele><time>2026-05-03T08:17:52.618Z</time></trkpt><trkpt lat="44.0386659" lon="11.8142599"><ele>302.0</ele><time>2026-05-03T08:17:54.616Z</time></trkpt><trkpt lat="44.0386192" lon="11.814163"><ele>302.0</ele><time>2026-05-03T08:17:57.613Z</time></trkpt><trkpt lat="44.0385675" lon="11.814063"><ele>302.0</ele><time>2026-05-03T08:18:00.616Z</time></trkpt><trkpt lat="44.0385224" lon="11.8139484"><ele>302.0</ele><time>2026-05-03T08:18:03.62Z</time></trkpt><trkpt lat="44.0384766" lon="11.8138823"><ele>302.0</ele><time>2026-05-03T08:18:05.619Z</time></trkpt><trkpt lat="44.0384298" lon="11.8138188"><ele>302.0</ele><time>2026-05-03T08:18:07.619Z</time></trkpt><trkpt lat="44.0383639" lon="11.8137336"><ele>302.0</ele><time>2026-05-03T08:18:10.622Z</time></trkpt><trkpt lat="44.0382949" lon="11.8136386"><ele>304.14285714285717</ele><time>2026-05-03T08:18:13.618Z</time></trkpt><trkpt lat="44.038245" lon="11.8135768"><ele>306.2857142857143</ele><time>2026-05-03T08:18:15.625Z</time></trkpt><trkpt lat="44.0381888" lon="11.8135145"><ele>308.42857142857144</ele><time>2026-05-03T08:18:17.621Z</time></trkpt><trkpt lat="44.0381381" lon="11.813455"><ele>310.57142857142856</ele><time>2026-05-03T08:18:19.616Z</time></trkpt><trkpt lat="44.0380761" lon="11.8133654"><ele>312.7142857142857</ele><time>2026-05-03T08:18:22.624Z</time></trkpt><trkpt lat="44.0380286" lon="11.8133043"><ele>314.8571428571429</ele><time>2026-05-03T08:18:24.616Z</time></trkpt><trkpt lat="44.0379755" lon="11.8132101"><ele>317.0</ele><time>2026-05-03T08:18:27.617Z</time></trkpt><trkpt lat="44.0379285" lon="11.8131345"><ele>317.0</ele><time>2026-05-03T08:18:30.617Z</time></trkpt><trkpt lat="44.037865" lon="11.8130568"><ele>317.0</ele><time>2026-05-03T08:18:33.614Z</time></trkpt><trkpt lat="44.0378037" lon="11.8129844"><ele>317.0</ele><time>2026-05-03T08:18:36.615Z</time></trkpt><trkpt lat="44.037725" lon="11.8129286"><ele>317.0</ele><time>2026-05-03T08:18:39.617Z</time></trkpt><trkpt lat="44.0376654" lon="11.8128989"><ele>317.0</ele><time>2026-05-03T08:18:41.616Z</time></trkpt><trkpt lat="44.0375895" lon="11.8128765"><ele>317.0</ele><time>2026-05-03T08:18:44.618Z</time></trkpt><trkpt lat="44.0375052" lon="11.812867"><ele>320.33333333333337</ele><time>2026-05-03T08:18:47.615Z</time></trkpt><trkpt lat="44.0374224" lon="11.8128832"><ele>323.6666666666667</ele><time>2026-05-03T08:18:50.624Z</time></trkpt><trkpt lat="44.0373423" lon="11.8129007"><ele>327.0</ele><time>2026-05-03T08:18:53.629Z</time></trkpt><trkpt lat="44.0373171" lon="11.8130263"><ele>330.3333333333333</ele><time>2026-05-03T08:18:56.625Z</time></trkpt><trkpt lat="44.0372857" lon="11.8131321"><ele>333.66666666666663</ele><time>2026-05-03T08:18:59.627Z</time></trkpt><trkpt lat="44.0372343" lon="11.813201"><ele>337.0</ele><time>2026-05-03T08:19:02.624Z</time></trkpt><trkpt lat="44.0371717" lon="11.8132485"><ele>337.00000000000006</ele><time>2026-05-03T08:19:05.625Z</time></trkpt><trkpt lat="44.0371097" lon="11.8132868"><ele>337.0</ele><time>2026-05-03T08:19:08.625Z</time></trkpt><trkpt lat="44.037053" lon="11.8133523"><ele>337.0</ele><time>2026-05-03T08:19:12.619Z</time></trkpt><trkpt lat="44.0370519" lon="11.8134554"><ele>337.0</ele><time>2026-05-03T08:19:16.62Z</time></trkpt><trkpt lat="44.0370862" lon="11.8135428"><ele>337.0</ele><time>2026-05-03T08:19:20.616Z</time></trkpt><trkpt lat="44.0371548" lon="11.8136118"><ele>337.00000000000006</ele><time>2026-05-03T08:19:24.625Z</time></trkpt><trkpt lat="44.0372039" lon="11.8136926"><ele>337.0</ele><time>2026-05-03T08:19:28.62Z</time></trkpt><trkpt lat="44.0372524" lon="11.8137664"><ele>339.3333333333333</ele><time>2026-05-03T08:19:32.62Z</time></trkpt><trkpt lat="44.0372715" lon="11.8138829"><ele>341.66666666666663</ele><time>2026-05-03T08:19:36.612Z</time></trkpt><trkpt lat="44.0372847" lon="11.8139886"><ele>344.0</ele><time>2026-05-03T08:19:40.618Z</time></trkpt><trkpt lat="44.0372904" lon="11.8141021"><ele>346.3333333333333</ele><time>2026-05-03T08:19:44.618Z</time></trkpt><trkpt lat="44.0373011" lon="11.8142026"><ele>348.6666666666667</ele><time>2026-05-03T08:19:48.621Z</time></trkpt><trkpt lat="44.0373051" lon="11.8142929"><ele>351.0</ele><time>2026-05-03T08:19:52.622Z</time></trkpt><trkpt lat="44.037268" lon="11.8143828"><ele>352.00000000000006</ele><time>2026-05-03T08:19:56.622Z</time></trkpt><trkpt lat="44.0372307" lon="11.8144678"><ele>353.0</ele><time>2026-05-03T08:20:00.625Z</time></trkpt><trkpt lat="44.0371831" lon="11.8145531"><ele>354.0</ele><time>2026-05-03T08:20:04.626Z</time></trkpt><trkpt lat="44.0371376" lon="11.8146159"><ele>355.0</ele><time>2026-05-03T08:20:07.641Z</time></trkpt><trkpt lat="44.0370665" lon="11.8146855"><ele>356.0</ele><time>2026-05-03T08:20:10.629Z</time></trkpt><trkpt lat="44.0370077" lon="11.8147364"><ele>357.00000000000006</ele><time>2026-05-03T08:20:13.625Z</time></trkpt><trkpt lat="44.0369367" lon="11.8147849"><ele>358.0</ele><time>2026-05-03T08:20:17.629Z</time></trkpt><trkpt lat="44.0368913" lon="11.8148521"><ele>358.00000000000006</ele><time>2026-05-03T08:20:20.634Z</time></trkpt><trkpt lat="44.0368467" lon="11.8149385"><ele>358.0</ele><time>2026-05-03T08:20:23.628Z</time></trkpt><trkpt lat="44.0367959" lon="11.8150197"><ele>358.0</ele><time>2026-05-03T08:20:27.625Z</time></trkpt><trkpt lat="44.0367655" lon="11.8151004"><ele>358.0</ele><time>2026-05-03T08:20:31.627Z</time></trkpt><trkpt lat="44.0367328" lon="11.8151923"><ele>358.0</ele><time>2026-05-03T08:20:34.625Z</time></trkpt><trkpt lat="44.0367137" lon="11.8152814"><ele>358.00000000000006</ele><time>2026-05-03T08:20:37.626Z</time></trkpt><trkpt lat="44.0366733" lon="11.8153855"><ele>358.0</ele><time>2026-05-03T08:20:40.629Z</time></trkpt><trkpt lat="44.0366167" lon="11.8154653"><ele>358.8571428571429</ele><time>2026-05-03T08:20:43.632Z</time></trkpt><trkpt lat="44.0365502" lon="11.8155313"><ele>359.7142857142857</ele><time>2026-05-03T08:20:46.625Z</time></trkpt><trkpt lat="44.0364958" lon="11.815576"><ele>360.57142857142856</ele><time>2026-05-03T08:20:49.627Z</time></trkpt><trkpt lat="44.036431" lon="11.8156088"><ele>361.42857142857144</ele><time>2026-05-03T08:20:52.633Z</time></trkpt><trkpt lat="44.0363639" lon="11.8156342"><ele>362.2857142857143</ele><time>2026-05-03T08:20:55.626Z</time></trkpt><trkpt lat="44.0362984" lon="11.8156575"><ele>363.14285714285717</ele><time>2026-05-03T08:20:59.634Z</time></trkpt><trkpt lat="44.0362702" lon="11.8157623"><ele>364.0</ele><time>2026-05-03T08:22:56.611Z</time></trkpt><trkpt lat="44.0362072" lon="11.8158537"><ele>364.0</ele><time>2026-05-03T08:22:59.633Z</time></trkpt><trkpt lat="44.0361506" lon="11.8159058"><ele>364.0</ele><time>2026-05-03T08:23:01.623Z</time></trkpt><trkpt lat="44.0360882" lon="11.8159745"><ele>364.0</ele><time>2026-05-03T08:23:03.622Z</time></trkpt><trkpt lat="44.0359981" lon="11.8160529"><ele>364.0</ele><time>2026-05-03T08:23:05.62Z</time></trkpt><trkpt lat="44.0358908" lon="11.8161469"><ele>364.0</ele><time>2026-05-03T08:23:07.613Z</time></trkpt><trkpt lat="44.0358416" lon="11.816207"><ele>364.0</ele><time>2026-05-03T08:23:08.622Z</time></trkpt><trkpt lat="44.0357474" lon="11.8163129"><ele>368.6</ele><time>2026-05-03T08:23:10.61Z</time></trkpt><trkpt lat="44.0356382" lon="11.8162909"><ele>373.2</ele><time>2026-05-03T08:23:12.604Z</time></trkpt><trkpt lat="44.0355667" lon="11.816251"><ele>377.8</ele><time>2026-05-03T08:23:13.622Z</time></trkpt><trkpt lat="44.0354965" lon="11.8162355"><ele>382.40000000000003</ele><time>2026-05-03T08:23:14.606Z</time></trkpt><trkpt lat="44.0353928" lon="11.8162374"><ele>387.0</ele><time>2026-05-03T08:23:16.607Z</time></trkpt><trkpt lat="44.0352736" lon="11.816164"><ele>387.0</ele><time>2026-05-03T08:23:18.611Z</time></trkpt><trkpt lat="44.0352121" lon="11.8161378"><ele>387.0</ele><time>2026-05-03T08:23:19.62Z</time></trkpt><trkpt lat="44.035149" lon="11.8161262"><ele>387.0</ele><time>2026-05-03T08:23:20.609Z</time></trkpt><trkpt lat="44.0350848" lon="11.8161182"><ele>387.0</ele><time>2026-05-03T08:23:21.618Z</time></trkpt><trkpt lat="44.035021" lon="11.8161205"><ele>387.0</ele><time>2026-05-03T08:23:22.613Z</time></trkpt><trkpt lat="44.0349164" lon="11.8161257"><ele>387.0</ele><time>2026-05-03T08:23:24.605Z</time></trkpt><trkpt lat="44.034823" lon="11.8161162"><ele>387.0</ele><time>2026-05-03T08:23:26.606Z</time></trkpt><trkpt lat="44.0347378" lon="11.8160986"><ele>387.0</ele><time>2026-05-03T08:23:28.617Z</time></trkpt><trkpt lat="44.0346494" lon="11.8160918"><ele>387.0</ele><time>2026-05-03T08:23:30.618Z</time></trkpt><trkpt lat="44.0345578" lon="11.8160984"><ele>387.0</ele><time>2026-05-03T08:23:32.611Z</time></trkpt><trkpt lat="44.0344638" lon="11.8160998"><ele>387.0</ele><time>2026-05-03T08:23:34.619Z</time></trkpt><trkpt lat="44.034368" lon="11.8161009"><ele>387.0</ele><time>2026-05-03T08:23:36.613Z</time></trkpt><trkpt lat="44.0342707" lon="11.8161096"><ele>387.0</ele><time>2026-05-03T08:23:38.601Z</time></trkpt><trkpt lat="44.0341992" lon="11.8161615"><ele>387.0</ele><time>2026-05-03T08:23:40.629Z</time></trkpt><trkpt lat="44.0341425" lon="11.816256"><ele>387.0</ele><time>2026-05-03T08:23:42.613Z</time></trkpt><trkpt lat="44.0341062" lon="11.8163441"><ele>387.0</ele><time>2026-05-03T08:23:44.631Z</time></trkpt><trkpt lat="44.0340754" lon="11.81643"><ele>387.0</ele><time>2026-05-03T08:23:47.62Z</time></trkpt><trkpt lat="44.0340319" lon="11.8165021"><ele>387.0</ele><time>2026-05-03T08:23:50.624Z</time></trkpt><trkpt lat="44.033967" lon="11.8165741"><ele>387.0</ele><time>2026-05-03T08:23:53.618Z</time></trkpt><trkpt lat="44.0339989" lon="11.8166697"><ele>387.0</ele><time>2026-05-03T08:23:57.612Z</time></trkpt><trkpt lat="44.0340643" lon="11.8166895"><ele>387.0</ele><time>2026-05-03T08:24:00.623Z</time></trkpt><trkpt lat="44.0341379" lon="11.8166756"><ele>387.0</ele><time>2026-05-03T08:24:03.611Z</time></trkpt><trkpt lat="44.0342182" lon="11.8166622"><ele>387.0</ele><time>2026-05-03T08:24:07.616Z</time></trkpt><trkpt lat="44.0342911" lon="11.8166451"><ele>387.0</ele><time>2026-05-03T08:24:11.614Z</time></trkpt><trkpt lat="44.0343563" lon="11.8166351"><ele>387.0</ele><time>2026-05-03T08:24:14.618Z</time></trkpt><trkpt lat="44.0344313" lon="11.8166431"><ele>387.0</ele><time>2026-05-03T08:24:17.625Z</time></trkpt><trkpt lat="44.0344994" lon="11.8166713"><ele>387.0</ele><time>2026-05-03T08:24:21.622Z</time></trkpt><trkpt lat="44.0345681" lon="11.816761"><ele>387.0</ele><time>2026-05-03T08:25:02.641Z</time></trkpt><trkpt lat="44.0345984" lon="11.8168386"><ele>387.0</ele><time>2026-05-03T08:25:04.636Z</time></trkpt><trkpt lat="44.0346119" lon="11.8169371"><ele>387.0</ele><time>2026-05-03T08:25:07.629Z</time></trkpt><trkpt lat="44.0346316" lon="11.8170225"><ele>390.0</ele><time>2026-05-03T08:25:10.639Z</time></trkpt><trkpt lat="44.034602" lon="11.8171093"><ele>393.0</ele><time>2026-05-03T08:25:14.632Z</time></trkpt><trkpt lat="44.0345253" lon="11.8171356"><ele>396.0</ele><time>2026-05-03T08:25:18.636Z</time></trkpt><trkpt lat="44.0344486" lon="11.8171803"><ele>399.0</ele><time>2026-05-03T08:25:22.642Z</time></trkpt><trkpt lat="44.0344277" lon="11.817265"><ele>402.0</ele><time>2026-05-03T08:25:26.566Z</time></trkpt><trkpt lat="44.0344342" lon="11.8173537"><ele>405.0</ele><time>2026-05-03T08:25:29.634Z</time></trkpt><trkpt lat="44.0344459" lon="11.8174597"><ele>408.0</ele><time>2026-05-03T08:25:32.633Z</time></trkpt><trkpt lat="44.0344435" lon="11.8175544"><ele>410.0</ele><time>2026-05-03T08:25:35.634Z</time></trkpt><trkpt lat="44.0344431" lon="11.8176634"><ele>412.0</ele><time>2026-05-03T08:25:39.635Z</time></trkpt><trkpt lat="44.0344405" lon="11.8177586"><ele>414.0</ele><time>2026-05-03T08:25:43.636Z</time></trkpt><trkpt lat="44.0344135" lon="11.8178662"><ele>416.0</ele><time>2026-05-03T08:25:48.652Z</time></trkpt><trkpt lat="44.0343915" lon="11.8179682"><ele>418.0</ele><time>2026-05-03T08:25:52.644Z</time></trkpt><trkpt lat="44.0343594" lon="11.8180649"><ele>420.0</ele><time>2026-05-03T08:25:57.641Z</time></trkpt><trkpt lat="44.0342989" lon="11.8181307"><ele>420.0</ele><time>2026-05-03T08:26:01.638Z</time></trkpt><trkpt lat="44.0342406" lon="11.818193"><ele>420.0</ele><time>2026-05-03T08:26:05.638Z</time></trkpt><trkpt lat="44.0341794" lon="11.8182574"><ele>420.0</ele><time>2026-05-03T08:26:10.648Z</time></trkpt><trkpt lat="44.0341224" lon="11.8183096"><ele>420.0</ele><time>2026-05-03T08:26:15.64Z</time></trkpt><trkpt lat="44.0340579" lon="11.818366"><ele>420.0</ele><time>2026-05-03T08:26:19.66Z</time></trkpt><trkpt lat="44.0339985" lon="11.8184044"><ele>420.0</ele><time>2026-05-03T08:26:23.637Z</time></trkpt><trkpt lat="44.0339445" lon="11.8184552"><ele>420.0</ele><time>2026-05-03T08:26:26.634Z</time></trkpt><trkpt lat="44.0338731" lon="11.8184828"><ele>420.0</ele><time>2026-05-03T08:26:30.65Z</time></trkpt><trkpt lat="44.0337967" lon="11.8185095"><ele>420.0</ele><time>2026-05-03T08:26:34.638Z</time></trkpt><trkpt lat="44.0337341" lon="11.8185371"><ele>420.0</ele><time>2026-05-03T08:26:38.641Z</time></trkpt><trkpt lat="44.0336852" lon="11.8185959"><ele>420.0</ele><time>2026-05-03T08:26:43.636Z</time></trkpt><trkpt lat="44.0336091" lon="11.8186296"><ele>420.0</ele><time>2026-05-03T08:26:47.631Z</time></trkpt><trkpt lat="44.0335469" lon="11.8186619"><ele>420.0</ele><time>2026-05-03T08:26:50.645Z</time></trkpt><trkpt lat="44.0334835" lon="11.8186802"><ele>420.0</ele><time>2026-05-03T08:26:53.638Z</time></trkpt><trkpt lat="44.0334181" lon="11.8186961"><ele>420.0</ele><time>2026-05-03T08:26:57.635Z</time></trkpt><trkpt lat="44.0333551" lon="11.8187023"><ele>420.0</ele><time>2026-05-03T08:27:01.631Z</time></trkpt><trkpt lat="44.0332799" lon="11.8186705"><ele>420.0</ele><time>2026-05-03T08:27:05.633Z</time></trkpt><trkpt lat="44.0331979" lon="11.818673"><ele>420.0</ele><time>2026-05-03T08:27:09.632Z</time></trkpt><trkpt lat="44.0331305" lon="11.8186947"><ele>420.0</ele><time>2026-05-03T08:27:13.626Z</time></trkpt><trkpt lat="44.0330673" lon="11.8187208"><ele>420.0</ele><time>2026-05-03T08:27:16.625Z</time></trkpt><trkpt lat="44.0329914" lon="11.8187549"><ele>420.0</ele><time>2026-05-03T08:27:20.63Z</time></trkpt><trkpt lat="44.0329193" lon="11.81879"><ele>422.2857142857143</ele><time>2026-05-03T08:27:24.632Z</time></trkpt><trkpt lat="44.0328565" lon="11.8188046"><ele>424.57142857142856</ele><time>2026-05-03T08:27:27.63Z</time></trkpt><trkpt lat="44.0327877" lon="11.818833"><ele>426.8571428571429</ele><time>2026-05-03T08:27:31.629Z</time></trkpt><trkpt lat="44.0327328" lon="11.8188862"><ele>429.1428571428571</ele><time>2026-05-03T08:27:35.631Z</time></trkpt><trkpt lat="44.0326766" lon="11.8189363"><ele>431.42857142857144</ele><time>2026-05-03T08:27:39.632Z</time></trkpt><trkpt lat="44.0326122" lon="11.818969"><ele>433.7142857142857</ele><time>2026-05-03T08:27:43.634Z</time></trkpt><trkpt lat="44.0325475" lon="11.8190056"><ele>436.0</ele><time>2026-05-03T08:27:47.637Z</time></trkpt><trkpt lat="44.0325011" lon="11.8190671"><ele>435.7142857142857</ele><time>2026-05-03T08:27:52.645Z</time></trkpt><trkpt lat="44.0324448" lon="11.8191344"><ele>435.42857142857144</ele><time>2026-05-03T08:27:56.622Z</time></trkpt><trkpt lat="44.0323944" lon="11.8191952"><ele>435.1428571428571</ele><time>2026-05-03T08:27:59.623Z</time></trkpt><trkpt lat="44.0323368" lon="11.8192505"><ele>434.8571428571429</ele><time>2026-05-03T08:28:02.617Z</time></trkpt><trkpt lat="44.0322799" lon="11.8193082"><ele>434.57142857142856</ele><time>2026-05-03T08:28:05.622Z</time></trkpt><trkpt lat="44.0322252" lon="11.8193891"><ele>434.2857142857143</ele><time>2026-05-03T08:28:09.621Z</time></trkpt><trkpt lat="44.0321861" lon="11.8194702"><ele>434.0</ele><time>2026-05-03T08:28:12.624Z</time></trkpt><trkpt lat="44.0321489" lon="11.8195517"><ele>437.0</ele><time>2026-05-03T08:28:15.622Z</time></trkpt><trkpt lat="44.0321021" lon="11.8196261"><ele>440.0</ele><time>2026-05-03T08:28:18.62Z</time></trkpt><trkpt lat="44.0320488" lon="11.8196751"><ele>443.0</ele><time>2026-05-03T08:28:21.613Z</time></trkpt><trkpt lat="44.0319702" lon="11.8196958"><ele>446.0</ele><time>2026-05-03T08:28:25.616Z</time></trkpt><trkpt lat="44.0319006" lon="11.8196922"><ele>449.0</ele><time>2026-05-03T08:28:29.613Z</time></trkpt><trkpt lat="44.0318251" lon="11.8196861"><ele>452.0</ele><time>2026-05-03T08:28:33.612Z</time></trkpt><trkpt lat="44.0317592" lon="11.8196936"><ele>455.0</ele><time>2026-05-03T08:28:36.615Z</time></trkpt><trkpt lat="44.0316781" lon="11.8196996"><ele>455.42857142857144</ele><time>2026-05-03T08:28:40.612Z</time></trkpt><trkpt lat="44.0315973" lon="11.8196835"><ele>455.8571428571429</ele><time>2026-05-03T08:28:44.614Z</time></trkpt><trkpt lat="44.0315354" lon="11.8196432"><ele>456.2857142857143</ele><time>2026-05-03T08:28:47.617Z</time></trkpt><trkpt lat="44.0314675" lon="11.8196058"><ele>456.7142857142857</ele><time>2026-05-03T08:28:51.614Z</time></trkpt><trkpt lat="44.0314023" lon="11.8196001"><ele>457.14285714285717</ele><time>2026-05-03T08:28:54.657Z</time></trkpt><trkpt lat="44.0313338" lon="11.8196172"><ele>457.57142857142856</ele><time>2026-05-03T08:28:57.619Z</time></trkpt><trkpt lat="44.0312815" lon="11.8196977"><ele>458.0</ele><time>2026-05-03T08:29:01.612Z</time></trkpt><trkpt lat="44.0312286" lon="11.8197675"><ele>458.0</ele><time>2026-05-03T08:29:05.624Z</time></trkpt><trkpt lat="44.0311681" lon="11.819834"><ele>458.0</ele><time>2026-05-03T08:29:09.623Z</time></trkpt><trkpt lat="44.0311017" lon="11.8198857"><ele>458.0</ele><time>2026-05-03T08:29:13.615Z</time></trkpt><trkpt lat="44.0310394" lon="11.8199163"><ele>458.0</ele><time>2026-05-03T08:29:17.622Z</time></trkpt><trkpt lat="44.030973" lon="11.8199487"><ele>458.0</ele><time>2026-05-03T08:29:21.616Z</time></trkpt><trkpt lat="44.0309162" lon="11.8199961"><ele>458.0</ele><time>2026-05-03T08:29:25.614Z</time></trkpt><trkpt lat="44.0308425" lon="11.8200406"><ele>458.0</ele><time>2026-05-03T08:29:29.617Z</time></trkpt><trkpt lat="44.0307845" lon="11.8200772"><ele>459.2857142857143</ele><time>2026-05-03T08:29:32.613Z</time></trkpt><trkpt lat="44.0307252" lon="11.8201138"><ele>460.57142857142856</ele><time>2026-05-03T08:29:35.612Z</time></trkpt><trkpt lat="44.0306559" lon="11.8201512"><ele>461.85714285714283</ele><time>2026-05-03T08:29:39.613Z</time></trkpt><trkpt lat="44.0305857" lon="11.8201547"><ele>463.1428571428571</ele><time>2026-05-03T08:29:43.618Z</time></trkpt><trkpt lat="44.0305099" lon="11.8201388"><ele>464.42857142857144</ele><time>2026-05-03T08:29:48.619Z</time></trkpt><trkpt lat="44.0304394" lon="11.8201448"><ele>465.71428571428567</ele><time>2026-05-03T08:29:52.613Z</time></trkpt><trkpt lat="44.0303661" lon="11.8201572"><ele>466.99999999999994</ele><time>2026-05-03T08:29:56.614Z</time></trkpt><trkpt lat="44.0302908" lon="11.8201624"><ele>470.3333333333333</ele><time>2026-05-03T08:30:01.617Z</time></trkpt><trkpt lat="44.0302198" lon="11.8201678"><ele>473.66666666666663</ele><time>2026-05-03T08:30:05.609Z</time></trkpt><trkpt lat="44.0301432" lon="11.8202064"><ele>477.0</ele><time>2026-05-03T08:30:09.611Z</time></trkpt><trkpt lat="44.0300923" lon="11.8202661"><ele>480.33333333333337</ele><time>2026-05-03T08:30:12.616Z</time></trkpt><trkpt lat="44.0300353" lon="11.8203391"><ele>483.6666666666667</ele><time>2026-05-03T08:30:16.617Z</time></trkpt><trkpt lat="44.0299871" lon="11.8204138"><ele>487.0</ele><time>2026-05-03T08:30:21.615Z</time></trkpt><trkpt lat="44.0299389" lon="11.820504"><ele>487.0</ele><time>2026-05-03T08:30:25.613Z</time></trkpt><trkpt lat="44.0299532" lon="11.8206007"><ele>487.0</ele><time>2026-05-03T08:30:29.612Z</time></trkpt><trkpt lat="44.0299844" lon="11.820679"><ele>487.0</ele><time>2026-05-03T08:30:33.613Z</time></trkpt><trkpt lat="44.0300288" lon="11.8207517"><ele>487.0</ele><time>2026-05-03T08:30:37.616Z</time></trkpt><trkpt lat="44.0300707" lon="11.8208413"><ele>487.0</ele><time>2026-05-03T08:30:41.613Z</time></trkpt><trkpt lat="44.0301133" lon="11.8209194"><ele>487.0</ele><time>2026-05-03T08:30:45.612Z</time></trkpt><trkpt lat="44.0301575" lon="11.8210066"><ele>487.0</ele><time>2026-05-03T08:30:50.614Z</time></trkpt><trkpt lat="44.0302104" lon="11.8210758"><ele>488.7142857142857</ele><time>2026-05-03T08:30:54.613Z</time></trkpt><trkpt lat="44.0302445" lon="11.821163"><ele>490.42857142857144</ele><time>2026-05-03T08:30:58.614Z</time></trkpt><trkpt lat="44.0302412" lon="11.8212518"><ele>492.14285714285717</ele><time>2026-05-03T08:31:01.617Z</time></trkpt><trkpt lat="44.0302651" lon="11.8213435"><ele>493.8571428571429</ele><time>2026-05-03T08:31:05.624Z</time></trkpt><trkpt lat="44.0302674" lon="11.8214479"><ele>495.57142857142856</ele><time>2026-05-03T08:31:10.621Z</time></trkpt><trkpt lat="44.0302596" lon="11.8215436"><ele>497.28571428571433</ele><time>2026-05-03T08:31:14.62Z</time></trkpt><trkpt lat="44.0302155" lon="11.8216198"><ele>499.00000000000006</ele><time>2026-05-03T08:31:18.621Z</time></trkpt><trkpt lat="44.0301534" lon="11.8216663"><ele>499.00000000000006</ele><time>2026-05-03T08:31:22.621Z</time></trkpt><trkpt lat="44.0300871" lon="11.8217336"><ele>499.0</ele><time>2026-05-03T08:31:26.63Z</time></trkpt><trkpt lat="44.030019" lon="11.8217701"><ele>499.0</ele><time>2026-05-03T08:31:30.623Z</time></trkpt><trkpt lat="44.0299555" lon="11.8217759"><ele>499.0</ele><time>2026-05-03T08:31:33.621Z</time></trkpt><trkpt lat="44.0298907" lon="11.8218344"><ele>499.00000000000006</ele><time>2026-05-03T08:31:37.611Z</time></trkpt><trkpt lat="44.0298358" lon="11.8219449"><ele>499.0</ele><time>2026-05-03T08:33:13.622Z</time></trkpt><trkpt lat="44.0297922" lon="11.8220275"><ele>498.0</ele><time>2026-05-03T08:33:15.623Z</time></trkpt><trkpt lat="44.0297452" lon="11.8221037"><ele>497.0</ele><time>2026-05-03T08:33:17.626Z</time></trkpt><trkpt lat="44.0296814" lon="11.8221679"><ele>496.0</ele><time>2026-05-03T08:33:19.624Z</time></trkpt><trkpt lat="44.0295869" lon="11.8222156"><ele>495.0</ele><time>2026-05-03T08:33:21.623Z</time></trkpt><trkpt lat="44.0294866" lon="11.8222858"><ele>494.0</ele><time>2026-05-03T08:33:23.618Z</time></trkpt><trkpt lat="44.0294203" lon="11.8224139"><ele>493.99999999999994</ele><time>2026-05-03T08:33:25.613Z</time></trkpt><trkpt lat="44.0293948" lon="11.8225412"><ele>494.0</ele><time>2026-05-03T08:33:27.603Z</time></trkpt><trkpt lat="44.0293648" lon="11.8226247"><ele>494.0</ele><time>2026-05-03T08:33:29.621Z</time></trkpt><trkpt lat="44.0293568" lon="11.8227148"><ele>494.0</ele><time>2026-05-03T08:33:31.626Z</time></trkpt><trkpt lat="44.0293564" lon="11.822829"><ele>493.99999999999994</ele><time>2026-05-03T08:33:33.619Z</time></trkpt><trkpt lat="44.0293184" lon="11.8229663"><ele>494.0</ele><time>2026-05-03T08:33:35.614Z</time></trkpt><trkpt lat="44.0292371" lon="11.8230833"><ele>494.16666666666663</ele><time>2026-05-03T08:33:37.614Z</time></trkpt><trkpt lat="44.0291961" lon="11.8231512"><ele>494.3333333333333</ele><time>2026-05-03T08:33:38.615Z</time></trkpt><trkpt lat="44.0291554" lon="11.8232255"><ele>494.5</ele><time>2026-05-03T08:33:39.61Z</time></trkpt><trkpt lat="44.0291106" lon="11.8232917"><ele>494.66666666666663</ele><time>2026-05-03T08:33:40.605Z</time></trkpt><trkpt lat="44.0290615" lon="11.8233582"><ele>494.8333333333333</ele><time>2026-05-03T08:33:41.608Z</time></trkpt><trkpt lat="44.0289851" lon="11.8234727"><ele>495.0</ele><time>2026-05-03T08:33:43.607Z</time></trkpt><trkpt lat="44.0289372" lon="11.8235962"><ele>498.3333333333333</ele><time>2026-05-03T08:33:45.613Z</time></trkpt><trkpt lat="44.0288834" lon="11.8236781"><ele>501.66666666666663</ele><time>2026-05-03T08:33:47.617Z</time></trkpt><trkpt lat="44.0288233" lon="11.8237306"><ele>505.0</ele><time>2026-05-03T08:33:49.614Z</time></trkpt><trkpt lat="44.0287433" lon="11.8237582"><ele>508.3333333333333</ele><time>2026-05-03T08:33:51.62Z</time></trkpt><trkpt lat="44.028643" lon="11.8237505"><ele>511.66666666666663</ele><time>2026-05-03T08:33:53.607Z</time></trkpt><trkpt lat="44.0285509" lon="11.8236951"><ele>515.0</ele><time>2026-05-03T08:33:55.604Z</time></trkpt><trkpt lat="44.0284627" lon="11.8236367"><ele>515.0</ele><time>2026-05-03T08:33:57.604Z</time></trkpt><trkpt lat="44.0283759" lon="11.8235791"><ele>515.0</ele><time>2026-05-03T08:33:59.605Z</time></trkpt><trkpt lat="44.0283294" lon="11.8235176"><ele>515.0</ele><time>2026-05-03T08:34:01.615Z</time></trkpt><trkpt lat="44.0282658" lon="11.823431"><ele>515.0</ele><time>2026-05-03T08:34:03.611Z</time></trkpt><trkpt lat="44.0281955" lon="11.8233416"><ele>515.0</ele><time>2026-05-03T08:34:05.61Z</time></trkpt><trkpt lat="44.0281075" lon="11.8232847"><ele>515.0</ele><time>2026-05-03T08:34:07.605Z</time></trkpt><trkpt lat="44.0280137" lon="11.8232667"><ele>511.0</ele><time>2026-05-03T08:34:09.613Z</time></trkpt><trkpt lat="44.0279383" lon="11.8232479"><ele>507.0</ele><time>2026-05-03T08:34:11.613Z</time></trkpt><trkpt lat="44.0278624" lon="11.8232213"><ele>503.0</ele><time>2026-05-03T08:34:13.616Z</time></trkpt><trkpt lat="44.0277689" lon="11.8231906"><ele>499.0</ele><time>2026-05-03T08:34:15.618Z</time></trkpt><trkpt lat="44.0276499" lon="11.823181"><ele>495.0</ele><time>2026-05-03T08:34:17.606Z</time></trkpt><trkpt lat="44.027548" lon="11.8231896"><ele>493.8333333333333</ele><time>2026-05-03T08:34:19.613Z</time></trkpt><trkpt lat="44.0274711" lon="11.8232034"><ele>492.66666666666663</ele><time>2026-05-03T08:34:21.605Z</time></trkpt><trkpt lat="44.0273779" lon="11.8232152"><ele>491.5</ele><time>2026-05-03T08:34:23.608Z</time></trkpt><trkpt lat="44.0272896" lon="11.8232391"><ele>490.3333333333333</ele><time>2026-05-03T08:34:25.609Z</time></trkpt><trkpt lat="44.0272135" lon="11.8232877"><ele>489.16666666666663</ele><time>2026-05-03T08:34:27.608Z</time></trkpt><trkpt lat="44.0271528" lon="11.8233772"><ele>488.0</ele><time>2026-05-03T08:34:29.611Z</time></trkpt><trkpt lat="44.0270939" lon="11.823473"><ele>489.66666666666663</ele><time>2026-05-03T08:34:31.615Z</time></trkpt><trkpt lat="44.0270304" lon="11.823581"><ele>491.3333333333333</ele><time>2026-05-03T08:34:33.632Z</time></trkpt><trkpt lat="44.0269759" lon="11.8236742"><ele>493.0</ele><time>2026-05-03T08:34:35.614Z</time></trkpt><trkpt lat="44.0269252" lon="11.8237569"><ele>494.66666666666663</ele><time>2026-05-03T08:34:37.614Z</time></trkpt><trkpt lat="44.0268854" lon="11.8238416"><ele>496.3333333333333</ele><time>2026-05-03T08:34:39.613Z</time></trkpt><trkpt lat="44.0268639" lon="11.8239563"><ele>498.0</ele><time>2026-05-03T08:34:42.613Z</time></trkpt><trkpt lat="44.026893" lon="11.8240441"><ele>498.0</ele><time>2026-05-03T08:34:46.61Z</time></trkpt><trkpt lat="44.0269454" lon="11.8241047"><ele>498.0</ele><time>2026-05-03T08:34:49.613Z</time></trkpt><trkpt lat="44.0269914" lon="11.8241927"><ele>498.0</ele><time>2026-05-03T08:34:52.617Z</time></trkpt><trkpt lat="44.0270498" lon="11.8243019"><ele>498.0</ele><time>2026-05-03T08:34:55.617Z</time></trkpt><trkpt lat="44.0270924" lon="11.8243788"><ele>498.0</ele><time>2026-05-03T08:34:57.616Z</time></trkpt><trkpt lat="44.0271383" lon="11.8244642"><ele>498.0</ele><time>2026-05-03T08:34:59.616Z</time></trkpt><trkpt lat="44.0271958" lon="11.8245649"><ele>497.8333333333333</ele><time>2026-05-03T08:35:02.609Z</time></trkpt><trkpt lat="44.0272228" lon="11.8246451"><ele>497.66666666666663</ele><time>2026-05-03T08:35:04.616Z</time></trkpt><trkpt lat="44.0272476" lon="11.8247721"><ele>497.5</ele><time>2026-05-03T08:35:07.606Z</time></trkpt><trkpt lat="44.027257" lon="11.8248634"><ele>497.3333333333333</ele><time>2026-05-03T08:35:09.609Z</time></trkpt><trkpt lat="44.0272401" lon="11.8249705"><ele>497.16666666666663</ele><time>2026-05-03T08:35:11.608Z</time></trkpt><trkpt lat="44.027225" lon="11.8250769"><ele>497.0</ele><time>2026-05-03T08:35:13.606Z</time></trkpt><trkpt lat="44.0272105" lon="11.8251817"><ele>497.2857142857143</ele><time>2026-05-03T08:35:15.606Z</time></trkpt><trkpt lat="44.0271884" lon="11.8252724"><ele>497.57142857142856</ele><time>2026-05-03T08:35:17.606Z</time></trkpt><trkpt lat="44.0271898" lon="11.8253616"><ele>497.8571428571429</ele><time>2026-05-03T08:35:21.614Z</time></trkpt><trkpt lat="44.0272094" lon="11.8254693"><ele>498.14285714285717</ele><time>2026-05-03T08:35:25.606Z</time></trkpt><trkpt lat="44.0272102" lon="11.8255742"><ele>498.42857142857144</ele><time>2026-05-03T08:35:29.612Z</time></trkpt><trkpt lat="44.0272069" lon="11.8256649"><ele>498.7142857142858</ele><time>2026-05-03T08:35:33.608Z</time></trkpt><trkpt lat="44.0271678" lon="11.8257463"><ele>499.00000000000006</ele><time>2026-05-03T08:35:37.61Z</time></trkpt><trkpt lat="44.0271438" lon="11.8258423"><ele>499.00000000000006</ele><time>2026-05-03T08:35:42.609Z</time></trkpt><trkpt lat="44.0271668" lon="11.8259429"><ele>499.0</ele><time>2026-05-03T08:35:47.611Z</time></trkpt><trkpt lat="44.0272195" lon="11.8260278"><ele>499.00000000000006</ele><time>2026-05-03T08:35:52.611Z</time></trkpt><trkpt lat="44.0272592" lon="11.8261125"><ele>499.00000000000006</ele><time>2026-05-03T08:35:56.607Z</time></trkpt><trkpt lat="44.0272952" lon="11.8262046"><ele>499.0</ele><time>2026-05-03T08:36:01.608Z</time></trkpt><trkpt lat="44.0273066" lon="11.8262948"><ele>499.00000000000006</ele><time>2026-05-03T08:36:05.607Z</time></trkpt><trkpt lat="44.0273075" lon="11.8263865"><ele>499.00000000000006</ele><time>2026-05-03T08:36:09.601Z</time></trkpt><trkpt lat="44.0272766" lon="11.8264787"><ele>499.00000000000006</ele><time>2026-05-03T08:36:14.605Z</time></trkpt><trkpt lat="44.0272971" lon="11.8265643"><ele>499.0</ele><time>2026-05-03T08:36:19.606Z</time></trkpt><trkpt lat="44.0273288" lon="11.8266612"><ele>499.00000000000006</ele><time>2026-05-03T08:36:34.606Z</time></trkpt><trkpt lat="44.0273448" lon="11.8267465"><ele>499.00000000000006</ele><time>2026-05-03T08:36:37.62Z</time></trkpt><trkpt lat="44.0273618" lon="11.8268409"><ele>499.0</ele><time>2026-05-03T08:36:41.61Z</time></trkpt><trkpt lat="44.0273853" lon="11.8269347"><ele>499.00000000000006</ele><time>2026-05-03T08:36:46.61Z</time></trkpt><trkpt lat="44.0274174" lon="11.8270184"><ele>499.00000000000006</ele><time>2026-05-03T08:36:50.612Z</time></trkpt><trkpt lat="44.0274351" lon="11.8271145"><ele>501.00000000000006</ele><time>2026-05-03T08:36:54.61Z</time></trkpt><trkpt lat="44.0274304" lon="11.8272278"><ele>503.0</ele><time>2026-05-03T08:36:58.607Z</time></trkpt><trkpt lat="44.0274099" lon="11.8273234"><ele>505.00000000000006</ele><time>2026-05-03T08:37:01.608Z</time></trkpt><trkpt lat="44.027395" lon="11.8274158"><ele>507.00000000000006</ele><time>2026-05-03T08:37:04.608Z</time></trkpt><trkpt lat="44.0273696" lon="11.8275129"><ele>509.0</ele><time>2026-05-03T08:37:08.624Z</time></trkpt><trkpt lat="44.0273426" lon="11.8276193"><ele>511.00000000000006</ele><time>2026-05-03T08:37:12.609Z</time></trkpt><trkpt lat="44.0273146" lon="11.8277074"><ele>513.0</ele><time>2026-05-03T08:37:16.61Z</time></trkpt><trkpt lat="44.0272696" lon="11.8278034"><ele>515.2857142857143</ele><time>2026-05-03T08:37:20.605Z</time></trkpt><trkpt lat="44.0272283" lon="11.8278849"><ele>517.5714285714286</ele><time>2026-05-03T08:37:23.61Z</time></trkpt><trkpt lat="44.0271919" lon="11.8279607"><ele>519.8571428571429</ele><time>2026-05-03T08:37:26.609Z</time></trkpt><trkpt lat="44.0271454" lon="11.8280471"><ele>522.1428571428571</ele><time>2026-05-03T08:37:29.609Z</time></trkpt><trkpt lat="44.0270715" lon="11.8281203"><ele>524.4285714285714</ele><time>2026-05-03T08:37:32.606Z</time></trkpt><trkpt lat="44.0270053" lon="11.8281487"><ele>526.7142857142858</ele><time>2026-05-03T08:37:34.608Z</time></trkpt><trkpt lat="44.0269366" lon="11.8281647"><ele>529.0</ele><time>2026-05-03T08:37:36.614Z</time></trkpt><trkpt lat="44.0268733" lon="11.8281649"><ele>529.0</ele><time>2026-05-03T08:37:38.613Z</time></trkpt><trkpt lat="44.0267876" lon="11.8281639"><ele>529.0</ele><time>2026-05-03T08:37:41.615Z</time></trkpt><trkpt lat="44.0267078" lon="11.8281697"><ele>529.0</ele><time>2026-05-03T08:37:46.618Z</time></trkpt><trkpt lat="44.0266322" lon="11.8281694"><ele>529.0</ele><time>2026-05-03T08:37:50.621Z</time></trkpt><trkpt lat="44.0265549" lon="11.8281726"><ele>529.0</ele><time>2026-05-03T08:37:54.617Z</time></trkpt><trkpt lat="44.0264736" lon="11.8281715"><ele>529.0</ele><time>2026-05-03T08:37:58.617Z</time></trkpt><trkpt lat="44.0263921" lon="11.8281639"><ele>531.0</ele><time>2026-05-03T08:38:02.617Z</time></trkpt><trkpt lat="44.0263205" lon="11.8281571"><ele>533.0</ele><time>2026-05-03T08:38:05.613Z</time></trkpt><trkpt lat="44.0262507" lon="11.8281603"><ele>535.0</ele><time>2026-05-03T08:38:08.608Z</time></trkpt><trkpt lat="44.0261919" lon="11.8282232"><ele>537.0</ele><time>2026-05-03T08:38:11.614Z</time></trkpt><trkpt lat="44.0261495" lon="11.8282987"><ele>539.0</ele><time>2026-05-03T08:38:14.619Z</time></trkpt><trkpt lat="44.0260974" lon="11.828349"><ele>541.0</ele><time>2026-05-03T08:38:17.615Z</time></trkpt><trkpt lat="44.0260266" lon="11.8283474"><ele>543.0</ele><time>2026-05-03T08:38:21.619Z</time></trkpt><trkpt lat="44.0259523" lon="11.8283414"><ele>543.0</ele><time>2026-05-03T08:38:26.622Z</time></trkpt><trkpt lat="44.0258856" lon="11.8283475"><ele>543.0</ele><time>2026-05-03T08:38:30.618Z</time></trkpt><trkpt lat="44.0258245" lon="11.8283815"><ele>543.0</ele><time>2026-05-03T08:38:34.626Z</time></trkpt><trkpt lat="44.0257577" lon="11.8284269"><ele>543.0</ele><time>2026-05-03T08:38:38.618Z</time></trkpt><trkpt lat="44.0256847" lon="11.8284657"><ele>543.0</ele><time>2026-05-03T08:38:42.619Z</time></trkpt><trkpt lat="44.0256314" lon="11.8285459"><ele>543.0</ele><time>2026-05-03T08:38:46.615Z</time></trkpt><trkpt lat="44.0255852" lon="11.8286204"><ele>543.0</ele><time>2026-05-03T08:38:50.612Z</time></trkpt><trkpt lat="44.0255992" lon="11.8285193"><ele>544.6666666666666</ele><time>2026-05-03T08:38:54.622Z</time></trkpt><trkpt lat="44.0256219" lon="11.8284131"><ele>546.3333333333334</ele><time>2026-05-03T08:38:58.615Z</time></trkpt><trkpt lat="44.0256483" lon="11.828333"><ele>548.0</ele><time>2026-05-03T08:39:07.629Z</time></trkpt><trkpt lat="44.025618" lon="11.8282367"><ele>549.6666666666667</ele><time>2026-05-03T08:39:11.634Z</time></trkpt><trkpt lat="44.0255315" lon="11.828155"><ele>551.3333333333334</ele><time>2026-05-03T08:39:13.613Z</time></trkpt><trkpt lat="44.0254188" lon="11.8281471"><ele>553.0</ele><time>2026-05-03T08:39:15.613Z</time></trkpt><trkpt lat="44.0253166" lon="11.8281249"><ele>553.0</ele><time>2026-05-03T08:39:17.609Z</time></trkpt><trkpt lat="44.0252056" lon="11.82809"><ele>553.0</ele><time>2026-05-03T08:39:19.602Z</time></trkpt><trkpt lat="44.025145" lon="11.8280552"><ele>553.0</ele><time>2026-05-03T08:39:20.613Z</time></trkpt><trkpt lat="44.0250855" lon="11.8279977"><ele>553.0</ele><time>2026-05-03T08:39:21.604Z</time></trkpt><trkpt lat="44.025012" lon="11.8279123"><ele>553.0</ele><time>2026-05-03T08:39:22.633Z</time></trkpt><trkpt lat="44.0249508" lon="11.8278279"><ele>553.0</ele><time>2026-05-03T08:39:23.62Z</time></trkpt><trkpt lat="44.024884" lon="11.8277792"><ele>555.3333333333334</ele><time>2026-05-03T08:39:24.625Z</time></trkpt><trkpt lat="44.0248144" lon="11.8277462"><ele>557.6666666666667</ele><time>2026-05-03T08:39:25.607Z</time></trkpt><trkpt lat="44.0247441" lon="11.8277527"><ele>560.0</ele><time>2026-05-03T08:39:26.604Z</time></trkpt><trkpt lat="44.0246625" lon="11.8278666"><ele>562.3333333333334</ele><time>2026-05-03T08:39:28.599Z</time></trkpt><trkpt lat="44.0245912" lon="11.8279715"><ele>564.6666666666666</ele><time>2026-05-03T08:39:30.594Z</time></trkpt><trkpt lat="44.0245408" lon="11.8280363"><ele>567.0</ele><time>2026-05-03T08:39:32.596Z</time></trkpt><trkpt lat="44.024486" lon="11.8280846"><ele>567.0</ele><time>2026-05-03T08:39:36.593Z</time></trkpt><trkpt lat="44.0244378" lon="11.8280199"><ele>567.0</ele><time>2026-05-03T08:39:38.593Z</time></trkpt><trkpt lat="44.0243725" lon="11.8279892"><ele>567.0</ele><time>2026-05-03T08:39:41.596Z</time></trkpt><trkpt lat="44.0243082" lon="11.8280086"><ele>567.0</ele><time>2026-05-03T08:39:45.597Z</time></trkpt><trkpt lat="44.0242396" lon="11.8279827"><ele>567.0</ele><time>2026-05-03T08:39:50.596Z</time></trkpt><trkpt lat="44.0241697" lon="11.8279875"><ele>567.0</ele><time>2026-05-03T08:39:55.6Z</time></trkpt><trkpt lat="44.0241037" lon="11.8279721"><ele>567.0</ele><time>2026-05-03T08:40:00.599Z</time></trkpt><trkpt lat="44.0240319" lon="11.8279894"><ele>570.4285714285714</ele><time>2026-05-03T08:40:05.599Z</time></trkpt><trkpt lat="44.0239704" lon="11.8279406"><ele>573.8571428571429</ele><time>2026-05-03T08:40:10.595Z</time></trkpt><trkpt lat="44.023925" lon="11.8278609"><ele>577.2857142857142</ele><time>2026-05-03T08:40:19.601Z</time></trkpt><trkpt lat="44.0238681" lon="11.8277987"><ele>580.7142857142858</ele><time>2026-05-03T08:40:22.606Z</time></trkpt><trkpt lat="44.023827" lon="11.8277261"><ele>584.1428571428571</ele><time>2026-05-03T08:40:25.6Z</time></trkpt><trkpt lat="44.0238033" lon="11.8276039"><ele>587.5714285714286</ele><time>2026-05-03T08:40:29.6Z</time></trkpt><trkpt lat="44.0237808" lon="11.8275034"><ele>591.0</ele><time>2026-05-03T08:40:33.596Z</time></trkpt><trkpt lat="44.023776" lon="11.8273979"><ele>591.0</ele><time>2026-05-03T08:40:36.598Z</time></trkpt><trkpt lat="44.0237719" lon="11.8273069"><ele>591.0</ele><time>2026-05-03T08:40:39.595Z</time></trkpt><trkpt lat="44.0237525" lon="11.8272045"><ele>591.0</ele><time>2026-05-03T08:40:42.598Z</time></trkpt><trkpt lat="44.023724" lon="11.8270949"><ele>591.0</ele><time>2026-05-03T08:40:45.594Z</time></trkpt><trkpt lat="44.0237053" lon="11.8269846"><ele>591.0</ele><time>2026-05-03T08:40:48.599Z</time></trkpt><trkpt lat="44.023688" lon="11.8268611"><ele>591.0</ele><time>2026-05-03T08:40:51.605Z</time></trkpt><trkpt lat="44.0236898" lon="11.8267653"><ele>587.0</ele><time>2026-05-03T08:40:54.598Z</time></trkpt><trkpt lat="44.0236832" lon="11.8266543"><ele>583.0</ele><time>2026-05-03T08:40:57.597Z</time></trkpt><trkpt lat="44.023659" lon="11.8265465"><ele>579.0</ele><time>2026-05-03T08:41:00.593Z</time></trkpt><trkpt lat="44.0236102" lon="11.826431"><ele>575.0</ele><time>2026-05-03T08:41:03.595Z</time></trkpt><trkpt lat="44.0235386" lon="11.8263529"><ele>571.0</ele><time>2026-05-03T08:41:06.604Z</time></trkpt><trkpt lat="44.0234444" lon="11.8263419"><ele>567.0</ele><time>2026-05-03T08:41:09.605Z</time></trkpt><trkpt lat="44.0233709" lon="11.8263419"><ele>572.6666666666666</ele><time>2026-05-03T08:41:11.602Z</time></trkpt><trkpt lat="44.0232733" lon="11.8263546"><ele>578.3333333333334</ele><time>2026-05-03T08:41:14.598Z</time></trkpt><trkpt lat="44.0231968" lon="11.8263849"><ele>584.0</ele><time>2026-05-03T08:41:16.587Z</time></trkpt><trkpt lat="44.0231356" lon="11.8264422"><ele>589.6666666666667</ele><time>2026-05-03T08:41:19.592Z</time></trkpt><trkpt lat="44.0230764" lon="11.8264961"><ele>595.3333333333334</ele><time>2026-05-03T08:41:23.586Z</time></trkpt><trkpt lat="44.0230249" lon="11.8265536"><ele>601.0</ele><time>2026-05-03T08:41:30.589Z</time></trkpt><trkpt lat="44.0229489" lon="11.8265736"><ele>601.0</ele><time>2026-05-03T08:41:36.587Z</time></trkpt><trkpt lat="44.0228755" lon="11.8265516"><ele>601.0</ele><time>2026-05-03T08:41:41.588Z</time></trkpt><trkpt lat="44.0229321" lon="11.8266073"><ele>601.0</ele><time>2026-05-03T08:41:53.587Z</time></trkpt><trkpt lat="44.0229969" lon="11.8266411"><ele>601.0</ele><time>2026-05-03T08:42:00.595Z</time></trkpt><trkpt lat="44.0230609" lon="11.8266502"><ele>601.0</ele><time>2026-05-03T08:42:06.584Z</time></trkpt><trkpt lat="44.0231412" lon="11.8266445"><ele>601.0</ele><time>2026-05-03T08:42:13.596Z</time></trkpt><trkpt lat="44.0232081" lon="11.8266804"><ele>601.0</ele><time>2026-05-03T08:42:17.62Z</time></trkpt><trkpt lat="44.0232593" lon="11.8267415"><ele>599.5714285714286</ele><time>2026-05-03T08:42:21.6Z</time></trkpt><trkpt lat="44.023321" lon="11.8268144"><ele>598.1428571428572</ele><time>2026-05-03T08:42:26.603Z</time></trkpt><trkpt lat="44.0233749" lon="11.8268794"><ele>596.7142857142858</ele><time>2026-05-03T08:42:31.603Z</time></trkpt><trkpt lat="44.0234222" lon="11.8269479"><ele>595.2857142857142</ele><time>2026-05-03T08:42:36.603Z</time></trkpt><trkpt lat="44.023412" lon="11.8270431"><ele>593.8571428571429</ele><time>2026-05-03T08:42:41.604Z</time></trkpt><trkpt lat="44.0234301" lon="11.8271468"><ele>592.4285714285714</ele><time>2026-05-03T08:42:46.599Z</time></trkpt><trkpt lat="44.0234383" lon="11.8272488"><ele>591.0</ele><time>2026-05-03T08:42:50.606Z</time></trkpt><trkpt lat="44.0234396" lon="11.827359"><ele>591.0</ele><time>2026-05-03T08:42:53.596Z</time></trkpt><trkpt lat="44.0234211" lon="11.8274539"><ele>591.0</ele><time>2026-05-03T08:42:56.598Z</time></trkpt><trkpt lat="44.0233987" lon="11.8275543"><ele>591.0</ele><time>2026-05-03T08:43:00.6Z</time></trkpt><trkpt lat="44.0233769" lon="11.8276527"><ele>591.0</ele><time>2026-05-03T08:43:04.594Z</time></trkpt><trkpt lat="44.0233763" lon="11.8277524"><ele>591.0</ele><time>2026-05-03T08:43:09.595Z</time></trkpt><trkpt lat="44.0233597" lon="11.8278623"><ele>591.0</ele><time>2026-05-03T08:43:12.59Z</time></trkpt><trkpt lat="44.0233613" lon="11.8279695"><ele>590.5714285714286</ele><time>2026-05-03T08:43:17.595Z</time></trkpt><trkpt lat="44.0233896" lon="11.8280541"><ele>590.1428571428571</ele><time>2026-05-03T08:43:20.596Z</time></trkpt><trkpt lat="44.0234034" lon="11.8281398"><ele>589.7142857142858</ele><time>2026-05-03T08:43:23.6Z</time></trkpt><trkpt lat="44.0234358" lon="11.8282205"><ele>589.2857142857142</ele><time>2026-05-03T08:43:26.603Z</time></trkpt><trkpt lat="44.0234663" lon="11.82832"><ele>588.8571428571429</ele><time>2026-05-03T08:43:30.602Z</time></trkpt><trkpt lat="44.0235109" lon="11.8283978"><ele>588.4285714285714</ele><time>2026-05-03T08:43:34.602Z</time></trkpt><trkpt lat="44.0235482" lon="11.8284786"><ele>588.0</ele><time>2026-05-03T08:43:38.604Z</time></trkpt><trkpt lat="44.0235849" lon="11.8285599"><ele>588.0</ele><time>2026-05-03T08:43:42.602Z</time></trkpt><trkpt lat="44.0236284" lon="11.8286442"><ele>588.0</ele><time>2026-05-03T08:43:46.603Z</time></trkpt><trkpt lat="44.0236663" lon="11.8287331"><ele>588.0</ele><time>2026-05-03T08:43:50.602Z</time></trkpt><trkpt lat="44.0237072" lon="11.8288029"><ele>588.0</ele><time>2026-05-03T08:43:54.6Z</time></trkpt><trkpt lat="44.023767" lon="11.8288846"><ele>588.0</ele><time>2026-05-03T08:43:59.605Z</time></trkpt><trkpt lat="44.0237915" lon="11.8289661"><ele>588.0</ele><time>2026-05-03T08:44:03.602Z</time></trkpt><trkpt lat="44.0238387" lon="11.8290443"><ele>588.0</ele><time>2026-05-03T08:44:08.609Z</time></trkpt><trkpt lat="44.0238679" lon="11.8291402"><ele>588.0</ele><time>2026-05-03T08:44:13.611Z</time></trkpt><trkpt lat="44.0238343" lon="11.8292581"><ele>588.0</ele><time>2026-05-03T08:44:16.609Z</time></trkpt><trkpt lat="44.0237653" lon="11.8292885"><ele>588.0</ele><time>2026-05-03T08:44:18.609Z</time></trkpt><trkpt lat="44.0236654" lon="11.8292734"><ele>588.0</ele><time>2026-05-03T08:44:20.621Z</time></trkpt><trkpt lat="44.0235612" lon="11.8292656"><ele>588.0</ele><time>2026-05-03T08:44:22.603Z</time></trkpt><trkpt lat="44.0234663" lon="11.8292588"><ele>588.0</ele><time>2026-05-03T08:44:24.6Z</time></trkpt><trkpt lat="44.0233441" lon="11.8292636"><ele>588.0</ele><time>2026-05-03T08:44:26.59Z</time></trkpt><trkpt lat="44.0232662" lon="11.8292686"><ele>588.0</ele><time>2026-05-03T08:44:27.588Z</time></trkpt><trkpt lat="44.0231862" lon="11.8292775"><ele>588.0</ele><time>2026-05-03T08:44:28.591Z</time></trkpt><trkpt lat="44.0231093" lon="11.829285"><ele>588.0</ele><time>2026-05-03T08:44:29.593Z</time></trkpt><trkpt lat="44.0230226" lon="11.8292862"><ele>588.0</ele><time>2026-05-03T08:44:30.593Z</time></trkpt><trkpt lat="44.0229398" lon="11.829291"><ele>587.3333333333334</ele><time>2026-05-03T08:44:31.598Z</time></trkpt><trkpt lat="44.0228578" lon="11.8292751"><ele>586.6666666666666</ele><time>2026-05-03T08:44:32.592Z</time></trkpt><trkpt lat="44.0227789" lon="11.8292634"><ele>586.0</ele><time>2026-05-03T08:44:33.591Z</time></trkpt><trkpt lat="44.0226937" lon="11.8292732"><ele>585.3333333333333</ele><time>2026-05-03T08:44:34.589Z</time></trkpt><trkpt lat="44.0226168" lon="11.8292825"><ele>584.6666666666666</ele><time>2026-05-03T08:44:35.586Z</time></trkpt><trkpt lat="44.0225487" lon="11.8292984"><ele>584.0</ele><time>2026-05-03T08:44:36.588Z</time></trkpt><trkpt lat="44.0224851" lon="11.8293405"><ele>578.0</ele><time>2026-05-03T08:44:37.591Z</time></trkpt><trkpt lat="44.0223685" lon="11.8294252"><ele>572.0</ele><time>2026-05-03T08:44:39.596Z</time></trkpt><trkpt lat="44.0223125" lon="11.8294816"><ele>566.0</ele><time>2026-05-03T08:44:40.603Z</time></trkpt><trkpt lat="44.0222579" lon="11.8295261"><ele>560.0</ele><time>2026-05-03T08:44:41.601Z</time></trkpt><trkpt lat="44.022152" lon="11.8295679"><ele>554.0</ele><time>2026-05-03T08:44:43.601Z</time></trkpt><trkpt lat="44.0220772" lon="11.8295997"><ele>554.0</ele><time>2026-05-03T08:44:45.605Z</time></trkpt><trkpt lat="44.0221298" lon="11.8296531"><ele>554.0</ele><time>2026-05-03T08:44:47.611Z</time></trkpt><trkpt lat="44.0222173" lon="11.8296706"><ele>554.0</ele><time>2026-05-03T08:44:49.602Z</time></trkpt><trkpt lat="44.0223201" lon="11.8296556"><ele>554.0</ele><time>2026-05-03T08:44:51.616Z</time></trkpt><trkpt lat="44.022439" lon="11.8296351"><ele>554.0</ele><time>2026-05-03T08:44:53.603Z</time></trkpt><trkpt lat="44.0225101" lon="11.8296279"><ele>554.0</ele><time>2026-05-03T08:44:54.598Z</time></trkpt><trkpt lat="44.0225837" lon="11.8296203"><ele>555.0</ele><time>2026-05-03T08:44:55.605Z</time></trkpt><trkpt lat="44.0226551" lon="11.8296107"><ele>556.0</ele><time>2026-05-03T08:44:56.621Z</time></trkpt><trkpt lat="44.0227289" lon="11.8296169"><ele>557.0</ele><time>2026-05-03T08:44:57.605Z</time></trkpt><trkpt lat="44.0228018" lon="11.8296221"><ele>558.0</ele><time>2026-05-03T08:44:58.61Z</time></trkpt><trkpt lat="44.022877" lon="11.8296198"><ele>559.0</ele><time>2026-05-03T08:44:59.6Z</time></trkpt><trkpt lat="44.022943" lon="11.8296217"><ele>560.0</ele><time>2026-05-03T08:45:00.585Z</time></trkpt><trkpt lat="44.0230693" lon="11.8296528"><ele>560.0</ele><time>2026-05-03T08:45:02.577Z</time></trkpt><trkpt lat="44.0231405" lon="11.8296827"><ele>560.0</ele><time>2026-05-03T08:45:03.582Z</time></trkpt><trkpt lat="44.0232093" lon="11.8297038"><ele>560.0</ele><time>2026-05-03T08:45:04.579Z</time></trkpt><trkpt lat="44.0233265" lon="11.829724"><ele>560.0</ele><time>2026-05-03T08:45:06.582Z</time></trkpt><trkpt lat="44.0234261" lon="11.8297609"><ele>560.0</ele><time>2026-05-03T08:45:08.584Z</time></trkpt><trkpt lat="44.0235284" lon="11.8298273"><ele>560.6</ele><time>2026-05-03T08:45:10.582Z</time></trkpt><trkpt lat="44.0235852" lon="11.829867"><ele>561.2</ele><time>2026-05-03T08:45:11.58Z</time></trkpt><trkpt lat="44.02365" lon="11.8298879"><ele>561.8</ele><time>2026-05-03T08:45:12.584Z</time></trkpt><trkpt lat="44.0237702" lon="11.8299303"><ele>562.4</ele><time>2026-05-03T08:45:14.586Z</time></trkpt><trkpt lat="44.0238713" lon="11.8299635"><ele>563.0</ele><time>2026-05-03T08:45:16.585Z</time></trkpt><trkpt lat="44.0239608" lon="11.8300058"><ele>563.0</ele><time>2026-05-03T08:45:18.591Z</time></trkpt><trkpt lat="44.0240304" lon="11.8300618"><ele>563.0</ele><time>2026-05-03T08:45:20.593Z</time></trkpt><trkpt lat="44.0241107" lon="11.8300983"><ele>563.0</ele><time>2026-05-03T08:45:22.61Z</time></trkpt><trkpt lat="44.0241832" lon="11.8301324"><ele>563.0</ele><time>2026-05-03T08:45:24.596Z</time></trkpt><trkpt lat="44.0242554" lon="11.8301634"><ele>563.0</ele><time>2026-05-03T08:45:26.593Z</time></trkpt><trkpt lat="44.0243432" lon="11.8302213"><ele>563.0</ele><time>2026-05-03T08:45:29.594Z</time></trkpt><trkpt lat="44.0244132" lon="11.8302815"><ele>562.6666666666666</ele><time>2026-05-03T08:45:31.595Z</time></trkpt><trkpt lat="44.0244906" lon="11.8303465"><ele>562.3333333333333</ele><time>2026-05-03T08:45:33.59Z</time></trkpt><trkpt lat="44.0245724" lon="11.8303759"><ele>562.0</ele><time>2026-05-03T08:45:35.59Z</time></trkpt><trkpt lat="44.0246526" lon="11.8304106"><ele>561.6666666666666</ele><time>2026-05-03T08:45:37.594Z</time></trkpt><trkpt lat="44.024736" lon="11.8304341"><ele>561.3333333333334</ele><time>2026-05-03T08:45:39.593Z</time></trkpt><trkpt lat="44.0248138" lon="11.8304493"><ele>561.0</ele><time>2026-05-03T08:45:41.595Z</time></trkpt><trkpt lat="44.0248824" lon="11.8304772"><ele>561.0</ele><time>2026-05-03T08:45:43.595Z</time></trkpt><trkpt lat="44.0249531" lon="11.8304846"><ele>561.0</ele><time>2026-05-03T08:45:45.59Z</time></trkpt><trkpt lat="44.0250364" lon="11.830505"><ele>561.0</ele><time>2026-05-03T08:45:47.594Z</time></trkpt><trkpt lat="44.0251211" lon="11.8305039"><ele>561.0</ele><time>2026-05-03T08:45:49.595Z</time></trkpt><trkpt lat="44.0251962" lon="11.8304837"><ele>561.0</ele><time>2026-05-03T08:45:51.595Z</time></trkpt><trkpt lat="44.0252727" lon="11.8304366"><ele>561.0</ele><time>2026-05-03T08:45:54.597Z</time></trkpt><trkpt lat="44.0253592" lon="11.8304499"><ele>561.1666666666666</ele><time>2026-05-03T08:45:57.593Z</time></trkpt><trkpt lat="44.025377" lon="11.8305664"><ele>561.3333333333334</ele><time>2026-05-03T08:46:02.593Z</time></trkpt><trkpt lat="44.0253837" lon="11.8306636"><ele>561.5</ele><time>2026-05-03T08:46:04.593Z</time></trkpt><trkpt lat="44.0254029" lon="11.8307815"><ele>561.6666666666667</ele><time>2026-05-03T08:46:06.596Z</time></trkpt><trkpt lat="44.0254425" lon="11.8308854"><ele>561.8333333333334</ele><time>2026-05-03T08:46:08.589Z</time></trkpt><trkpt lat="44.0254678" lon="11.830997"><ele>562.0</ele><time>2026-05-03T08:46:10.595Z</time></trkpt><trkpt lat="44.0254845" lon="11.8311576"><ele>560.3333333333334</ele><time>2026-05-03T08:46:12.596Z</time></trkpt><trkpt lat="44.0255155" lon="11.8312471"><ele>558.6666666666667</ele><time>2026-05-03T08:46:13.597Z</time></trkpt><trkpt lat="44.0255466" lon="11.8313315"><ele>557.0</ele><time>2026-05-03T08:46:14.591Z</time></trkpt><trkpt lat="44.0255756" lon="11.8314134"><ele>555.3333333333334</ele><time>2026-05-03T08:46:15.587Z</time></trkpt><trkpt lat="44.0256241" lon="11.8315571"><ele>553.6666666666666</ele><time>2026-05-03T08:46:17.588Z</time></trkpt><trkpt lat="44.0256844" lon="11.8317047"><ele>552.0</ele><time>2026-05-03T08:46:19.587Z</time></trkpt><trkpt lat="44.0257682" lon="11.8318067"><ele>550.6</ele><time>2026-05-03T08:46:21.588Z</time></trkpt><trkpt lat="44.0258618" lon="11.8318926"><ele>549.2</ele><time>2026-05-03T08:46:23.595Z</time></trkpt><trkpt lat="44.0258594" lon="11.8320527"><ele>547.8</ele><time>2026-05-03T08:46:25.586Z</time></trkpt><trkpt lat="44.025868" lon="11.8322342"><ele>546.4</ele><time>2026-05-03T08:46:27.587Z</time></trkpt><trkpt lat="44.0258835" lon="11.8323368"><ele>545.0</ele><time>2026-05-03T08:46:28.591Z</time></trkpt><trkpt lat="44.0258935" lon="11.832439"><ele>545.0</ele><time>2026-05-03T08:46:29.593Z</time></trkpt><trkpt lat="44.0258993" lon="11.8325441"><ele>545.0</ele><time>2026-05-03T08:46:30.588Z</time></trkpt><trkpt lat="44.025899" lon="11.8326389"><ele>545.0</ele><time>2026-05-03T08:46:31.59Z</time></trkpt><trkpt lat="44.0259291" lon="11.8327753"><ele>545.0</ele><time>2026-05-03T08:46:33.588Z</time></trkpt><trkpt lat="44.0259921" lon="11.8328782"><ele>545.0</ele><time>2026-05-03T08:46:35.597Z</time></trkpt><trkpt lat="44.0260783" lon="11.8329604"><ele>545.0</ele><time>2026-05-03T08:46:37.596Z</time></trkpt><trkpt lat="44.0261709" lon="11.8330655"><ele>546.0</ele><time>2026-05-03T08:46:39.587Z</time></trkpt><trkpt lat="44.0262488" lon="11.8331687"><ele>547.0</ele><time>2026-05-03T08:46:41.586Z</time></trkpt><trkpt lat="44.0263041" lon="11.8332547"><ele>548.0</ele><time>2026-05-03T08:46:43.589Z</time></trkpt><trkpt lat="44.026344" lon="11.8333303"><ele>549.0</ele><time>2026-05-03T08:46:45.589Z</time></trkpt><trkpt lat="44.0263869" lon="11.8334065"><ele>550.0</ele><time>2026-05-03T08:46:48.588Z</time></trkpt><trkpt lat="44.0264402" lon="11.8334872"><ele>551.0</ele><time>2026-05-03T08:46:52.599Z</time></trkpt><trkpt lat="44.0264869" lon="11.8335655"><ele>551.5714285714286</ele><time>2026-05-03T08:46:55.618Z</time></trkpt><trkpt lat="44.0265278" lon="11.8336329"><ele>552.1428571428571</ele><time>2026-05-03T08:46:58.6Z</time></trkpt><trkpt lat="44.0265582" lon="11.8337128"><ele>552.7142857142858</ele><time>2026-05-03T08:47:01.595Z</time></trkpt><trkpt lat="44.0265966" lon="11.8338025"><ele>553.2857142857142</ele><time>2026-05-03T08:47:04.594Z</time></trkpt><trkpt lat="44.0266234" lon="11.8338957"><ele>553.8571428571429</ele><time>2026-05-03T08:47:07.591Z</time></trkpt><trkpt lat="44.0266591" lon="11.8340012"><ele>554.4285714285714</ele><time>2026-05-03T08:47:10.589Z</time></trkpt><trkpt lat="44.0266876" lon="11.83411"><ele>555.0</ele><time>2026-05-03T08:47:13.589Z</time></trkpt><trkpt lat="44.026699" lon="11.8342284"><ele>555.1666666666666</ele><time>2026-05-03T08:47:16.594Z</time></trkpt><trkpt lat="44.0267355" lon="11.8343473"><ele>555.3333333333334</ele><time>2026-05-03T08:47:19.589Z</time></trkpt><trkpt lat="44.0267738" lon="11.8344191"><ele>555.5</ele><time>2026-05-03T08:47:21.591Z</time></trkpt><trkpt lat="44.0268154" lon="11.8344915"><ele>555.6666666666667</ele><time>2026-05-03T08:47:23.588Z</time></trkpt><trkpt lat="44.0268641" lon="11.8345682"><ele>555.8333333333334</ele><time>2026-05-03T08:47:25.585Z</time></trkpt><trkpt lat="44.0269228" lon="11.8346708"><ele>556.0</ele><time>2026-05-03T08:47:27.586Z</time></trkpt><trkpt lat="44.0269655" lon="11.8347367"><ele>556.0</ele><time>2026-05-03T08:47:28.597Z</time></trkpt><trkpt lat="44.0270168" lon="11.8348729"><ele>556.0</ele><time>2026-05-03T08:47:30.589Z</time></trkpt><trkpt lat="44.0270497" lon="11.8349801"><ele>556.0</ele><time>2026-05-03T08:47:32.59Z</time></trkpt><trkpt lat="44.0270862" lon="11.8350828"><ele>556.0</ele><time>2026-05-03T08:47:34.592Z</time></trkpt><trkpt lat="44.0271223" lon="11.8351796"><ele>556.0</ele><time>2026-05-03T08:47:36.598Z</time></trkpt><trkpt lat="44.0271782" lon="11.8352591"><ele>556.0</ele><time>2026-05-03T08:47:38.601Z</time></trkpt><trkpt lat="44.0272441" lon="11.835315"><ele>555.3333333333334</ele><time>2026-05-03T08:47:40.602Z</time></trkpt><trkpt lat="44.0273208" lon="11.8353684"><ele>554.6666666666667</ele><time>2026-05-03T08:47:42.613Z</time></trkpt><trkpt lat="44.027397" lon="11.835419"><ele>554.0</ele><time>2026-05-03T08:47:44.606Z</time></trkpt><trkpt lat="44.027472" lon="11.8354563"><ele>553.3333333333334</ele><time>2026-05-03T08:47:46.605Z</time></trkpt><trkpt lat="44.0275471" lon="11.8354877"><ele>552.6666666666666</ele><time>2026-05-03T08:47:48.607Z</time></trkpt><trkpt lat="44.0276229" lon="11.8355156"><ele>552.0</ele><time>2026-05-03T08:47:50.605Z</time></trkpt><trkpt lat="44.0276928" lon="11.8355655"><ele>552.0</ele><time>2026-05-03T08:47:52.609Z</time></trkpt><trkpt lat="44.0277511" lon="11.8356258"><ele>552.0</ele><time>2026-05-03T08:47:54.61Z</time></trkpt><trkpt lat="44.0277865" lon="11.8357006"><ele>552.0</ele><time>2026-05-03T08:47:56.619Z</time></trkpt><trkpt lat="44.0278406" lon="11.8358087"><ele>552.0</ele><time>2026-05-03T08:47:59.602Z</time></trkpt><trkpt lat="44.0278918" lon="11.8358941"><ele>552.0</ele><time>2026-05-03T08:48:02.601Z</time></trkpt><trkpt lat="44.0279561" lon="11.8359696"><ele>552.0</ele><time>2026-05-03T08:48:06.603Z</time></trkpt><trkpt lat="44.0280149" lon="11.8360398"><ele>550.1666666666666</ele><time>2026-05-03T08:48:10.601Z</time></trkpt><trkpt lat="44.0280494" lon="11.8361447"><ele>548.3333333333334</ele><time>2026-05-03T08:48:14.602Z</time></trkpt><trkpt lat="44.0281037" lon="11.8362422"><ele>546.5</ele><time>2026-05-03T08:48:17.607Z</time></trkpt><trkpt lat="44.0281602" lon="11.8363213"><ele>544.6666666666667</ele><time>2026-05-03T08:48:19.605Z</time></trkpt><trkpt lat="44.0282265" lon="11.8363803"><ele>542.8333333333334</ele><time>2026-05-03T08:48:21.601Z</time></trkpt><trkpt lat="44.0283017" lon="11.8364435"><ele>541.0</ele><time>2026-05-03T08:48:23.601Z</time></trkpt><trkpt lat="44.0283684" lon="11.8365265"><ele>544.8333333333334</ele><time>2026-05-03T08:48:25.597Z</time></trkpt><trkpt lat="44.0284274" lon="11.8365908"><ele>548.6666666666667</ele><time>2026-05-03T08:48:27.615Z</time></trkpt><trkpt lat="44.0284864" lon="11.8366442"><ele>552.5</ele><time>2026-05-03T08:48:29.606Z</time></trkpt><trkpt lat="44.0285371" lon="11.8367446"><ele>556.3333333333334</ele><time>2026-05-03T08:48:31.601Z</time></trkpt><trkpt lat="44.0285668" lon="11.8369268"><ele>560.1666666666666</ele><time>2026-05-03T08:48:33.59Z</time></trkpt><trkpt lat="44.0285857" lon="11.837034"><ele>564.0</ele><time>2026-05-03T08:48:34.586Z</time></trkpt><trkpt lat="44.0286129" lon="11.8371441"><ele>565.0</ele><time>2026-05-03T08:48:35.587Z</time></trkpt><trkpt lat="44.0286449" lon="11.8372281"><ele>566.0</ele><time>2026-05-03T08:48:36.589Z</time></trkpt><trkpt lat="44.028691" lon="11.8372917"><ele>567.0</ele><time>2026-05-03T08:48:37.581Z</time></trkpt><trkpt lat="44.0287519" lon="11.8373402"><ele>568.0</ele><time>2026-05-03T08:48:38.577Z</time></trkpt><trkpt lat="44.0288156" lon="11.8373819"><ele>569.0</ele><time>2026-05-03T08:48:39.581Z</time></trkpt><trkpt lat="44.0288857" lon="11.8374209"><ele>570.0</ele><time>2026-05-03T08:48:40.583Z</time></trkpt><trkpt lat="44.0289491" lon="11.8374606"><ele>571.0</ele><time>2026-05-03T08:48:41.577Z</time></trkpt><trkpt lat="44.0290072" lon="11.8375281"><ele>571.0</ele><time>2026-05-03T08:48:42.581Z</time></trkpt><trkpt lat="44.0290531" lon="11.8375994"><ele>571.0</ele><time>2026-05-03T08:48:43.574Z</time></trkpt><trkpt lat="44.0290959" lon="11.8376818"><ele>571.0</ele><time>2026-05-03T08:48:44.575Z</time></trkpt><trkpt lat="44.029124" lon="11.8377745"><ele>571.0</ele><time>2026-05-03T08:48:45.581Z</time></trkpt><trkpt lat="44.0291519" lon="11.8378835"><ele>571.0</ele><time>2026-05-03T08:48:46.576Z</time></trkpt><trkpt lat="44.0291789" lon="11.8380145"><ele>571.0</ele><time>2026-05-03T08:48:47.576Z</time></trkpt><trkpt lat="44.0292097" lon="11.8381579"><ele>570.2</ele><time>2026-05-03T08:48:48.581Z</time></trkpt><trkpt lat="44.0292339" lon="11.838309"><ele>569.4000000000001</ele><time>2026-05-03T08:48:49.576Z</time></trkpt><trkpt lat="44.029258" lon="11.8384478"><ele>568.6</ele><time>2026-05-03T08:48:50.582Z</time></trkpt><trkpt lat="44.0292734" lon="11.8385749"><ele>567.8000000000001</ele><time>2026-05-03T08:48:51.574Z</time></trkpt><trkpt lat="44.0293082" lon="11.8386918"><ele>567.0</ele><time>2026-05-03T08:48:52.577Z</time></trkpt><trkpt lat="44.0293273" lon="11.8387945"><ele>570.6</ele><time>2026-05-03T08:48:53.573Z</time></trkpt><trkpt lat="44.0293468" lon="11.8388868"><ele>574.2</ele><time>2026-05-03T08:48:54.571Z</time></trkpt><trkpt lat="44.029414" lon="11.8390021"><ele>577.8</ele><time>2026-05-03T08:48:56.574Z</time></trkpt><trkpt lat="44.0295116" lon="11.8390262"><ele>581.4</ele><time>2026-05-03T08:48:58.581Z</time></trkpt><trkpt lat="44.0296394" lon="11.8390286"><ele>585.0</ele><time>2026-05-03T08:49:00.57Z</time></trkpt><trkpt lat="44.0297493" lon="11.8390805"><ele>585.0</ele><time>2026-05-03T08:49:02.568Z</time></trkpt><trkpt lat="44.0298441" lon="11.8391723"><ele>585.0</ele><time>2026-05-03T08:49:04.557Z</time></trkpt><trkpt lat="44.0298893" lon="11.8392345"><ele>585.0</ele><time>2026-05-03T08:49:05.567Z</time></trkpt><trkpt lat="44.0299454" lon="11.8392831"><ele>585.0</ele><time>2026-05-03T08:49:06.565Z</time></trkpt><trkpt lat="44.0300067" lon="11.8393256"><ele>585.0</ele><time>2026-05-03T08:49:07.564Z</time></trkpt><trkpt lat="44.0301408" lon="11.8393326"><ele>585.0</ele><time>2026-05-03T08:49:09.569Z</time></trkpt><trkpt lat="44.0302123" lon="11.839315"><ele>578.8333333333334</ele><time>2026-05-03T08:49:10.563Z</time></trkpt><trkpt lat="44.0302814" lon="11.8392685"><ele>572.6666666666666</ele><time>2026-05-03T08:49:11.564Z</time></trkpt><trkpt lat="44.0303433" lon="11.8392045"><ele>566.5</ele><time>2026-05-03T08:49:12.569Z</time></trkpt><trkpt lat="44.0303862" lon="11.8391239"><ele>560.3333333333333</ele><time>2026-05-03T08:49:13.566Z</time></trkpt><trkpt lat="44.0304316" lon="11.8390311"><ele>554.1666666666666</ele><time>2026-05-03T08:49:14.567Z</time></trkpt><trkpt lat="44.0304769" lon="11.8389323"><ele>548.0</ele><time>2026-05-03T08:49:15.568Z</time></trkpt><trkpt lat="44.0305186" lon="11.8388587"><ele>548.0</ele><time>2026-05-03T08:49:16.568Z</time></trkpt><trkpt lat="44.0306155" lon="11.8387987"><ele>548.0</ele><time>2026-05-03T08:49:18.573Z</time></trkpt><trkpt lat="44.0307139" lon="11.8388585"><ele>548.0</ele><time>2026-05-03T08:49:20.574Z</time></trkpt><trkpt lat="44.0308123" lon="11.8389287"><ele>548.0</ele><time>2026-05-03T08:49:22.581Z</time></trkpt><trkpt lat="44.0308722" lon="11.8389597"><ele>548.0</ele><time>2026-05-03T08:49:23.579Z</time></trkpt><trkpt lat="44.0309344" lon="11.8390019"><ele>547.0</ele><time>2026-05-03T08:49:24.575Z</time></trkpt><trkpt lat="44.0310007" lon="11.8390602"><ele>546.0</ele><time>2026-05-03T08:49:25.571Z</time></trkpt><trkpt lat="44.031093" lon="11.8391552"><ele>545.0</ele><time>2026-05-03T08:49:27.58Z</time></trkpt><trkpt lat="44.0311956" lon="11.8392349"><ele>544.0</ele><time>2026-05-03T08:49:29.593Z</time></trkpt><trkpt lat="44.0313145" lon="11.8392311"><ele>543.0</ele><time>2026-05-03T08:49:31.581Z</time></trkpt><trkpt lat="44.0314119" lon="11.839168"><ele>543.0</ele><time>2026-05-03T08:49:33.578Z</time></trkpt><trkpt lat="44.0315013" lon="11.8390957"><ele>543.0</ele><time>2026-05-03T08:49:35.585Z</time></trkpt><trkpt lat="44.0315843" lon="11.8390214"><ele>543.0</ele><time>2026-05-03T08:49:37.589Z</time></trkpt><trkpt lat="44.0316679" lon="11.8389344"><ele>543.0</ele><time>2026-05-03T08:49:39.575Z</time></trkpt><trkpt lat="44.031753" lon="11.8388393"><ele>543.0</ele><time>2026-05-03T08:49:41.576Z</time></trkpt><trkpt lat="44.0318009" lon="11.8387318"><ele>543.4</ele><time>2026-05-03T08:49:43.567Z</time></trkpt><trkpt lat="44.0317893" lon="11.838599"><ele>543.8</ele><time>2026-05-03T08:49:45.572Z</time></trkpt><trkpt lat="44.0317717" lon="11.8384487"><ele>544.2</ele><time>2026-05-03T08:49:47.582Z</time></trkpt><trkpt lat="44.0317594" lon="11.8382883"><ele>544.6</ele><time>2026-05-03T08:49:49.575Z</time></trkpt><trkpt lat="44.0317675" lon="11.8381134"><ele>545.0</ele><time>2026-05-03T08:49:51.579Z</time></trkpt><trkpt lat="44.0317993" lon="11.8379637"><ele>542.0</ele><time>2026-05-03T08:49:53.576Z</time></trkpt><trkpt lat="44.0318388" lon="11.8378833"><ele>539.0</ele><time>2026-05-03T08:49:55.585Z</time></trkpt><trkpt lat="44.0318903" lon="11.8377989"><ele>536.0</ele><time>2026-05-03T08:49:58.585Z</time></trkpt><trkpt lat="44.0319468" lon="11.837727"><ele>533.0</ele><time>2026-05-03T08:50:00.604Z</time></trkpt><trkpt lat="44.0320282" lon="11.8376424"><ele>530.0</ele><time>2026-05-03T08:50:02.578Z</time></trkpt><trkpt lat="44.0321387" lon="11.837633"><ele>527.0</ele><time>2026-05-03T08:50:04.573Z</time></trkpt><trkpt lat="44.0322146" lon="11.8376589"><ele>527.0</ele><time>2026-05-03T08:50:05.582Z</time></trkpt><trkpt lat="44.0323055" lon="11.8377028"><ele>527.0</ele><time>2026-05-03T08:50:06.574Z</time></trkpt><trkpt lat="44.0323938" lon="11.8377457"><ele>527.0</ele><time>2026-05-03T08:50:07.571Z</time></trkpt><trkpt lat="44.0324791" lon="11.8377811"><ele>527.0</ele><time>2026-05-03T08:50:08.572Z</time></trkpt><trkpt lat="44.0325654" lon="11.8377977"><ele>527.0</ele><time>2026-05-03T08:50:09.574Z</time></trkpt><trkpt lat="44.0326495" lon="11.8377967"><ele>525.3333333333333</ele><time>2026-05-03T08:50:10.569Z</time></trkpt><trkpt lat="44.0327362" lon="11.837778"><ele>523.6666666666666</ele><time>2026-05-03T08:50:11.574Z</time></trkpt><trkpt lat="44.0328226" lon="11.8377336"><ele>522.0</ele><time>2026-05-03T08:50:12.573Z</time></trkpt><trkpt lat="44.0329145" lon="11.8376971"><ele>520.3333333333334</ele><time>2026-05-03T08:50:13.571Z</time></trkpt><trkpt lat="44.0329927" lon="11.837658"><ele>518.6666666666667</ele><time>2026-05-03T08:50:14.575Z</time></trkpt><trkpt lat="44.0330632" lon="11.8376194"><ele>517.0</ele><time>2026-05-03T08:50:15.58Z</time></trkpt><trkpt lat="44.0331583" lon="11.8376139"><ele>519.2857142857143</ele><time>2026-05-03T08:50:17.606Z</time></trkpt><trkpt lat="44.0331922" lon="11.8377185"><ele>521.5714285714287</ele><time>2026-05-03T08:50:19.603Z</time></trkpt><trkpt lat="44.0332132" lon="11.8378329"><ele>523.8571428571429</ele><time>2026-05-03T08:50:21.605Z</time></trkpt><trkpt lat="44.0332401" lon="11.8379198"><ele>526.1428571428571</ele><time>2026-05-03T08:50:23.602Z</time></trkpt><trkpt lat="44.0332704" lon="11.8380104"><ele>528.4285714285713</ele><time>2026-05-03T08:50:26.606Z</time></trkpt><trkpt lat="44.0332905" lon="11.8380951"><ele>530.7142857142857</ele><time>2026-05-03T08:50:29.613Z</time></trkpt><trkpt lat="44.0333152" lon="11.8381974"><ele>533.0</ele><time>2026-05-03T08:50:33.604Z</time></trkpt><trkpt lat="44.0333393" lon="11.8382902"><ele>533.0</ele><time>2026-05-03T08:50:37.604Z</time></trkpt><trkpt lat="44.033362" lon="11.8383971"><ele>533.0</ele><time>2026-05-03T08:50:41.606Z</time></trkpt><trkpt lat="44.0333754" lon="11.8384843"><ele>533.0</ele><time>2026-05-03T08:50:45.605Z</time></trkpt><trkpt lat="44.0333947" lon="11.8385815"><ele>533.0</ele><time>2026-05-03T08:50:50.607Z</time></trkpt><trkpt lat="44.033416" lon="11.8386644"><ele>533.0</ele><time>2026-05-03T08:50:54.603Z</time></trkpt><trkpt lat="44.0334207" lon="11.8387749"><ele>533.0</ele><time>2026-05-03T08:50:59.615Z</time></trkpt><trkpt lat="44.0334148" lon="11.8388725"><ele>533.0</ele><time>2026-05-03T08:51:03.598Z</time></trkpt><trkpt lat="44.0334064" lon="11.8389706"><ele>534.2857142857142</ele><time>2026-05-03T08:51:08.593Z</time></trkpt><trkpt lat="44.0333745" lon="11.8390573"><ele>535.5714285714286</ele><time>2026-05-03T08:51:12.61Z</time></trkpt><trkpt lat="44.0333574" lon="11.839143"><ele>536.8571428571429</ele><time>2026-05-03T08:51:16.61Z</time></trkpt><trkpt lat="44.0333357" lon="11.839245"><ele>538.1428571428571</ele><time>2026-05-03T08:51:22.611Z</time></trkpt><trkpt lat="44.0333065" lon="11.839342"><ele>539.4285714285714</ele><time>2026-05-03T08:51:27.607Z</time></trkpt><trkpt lat="44.0332824" lon="11.8394283"><ele>540.7142857142857</ele><time>2026-05-03T08:51:31.613Z</time></trkpt><trkpt lat="44.033246" lon="11.8395006"><ele>542.0</ele><time>2026-05-03T08:51:36.61Z</time></trkpt><trkpt lat="44.0331971" lon="11.8395647"><ele>545.1428571428571</ele><time>2026-05-03T08:51:41.605Z</time></trkpt><trkpt lat="44.033157" lon="11.8396325"><ele>548.2857142857143</ele><time>2026-05-03T08:51:47.61Z</time></trkpt><trkpt lat="44.0331104" lon="11.8397087"><ele>551.4285714285714</ele><time>2026-05-03T08:51:53.609Z</time></trkpt><trkpt lat="44.0330623" lon="11.8397707"><ele>554.5714285714286</ele><time>2026-05-03T08:51:59.613Z</time></trkpt><trkpt lat="44.0330187" lon="11.8398347"><ele>557.7142857142857</ele><time>2026-05-03T08:52:04.618Z</time></trkpt><trkpt lat="44.0329844" lon="11.839921"><ele>560.8571428571429</ele><time>2026-05-03T08:52:10.601Z</time></trkpt><trkpt lat="44.0329253" lon="11.8399673"><ele>564.0</ele><time>2026-05-03T08:52:15.604Z</time></trkpt><trkpt lat="44.0328719" lon="11.8400293"><ele>564.0</ele><time>2026-05-03T08:52:21.606Z</time></trkpt><trkpt lat="44.0328196" lon="11.840092"><ele>564.0</ele><time>2026-05-03T08:52:26.61Z</time></trkpt><trkpt lat="44.0327688" lon="11.8401468"><ele>564.0</ele><time>2026-05-03T08:52:30.608Z</time></trkpt><trkpt lat="44.0327189" lon="11.840218"><ele>564.0</ele><time>2026-05-03T08:52:37.609Z</time></trkpt><trkpt lat="44.0326538" lon="11.8402556"><ele>564.0</ele><time>2026-05-03T08:52:42.609Z</time></trkpt><trkpt lat="44.0325923" lon="11.8403173"><ele>564.0</ele><time>2026-05-03T08:52:48.609Z</time></trkpt><trkpt lat="44.0325306" lon="11.8403531"><ele>564.0</ele><time>2026-05-03T08:52:53.604Z</time></trkpt><trkpt lat="44.0324749" lon="11.8404195"><ele>566.4285714285714</ele><time>2026-05-03T08:52:58.605Z</time></trkpt><trkpt lat="44.0324266" lon="11.8404874"><ele>568.8571428571429</ele><time>2026-05-03T08:53:04.606Z</time></trkpt><trkpt lat="44.0323665" lon="11.8405252"><ele>571.2857142857142</ele><time>2026-05-03T08:53:10.61Z</time></trkpt><trkpt lat="44.0323053" lon="11.8406039"><ele>573.7142857142858</ele><time>2026-05-03T08:53:21.608Z</time></trkpt><trkpt lat="44.0322584" lon="11.8406639"><ele>576.1428571428571</ele><time>2026-05-03T08:53:24.607Z</time></trkpt><trkpt lat="44.0322073" lon="11.8407199"><ele>578.5714285714286</ele><time>2026-05-03T08:53:27.607Z</time></trkpt><trkpt lat="44.032137" lon="11.8407642"><ele>581.0</ele><time>2026-05-03T08:53:31.603Z</time></trkpt><trkpt lat="44.0320792" lon="11.8408216"><ele>581.0</ele><time>2026-05-03T08:53:35.601Z</time></trkpt><trkpt lat="44.0320282" lon="11.8408732"><ele>581.0</ele><time>2026-05-03T08:53:39.602Z</time></trkpt><trkpt lat="44.0319706" lon="11.8409279"><ele>581.0</ele><time>2026-05-03T08:53:44.597Z</time></trkpt><trkpt lat="44.0319101" lon="11.8409786"><ele>581.0</ele><time>2026-05-03T08:53:49.595Z</time></trkpt><trkpt lat="44.031843" lon="11.8410382"><ele>581.0</ele><time>2026-05-03T08:53:54.6Z</time></trkpt><trkpt lat="44.0317823" lon="11.8411018"><ele>581.0</ele><time>2026-05-03T08:53:59.602Z</time></trkpt><trkpt lat="44.0317314" lon="11.841165"><ele>581.0</ele><time>2026-05-03T08:54:05.594Z</time></trkpt><trkpt lat="44.0316571" lon="11.84113"><ele>583.1428571428571</ele><time>2026-05-03T08:54:12.59Z</time></trkpt><trkpt lat="44.0316016" lon="11.8410601"><ele>585.2857142857142</ele><time>2026-05-03T08:54:17.592Z</time></trkpt><trkpt lat="44.0315341" lon="11.8410209"><ele>587.4285714285714</ele><time>2026-05-03T08:54:21.595Z</time></trkpt><trkpt lat="44.0314728" lon="11.8409977"><ele>589.5714285714286</ele><time>2026-05-03T08:54:24.593Z</time></trkpt><trkpt lat="44.0314061" lon="11.8409804"><ele>591.7142857142857</ele><time>2026-05-03T08:54:27.59Z</time></trkpt><trkpt lat="44.0313462" lon="11.8409493"><ele>593.8571428571429</ele><time>2026-05-03T08:54:30.594Z</time></trkpt><trkpt lat="44.0312799" lon="11.8409174"><ele>596.0</ele><time>2026-05-03T08:54:33.595Z</time></trkpt><trkpt lat="44.031215" lon="11.8409092"><ele>596.0</ele><time>2026-05-03T08:54:38.596Z</time></trkpt><trkpt lat="44.0311502" lon="11.8408998"><ele>596.0</ele><time>2026-05-03T08:54:43.594Z</time></trkpt><trkpt lat="44.0310781" lon="11.8408897"><ele>596.0</ele><time>2026-05-03T08:54:47.602Z</time></trkpt><trkpt lat="44.0310163" lon="11.8408588"><ele>596.0</ele><time>2026-05-03T08:54:51.602Z</time></trkpt><trkpt lat="44.0309626" lon="11.8407854"><ele>596.0</ele><time>2026-05-03T08:54:56.605Z</time></trkpt><trkpt lat="44.0309034" lon="11.8407244"><ele>596.0</ele><time>2026-05-03T08:55:00.604Z</time></trkpt><trkpt lat="44.0308423" lon="11.8406725"><ele>596.0</ele><time>2026-05-03T08:55:04.605Z</time></trkpt><trkpt lat="44.0307794" lon="11.8406397"><ele>597.6666666666666</ele><time>2026-05-03T08:55:07.603Z</time></trkpt><trkpt lat="44.0307153" lon="11.8406467"><ele>599.3333333333333</ele><time>2026-05-03T08:55:10.627Z</time></trkpt><trkpt lat="44.0306341" lon="11.8406644"><ele>601.0</ele><time>2026-05-03T08:55:13.601Z</time></trkpt><trkpt lat="44.0305611" lon="11.8406912"><ele>602.6666666666666</ele><time>2026-05-03T08:55:15.597Z</time></trkpt><trkpt lat="44.0304955" lon="11.8407392"><ele>604.3333333333334</ele><time>2026-05-03T08:55:17.592Z</time></trkpt><trkpt lat="44.0304175" lon="11.8407634"><ele>606.0</ele><time>2026-05-03T08:55:19.598Z</time></trkpt><trkpt lat="44.030335" lon="11.8407967"><ele>606.0</ele><time>2026-05-03T08:55:21.595Z</time></trkpt><trkpt lat="44.0302255" lon="11.8408615"><ele>606.0</ele><time>2026-05-03T08:55:23.594Z</time></trkpt><trkpt lat="44.0301613" lon="11.8408786"><ele>606.0</ele><time>2026-05-03T08:55:24.587Z</time></trkpt><trkpt lat="44.0300412" lon="11.8408762"><ele>606.0</ele><time>2026-05-03T08:55:26.576Z</time></trkpt><trkpt lat="44.0299356" lon="11.8408597"><ele>606.0</ele><time>2026-05-03T08:55:28.578Z</time></trkpt><trkpt lat="44.0298478" lon="11.8408181"><ele>608.2857142857143</ele><time>2026-05-03T08:55:30.586Z</time></trkpt><trkpt lat="44.0297889" lon="11.840758"><ele>610.5714285714286</ele><time>2026-05-03T08:55:32.591Z</time></trkpt><trkpt lat="44.0297387" lon="11.8406936"><ele>612.8571428571429</ele><time>2026-05-03T08:55:34.591Z</time></trkpt><trkpt lat="44.0296842" lon="11.8406089"><ele>615.1428571428571</ele><time>2026-05-03T08:55:37.591Z</time></trkpt><trkpt lat="44.0296379" lon="11.8405264"><ele>617.4285714285714</ele><time>2026-05-03T08:55:40.595Z</time></trkpt><trkpt lat="44.0295968" lon="11.8404584"><ele>619.7142857142857</ele><time>2026-05-03T08:55:44.592Z</time></trkpt><trkpt lat="44.0295477" lon="11.8403891"><ele>622.0</ele><time>2026-05-03T08:55:48.601Z</time></trkpt><trkpt lat="44.0294937" lon="11.8403425"><ele>622.0</ele><time>2026-05-03T08:55:51.602Z</time></trkpt><trkpt lat="44.0294398" lon="11.8402683"><ele>622.0</ele><time>2026-05-03T08:55:55.606Z</time></trkpt><trkpt lat="44.0293965" lon="11.8402009"><ele>622.0</ele><time>2026-05-03T08:55:59.609Z</time></trkpt><trkpt lat="44.0293283" lon="11.8401558"><ele>622.0</ele><time>2026-05-03T08:56:04.61Z</time></trkpt><trkpt lat="44.0292543" lon="11.8401315"><ele>622.0</ele><time>2026-05-03T08:56:09.61Z</time></trkpt><trkpt lat="44.0291895" lon="11.8401151"><ele>622.0</ele><time>2026-05-03T08:56:13.61Z</time></trkpt><trkpt lat="44.0291083" lon="11.8401004"><ele>622.0</ele><time>2026-05-03T08:56:18.621Z</time></trkpt><trkpt lat="44.0290453" lon="11.8401075"><ele>622.0</ele><time>2026-05-03T08:56:21.614Z</time></trkpt><trkpt lat="44.0290069" lon="11.8401787"><ele>622.0</ele><time>2026-05-03T08:56:25.616Z</time></trkpt><trkpt lat="44.0290417" lon="11.8402522"><ele>622.0</ele><time>2026-05-03T08:56:29.626Z</time></trkpt><trkpt lat="44.0291024" lon="11.8402942"><ele>622.0</ele><time>2026-05-03T08:56:34.62Z</time></trkpt><trkpt lat="44.0291769" lon="11.840321"><ele>622.0</ele><time>2026-05-03T08:56:40.63Z</time></trkpt><trkpt lat="44.0292241" lon="11.8403914"><ele>622.0</ele><time>2026-05-03T08:56:45.621Z</time></trkpt><trkpt lat="44.0292782" lon="11.8404653"><ele>622.0</ele><time>2026-05-03T08:56:50.617Z</time></trkpt><trkpt lat="44.0293165" lon="11.8405486"><ele>622.0</ele><time>2026-05-03T08:56:55.617Z</time></trkpt><trkpt lat="44.0293301" lon="11.8406468"><ele>622.0</ele><time>2026-05-03T08:56:59.63Z</time></trkpt><trkpt lat="44.0293467" lon="11.8407463"><ele>622.0</ele><time>2026-05-03T08:57:03.625Z</time></trkpt><trkpt lat="44.0293695" lon="11.8408339"><ele>622.0</ele><time>2026-05-03T08:57:07.623Z</time></trkpt><trkpt lat="44.029401" lon="11.8409125"><ele>622.0</ele><time>2026-05-03T08:57:12.622Z</time></trkpt><trkpt lat="44.0294246" lon="11.841002"><ele>622.0</ele><time>2026-05-03T08:57:16.632Z</time></trkpt><trkpt lat="44.0294604" lon="11.8410947"><ele>622.0</ele><time>2026-05-03T08:57:21.612Z</time></trkpt><trkpt lat="44.0294934" lon="11.8411757"><ele>622.4285714285714</ele><time>2026-05-03T08:57:25.615Z</time></trkpt><trkpt lat="44.0295126" lon="11.8412612"><ele>622.8571428571429</ele><time>2026-05-03T08:57:29.621Z</time></trkpt><trkpt lat="44.0295556" lon="11.8413381"><ele>623.2857142857143</ele><time>2026-05-03T08:57:34.628Z</time></trkpt><trkpt lat="44.0296159" lon="11.8414044"><ele>623.7142857142858</ele><time>2026-05-03T08:57:39.625Z</time></trkpt><trkpt lat="44.0296695" lon="11.8414671"><ele>624.1428571428571</ele><time>2026-05-03T08:57:44.633Z</time></trkpt><trkpt lat="44.0297184" lon="11.8415421"><ele>624.5714285714287</ele><time>2026-05-03T08:57:49.62Z</time></trkpt><trkpt lat="44.0297732" lon="11.8415991"><ele>625.0</ele><time>2026-05-03T08:57:54.621Z</time></trkpt><trkpt lat="44.0298158" lon="11.8416636"><ele>625.0000000000001</ele><time>2026-05-03T08:58:00.619Z</time></trkpt><trkpt lat="44.0298847" lon="11.8417162"><ele>625.0</ele><time>2026-05-03T08:58:05.617Z</time></trkpt><trkpt lat="44.0299449" lon="11.8417716"><ele>625.0</ele><time>2026-05-03T08:58:09.616Z</time></trkpt><trkpt lat="44.0300097" lon="11.841826"><ele>625.0</ele><time>2026-05-03T08:58:32.616Z</time></trkpt><trkpt lat="44.0300545" lon="11.8418971"><ele>625.0</ele><time>2026-05-03T08:58:36.63Z</time></trkpt><trkpt lat="44.030114" lon="11.8419644"><ele>625.0000000000001</ele><time>2026-05-03T08:58:41.625Z</time></trkpt><trkpt lat="44.0301672" lon="11.8420252"><ele>625.0</ele><time>2026-05-03T08:58:46.648Z</time></trkpt><trkpt lat="44.0302324" lon="11.8420663"><ele>628.3333333333334</ele><time>2026-05-03T08:58:53.634Z</time></trkpt><trkpt lat="44.0302889" lon="11.8421365"><ele>631.6666666666667</ele><time>2026-05-03T08:58:59.634Z</time></trkpt><trkpt lat="44.0303142" lon="11.8422358"><ele>635.0</ele><time>2026-05-03T08:59:03.63Z</time></trkpt><trkpt lat="44.0303441" lon="11.8423559"><ele>638.3333333333334</ele><time>2026-05-03T08:59:06.626Z</time></trkpt><trkpt lat="44.0303734" lon="11.842452"><ele>641.6666666666666</ele><time>2026-05-03T08:59:08.634Z</time></trkpt><trkpt lat="44.0304163" lon="11.8425694"><ele>645.0</ele><time>2026-05-03T08:59:10.642Z</time></trkpt><trkpt lat="44.03048" lon="11.8427033"><ele>645.1666666666666</ele><time>2026-05-03T08:59:12.633Z</time></trkpt><trkpt lat="44.0305353" lon="11.8428057"><ele>645.3333333333334</ele><time>2026-05-03T08:59:14.632Z</time></trkpt><trkpt lat="44.0305977" lon="11.8428664"><ele>645.5</ele><time>2026-05-03T08:59:16.634Z</time></trkpt><trkpt lat="44.0306729" lon="11.8429561"><ele>645.6666666666667</ele><time>2026-05-03T08:59:19.632Z</time></trkpt><trkpt lat="44.0307231" lon="11.8430441"><ele>645.8333333333334</ele><time>2026-05-03T08:59:21.639Z</time></trkpt><trkpt lat="44.0307793" lon="11.8431484"><ele>646.0</ele><time>2026-05-03T08:59:23.628Z</time></trkpt><trkpt lat="44.0308345" lon="11.8432423"><ele>645.8333333333334</ele><time>2026-05-03T08:59:25.628Z</time></trkpt><trkpt lat="44.0308806" lon="11.8433396"><ele>645.6666666666667</ele><time>2026-05-03T08:59:27.633Z</time></trkpt><trkpt lat="44.0309179" lon="11.8434347"><ele>645.5</ele><time>2026-05-03T08:59:29.64Z</time></trkpt><trkpt lat="44.0309546" lon="11.8435234"><ele>645.3333333333334</ele><time>2026-05-03T08:59:31.638Z</time></trkpt><trkpt lat="44.0309964" lon="11.8436359"><ele>645.1666666666666</ele><time>2026-05-03T08:59:33.634Z</time></trkpt><trkpt lat="44.0310379" lon="11.8437486"><ele>645.0</ele><time>2026-05-03T08:59:35.63Z</time></trkpt><trkpt lat="44.0310831" lon="11.843864"><ele>645.0</ele><time>2026-05-03T08:59:37.629Z</time></trkpt><trkpt lat="44.0311357" lon="11.8439756"><ele>645.0</ele><time>2026-05-03T08:59:39.626Z</time></trkpt><trkpt lat="44.0311887" lon="11.8441124"><ele>645.0</ele><time>2026-05-03T08:59:41.621Z</time></trkpt><trkpt lat="44.0312515" lon="11.8442696"><ele>645.0</ele><time>2026-05-03T08:59:43.608Z</time></trkpt><trkpt lat="44.0312766" lon="11.8443664"><ele>645.0</ele><time>2026-05-03T08:59:44.604Z</time></trkpt><trkpt lat="44.0313064" lon="11.8444669"><ele>641.2</ele><time>2026-05-03T08:59:45.608Z</time></trkpt><trkpt lat="44.0313498" lon="11.8445614"><ele>637.4</ele><time>2026-05-03T08:59:46.616Z</time></trkpt><trkpt lat="44.0313995" lon="11.8446577"><ele>633.6</ele><time>2026-05-03T08:59:47.617Z</time></trkpt><trkpt lat="44.0314491" lon="11.8447635"><ele>629.8</ele><time>2026-05-03T08:59:48.636Z</time></trkpt><trkpt lat="44.0315062" lon="11.844879"><ele>626.0</ele><time>2026-05-03T08:59:49.617Z</time></trkpt><trkpt lat="44.0315733" lon="11.845"><ele>626.0</ele><time>2026-05-03T08:59:50.607Z</time></trkpt><trkpt lat="44.0316346" lon="11.8451112"><ele>626.0</ele><time>2026-05-03T08:59:51.617Z</time></trkpt><trkpt lat="44.0317059" lon="11.8452251"><ele>626.0</ele><time>2026-05-03T08:59:52.617Z</time></trkpt><trkpt lat="44.031778" lon="11.8453264"><ele>626.0</ele><time>2026-05-03T08:59:53.612Z</time></trkpt><trkpt lat="44.031847" lon="11.8454185"><ele>626.0</ele><time>2026-05-03T08:59:54.624Z</time></trkpt><trkpt lat="44.0319058" lon="11.8454923"><ele>627.5</ele><time>2026-05-03T08:59:55.623Z</time></trkpt><trkpt lat="44.0319659" lon="11.8455383"><ele>629.0</ele><time>2026-05-03T08:59:56.621Z</time></trkpt><trkpt lat="44.0320816" lon="11.8455995"><ele>630.5</ele><time>2026-05-03T08:59:58.609Z</time></trkpt><trkpt lat="44.0321422" lon="11.8456234"><ele>632.0</ele><time>2026-05-03T08:59:59.604Z</time></trkpt><trkpt lat="44.0322624" lon="11.8456648"><ele>633.5</ele><time>2026-05-03T09:00:01.604Z</time></trkpt><trkpt lat="44.0323253" lon="11.8456822"><ele>635.0</ele><time>2026-05-03T09:00:02.599Z</time></trkpt><trkpt lat="44.0324376" lon="11.8457222"><ele>634.8333333333333</ele><time>2026-05-03T09:00:04.598Z</time></trkpt><trkpt lat="44.0325303" lon="11.8457138"><ele>634.6666666666666</ele><time>2026-05-03T09:00:06.609Z</time></trkpt><trkpt lat="44.0326077" lon="11.8457125"><ele>634.5</ele><time>2026-05-03T09:00:08.606Z</time></trkpt><trkpt lat="44.0326848" lon="11.8457102"><ele>634.3333333333334</ele><time>2026-05-03T09:00:10.598Z</time></trkpt><trkpt lat="44.0327695" lon="11.84566"><ele>634.1666666666667</ele><time>2026-05-03T09:00:12.603Z</time></trkpt><trkpt lat="44.0328231" lon="11.8455794"><ele>634.0</ele><time>2026-05-03T09:00:14.608Z</time></trkpt><trkpt lat="44.0328986" lon="11.8454852"><ele>634.0</ele><time>2026-05-03T09:00:17.596Z</time></trkpt><trkpt lat="44.0329737" lon="11.8454651"><ele>634.0</ele><time>2026-05-03T09:00:19.602Z</time></trkpt><trkpt lat="44.0330473" lon="11.8454597"><ele>634.0</ele><time>2026-05-03T09:00:21.603Z</time></trkpt><trkpt lat="44.0331191" lon="11.8454256"><ele>634.0</ele><time>2026-05-03T09:00:23.61Z</time></trkpt><trkpt lat="44.0331587" lon="11.8452945"><ele>634.0</ele><time>2026-05-03T09:00:25.599Z</time></trkpt><trkpt lat="44.0332374" lon="11.8451812"><ele>634.0</ele><time>2026-05-03T09:00:27.617Z</time></trkpt><trkpt lat="44.0333273" lon="11.8452256"><ele>629.6666666666667</ele><time>2026-05-03T09:00:29.602Z</time></trkpt><trkpt lat="44.0334095" lon="11.8452756"><ele>625.3333333333334</ele><time>2026-05-03T09:00:31.586Z</time></trkpt><trkpt lat="44.0334333" lon="11.8453924"><ele>621.0</ele><time>2026-05-03T09:00:34.605Z</time></trkpt><trkpt lat="44.0334934" lon="11.8454737"><ele>616.6666666666666</ele><time>2026-05-03T09:00:36.604Z</time></trkpt><trkpt lat="44.0335609" lon="11.8455526"><ele>612.3333333333333</ele><time>2026-05-03T09:00:38.612Z</time></trkpt><trkpt lat="44.0336523" lon="11.8455784"><ele>608.0</ele><time>2026-05-03T09:00:40.599Z</time></trkpt><trkpt lat="44.0337381" lon="11.8455712"><ele>608.0</ele><time>2026-05-03T09:00:42.593Z</time></trkpt><trkpt lat="44.0338049" lon="11.8455534"><ele>608.0</ele><time>2026-05-03T09:00:43.588Z</time></trkpt><trkpt lat="44.0338944" lon="11.8455561"><ele>608.0</ele><time>2026-05-03T09:00:44.6Z</time></trkpt><trkpt lat="44.0339575" lon="11.845561"><ele>608.0</ele><time>2026-05-03T09:00:45.586Z</time></trkpt><trkpt lat="44.0340574" lon="11.8455144"><ele>608.0</ele><time>2026-05-03T09:00:47.607Z</time></trkpt><trkpt lat="44.0341355" lon="11.8454471"><ele>608.0</ele><time>2026-05-03T09:00:49.603Z</time></trkpt><trkpt lat="44.0342274" lon="11.8453432"><ele>604.1666666666666</ele><time>2026-05-03T09:00:51.6Z</time></trkpt><trkpt lat="44.0342299" lon="11.8452127"><ele>600.3333333333333</ele><time>2026-05-03T09:00:53.607Z</time></trkpt><trkpt lat="44.0341944" lon="11.8450877"><ele>596.5</ele><time>2026-05-03T09:00:55.611Z</time></trkpt><trkpt lat="44.0341996" lon="11.8449983"><ele>592.6666666666666</ele><time>2026-05-03T09:00:57.601Z</time></trkpt><trkpt lat="44.0342782" lon="11.8449976"><ele>588.8333333333334</ele><time>2026-05-03T09:00:59.598Z</time></trkpt><trkpt lat="44.0343748" lon="11.8450394"><ele>585.0</ele><time>2026-05-03T09:01:01.592Z</time></trkpt><trkpt lat="44.034452" lon="11.8451186"><ele>584.0</ele><time>2026-05-03T09:01:03.597Z</time></trkpt><trkpt lat="44.0345342" lon="11.8451928"><ele>583.0</ele><time>2026-05-03T09:01:05.594Z</time></trkpt><trkpt lat="44.0346306" lon="11.8452414"><ele>582.0</ele><time>2026-05-03T09:01:07.595Z</time></trkpt><trkpt lat="44.0347271" lon="11.8452863"><ele>581.0</ele><time>2026-05-03T09:01:09.6Z</time></trkpt><trkpt lat="44.0348428" lon="11.8452769"><ele>580.0</ele><time>2026-05-03T09:01:11.599Z</time></trkpt><trkpt lat="44.0349409" lon="11.8452528"><ele>575.1666666666667</ele><time>2026-05-03T09:01:13.596Z</time></trkpt><trkpt lat="44.0350359" lon="11.8452791"><ele>570.3333333333334</ele><time>2026-05-03T09:01:15.61Z</time></trkpt><trkpt lat="44.0351295" lon="11.8452981"><ele>565.5</ele><time>2026-05-03T09:01:17.612Z</time></trkpt><trkpt lat="44.0352413" lon="11.8452374"><ele>560.6666666666666</ele><time>2026-05-03T09:01:19.596Z</time></trkpt><trkpt lat="44.0353015" lon="11.8452084"><ele>555.8333333333333</ele><time>2026-05-03T09:01:20.593Z</time></trkpt><trkpt lat="44.0353651" lon="11.8451743"><ele>551.0</ele><time>2026-05-03T09:01:21.604Z</time></trkpt><trkpt lat="44.0354329" lon="11.8451437"><ele>551.2857142857142</ele><time>2026-05-03T09:01:22.594Z</time></trkpt><trkpt lat="44.0354998" lon="11.845111"><ele>551.5714285714286</ele><time>2026-05-03T09:01:23.594Z</time></trkpt><trkpt lat="44.0355688" lon="11.8450841"><ele>551.8571428571429</ele><time>2026-05-03T09:01:24.589Z</time></trkpt><trkpt lat="44.0356383" lon="11.8450516"><ele>552.1428571428571</ele><time>2026-05-03T09:01:25.594Z</time></trkpt><trkpt lat="44.0357151" lon="11.8450106"><ele>552.4285714285714</ele><time>2026-05-03T09:01:26.591Z</time></trkpt><trkpt lat="44.0357847" lon="11.8449629"><ele>552.7142857142857</ele><time>2026-05-03T09:01:27.597Z</time></trkpt><trkpt lat="44.0358375" lon="11.8448993"><ele>553.0</ele><time>2026-05-03T09:01:28.601Z</time></trkpt><trkpt lat="44.0359053" lon="11.8447572"><ele>553.0</ele><time>2026-05-03T09:01:30.599Z</time></trkpt><trkpt lat="44.0359667" lon="11.8446201"><ele>553.0</ele><time>2026-05-03T09:01:32.583Z</time></trkpt><trkpt lat="44.0360391" lon="11.8444938"><ele>553.0</ele><time>2026-05-03T09:01:34.587Z</time></trkpt><trkpt lat="44.0361134" lon="11.8443872"><ele>553.0</ele><time>2026-05-03T09:01:36.586Z</time></trkpt><trkpt lat="44.0361834" lon="11.8443032"><ele>553.0</ele><time>2026-05-03T09:01:38.599Z</time></trkpt><trkpt lat="44.0362575" lon="11.8442448"><ele>551.1666666666667</ele><time>2026-05-03T09:01:40.591Z</time></trkpt><trkpt lat="44.0363571" lon="11.8441764"><ele>549.3333333333334</ele><time>2026-05-03T09:01:42.585Z</time></trkpt><trkpt lat="44.0364232" lon="11.8441002"><ele>547.5</ele><time>2026-05-03T09:01:44.588Z</time></trkpt><trkpt lat="44.0364116" lon="11.8439959"><ele>545.6666666666666</ele><time>2026-05-03T09:01:46.594Z</time></trkpt><trkpt lat="44.0363634" lon="11.8439272"><ele>543.8333333333333</ele><time>2026-05-03T09:01:48.604Z</time></trkpt><trkpt lat="44.0363056" lon="11.8438504"><ele>542.0</ele><time>2026-05-03T09:01:50.593Z</time></trkpt><trkpt lat="44.0362501" lon="11.8437751"><ele>542.0</ele><time>2026-05-03T09:01:52.594Z</time></trkpt><trkpt lat="44.0362004" lon="11.8437104"><ele>542.0</ele><time>2026-05-03T09:01:54.599Z</time></trkpt><trkpt lat="44.03613" lon="11.8436254"><ele>542.0</ele><time>2026-05-03T09:01:57.588Z</time></trkpt><trkpt lat="44.0360616" lon="11.843611"><ele>542.0</ele><time>2026-05-03T09:01:59.589Z</time></trkpt><trkpt lat="44.035968" lon="11.8435839"><ele>542.0</ele><time>2026-05-03T09:02:01.581Z</time></trkpt><trkpt lat="44.0358618" lon="11.8435518"><ele>542.0</ele><time>2026-05-03T09:02:03.578Z</time></trkpt><trkpt lat="44.0357945" lon="11.843546"><ele>541.2857142857142</ele><time>2026-05-03T09:02:04.586Z</time></trkpt><trkpt lat="44.035722" lon="11.8435414"><ele>540.5714285714286</ele><time>2026-05-03T09:02:05.57Z</time></trkpt><trkpt lat="44.0356561" lon="11.8435228"><ele>539.8571428571429</ele><time>2026-05-03T09:02:06.587Z</time></trkpt><trkpt lat="44.035592" lon="11.8434695"><ele>539.1428571428571</ele><time>2026-05-03T09:02:08.588Z</time></trkpt><trkpt lat="44.0355715" lon="11.8433852"><ele>538.4285714285714</ele><time>2026-05-03T09:02:10.594Z</time></trkpt><trkpt lat="44.0355265" lon="11.8432957"><ele>537.7142857142857</ele><time>2026-05-03T09:02:12.586Z</time></trkpt><trkpt lat="44.0354723" lon="11.8432112"><ele>537.0</ele><time>2026-05-03T09:02:14.585Z</time></trkpt><trkpt lat="44.0354268" lon="11.8431128"><ele>537.0</ele><time>2026-05-03T09:02:16.585Z</time></trkpt><trkpt lat="44.0354176" lon="11.8429902"><ele>537.0</ele><time>2026-05-03T09:02:18.58Z</time></trkpt><trkpt lat="44.0354612" lon="11.8428928"><ele>537.0</ele><time>2026-05-03T09:02:20.574Z</time></trkpt><trkpt lat="44.035508" lon="11.8428071"><ele>537.0</ele><time>2026-05-03T09:02:21.578Z</time></trkpt><trkpt lat="44.0355561" lon="11.8427219"><ele>537.0</ele><time>2026-05-03T09:02:22.58Z</time></trkpt><trkpt lat="44.0355904" lon="11.8426195"><ele>537.0</ele><time>2026-05-03T09:02:23.58Z</time></trkpt><trkpt lat="44.0356157" lon="11.8424618"><ele>532.3333333333334</ele><time>2026-05-03T09:02:28.587Z</time></trkpt><trkpt lat="44.0356194" lon="11.8423542"><ele>527.6666666666666</ele><time>2026-05-03T09:02:29.582Z</time></trkpt><trkpt lat="44.0356064" lon="11.8422227"><ele>523.0</ele><time>2026-05-03T09:02:30.576Z</time></trkpt><trkpt lat="44.0356087" lon="11.8420905"><ele>518.3333333333333</ele><time>2026-05-03T09:02:31.589Z</time></trkpt><trkpt lat="44.0356189" lon="11.8419792"><ele>513.6666666666666</ele><time>2026-05-03T09:02:32.58Z</time></trkpt><trkpt lat="44.0356347" lon="11.8418539"><ele>509.0</ele><time>2026-05-03T09:02:33.58Z</time></trkpt><trkpt lat="44.0356649" lon="11.8417382"><ele>506.8571428571428</ele><time>2026-05-03T09:02:34.577Z</time></trkpt><trkpt lat="44.0357132" lon="11.8416475"><ele>504.71428571428567</ele><time>2026-05-03T09:02:35.574Z</time></trkpt><trkpt lat="44.035766" lon="11.8415952"><ele>502.57142857142856</ele><time>2026-05-03T09:02:36.594Z</time></trkpt><trkpt lat="44.0358253" lon="11.8415558"><ele>500.4285714285714</ele><time>2026-05-03T09:02:37.568Z</time></trkpt><trkpt lat="44.0358854" lon="11.8415295"><ele>498.2857142857142</ele><time>2026-05-03T09:02:38.572Z</time></trkpt><trkpt lat="44.0359454" lon="11.8415002"><ele>496.14285714285717</ele><time>2026-05-03T09:02:39.575Z</time></trkpt><trkpt lat="44.0360111" lon="11.8414841"><ele>494.0</ele><time>2026-05-03T09:02:40.572Z</time></trkpt><trkpt lat="44.0360817" lon="11.841461"><ele>493.99999999999994</ele><time>2026-05-03T09:02:41.579Z</time></trkpt><trkpt lat="44.0361488" lon="11.8414297"><ele>494.0</ele><time>2026-05-03T09:02:42.579Z</time></trkpt><trkpt lat="44.036212" lon="11.8413915"><ele>494.0</ele><time>2026-05-03T09:02:43.577Z</time></trkpt><trkpt lat="44.0362946" lon="11.8413351"><ele>494.0</ele><time>2026-05-03T09:02:45.569Z</time></trkpt><trkpt lat="44.0363807" lon="11.8413164"><ele>493.99999999999994</ele><time>2026-05-03T09:02:47.579Z</time></trkpt><trkpt lat="44.0365107" lon="11.8413282"><ele>494.0</ele><time>2026-05-03T09:02:49.577Z</time></trkpt><trkpt lat="44.0365866" lon="11.8413173"><ele>495.4</ele><time>2026-05-03T09:02:50.58Z</time></trkpt><trkpt lat="44.0366528" lon="11.8413091"><ele>496.79999999999995</ele><time>2026-05-03T09:02:51.577Z</time></trkpt><trkpt lat="44.036758" lon="11.84128"><ele>498.20000000000005</ele><time>2026-05-03T09:02:53.592Z</time></trkpt><trkpt lat="44.0368323" lon="11.8411946"><ele>499.6</ele><time>2026-05-03T09:02:55.596Z</time></trkpt><trkpt lat="44.0368785" lon="11.8410989"><ele>501.0</ele><time>2026-05-03T09:02:57.594Z</time></trkpt><trkpt lat="44.0369133" lon="11.8409541"><ele>498.8571428571429</ele><time>2026-05-03T09:02:59.598Z</time></trkpt><trkpt lat="44.0369323" lon="11.8408643"><ele>496.71428571428567</ele><time>2026-05-03T09:03:00.599Z</time></trkpt><trkpt lat="44.0369669" lon="11.8407837"><ele>494.57142857142856</ele><time>2026-05-03T09:03:01.58Z</time></trkpt><trkpt lat="44.0370068" lon="11.8407056"><ele>492.42857142857144</ele><time>2026-05-03T09:03:02.591Z</time></trkpt><trkpt lat="44.0370558" lon="11.8406436"><ele>490.28571428571433</ele><time>2026-05-03T09:03:03.585Z</time></trkpt><trkpt lat="44.0371077" lon="11.8405772"><ele>488.1428571428571</ele><time>2026-05-03T09:03:04.586Z</time></trkpt><trkpt lat="44.037156" lon="11.8405006"><ele>486.0</ele><time>2026-05-03T09:03:05.585Z</time></trkpt><trkpt lat="44.0372071" lon="11.8404442"><ele>486.0</ele><time>2026-05-03T09:03:06.588Z</time></trkpt><trkpt lat="44.0372988" lon="11.840419"><ele>486.0</ele><time>2026-05-03T09:03:08.604Z</time></trkpt><trkpt lat="44.0373405" lon="11.8405351"><ele>486.0</ele><time>2026-05-03T09:03:10.605Z</time></trkpt><trkpt lat="44.0373439" lon="11.8406803"><ele>486.0</ele><time>2026-05-03T09:03:12.598Z</time></trkpt><trkpt lat="44.03735" lon="11.8407833"><ele>486.0</ele><time>2026-05-03T09:03:14.603Z</time></trkpt><trkpt lat="44.0373581" lon="11.8408839"><ele>486.0</ele><time>2026-05-03T09:03:16.61Z</time></trkpt><trkpt lat="44.0373639" lon="11.8409763"><ele>488.5</ele><time>2026-05-03T09:03:18.607Z</time></trkpt><trkpt lat="44.0373581" lon="11.8410675"><ele>491.0</ele><time>2026-05-03T09:03:20.613Z</time></trkpt><trkpt lat="44.0373383" lon="11.841166"><ele>493.5</ele><time>2026-05-03T09:03:22.605Z</time></trkpt><trkpt lat="44.037316" lon="11.8412699"><ele>496.0</ele><time>2026-05-03T09:03:24.603Z</time></trkpt><trkpt lat="44.0373037" lon="11.8413979"><ele>498.5</ele><time>2026-05-03T09:03:27.608Z</time></trkpt><trkpt lat="44.0372944" lon="11.841486"><ele>501.0</ele><time>2026-05-03T09:03:29.598Z</time></trkpt><trkpt lat="44.0372718" lon="11.8415905"><ele>501.0</ele><time>2026-05-03T09:03:31.598Z</time></trkpt><trkpt lat="44.0372418" lon="11.841698"><ele>501.0</ele><time>2026-05-03T09:03:33.61Z</time></trkpt><trkpt lat="44.0372158" lon="11.841811"><ele>501.0</ele><time>2026-05-03T09:03:35.615Z</time></trkpt><trkpt lat="44.0371933" lon="11.8419324"><ele>501.0</ele><time>2026-05-03T09:03:37.605Z</time></trkpt><trkpt lat="44.0371873" lon="11.8420491"><ele>501.0</ele><time>2026-05-03T09:03:39.6Z</time></trkpt><trkpt lat="44.0372001" lon="11.8421752"><ele>501.0</ele><time>2026-05-03T09:03:41.6Z</time></trkpt><trkpt lat="44.0372265" lon="11.8423053"><ele>505.1666666666667</ele><time>2026-05-03T09:03:43.598Z</time></trkpt><trkpt lat="44.0372593" lon="11.8424282"><ele>509.33333333333337</ele><time>2026-05-03T09:03:45.601Z</time></trkpt><trkpt lat="44.0373025" lon="11.8425262"><ele>513.5</ele><time>2026-05-03T09:03:47.605Z</time></trkpt><trkpt lat="44.0373465" lon="11.8426382"><ele>517.6666666666667</ele><time>2026-05-03T09:03:49.606Z</time></trkpt><trkpt lat="44.0373899" lon="11.8427404"><ele>521.8333333333334</ele><time>2026-05-03T09:03:51.602Z</time></trkpt><trkpt lat="44.0374203" lon="11.8428226"><ele>526.0</ele><time>2026-05-03T09:03:53.604Z</time></trkpt><trkpt lat="44.0374657" lon="11.8429007"><ele>523.1666666666667</ele><time>2026-05-03T09:03:55.605Z</time></trkpt><trkpt lat="44.0375169" lon="11.8429708"><ele>520.3333333333334</ele><time>2026-05-03T09:03:57.605Z</time></trkpt><trkpt lat="44.0375803" lon="11.8430504"><ele>517.5</ele><time>2026-05-03T09:03:59.601Z</time></trkpt><trkpt lat="44.0376485" lon="11.8431286"><ele>514.6666666666666</ele><time>2026-05-03T09:04:01.596Z</time></trkpt><trkpt lat="44.0376945" lon="11.8432121"><ele>511.8333333333333</ele><time>2026-05-03T09:04:03.605Z</time></trkpt><trkpt lat="44.037751" lon="11.8432892"><ele>509.0</ele><time>2026-05-03T09:04:05.604Z</time></trkpt><trkpt lat="44.0378108" lon="11.8433693"><ele>506.8333333333333</ele><time>2026-05-03T09:04:07.61Z</time></trkpt><trkpt lat="44.0378691" lon="11.8434651"><ele>504.66666666666663</ele><time>2026-05-03T09:04:09.6Z</time></trkpt><trkpt lat="44.0378922" lon="11.8435549"><ele>502.5</ele><time>2026-05-03T09:04:11.607Z</time></trkpt><trkpt lat="44.0378461" lon="11.8436429"><ele>500.33333333333337</ele><time>2026-05-03T09:04:14.602Z</time></trkpt><trkpt lat="44.0377828" lon="11.8436709"><ele>498.1666666666667</ele><time>2026-05-03T09:04:16.598Z</time></trkpt><trkpt lat="44.0376995" lon="11.8436655"><ele>496.0</ele><time>2026-05-03T09:04:18.601Z</time></trkpt><trkpt lat="44.0376262" lon="11.8436527"><ele>496.00000000000006</ele><time>2026-05-03T09:04:20.605Z</time></trkpt><trkpt lat="44.0375425" lon="11.8436561"><ele>496.0</ele><time>2026-05-03T09:04:23.607Z</time></trkpt><trkpt lat="44.0374595" lon="11.8436955"><ele>496.0</ele><time>2026-05-03T09:04:26.607Z</time></trkpt><trkpt lat="44.0373822" lon="11.8437263"><ele>496.0</ele><time>2026-05-03T09:04:28.608Z</time></trkpt><trkpt lat="44.037295" lon="11.8437643"><ele>496.00000000000006</ele><time>2026-05-03T09:04:30.596Z</time></trkpt><trkpt lat="44.0372098" lon="11.8438189"><ele>496.0</ele><time>2026-05-03T09:04:32.595Z</time></trkpt><trkpt lat="44.0371538" lon="11.8438929"><ele>502.20000000000005</ele><time>2026-05-03T09:04:34.6Z</time></trkpt><trkpt lat="44.0371351" lon="11.844025"><ele>508.40000000000003</ele><time>2026-05-03T09:04:36.589Z</time></trkpt><trkpt lat="44.0371396" lon="11.8441222"><ele>514.6</ele><time>2026-05-03T09:04:37.587Z</time></trkpt><trkpt lat="44.0371508" lon="11.8443077"><ele>520.8000000000001</ele><time>2026-05-03T09:04:39.582Z</time></trkpt><trkpt lat="44.0371358" lon="11.8444133"><ele>527.0</ele><time>2026-05-03T09:04:40.577Z</time></trkpt><trkpt lat="44.0371247" lon="11.8445141"><ele>527.0</ele><time>2026-05-03T09:04:41.586Z</time></trkpt><trkpt lat="44.0370789" lon="11.8445939"><ele>527.0</ele><time>2026-05-03T09:04:42.577Z</time></trkpt><trkpt lat="44.0370357" lon="11.8446802"><ele>527.0</ele><time>2026-05-03T09:04:43.581Z</time></trkpt><trkpt lat="44.0370128" lon="11.8448475"><ele>527.0</ele><time>2026-05-03T09:04:45.581Z</time></trkpt><trkpt lat="44.0370098" lon="11.8450035"><ele>527.0</ele><time>2026-05-03T09:04:47.58Z</time></trkpt><trkpt lat="44.0369975" lon="11.8451071"><ele>527.0</ele><time>2026-05-03T09:04:49.59Z</time></trkpt><trkpt lat="44.0369599" lon="11.8451913"><ele>527.0</ele><time>2026-05-03T09:04:51.597Z</time></trkpt><trkpt lat="44.0369064" lon="11.8452583"><ele>527.0</ele><time>2026-05-03T09:04:53.596Z</time></trkpt><trkpt lat="44.0368399" lon="11.8453058"><ele>527.0</ele><time>2026-05-03T09:04:55.589Z</time></trkpt><trkpt lat="44.0367768" lon="11.8453805"><ele>527.0</ele><time>2026-05-03T09:04:57.597Z</time></trkpt><trkpt lat="44.0366924" lon="11.8454412"><ele>527.0</ele><time>2026-05-03T09:04:59.594Z</time></trkpt><trkpt lat="44.0366121" lon="11.8454945"><ele>527.0</ele><time>2026-05-03T09:05:01.585Z</time></trkpt><trkpt lat="44.0365185" lon="11.8455724"><ele>527.0</ele><time>2026-05-03T09:05:03.585Z</time></trkpt><trkpt lat="44.0364196" lon="11.8456596"><ele>527.0</ele><time>2026-05-03T09:05:05.588Z</time></trkpt><trkpt lat="44.0363652" lon="11.8457087"><ele>527.0</ele><time>2026-05-03T09:05:06.576Z</time></trkpt><trkpt lat="44.0363106" lon="11.8457721"><ele>527.0</ele><time>2026-05-03T09:05:07.58Z</time></trkpt><trkpt lat="44.0362488" lon="11.8458502"><ele>527.0</ele><time>2026-05-03T09:05:08.579Z</time></trkpt><trkpt lat="44.0361975" lon="11.845939"><ele>525.0</ele><time>2026-05-03T09:05:09.569Z</time></trkpt><trkpt lat="44.0361364" lon="11.8460313"><ele>523.0</ele><time>2026-05-03T09:05:10.585Z</time></trkpt><trkpt lat="44.0360718" lon="11.8461179"><ele>521.0</ele><time>2026-05-03T09:05:11.574Z</time></trkpt><trkpt lat="44.0360042" lon="11.8461983"><ele>519.0</ele><time>2026-05-03T09:05:12.581Z</time></trkpt><trkpt lat="44.0359403" lon="11.8462629"><ele>517.0</ele><time>2026-05-03T09:05:13.582Z</time></trkpt><trkpt lat="44.0358558" lon="11.8463222"><ele>515.0</ele><time>2026-05-03T09:05:14.576Z</time></trkpt><trkpt lat="44.0357567" lon="11.8463712"><ele>515.0</ele><time>2026-05-03T09:05:15.581Z</time></trkpt><trkpt lat="44.0356612" lon="11.8464246"><ele>515.0</ele><time>2026-05-03T09:05:16.577Z</time></trkpt><trkpt lat="44.0355839" lon="11.8464764"><ele>515.0</ele><time>2026-05-03T09:05:17.578Z</time></trkpt><trkpt lat="44.0355102" lon="11.8465356"><ele>515.0</ele><time>2026-05-03T09:05:18.577Z</time></trkpt><trkpt lat="44.0354431" lon="11.8465971"><ele>515.0</ele><time>2026-05-03T09:05:19.577Z</time></trkpt><trkpt lat="44.0353888" lon="11.8466675"><ele>515.0</ele><time>2026-05-03T09:05:20.598Z</time></trkpt><trkpt lat="44.0353346" lon="11.8467342"><ele>515.0</ele><time>2026-05-03T09:05:21.584Z</time></trkpt><trkpt lat="44.0352701" lon="11.8467878"><ele>515.0</ele><time>2026-05-03T09:05:22.589Z</time></trkpt><trkpt lat="44.0352011" lon="11.8468193"><ele>515.0</ele><time>2026-05-03T09:05:23.586Z</time></trkpt><trkpt lat="44.0351336" lon="11.8468333"><ele>515.0</ele><time>2026-05-03T09:05:24.597Z</time></trkpt><trkpt lat="44.0350725" lon="11.8468598"><ele>515.0</ele><time>2026-05-03T09:05:25.583Z</time></trkpt><trkpt lat="44.0349898" lon="11.8469372"><ele>515.0</ele><time>2026-05-03T09:05:27.579Z</time></trkpt><trkpt lat="44.0349118" lon="11.8470423"><ele>519.2</ele><time>2026-05-03T09:05:29.574Z</time></trkpt><trkpt lat="44.0348335" lon="11.8471646"><ele>523.4</ele><time>2026-05-03T09:05:31.575Z</time></trkpt><trkpt lat="44.0347562" lon="11.8472682"><ele>527.6</ele><time>2026-05-03T09:05:33.57Z</time></trkpt><trkpt lat="44.0346895" lon="11.8473434"><ele>531.8</ele><time>2026-05-03T09:05:35.581Z</time></trkpt><trkpt lat="44.0346584" lon="11.8474418"><ele>536.0</ele><time>2026-05-03T09:05:38.588Z</time></trkpt><trkpt lat="44.034676" lon="11.8475581"><ele>537.8</ele><time>2026-05-03T09:05:41.586Z</time></trkpt><trkpt lat="44.0346846" lon="11.8476941"><ele>539.6</ele><time>2026-05-03T09:05:43.586Z</time></trkpt><trkpt lat="44.0346761" lon="11.8477935"><ele>541.4</ele><time>2026-05-03T09:05:45.588Z</time></trkpt><trkpt lat="44.0347074" lon="11.8479007"><ele>543.2</ele><time>2026-05-03T09:05:48.589Z</time></trkpt><trkpt lat="44.0347399" lon="11.848021"><ele>545.0</ele><time>2026-05-03T09:05:50.583Z</time></trkpt><trkpt lat="44.0347857" lon="11.8481591"><ele>545.0</ele><time>2026-05-03T09:05:52.574Z</time></trkpt><trkpt lat="44.0348221" lon="11.8482996"><ele>545.0</ele><time>2026-05-03T09:05:54.578Z</time></trkpt><trkpt lat="44.0348555" lon="11.8484592"><ele>545.0</ele><time>2026-05-03T09:05:56.577Z</time></trkpt><trkpt lat="44.0348855" lon="11.8485644"><ele>545.0</ele><time>2026-05-03T09:05:58.573Z</time></trkpt><trkpt lat="44.0349283" lon="11.8486316"><ele>545.0</ele><time>2026-05-03T09:06:01.582Z</time></trkpt><trkpt lat="44.0349842" lon="11.8486731"><ele>545.0</ele><time>2026-05-03T09:06:03.577Z</time></trkpt><trkpt lat="44.0350268" lon="11.8487488"><ele>537.2</ele><time>2026-05-03T09:06:05.573Z</time></trkpt><trkpt lat="44.0350785" lon="11.8488147"><ele>529.4</ele><time>2026-05-03T09:06:07.571Z</time></trkpt><trkpt lat="44.0351584" lon="11.8489057"><ele>521.6</ele><time>2026-05-03T09:06:09.573Z</time></trkpt><trkpt lat="44.0352586" lon="11.8490267"><ele>513.8</ele><time>2026-05-03T09:06:11.578Z</time></trkpt><trkpt lat="44.0353132" lon="11.849098"><ele>506.0</ele><time>2026-05-03T09:06:12.569Z</time></trkpt><trkpt lat="44.0353797" lon="11.8492407"><ele>505.0</ele><time>2026-05-03T09:06:14.581Z</time></trkpt><trkpt lat="44.0354216" lon="11.849357"><ele>504.0</ele><time>2026-05-03T09:06:16.583Z</time></trkpt><trkpt lat="44.0354074" lon="11.8494843"><ele>503.0</ele><time>2026-05-03T09:06:18.587Z</time></trkpt><trkpt lat="44.0353278" lon="11.8496089"><ele>502.0</ele><time>2026-05-03T09:06:20.577Z</time></trkpt><trkpt lat="44.0352628" lon="11.8496683"><ele>501.0</ele><time>2026-05-03T09:06:21.586Z</time></trkpt><trkpt lat="44.0351906" lon="11.8497396"><ele>501.0</ele><time>2026-05-03T09:06:22.597Z</time></trkpt><trkpt lat="44.0351292" lon="11.8497944"><ele>501.0</ele><time>2026-05-03T09:06:23.581Z</time></trkpt><trkpt lat="44.0350824" lon="11.8498627"><ele>501.0</ele><time>2026-05-03T09:06:24.587Z</time></trkpt><trkpt lat="44.0350459" lon="11.8499522"><ele>501.0</ele><time>2026-05-03T09:06:25.582Z</time></trkpt><trkpt lat="44.0350146" lon="11.8500484"><ele>501.0</ele><time>2026-05-03T09:06:26.578Z</time></trkpt><trkpt lat="44.0349891" lon="11.8501503"><ele>501.0</ele><time>2026-05-03T09:06:27.576Z</time></trkpt><trkpt lat="44.0349634" lon="11.8502617"><ele>507.1666666666667</ele><time>2026-05-03T09:06:28.578Z</time></trkpt><trkpt lat="44.0349365" lon="11.8503741"><ele>513.3333333333334</ele><time>2026-05-03T09:06:29.59Z</time></trkpt><trkpt lat="44.0349087" lon="11.8504809"><ele>519.5</ele><time>2026-05-03T09:06:30.578Z</time></trkpt><trkpt lat="44.0348873" lon="11.8505897"><ele>525.6666666666667</ele><time>2026-05-03T09:06:31.59Z</time></trkpt><trkpt lat="44.0348738" lon="11.8506944"><ele>531.8333333333334</ele><time>2026-05-03T09:06:32.583Z</time></trkpt><trkpt lat="44.0348644" lon="11.8507934"><ele>538.0</ele><time>2026-05-03T09:06:33.585Z</time></trkpt><trkpt lat="44.0348544" lon="11.8508799"><ele>536.5</ele><time>2026-05-03T09:06:34.575Z</time></trkpt><trkpt lat="44.0348319" lon="11.8510559"><ele>535.0</ele><time>2026-05-03T09:06:36.581Z</time></trkpt><trkpt lat="44.0348124" lon="11.8511429"><ele>533.5</ele><time>2026-05-03T09:06:37.578Z</time></trkpt><trkpt lat="44.0347803" lon="11.8512223"><ele>532.0</ele><time>2026-05-03T09:06:38.577Z</time></trkpt><trkpt lat="44.0347496" lon="11.8513003"><ele>530.5</ele><time>2026-05-03T09:06:39.586Z</time></trkpt><trkpt lat="44.0347163" lon="11.851379"><ele>529.0</ele><time>2026-05-03T09:06:40.584Z</time></trkpt><trkpt lat="44.034661" lon="11.8515173"><ele>529.0</ele><time>2026-05-03T09:06:42.58Z</time></trkpt><trkpt lat="44.0346636" lon="11.8516358"><ele>529.0</ele><time>2026-05-03T09:06:44.589Z</time></trkpt><trkpt lat="44.0346936" lon="11.8517801"><ele>529.0</ele><time>2026-05-03T09:06:46.577Z</time></trkpt><trkpt lat="44.0347057" lon="11.8519462"><ele>529.0</ele><time>2026-05-03T09:06:48.582Z</time></trkpt><trkpt lat="44.0347275" lon="11.8521179"><ele>529.0</ele><time>2026-05-03T09:06:50.577Z</time></trkpt><trkpt lat="44.0347512" lon="11.8522152"><ele>527.2</ele><time>2026-05-03T09:06:51.577Z</time></trkpt><trkpt lat="44.0347877" lon="11.8523035"><ele>525.4</ele><time>2026-05-03T09:06:52.574Z</time></trkpt><trkpt lat="44.0348555" lon="11.8524199"><ele>523.6</ele><time>2026-05-03T09:06:54.587Z</time></trkpt><trkpt lat="44.0349513" lon="11.8524564"><ele>521.8</ele><time>2026-05-03T09:06:56.581Z</time></trkpt><trkpt lat="44.0350522" lon="11.852498"><ele>520.0</ele><time>2026-05-03T09:06:58.59Z</time></trkpt><trkpt lat="44.0351614" lon="11.8525748"><ele>517.2</ele><time>2026-05-03T09:07:00.593Z</time></trkpt><trkpt lat="44.03522" lon="11.8526319"><ele>514.4</ele><time>2026-05-03T09:07:01.583Z</time></trkpt><trkpt lat="44.0352791" lon="11.8527641"><ele>511.6</ele><time>2026-05-03T09:07:03.58Z</time></trkpt><trkpt lat="44.0352858" lon="11.8529033"><ele>508.8</ele><time>2026-05-03T09:07:05.576Z</time></trkpt><trkpt lat="44.0352525" lon="11.8530558"><ele>506.0</ele><time>2026-05-03T09:07:07.592Z</time></trkpt><trkpt lat="44.0352451" lon="11.8531473"><ele>505.99999999999994</ele><time>2026-05-03T09:07:08.591Z</time></trkpt><trkpt lat="44.0352546" lon="11.8532466"><ele>506.0</ele><time>2026-05-03T09:07:09.579Z</time></trkpt><trkpt lat="44.0352649" lon="11.8533383"><ele>506.0</ele><time>2026-05-03T09:07:10.58Z</time></trkpt><trkpt lat="44.0352933" lon="11.8534957"><ele>506.0</ele><time>2026-05-03T09:07:12.584Z</time></trkpt><trkpt lat="44.0353283" lon="11.8536172"><ele>505.99999999999994</ele><time>2026-05-03T09:07:14.576Z</time></trkpt><trkpt lat="44.0353372" lon="11.8537336"><ele>506.0</ele><time>2026-05-03T09:07:16.587Z</time></trkpt><trkpt lat="44.035324" lon="11.8538651"><ele>503.8</ele><time>2026-05-03T09:07:18.588Z</time></trkpt><trkpt lat="44.0352886" lon="11.8539977"><ele>501.6</ele><time>2026-05-03T09:07:20.591Z</time></trkpt><trkpt lat="44.0352517" lon="11.8541137"><ele>499.4</ele><time>2026-05-03T09:07:22.595Z</time></trkpt><trkpt lat="44.0352188" lon="11.8542175"><ele>497.2</ele><time>2026-05-03T09:07:24.598Z</time></trkpt><trkpt lat="44.0351876" lon="11.8543369"><ele>495.0</ele><time>2026-05-03T09:07:26.599Z</time></trkpt><trkpt lat="44.0351348" lon="11.8544395"><ele>495.0</ele><time>2026-05-03T09:07:28.583Z</time></trkpt><trkpt lat="44.0350478" lon="11.8545154"><ele>495.0</ele><time>2026-05-03T09:07:30.595Z</time></trkpt><trkpt lat="44.0349487" lon="11.8545911"><ele>495.0</ele><time>2026-05-03T09:07:32.588Z</time></trkpt><trkpt lat="44.0348966" lon="11.8547167"><ele>495.0</ele><time>2026-05-03T09:07:34.581Z</time></trkpt><trkpt lat="44.0348719" lon="11.8548327"><ele>495.0</ele><time>2026-05-03T09:07:36.588Z</time></trkpt><trkpt lat="44.0348658" lon="11.8549467"><ele>495.1666666666667</ele><time>2026-05-03T09:07:39.588Z</time></trkpt><trkpt lat="44.0348453" lon="11.8550316"><ele>495.33333333333337</ele><time>2026-05-03T09:07:42.597Z</time></trkpt><trkpt lat="44.034791" lon="11.8551154"><ele>495.5</ele><time>2026-05-03T09:07:45.593Z</time></trkpt><trkpt lat="44.0347483" lon="11.8552016"><ele>495.6666666666667</ele><time>2026-05-03T09:07:48.592Z</time></trkpt><trkpt lat="44.034704" lon="11.8552757"><ele>495.83333333333337</ele><time>2026-05-03T09:07:51.592Z</time></trkpt><trkpt lat="44.0346737" lon="11.8553805"><ele>496.0</ele><time>2026-05-03T09:07:55.589Z</time></trkpt><trkpt lat="44.0346603" lon="11.8555003"><ele>496.00000000000006</ele><time>2026-05-03T09:07:58.598Z</time></trkpt><trkpt lat="44.0346622" lon="11.8556094"><ele>496.0</ele><time>2026-05-03T09:08:00.594Z</time></trkpt><trkpt lat="44.0346928" lon="11.8557124"><ele>496.0</ele><time>2026-05-03T09:08:02.601Z</time></trkpt><trkpt lat="44.0347422" lon="11.8558019"><ele>496.0</ele><time>2026-05-03T09:08:04.594Z</time></trkpt><trkpt lat="44.0347963" lon="11.855883"><ele>496.00000000000006</ele><time>2026-05-03T09:08:06.588Z</time></trkpt><trkpt lat="44.034859" lon="11.8559646"><ele>496.0</ele><time>2026-05-03T09:08:09.597Z</time></trkpt><trkpt lat="44.034913" lon="11.8560338"><ele>498.5714285714286</ele><time>2026-05-03T09:08:12.595Z</time></trkpt><trkpt lat="44.0349695" lon="11.8561184"><ele>501.1428571428572</ele><time>2026-05-03T09:08:15.59Z</time></trkpt><trkpt lat="44.0350403" lon="11.8561841"><ele>503.7142857142857</ele><time>2026-05-03T09:08:19.598Z</time></trkpt><trkpt lat="44.0350541" lon="11.8562823"><ele>506.28571428571433</ele><time>2026-05-03T09:08:23.581Z</time></trkpt><trkpt lat="44.0350314" lon="11.8563692"><ele>508.8571428571429</ele><time>2026-05-03T09:08:27.586Z</time></trkpt><trkpt lat="44.0349932" lon="11.8564559"><ele>511.42857142857144</ele><time>2026-05-03T09:08:31.596Z</time></trkpt><trkpt lat="44.0349743" lon="11.8565439"><ele>514.0</ele><time>2026-05-03T09:08:34.595Z</time></trkpt><trkpt lat="44.0349216" lon="11.8566134"><ele>514.0</ele><time>2026-05-03T09:08:37.583Z</time></trkpt><trkpt lat="44.0348771" lon="11.856687"><ele>514.0</ele><time>2026-05-03T09:08:40.587Z</time></trkpt><trkpt lat="44.0348311" lon="11.8567527"><ele>514.0</ele><time>2026-05-03T09:08:43.586Z</time></trkpt><trkpt lat="44.034769" lon="11.8568111"><ele>514.0</ele><time>2026-05-03T09:08:46.591Z</time></trkpt><trkpt lat="44.0346995" lon="11.8568716"><ele>514.0</ele><time>2026-05-03T09:08:49.591Z</time></trkpt><trkpt lat="44.0346402" lon="11.8569022"><ele>514.0</ele><time>2026-05-03T09:08:52.594Z</time></trkpt><trkpt lat="44.0345698" lon="11.8569152"><ele>514.0</ele><time>2026-05-03T09:08:56.592Z</time></trkpt><trkpt lat="44.0344888" lon="11.8568702"><ele>513.1666666666667</ele><time>2026-05-03T09:08:59.601Z</time></trkpt><trkpt lat="44.0344304" lon="11.8568372"><ele>512.3333333333334</ele><time>2026-05-03T09:09:01.598Z</time></trkpt><trkpt lat="44.0343638" lon="11.8568594"><ele>511.5</ele><time>2026-05-03T09:09:04.605Z</time></trkpt><trkpt lat="44.0343714" lon="11.8569795"><ele>510.66666666666663</ele><time>2026-05-03T09:09:08.597Z</time></trkpt><trkpt lat="44.0344135" lon="11.8570915"><ele>509.8333333333333</ele><time>2026-05-03T09:09:10.592Z</time></trkpt><trkpt lat="44.0344618" lon="11.8572279"><ele>509.0</ele><time>2026-05-03T09:09:12.59Z</time></trkpt><trkpt lat="44.03446" lon="11.8573904"><ele>508.99999999999994</ele><time>2026-05-03T09:09:14.591Z</time></trkpt><trkpt lat="44.0344457" lon="11.8574761"><ele>509.0</ele><time>2026-05-03T09:09:15.593Z</time></trkpt><trkpt lat="44.0344258" lon="11.8575739"><ele>509.0</ele><time>2026-05-03T09:09:16.589Z</time></trkpt><trkpt lat="44.0344007" lon="11.8576739"><ele>509.0</ele><time>2026-05-03T09:09:17.591Z</time></trkpt><trkpt lat="44.034376" lon="11.8577678"><ele>508.99999999999994</ele><time>2026-05-03T09:09:18.588Z</time></trkpt><trkpt lat="44.0343536" lon="11.857862"><ele>509.0</ele><time>2026-05-03T09:09:19.59Z</time></trkpt><trkpt lat="44.0343477" lon="11.8580312"><ele>507.16666666666663</ele><time>2026-05-03T09:09:21.588Z</time></trkpt><trkpt lat="44.0344172" lon="11.8581088"><ele>505.3333333333333</ele><time>2026-05-03T09:09:23.59Z</time></trkpt><trkpt lat="44.0344934" lon="11.8581482"><ele>503.5</ele><time>2026-05-03T09:09:25.603Z</time></trkpt><trkpt lat="44.0345886" lon="11.8581664"><ele>501.66666666666663</ele><time>2026-05-03T09:09:28.59Z</time></trkpt><trkpt lat="44.0346625" lon="11.8581805"><ele>499.8333333333333</ele><time>2026-05-03T09:09:30.595Z</time></trkpt><trkpt lat="44.0347504" lon="11.8582205"><ele>498.0</ele><time>2026-05-03T09:09:33.596Z</time></trkpt><trkpt lat="44.0348021" lon="11.8582802"><ele>498.0</ele><time>2026-05-03T09:09:35.604Z</time></trkpt><trkpt lat="44.0348477" lon="11.8583512"><ele>497.99999999999994</ele><time>2026-05-03T09:09:37.602Z</time></trkpt><trkpt lat="44.0348824" lon="11.8584291"><ele>498.0</ele><time>2026-05-03T09:09:39.599Z</time></trkpt><trkpt lat="44.0349033" lon="11.858515"><ele>498.0</ele><time>2026-05-03T09:09:41.602Z</time></trkpt><trkpt lat="44.0349138" lon="11.8586077"><ele>497.99999999999994</ele><time>2026-05-03T09:09:43.586Z</time></trkpt><trkpt lat="44.0349259" lon="11.8587154"><ele>498.0</ele><time>2026-05-03T09:09:45.591Z</time></trkpt><trkpt lat="44.0349013" lon="11.8588545"><ele>498.0</ele><time>2026-05-03T09:09:47.58Z</time></trkpt><trkpt lat="44.0348835" lon="11.8590062"><ele>496.79999999999995</ele><time>2026-05-03T09:09:49.579Z</time></trkpt><trkpt lat="44.0348604" lon="11.8591505"><ele>495.59999999999997</ele><time>2026-05-03T09:09:51.578Z</time></trkpt><trkpt lat="44.0347905" lon="11.8592875"><ele>494.40000000000003</ele><time>2026-05-03T09:09:53.584Z</time></trkpt><trkpt lat="44.0347341" lon="11.8594134"><ele>493.20000000000005</ele><time>2026-05-03T09:09:55.57Z</time></trkpt><trkpt lat="44.0346788" lon="11.8595339"><ele>492.0</ele><time>2026-05-03T09:09:57.578Z</time></trkpt><trkpt lat="44.0346274" lon="11.859653"><ele>494.1666666666667</ele><time>2026-05-03T09:09:59.586Z</time></trkpt><trkpt lat="44.0345835" lon="11.859766"><ele>496.33333333333337</ele><time>2026-05-03T09:10:01.599Z</time></trkpt><trkpt lat="44.0345335" lon="11.8598759"><ele>498.5</ele><time>2026-05-03T09:10:03.604Z</time></trkpt><trkpt lat="44.0345026" lon="11.8599755"><ele>500.6666666666667</ele><time>2026-05-03T09:10:05.604Z</time></trkpt><trkpt lat="44.0345021" lon="11.8600632"><ele>502.83333333333337</ele><time>2026-05-03T09:10:07.604Z</time></trkpt><trkpt lat="44.0345776" lon="11.860056"><ele>505.0</ele><time>2026-05-03T09:10:11.594Z</time></trkpt><trkpt lat="44.0346617" lon="11.8600446"><ele>505.0</ele><time>2026-05-03T09:10:14.596Z</time></trkpt><trkpt lat="44.034732" lon="11.8600317"><ele>504.99999999999994</ele><time>2026-05-03T09:10:17.622Z</time></trkpt><trkpt lat="44.0348117" lon="11.860032"><ele>505.0</ele><time>2026-05-03T09:10:22.605Z</time></trkpt><trkpt lat="44.0348838" lon="11.8600173"><ele>505.0</ele><time>2026-05-03T09:10:27.604Z</time></trkpt><trkpt lat="44.0349505" lon="11.8599893"><ele>504.99999999999994</ele><time>2026-05-03T09:10:33.598Z</time></trkpt><trkpt lat="44.0350043" lon="11.8599135"><ele>505.0</ele><time>2026-05-03T09:10:39.594Z</time></trkpt><trkpt lat="44.035078" lon="11.8599196"><ele>505.0</ele><time>2026-05-03T09:10:46.6Z</time></trkpt><trkpt lat="44.0351413" lon="11.8599216"><ele>507.71428571428567</ele><time>2026-05-03T09:10:54.593Z</time></trkpt><trkpt lat="44.0352061" lon="11.8599021"><ele>510.4285714285714</ele><time>2026-05-03T09:11:00.6Z</time></trkpt><trkpt lat="44.0352696" lon="11.8598844"><ele>513.1428571428571</ele><time>2026-05-03T09:11:06.588Z</time></trkpt><trkpt lat="44.0353452" lon="11.859875"><ele>515.8571428571429</ele><time>2026-05-03T09:11:12.602Z</time></trkpt><trkpt lat="44.0354214" lon="11.8598729"><ele>518.5714285714287</ele><time>2026-05-03T09:11:18.602Z</time></trkpt><trkpt lat="44.0354895" lon="11.8598826"><ele>521.2857142857143</ele><time>2026-05-03T09:11:25.605Z</time></trkpt><trkpt lat="44.0355646" lon="11.8598488"><ele>524.0</ele><time>2026-05-03T09:12:20.61Z</time></trkpt><trkpt lat="44.0356339" lon="11.8598447"><ele>524.0</ele><time>2026-05-03T09:12:23.6Z</time></trkpt><trkpt lat="44.0357111" lon="11.8598507"><ele>524.0</ele><time>2026-05-03T09:12:26.599Z</time></trkpt><trkpt lat="44.0357838" lon="11.8598715"><ele>524.0</ele><time>2026-05-03T09:12:30.6Z</time></trkpt><trkpt lat="44.0358617" lon="11.8598832"><ele>524.0</ele><time>2026-05-03T09:12:34.602Z</time></trkpt><trkpt lat="44.0359254" lon="11.8598861"><ele>524.0</ele><time>2026-05-03T09:12:38.593Z</time></trkpt><trkpt lat="44.0359925" lon="11.8599442"><ele>524.0</ele><time>2026-05-03T09:12:42.596Z</time></trkpt><trkpt lat="44.0360539" lon="11.8600168"><ele>525.5714285714286</ele><time>2026-05-03T09:12:46.594Z</time></trkpt><trkpt lat="44.0361255" lon="11.860064"><ele>527.1428571428572</ele><time>2026-05-03T09:12:50.605Z</time></trkpt><trkpt lat="44.0361807" lon="11.8601193"><ele>528.7142857142858</ele><time>2026-05-03T09:12:53.598Z</time></trkpt><trkpt lat="44.0362263" lon="11.8602066"><ele>530.2857142857143</ele><time>2026-05-03T09:12:57.599Z</time></trkpt><trkpt lat="44.0362527" lon="11.8602877"><ele>531.8571428571429</ele><time>2026-05-03T09:13:00.601Z</time></trkpt><trkpt lat="44.0362849" lon="11.8603796"><ele>533.4285714285714</ele><time>2026-05-03T09:13:04.592Z</time></trkpt><trkpt lat="44.0362765" lon="11.8604699"><ele>535.0</ele><time>2026-05-03T09:13:07.598Z</time></trkpt><trkpt lat="44.0362454" lon="11.8605495"><ele>535.0</ele><time>2026-05-03T09:13:10.597Z</time></trkpt><trkpt lat="44.0362255" lon="11.8606437"><ele>535.0</ele><time>2026-05-03T09:13:13.604Z</time></trkpt><trkpt lat="44.0362008" lon="11.8607263"><ele>535.0</ele><time>2026-05-03T09:13:16.6Z</time></trkpt><trkpt lat="44.0361844" lon="11.8608297"><ele>535.0</ele><time>2026-05-03T09:13:20.602Z</time></trkpt><trkpt lat="44.0362378" lon="11.8609186"><ele>535.0</ele><time>2026-05-03T09:13:24.6Z</time></trkpt><trkpt lat="44.0362776" lon="11.8609876"><ele>535.0</ele><time>2026-05-03T09:13:27.602Z</time></trkpt><trkpt lat="44.0363386" lon="11.8610443"><ele>535.0</ele><time>2026-05-03T09:13:32.6Z</time></trkpt><trkpt lat="44.0363989" lon="11.861091"><ele>533.5714285714286</ele><time>2026-05-03T09:13:36.597Z</time></trkpt><trkpt lat="44.0364539" lon="11.8611744"><ele>532.1428571428571</ele><time>2026-05-03T09:13:40.596Z</time></trkpt><trkpt lat="44.0364878" lon="11.8612608"><ele>530.7142857142858</ele><time>2026-05-03T09:13:44.597Z</time></trkpt><trkpt lat="44.0364684" lon="11.8613593"><ele>529.2857142857142</ele><time>2026-05-03T09:13:48.596Z</time></trkpt><trkpt lat="44.0364791" lon="11.8614526"><ele>527.8571428571429</ele><time>2026-05-03T09:13:54.596Z</time></trkpt><trkpt lat="44.0365156" lon="11.8615358"><ele>526.4285714285714</ele><time>2026-05-03T09:13:57.605Z</time></trkpt><trkpt lat="44.0365684" lon="11.8616027"><ele>525.0</ele><time>2026-05-03T09:14:00.593Z</time></trkpt><trkpt lat="44.0366229" lon="11.8616675"><ele>528.1428571428571</ele><time>2026-05-03T09:14:03.588Z</time></trkpt><trkpt lat="44.0366811" lon="11.8617429"><ele>531.2857142857142</ele><time>2026-05-03T09:14:06.589Z</time></trkpt><trkpt lat="44.0367123" lon="11.8618207"><ele>534.4285714285714</ele><time>2026-05-03T09:14:09.599Z</time></trkpt><trkpt lat="44.0367403" lon="11.8619014"><ele>537.5714285714286</ele><time>2026-05-03T09:14:12.598Z</time></trkpt><trkpt lat="44.0367486" lon="11.8620149"><ele>540.7142857142857</ele><time>2026-05-03T09:14:15.6Z</time></trkpt><trkpt lat="44.0367636" lon="11.8621031"><ele>543.8571428571429</ele><time>2026-05-03T09:14:17.605Z</time></trkpt><trkpt lat="44.0367912" lon="11.8621905"><ele>547.0</ele><time>2026-05-03T09:14:19.6Z</time></trkpt><trkpt lat="44.0368301" lon="11.86227"><ele>547.0</ele><time>2026-05-03T09:14:21.598Z</time></trkpt><trkpt lat="44.036875" lon="11.8623358"><ele>547.0</ele><time>2026-05-03T09:14:23.599Z</time></trkpt><trkpt lat="44.0369234" lon="11.8624065"><ele>547.0</ele><time>2026-05-03T09:14:25.591Z</time></trkpt><trkpt lat="44.0369667" lon="11.8624857"><ele>547.0</ele><time>2026-05-03T09:14:27.594Z</time></trkpt><trkpt lat="44.0370002" lon="11.8626033"><ele>547.0</ele><time>2026-05-03T09:14:29.601Z</time></trkpt><trkpt lat="44.0370321" lon="11.862731"><ele>547.0</ele><time>2026-05-03T09:14:31.597Z</time></trkpt><trkpt lat="44.0370416" lon="11.8628587"><ele>546.5</ele><time>2026-05-03T09:14:33.593Z</time></trkpt><trkpt lat="44.0370145" lon="11.8629956"><ele>546.0</ele><time>2026-05-03T09:14:35.595Z</time></trkpt><trkpt lat="44.0369756" lon="11.8631333"><ele>545.5</ele><time>2026-05-03T09:14:37.593Z</time></trkpt><trkpt lat="44.0369343" lon="11.8632798"><ele>545.0</ele><time>2026-05-03T09:14:39.592Z</time></trkpt><trkpt lat="44.03689" lon="11.8634496"><ele>545.0</ele><time>2026-05-03T09:14:41.586Z</time></trkpt><trkpt lat="44.0368676" lon="11.8635377"><ele>545.0</ele><time>2026-05-03T09:14:42.584Z</time></trkpt><trkpt lat="44.0368383" lon="11.8636254"><ele>545.0</ele><time>2026-05-03T09:14:43.604Z</time></trkpt><trkpt lat="44.0368048" lon="11.8637098"><ele>545.0</ele><time>2026-05-03T09:14:44.601Z</time></trkpt><trkpt lat="44.0367685" lon="11.8638033"><ele>545.0</ele><time>2026-05-03T09:14:45.593Z</time></trkpt><trkpt lat="44.0367284" lon="11.8638928"><ele>545.0</ele><time>2026-05-03T09:14:46.59Z</time></trkpt><trkpt lat="44.0366953" lon="11.8639822"><ele>545.0</ele><time>2026-05-03T09:14:47.59Z</time></trkpt><trkpt lat="44.0366565" lon="11.8640609"><ele>545.8333333333333</ele><time>2026-05-03T09:14:48.592Z</time></trkpt><trkpt lat="44.0366157" lon="11.8641443"><ele>546.6666666666666</ele><time>2026-05-03T09:14:49.584Z</time></trkpt><trkpt lat="44.0365726" lon="11.8642181"><ele>547.5</ele><time>2026-05-03T09:14:50.583Z</time></trkpt><trkpt lat="44.0364899" lon="11.8643502"><ele>548.3333333333334</ele><time>2026-05-03T09:14:52.592Z</time></trkpt><trkpt lat="44.0364482" lon="11.8644189"><ele>549.1666666666667</ele><time>2026-05-03T09:14:53.589Z</time></trkpt><trkpt lat="44.0364041" lon="11.8644899"><ele>550.0</ele><time>2026-05-03T09:14:54.585Z</time></trkpt><trkpt lat="44.0363608" lon="11.8645617"><ele>550.0</ele><time>2026-05-03T09:14:55.588Z</time></trkpt><trkpt lat="44.0363125" lon="11.8646231"><ele>550.0</ele><time>2026-05-03T09:14:56.587Z</time></trkpt><trkpt lat="44.03625" lon="11.8647425"><ele>550.0</ele><time>2026-05-03T09:14:58.592Z</time></trkpt><trkpt lat="44.0361838" lon="11.8648436"><ele>550.0</ele><time>2026-05-03T09:15:00.579Z</time></trkpt><trkpt lat="44.0360997" lon="11.8648941"><ele>550.0</ele><time>2026-05-03T09:15:02.575Z</time></trkpt><trkpt lat="44.0360025" lon="11.8649044"><ele>550.0</ele><time>2026-05-03T09:15:04.571Z</time></trkpt><trkpt lat="44.0359001" lon="11.8648825"><ele>550.0</ele><time>2026-05-03T09:15:06.58Z</time></trkpt><trkpt lat="44.0357888" lon="11.8648746"><ele>550.0</ele><time>2026-05-03T09:15:08.577Z</time></trkpt><trkpt lat="44.0356795" lon="11.864949"><ele>550.0</ele><time>2026-05-03T09:15:10.577Z</time></trkpt><trkpt lat="44.0356293" lon="11.8650147"><ele>550.0</ele><time>2026-05-03T09:15:11.58Z</time></trkpt><trkpt lat="44.0355711" lon="11.8650942"><ele>549.1666666666667</ele><time>2026-05-03T09:15:12.581Z</time></trkpt><trkpt lat="44.0355083" lon="11.8651963"><ele>548.3333333333334</ele><time>2026-05-03T09:15:13.578Z</time></trkpt><trkpt lat="44.0354525" lon="11.8653034"><ele>547.5</ele><time>2026-05-03T09:15:14.579Z</time></trkpt><trkpt lat="44.0353867" lon="11.8653822"><ele>546.6666666666666</ele><time>2026-05-03T09:15:15.581Z</time></trkpt><trkpt lat="44.0353109" lon="11.8654421"><ele>545.8333333333333</ele><time>2026-05-03T09:15:16.58Z</time></trkpt><trkpt lat="44.0352403" lon="11.8654964"><ele>545.0</ele><time>2026-05-03T09:15:17.579Z</time></trkpt><trkpt lat="44.0351691" lon="11.8655478"><ele>545.0</ele><time>2026-05-03T09:15:18.58Z</time></trkpt><trkpt lat="44.0350965" lon="11.865594"><ele>545.0</ele><time>2026-05-03T09:15:19.577Z</time></trkpt><trkpt lat="44.0350216" lon="11.8656175"><ele>545.0</ele><time>2026-05-03T09:15:20.58Z</time></trkpt><trkpt lat="44.0349592" lon="11.8656317"><ele>545.0</ele><time>2026-05-03T09:15:21.577Z</time></trkpt><trkpt lat="44.0348878" lon="11.8656659"><ele>545.0</ele><time>2026-05-03T09:15:23.583Z</time></trkpt><trkpt lat="44.0349111" lon="11.8657552"><ele>545.0</ele><time>2026-05-03T09:16:07.574Z</time></trkpt><trkpt lat="44.034888" lon="11.8659216"><ele>550.1666666666666</ele><time>2026-05-03T09:16:09.579Z</time></trkpt><trkpt lat="44.0348881" lon="11.866029"><ele>555.3333333333333</ele><time>2026-05-03T09:16:10.574Z</time></trkpt><trkpt lat="44.0348654" lon="11.8661154"><ele>560.5</ele><time>2026-05-03T09:16:11.571Z</time></trkpt><trkpt lat="44.0348285" lon="11.8661918"><ele>565.6666666666666</ele><time>2026-05-03T09:16:12.573Z</time></trkpt><trkpt lat="44.034786" lon="11.866271"><ele>570.8333333333334</ele><time>2026-05-03T09:16:13.567Z</time></trkpt><trkpt lat="44.0347291" lon="11.8664028"><ele>576.0</ele><time>2026-05-03T09:16:15.561Z</time></trkpt><trkpt lat="44.0347033" lon="11.8665376"><ele>576.0</ele><time>2026-05-03T09:16:17.573Z</time></trkpt><trkpt lat="44.0347232" lon="11.8666797"><ele>576.0</ele><time>2026-05-03T09:16:19.569Z</time></trkpt><trkpt lat="44.0347473" lon="11.8668307"><ele>576.0</ele><time>2026-05-03T09:16:21.569Z</time></trkpt><trkpt lat="44.0347713" lon="11.8669685"><ele>576.0</ele><time>2026-05-03T09:16:23.57Z</time></trkpt><trkpt lat="44.0348164" lon="11.8671119"><ele>576.0</ele><time>2026-05-03T09:16:25.568Z</time></trkpt><trkpt lat="44.0348719" lon="11.8672493"><ele>574.5</ele><time>2026-05-03T09:16:27.568Z</time></trkpt><trkpt lat="44.0349306" lon="11.8673615"><ele>573.0</ele><time>2026-05-03T09:16:29.572Z</time></trkpt><trkpt lat="44.0349703" lon="11.8674489"><ele>571.5</ele><time>2026-05-03T09:16:31.574Z</time></trkpt><trkpt lat="44.034981" lon="11.8675531"><ele>570.0</ele><time>2026-05-03T09:16:34.572Z</time></trkpt><trkpt lat="44.0350265" lon="11.8676575"><ele>568.5</ele><time>2026-05-03T09:16:38.575Z</time></trkpt><trkpt lat="44.03506" lon="11.8677614"><ele>567.0</ele><time>2026-05-03T09:16:41.576Z</time></trkpt><trkpt lat="44.0350963" lon="11.8678487"><ele>567.0</ele><time>2026-05-03T09:16:45.576Z</time></trkpt><trkpt lat="44.0351276" lon="11.8679265"><ele>567.0</ele><time>2026-05-03T09:16:49.58Z</time></trkpt><trkpt lat="44.0351486" lon="11.8680237"><ele>567.0</ele><time>2026-05-03T09:16:56.577Z</time></trkpt><trkpt lat="44.0351427" lon="11.8681146"><ele>567.0</ele><time>2026-05-03T09:17:01.573Z</time></trkpt><trkpt lat="44.0351208" lon="11.8682118"><ele>567.0</ele><time>2026-05-03T09:17:07.573Z</time></trkpt><trkpt lat="44.0351231" lon="11.8683081"><ele>567.0</ele><time>2026-05-03T09:17:13.576Z</time></trkpt><trkpt lat="44.0351309" lon="11.8683965"><ele>567.0</ele><time>2026-05-03T09:17:18.58Z</time></trkpt><trkpt lat="44.035129" lon="11.8685047"><ele>567.3333333333334</ele><time>2026-05-03T09:17:22.583Z</time></trkpt><trkpt lat="44.0351029" lon="11.8686058"><ele>567.6666666666666</ele><time>2026-05-03T09:17:26.582Z</time></trkpt><trkpt lat="44.0350626" lon="11.8686754"><ele>568.0</ele><time>2026-05-03T09:17:29.577Z</time></trkpt><trkpt lat="44.0350541" lon="11.8687781"><ele>568.3333333333333</ele><time>2026-05-03T09:17:32.584Z</time></trkpt><trkpt lat="44.0350457" lon="11.8688862"><ele>568.6666666666666</ele><time>2026-05-03T09:17:35.583Z</time></trkpt><trkpt lat="44.0350677" lon="11.8690135"><ele>569.0</ele><time>2026-05-03T09:17:38.582Z</time></trkpt><trkpt lat="44.0350922" lon="11.869126"><ele>568.6666666666666</ele><time>2026-05-03T09:17:40.585Z</time></trkpt><trkpt lat="44.0351124" lon="11.8692785"><ele>568.3333333333333</ele><time>2026-05-03T09:17:42.582Z</time></trkpt><trkpt lat="44.0351497" lon="11.8694144"><ele>568.0</ele><time>2026-05-03T09:17:44.582Z</time></trkpt><trkpt lat="44.0351946" lon="11.8694972"><ele>567.6666666666666</ele><time>2026-05-03T09:17:46.581Z</time></trkpt><trkpt lat="44.0352316" lon="11.8695953"><ele>567.3333333333334</ele><time>2026-05-03T09:17:50.585Z</time></trkpt><trkpt lat="44.0352659" lon="11.8696733"><ele>567.0</ele><time>2026-05-03T09:17:53.583Z</time></trkpt><trkpt lat="44.035307" lon="11.8697694"><ele>567.0</ele><time>2026-05-03T09:17:56.583Z</time></trkpt><trkpt lat="44.035363" lon="11.8698571"><ele>567.0</ele><time>2026-05-03T09:17:59.588Z</time></trkpt><trkpt lat="44.0354276" lon="11.8699198"><ele>567.0</ele><time>2026-05-03T09:18:02.581Z</time></trkpt><trkpt lat="44.0354975" lon="11.8699635"><ele>567.0</ele><time>2026-05-03T09:18:05.586Z</time></trkpt><trkpt lat="44.0355916" lon="11.8699911"><ele>567.0</ele><time>2026-05-03T09:18:09.584Z</time></trkpt><trkpt lat="44.0356575" lon="11.870018"><ele>567.0</ele><time>2026-05-03T09:18:12.587Z</time></trkpt><trkpt lat="44.0356994" lon="11.8700964"><ele>566.6666666666666</ele><time>2026-05-03T09:18:16.59Z</time></trkpt><trkpt lat="44.0357391" lon="11.8701996"><ele>566.3333333333334</ele><time>2026-05-03T09:18:20.589Z</time></trkpt><trkpt lat="44.0357199" lon="11.8703073"><ele>566.0</ele><time>2026-05-03T09:18:24.589Z</time></trkpt><trkpt lat="44.0356843" lon="11.8703987"><ele>565.6666666666667</ele><time>2026-05-03T09:18:28.577Z</time></trkpt><trkpt lat="44.0356691" lon="11.8704908"><ele>565.3333333333334</ele><time>2026-05-03T09:18:33.589Z</time></trkpt><trkpt lat="44.0356571" lon="11.8706019"><ele>565.0</ele><time>2026-05-03T09:18:37.584Z</time></trkpt><trkpt lat="44.0356301" lon="11.8707021"><ele>564.9999999999999</ele><time>2026-05-03T09:18:42.587Z</time></trkpt><trkpt lat="44.0356175" lon="11.870804"><ele>565.0</ele><time>2026-05-03T09:18:46.575Z</time></trkpt><trkpt lat="44.0356209" lon="11.8708942"><ele>565.0</ele><time>2026-05-03T09:18:50.582Z</time></trkpt><trkpt lat="44.0356595" lon="11.870981"><ele>565.0</ele><time>2026-05-03T09:18:54.59Z</time></trkpt><trkpt lat="44.0356748" lon="11.8710696"><ele>565.0</ele><time>2026-05-03T09:19:25.599Z</time></trkpt><trkpt lat="44.0357146" lon="11.8711654"><ele>564.9999999999999</ele><time>2026-05-03T09:19:30.587Z</time></trkpt><trkpt lat="44.0357589" lon="11.8712277"><ele>565.0</ele><time>2026-05-03T09:19:33.589Z</time></trkpt><trkpt lat="44.0358137" lon="11.8713112"><ele>568.8571428571428</ele><time>2026-05-03T09:20:03.578Z</time></trkpt><trkpt lat="44.0358599" lon="11.8713775"><ele>572.7142857142857</ele><time>2026-05-03T09:20:07.578Z</time></trkpt><trkpt lat="44.0359134" lon="11.871443"><ele>576.5714285714286</ele><time>2026-05-03T09:20:11.589Z</time></trkpt><trkpt lat="44.0359788" lon="11.8715023"><ele>580.4285714285713</ele><time>2026-05-03T09:20:16.59Z</time></trkpt><trkpt lat="44.0360404" lon="11.8715685"><ele>584.2857142857142</ele><time>2026-05-03T09:20:21.589Z</time></trkpt><trkpt lat="44.0361061" lon="11.8716266"><ele>588.1428571428571</ele><time>2026-05-03T09:20:26.589Z</time></trkpt><trkpt lat="44.0361641" lon="11.8716701"><ele>592.0</ele><time>2026-05-03T09:20:31.583Z</time></trkpt><trkpt lat="44.0362277" lon="11.8717013"><ele>592.0</ele><time>2026-05-03T09:20:36.583Z</time></trkpt><trkpt lat="44.0362853" lon="11.8717479"><ele>592.0</ele><time>2026-05-03T09:20:51.587Z</time></trkpt><trkpt lat="44.0363405" lon="11.8717947"><ele>592.0</ele><time>2026-05-03T09:20:54.587Z</time></trkpt><trkpt lat="44.0364207" lon="11.8718292"><ele>592.0</ele><time>2026-05-03T09:20:58.585Z</time></trkpt><trkpt lat="44.0364966" lon="11.8718653"><ele>592.0</ele><time>2026-05-03T09:21:01.581Z</time></trkpt><trkpt lat="44.0365617" lon="11.8719012"><ele>592.0</ele><time>2026-05-03T09:21:04.583Z</time></trkpt><trkpt lat="44.0366293" lon="11.8719322"><ele>592.0</ele><time>2026-05-03T09:21:07.584Z</time></trkpt><trkpt lat="44.0366937" lon="11.8719631"><ele>594.8571428571429</ele><time>2026-05-03T09:21:10.584Z</time></trkpt><trkpt lat="44.0367629" lon="11.8720223"><ele>597.7142857142857</ele><time>2026-05-03T09:21:14.586Z</time></trkpt><trkpt lat="44.0368198" lon="11.8720876"><ele>600.5714285714286</ele><time>2026-05-03T09:21:17.586Z</time></trkpt><trkpt lat="44.0368723" lon="11.8721594"><ele>603.4285714285714</ele><time>2026-05-03T09:21:21.591Z</time></trkpt><trkpt lat="44.0369112" lon="11.8722442"><ele>606.2857142857143</ele><time>2026-05-03T09:21:25.59Z</time></trkpt><trkpt lat="44.0369614" lon="11.8723064"><ele>609.1428571428571</ele><time>2026-05-03T09:21:30.588Z</time></trkpt><trkpt lat="44.0370031" lon="11.8723837"><ele>612.0</ele><time>2026-05-03T09:21:34.587Z</time></trkpt><trkpt lat="44.0370326" lon="11.8724616"><ele>612.0</ele><time>2026-05-03T09:21:38.593Z</time></trkpt><trkpt lat="44.0370735" lon="11.8725285"><ele>612.0</ele><time>2026-05-03T09:21:42.586Z</time></trkpt><trkpt lat="44.0371289" lon="11.8726151"><ele>612.0</ele><time>2026-05-03T09:21:47.589Z</time></trkpt><trkpt lat="44.037164" lon="11.8726917"><ele>612.0</ele><time>2026-05-03T09:21:51.586Z</time></trkpt><trkpt lat="44.0372035" lon="11.8727663"><ele>612.0</ele><time>2026-05-03T09:21:55.583Z</time></trkpt><trkpt lat="44.0372443" lon="11.8728526"><ele>612.0</ele><time>2026-05-03T09:22:01.589Z</time></trkpt><trkpt lat="44.0372874" lon="11.8729213"><ele>612.0</ele><time>2026-05-03T09:22:05.59Z</time></trkpt><trkpt lat="44.0373408" lon="11.8730065"><ele>612.6</ele><time>2026-05-03T09:22:09.586Z</time></trkpt><trkpt lat="44.037398" lon="11.8730808"><ele>613.2</ele><time>2026-05-03T09:22:12.586Z</time></trkpt><trkpt lat="44.0374731" lon="11.8731711"><ele>613.8</ele><time>2026-05-03T09:22:15.583Z</time></trkpt><trkpt lat="44.0375296" lon="11.8732725"><ele>614.4</ele><time>2026-05-03T09:22:17.588Z</time></trkpt><trkpt lat="44.0376095" lon="11.8733659"><ele>615.0</ele><time>2026-05-03T09:22:19.588Z</time></trkpt><trkpt lat="44.0376856" lon="11.8734707"><ele>615.6666666666666</ele><time>2026-05-03T09:22:21.582Z</time></trkpt><trkpt lat="44.0377652" lon="11.8735264"><ele>616.3333333333334</ele><time>2026-05-03T09:22:24.581Z</time></trkpt><trkpt lat="44.0378323" lon="11.8735684"><ele>617.0</ele><time>2026-05-03T09:22:29.584Z</time></trkpt><trkpt lat="44.037899" lon="11.8736248"><ele>617.6666666666667</ele><time>2026-05-03T09:22:32.579Z</time></trkpt><trkpt lat="44.0379616" lon="11.87369"><ele>618.3333333333334</ele><time>2026-05-03T09:22:34.582Z</time></trkpt><trkpt lat="44.0380119" lon="11.8738001"><ele>619.0</ele><time>2026-05-03T09:22:36.578Z</time></trkpt><trkpt lat="44.0380491" lon="11.8738714"><ele>619.0</ele><time>2026-05-03T09:22:37.585Z</time></trkpt><trkpt lat="44.0380916" lon="11.8739402"><ele>619.0</ele><time>2026-05-03T09:22:38.57Z</time></trkpt><trkpt lat="44.0381445" lon="11.8740894"><ele>619.0</ele><time>2026-05-03T09:22:40.574Z</time></trkpt><trkpt lat="44.0381728" lon="11.8741714"><ele>619.0</ele><time>2026-05-03T09:22:41.573Z</time></trkpt><trkpt lat="44.0382181" lon="11.8743334"><ele>619.0</ele><time>2026-05-03T09:22:43.57Z</time></trkpt><trkpt lat="44.0382415" lon="11.8744396"><ele>617.2</ele><time>2026-05-03T09:22:44.583Z</time></trkpt><trkpt lat="44.0382677" lon="11.8745203"><ele>615.4</ele><time>2026-05-03T09:22:45.577Z</time></trkpt><trkpt lat="44.0382888" lon="11.874657"><ele>613.6</ele><time>2026-05-03T09:22:47.574Z</time></trkpt><trkpt lat="44.0382882" lon="11.874802"><ele>611.8</ele><time>2026-05-03T09:22:49.578Z</time></trkpt><trkpt lat="44.0383073" lon="11.8749733"><ele>610.0</ele><time>2026-05-03T09:22:51.582Z</time></trkpt><trkpt lat="44.0383231" lon="11.8750591"><ele>609.2857142857143</ele><time>2026-05-03T09:22:52.584Z</time></trkpt><trkpt lat="44.038337" lon="11.8751486"><ele>608.5714285714286</ele><time>2026-05-03T09:22:53.582Z</time></trkpt><trkpt lat="44.03835" lon="11.8752364"><ele>607.8571428571429</ele><time>2026-05-03T09:22:54.581Z</time></trkpt><trkpt lat="44.038374" lon="11.8753359"><ele>607.1428571428571</ele><time>2026-05-03T09:22:55.581Z</time></trkpt><trkpt lat="44.0383997" lon="11.8754298"><ele>606.4285714285714</ele><time>2026-05-03T09:22:56.584Z</time></trkpt><trkpt lat="44.0384275" lon="11.8755176"><ele>605.7142857142857</ele><time>2026-05-03T09:22:57.578Z</time></trkpt><trkpt lat="44.0384593" lon="11.8755987"><ele>605.0</ele><time>2026-05-03T09:22:58.581Z</time></trkpt><trkpt lat="44.0385014" lon="11.8757025"><ele>605.0</ele><time>2026-05-03T09:22:59.588Z</time></trkpt><trkpt lat="44.0385522" lon="11.8758069"><ele>605.0</ele><time>2026-05-03T09:23:00.585Z</time></trkpt><trkpt lat="44.038609" lon="11.8759018"><ele>605.0</ele><time>2026-05-03T09:23:01.58Z</time></trkpt><trkpt lat="44.0386741" lon="11.8759714"><ele>605.0</ele><time>2026-05-03T09:23:02.583Z</time></trkpt><trkpt lat="44.038738" lon="11.8760374"><ele>605.0</ele><time>2026-05-03T09:23:03.583Z</time></trkpt><trkpt lat="44.0388029" lon="11.8760887"><ele>605.0</ele><time>2026-05-03T09:23:04.582Z</time></trkpt><trkpt lat="44.0388724" lon="11.8761443"><ele>604.0</ele><time>2026-05-03T09:23:05.581Z</time></trkpt><trkpt lat="44.0389463" lon="11.8761966"><ele>603.0</ele><time>2026-05-03T09:23:06.579Z</time></trkpt><trkpt lat="44.0390223" lon="11.8762329"><ele>602.0</ele><time>2026-05-03T09:23:07.583Z</time></trkpt><trkpt lat="44.0390966" lon="11.8762238"><ele>601.0</ele><time>2026-05-03T09:23:08.581Z</time></trkpt><trkpt lat="44.0391802" lon="11.876192"><ele>600.0</ele><time>2026-05-03T09:23:09.579Z</time></trkpt><trkpt lat="44.0392651" lon="11.8761823"><ele>599.0</ele><time>2026-05-03T09:23:10.584Z</time></trkpt><trkpt lat="44.0393499" lon="11.8761966"><ele>599.0</ele><time>2026-05-03T09:23:11.58Z</time></trkpt><trkpt lat="44.0394239" lon="11.8761832"><ele>599.0</ele><time>2026-05-03T09:23:12.582Z</time></trkpt><trkpt lat="44.0394865" lon="11.8761353"><ele>599.0</ele><time>2026-05-03T09:23:13.577Z</time></trkpt><trkpt lat="44.0395462" lon="11.8760709"><ele>599.0</ele><time>2026-05-03T09:23:14.58Z</time></trkpt><trkpt lat="44.0396167" lon="11.876044"><ele>599.0</ele><time>2026-05-03T09:23:15.582Z</time></trkpt><trkpt lat="44.0396874" lon="11.8760513"><ele>599.0</ele><time>2026-05-03T09:23:16.579Z</time></trkpt><trkpt lat="44.0397495" lon="11.8760703"><ele>599.0</ele><time>2026-05-03T09:23:17.585Z</time></trkpt><trkpt lat="44.0398546" lon="11.8761583"><ele>599.0</ele><time>2026-05-03T09:23:19.58Z</time></trkpt><trkpt lat="44.0399596" lon="11.8762258"><ele>599.0</ele><time>2026-05-03T09:23:21.579Z</time></trkpt><trkpt lat="44.0400641" lon="11.876303"><ele>599.0</ele><time>2026-05-03T09:23:23.579Z</time></trkpt><trkpt lat="44.040119" lon="11.8763724"><ele>599.0</ele><time>2026-05-03T09:23:24.577Z</time></trkpt><trkpt lat="44.0401749" lon="11.876456"><ele>599.0</ele><time>2026-05-03T09:23:25.573Z</time></trkpt><trkpt lat="44.0402363" lon="11.8765523"><ele>598.5</ele><time>2026-05-03T09:23:26.568Z</time></trkpt><trkpt lat="44.0402887" lon="11.8766332"><ele>598.0</ele><time>2026-05-03T09:23:27.59Z</time></trkpt><trkpt lat="44.0403445" lon="11.8767001"><ele>597.5</ele><time>2026-05-03T09:23:28.579Z</time></trkpt><trkpt lat="44.0404103" lon="11.8767707"><ele>597.0</ele><time>2026-05-03T09:23:29.58Z</time></trkpt><trkpt lat="44.0404858" lon="11.8768464"><ele>596.5</ele><time>2026-05-03T09:23:30.57Z</time></trkpt><trkpt lat="44.040553" lon="11.8768918"><ele>596.0</ele><time>2026-05-03T09:23:31.572Z</time></trkpt><trkpt lat="44.040663" lon="11.8769765"><ele>595.8</ele><time>2026-05-03T09:23:33.574Z</time></trkpt><trkpt lat="44.0407858" lon="11.8770221"><ele>595.6</ele><time>2026-05-03T09:23:35.571Z</time></trkpt><trkpt lat="44.0408489" lon="11.8770473"><ele>595.4</ele><time>2026-05-03T09:23:36.578Z</time></trkpt><trkpt lat="44.0409119" lon="11.8770817"><ele>595.2</ele><time>2026-05-03T09:23:37.576Z</time></trkpt><trkpt lat="44.0410257" lon="11.8771316"><ele>595.0</ele><time>2026-05-03T09:23:39.573Z</time></trkpt><trkpt lat="44.0410912" lon="11.8771706"><ele>592.6666666666667</ele><time>2026-05-03T09:23:40.583Z</time></trkpt><trkpt lat="44.0411451" lon="11.8772335"><ele>590.3333333333334</ele><time>2026-05-03T09:23:41.58Z</time></trkpt><trkpt lat="44.04121" lon="11.8773032"><ele>588.0</ele><time>2026-05-03T09:23:42.577Z</time></trkpt><trkpt lat="44.041275" lon="11.877372"><ele>585.6666666666666</ele><time>2026-05-03T09:23:43.579Z</time></trkpt><trkpt lat="44.0413399" lon="11.8774439"><ele>583.3333333333333</ele><time>2026-05-03T09:23:44.582Z</time></trkpt><trkpt lat="44.0413951" lon="11.8775124"><ele>581.0</ele><time>2026-05-03T09:23:45.584Z</time></trkpt><trkpt lat="44.0414466" lon="11.8775686"><ele>581.0</ele><time>2026-05-03T09:23:46.584Z</time></trkpt><trkpt lat="44.0415058" lon="11.8775999"><ele>581.0</ele><time>2026-05-03T09:23:47.589Z</time></trkpt><trkpt lat="44.0416042" lon="11.8777037"><ele>581.0</ele><time>2026-05-03T09:23:49.584Z</time></trkpt><trkpt lat="44.0416731" lon="11.8778524"><ele>581.0</ele><time>2026-05-03T09:23:51.586Z</time></trkpt><trkpt lat="44.0417045" lon="11.8779443"><ele>581.0</ele><time>2026-05-03T09:23:52.579Z</time></trkpt><trkpt lat="44.0417397" lon="11.878043"><ele>578.6666666666666</ele><time>2026-05-03T09:23:53.591Z</time></trkpt><trkpt lat="44.0417635" lon="11.8781257"><ele>576.3333333333333</ele><time>2026-05-03T09:23:54.586Z</time></trkpt><trkpt lat="44.0417869" lon="11.8782154"><ele>574.0</ele><time>2026-05-03T09:23:55.582Z</time></trkpt><trkpt lat="44.0418261" lon="11.8782992"><ele>571.6666666666666</ele><time>2026-05-03T09:23:56.582Z</time></trkpt><trkpt lat="44.0418985" lon="11.8783938"><ele>569.3333333333334</ele><time>2026-05-03T09:23:58.581Z</time></trkpt><trkpt lat="44.0419598" lon="11.8784555"><ele>567.0</ele><time>2026-05-03T09:24:00.595Z</time></trkpt><trkpt lat="44.0420242" lon="11.8785399"><ele>565.8571428571429</ele><time>2026-05-03T09:24:03.598Z</time></trkpt><trkpt lat="44.0420707" lon="11.8786189"><ele>564.7142857142858</ele><time>2026-05-03T09:24:06.593Z</time></trkpt><trkpt lat="44.0421154" lon="11.8786833"><ele>563.5714285714286</ele><time>2026-05-03T09:24:10.589Z</time></trkpt><trkpt lat="44.0421728" lon="11.8787405"><ele>562.4285714285714</ele><time>2026-05-03T09:24:15.595Z</time></trkpt><trkpt lat="44.0422374" lon="11.8787984"><ele>561.2857142857143</ele><time>2026-05-03T09:24:20.596Z</time></trkpt><trkpt lat="44.0423021" lon="11.8788573"><ele>560.1428571428571</ele><time>2026-05-03T09:24:23.583Z</time></trkpt><trkpt lat="44.0423699" lon="11.8788952"><ele>559.0</ele><time>2026-05-03T09:24:25.582Z</time></trkpt><trkpt lat="44.0424604" lon="11.8789255"><ele>561.5</ele><time>2026-05-03T09:24:27.595Z</time></trkpt><trkpt lat="44.0425712" lon="11.8789415"><ele>564.0</ele><time>2026-05-03T09:24:29.589Z</time></trkpt><trkpt lat="44.0426388" lon="11.878948"><ele>566.5</ele><time>2026-05-03T09:24:30.588Z</time></trkpt><trkpt lat="44.0427125" lon="11.8789646"><ele>569.0</ele><time>2026-05-03T09:24:31.575Z</time></trkpt><trkpt lat="44.0427853" lon="11.8789851"><ele>571.5</ele><time>2026-05-03T09:24:32.577Z</time></trkpt><trkpt lat="44.0428626" lon="11.8790012"><ele>574.0</ele><time>2026-05-03T09:24:33.58Z</time></trkpt><trkpt lat="44.0429372" lon="11.8790087"><ele>574.0</ele><time>2026-05-03T09:24:34.581Z</time></trkpt><trkpt lat="44.0430051" lon="11.8790199"><ele>574.0</ele><time>2026-05-03T09:24:35.582Z</time></trkpt><trkpt lat="44.0430706" lon="11.8790342"><ele>574.0</ele><time>2026-05-03T09:24:36.581Z</time></trkpt><trkpt lat="44.0431747" lon="11.8790711"><ele>574.0</ele><time>2026-05-03T09:24:38.583Z</time></trkpt><trkpt lat="44.0432867" lon="11.8791314"><ele>574.0</ele><time>2026-05-03T09:24:40.584Z</time></trkpt><trkpt lat="44.0433485" lon="11.8791523"><ele>574.0</ele><time>2026-05-03T09:24:41.582Z</time></trkpt><trkpt lat="44.0434151" lon="11.8791571"><ele>574.8571428571429</ele><time>2026-05-03T09:24:42.588Z</time></trkpt><trkpt lat="44.0434942" lon="11.8791432"><ele>575.7142857142858</ele><time>2026-05-03T09:24:44.578Z</time></trkpt><trkpt lat="44.0435584" lon="11.8791222"><ele>576.5714285714286</ele><time>2026-05-03T09:24:46.589Z</time></trkpt><trkpt lat="44.0436241" lon="11.8791016"><ele>577.4285714285714</ele><time>2026-05-03T09:24:49.585Z</time></trkpt><trkpt lat="44.043696" lon="11.8790535"><ele>578.2857142857143</ele><time>2026-05-03T09:24:53.589Z</time></trkpt><trkpt lat="44.0437734" lon="11.8790329"><ele>579.1428571428571</ele><time>2026-05-03T09:24:57.584Z</time></trkpt><trkpt lat="44.0438362" lon="11.8790224"><ele>580.0</ele><time>2026-05-03T09:25:00.584Z</time></trkpt><trkpt lat="44.0439195" lon="11.8790127"><ele>580.0</ele><time>2026-05-03T09:25:04.584Z</time></trkpt><trkpt lat="44.0439858" lon="11.8789786"><ele>580.0</ele><time>2026-05-03T09:25:07.584Z</time></trkpt><trkpt lat="44.0440496" lon="11.8789523"><ele>580.0</ele><time>2026-05-03T09:25:28.588Z</time></trkpt><trkpt lat="44.0441135" lon="11.8789077"><ele>580.0</ele><time>2026-05-03T09:25:33.584Z</time></trkpt><trkpt lat="44.0441717" lon="11.878869"><ele>580.0</ele><time>2026-05-03T09:25:36.587Z</time></trkpt><trkpt lat="44.0442332" lon="11.8788236"><ele>580.0</ele><time>2026-05-03T09:25:39.584Z</time></trkpt><trkpt lat="44.044297" lon="11.878803"><ele>580.0</ele><time>2026-05-03T09:25:42.585Z</time></trkpt><trkpt lat="44.0443799" lon="11.8788027"><ele>582.2857142857143</ele><time>2026-05-03T09:25:46.587Z</time></trkpt><trkpt lat="44.0444586" lon="11.878828"><ele>584.5714285714287</ele><time>2026-05-03T09:25:49.583Z</time></trkpt><trkpt lat="44.0445268" lon="11.8788488"><ele>586.8571428571429</ele><time>2026-05-03T09:25:51.588Z</time></trkpt><trkpt lat="44.0446054" lon="11.8788776"><ele>589.1428571428571</ele><time>2026-05-03T09:25:53.588Z</time></trkpt><trkpt lat="44.0446662" lon="11.8789199"><ele>591.4285714285713</ele><time>2026-05-03T09:25:55.582Z</time></trkpt><trkpt lat="44.0447202" lon="11.8789765"><ele>593.7142857142857</ele><time>2026-05-03T09:25:57.581Z</time></trkpt><trkpt lat="44.0447821" lon="11.8790208"><ele>596.0</ele><time>2026-05-03T09:25:59.587Z</time></trkpt><trkpt lat="44.0448432" lon="11.8790944"><ele>596.0</ele><time>2026-05-03T09:26:02.581Z</time></trkpt><trkpt lat="44.0448826" lon="11.8791659"><ele>596.0</ele><time>2026-05-03T09:26:04.588Z</time></trkpt><trkpt lat="44.0449274" lon="11.8792535"><ele>596.0</ele><time>2026-05-03T09:26:07.591Z</time></trkpt><trkpt lat="44.0449927" lon="11.8793492"><ele>596.0</ele><time>2026-05-03T09:26:10.589Z</time></trkpt><trkpt lat="44.0450379" lon="11.8794115"><ele>596.0</ele><time>2026-05-03T09:26:12.591Z</time></trkpt><trkpt lat="44.045108" lon="11.8794963"><ele>596.0</ele><time>2026-05-03T09:26:15.592Z</time></trkpt><trkpt lat="44.0451685" lon="11.8795888"><ele>595.3333333333333</ele><time>2026-05-03T09:26:18.595Z</time></trkpt><trkpt lat="44.0452147" lon="11.8796625"><ele>594.6666666666666</ele><time>2026-05-03T09:26:20.589Z</time></trkpt><trkpt lat="44.0452874" lon="11.8797255"><ele>594.0</ele><time>2026-05-03T09:26:22.588Z</time></trkpt><trkpt lat="44.0453679" lon="11.8797731"><ele>593.3333333333334</ele><time>2026-05-03T09:26:24.586Z</time></trkpt><trkpt lat="44.045442" lon="11.8798378"><ele>592.6666666666667</ele><time>2026-05-03T09:26:26.581Z</time></trkpt><trkpt lat="44.0455201" lon="11.8799149"><ele>592.0</ele><time>2026-05-03T09:26:28.582Z</time></trkpt><trkpt lat="44.0455971" lon="11.8799965"><ele>591.5</ele><time>2026-05-03T09:26:30.592Z</time></trkpt><trkpt lat="44.0456487" lon="11.8801056"><ele>591.0</ele><time>2026-05-03T09:26:32.589Z</time></trkpt><trkpt lat="44.0457095" lon="11.8801904"><ele>590.5</ele><time>2026-05-03T09:26:34.585Z</time></trkpt><trkpt lat="44.0457623" lon="11.8802404"><ele>590.0</ele><time>2026-05-03T09:26:35.576Z</time></trkpt><trkpt lat="44.0458073" lon="11.8803088"><ele>589.5</ele><time>2026-05-03T09:26:36.579Z</time></trkpt><trkpt lat="44.0458496" lon="11.8803766"><ele>589.0</ele><time>2026-05-03T09:26:37.576Z</time></trkpt><trkpt lat="44.0459336" lon="11.8804893"><ele>589.0</ele><time>2026-05-03T09:26:39.577Z</time></trkpt><trkpt lat="44.0459914" lon="11.8805535"><ele>589.0</ele><time>2026-05-03T09:26:40.574Z</time></trkpt><trkpt lat="44.0460635" lon="11.8806104"><ele>589.0</ele><time>2026-05-03T09:26:41.576Z</time></trkpt><trkpt lat="44.0461279" lon="11.8806618"><ele>589.0</ele><time>2026-05-03T09:26:42.572Z</time></trkpt><trkpt lat="44.0462041" lon="11.8807119"><ele>589.0</ele><time>2026-05-03T09:26:44.584Z</time></trkpt><trkpt lat="44.0462841" lon="11.880712"><ele>589.0</ele><time>2026-05-03T09:26:47.583Z</time></trkpt><trkpt lat="44.046347" lon="11.8807202"><ele>589.0</ele><time>2026-05-03T09:26:49.578Z</time></trkpt><trkpt lat="44.0464212" lon="11.8807287"><ele>589.0</ele><time>2026-05-03T09:26:51.576Z</time></trkpt><trkpt lat="44.0464852" lon="11.8807092"><ele>589.0</ele><time>2026-05-03T09:26:53.579Z</time></trkpt><trkpt lat="44.0465516" lon="11.880704"><ele>589.0</ele><time>2026-05-03T09:26:55.577Z</time></trkpt><trkpt lat="44.0466384" lon="11.8807265"><ele>589.0</ele><time>2026-05-03T09:26:58.577Z</time></trkpt><trkpt lat="44.0467163" lon="11.8807521"><ele>589.0</ele><time>2026-05-03T09:27:01.583Z</time></trkpt><trkpt lat="44.0467964" lon="11.8808106"><ele>590.5714285714286</ele><time>2026-05-03T09:27:04.585Z</time></trkpt><trkpt lat="44.0468522" lon="11.8808714"><ele>592.1428571428571</ele><time>2026-05-03T09:27:07.585Z</time></trkpt><trkpt lat="44.0468949" lon="11.8809444"><ele>593.7142857142857</ele><time>2026-05-03T09:27:11.587Z</time></trkpt><trkpt lat="44.0469293" lon="11.8810444"><ele>595.2857142857142</ele><time>2026-05-03T09:27:15.583Z</time></trkpt><trkpt lat="44.0469516" lon="11.8811326"><ele>596.8571428571429</ele><time>2026-05-03T09:27:19.582Z</time></trkpt><trkpt lat="44.0469835" lon="11.8812174"><ele>598.4285714285713</ele><time>2026-05-03T09:27:22.589Z</time></trkpt><trkpt lat="44.047019" lon="11.8813081"><ele>600.0</ele><time>2026-05-03T09:27:26.582Z</time></trkpt><trkpt lat="44.0470927" lon="11.8813662"><ele>600.0</ele><time>2026-05-03T09:27:32.585Z</time></trkpt><trkpt lat="44.0471574" lon="11.8813932"><ele>600.0</ele><time>2026-05-03T09:27:35.582Z</time></trkpt><trkpt lat="44.0472269" lon="11.8814309"><ele>600.0</ele><time>2026-05-03T09:27:37.587Z</time></trkpt><trkpt lat="44.0473036" lon="11.8814488"><ele>600.0</ele><time>2026-05-03T09:27:39.584Z</time></trkpt><trkpt lat="44.0473867" lon="11.8814689"><ele>600.0</ele><time>2026-05-03T09:27:41.584Z</time></trkpt><trkpt lat="44.0474744" lon="11.8814805"><ele>600.0</ele><time>2026-05-03T09:27:42.582Z</time></trkpt><trkpt lat="44.0475795" lon="11.8815597"><ele>599.1666666666666</ele><time>2026-05-03T09:27:44.587Z</time></trkpt><trkpt lat="44.0476356" lon="11.8816117"><ele>598.3333333333334</ele><time>2026-05-03T09:27:45.579Z</time></trkpt><trkpt lat="44.0477037" lon="11.8816569"><ele>597.5</ele><time>2026-05-03T09:27:46.57Z</time></trkpt><trkpt lat="44.0477779" lon="11.8816987"><ele>596.6666666666667</ele><time>2026-05-03T09:27:47.57Z</time></trkpt><trkpt lat="44.0478444" lon="11.8817254"><ele>595.8333333333334</ele><time>2026-05-03T09:27:48.574Z</time></trkpt><trkpt lat="44.0479638" lon="11.8817384"><ele>595.0</ele><time>2026-05-03T09:27:50.567Z</time></trkpt><trkpt lat="44.0480685" lon="11.8817675"><ele>595.0</ele><time>2026-05-03T09:27:52.58Z</time></trkpt><trkpt lat="44.048107" lon="11.8818552"><ele>595.0</ele><time>2026-05-03T09:27:54.586Z</time></trkpt><trkpt lat="44.0481965" lon="11.8817857"><ele>595.0</ele><time>2026-05-03T09:27:59.569Z</time></trkpt><trkpt lat="44.0482541" lon="11.8816828"><ele>595.0</ele><time>2026-05-03T09:28:01.567Z</time></trkpt><trkpt lat="44.0483071" lon="11.8815722"><ele>595.0</ele><time>2026-05-03T09:28:03.568Z</time></trkpt><trkpt lat="44.048346" lon="11.8814915"><ele>595.0</ele><time>2026-05-03T09:28:04.565Z</time></trkpt><trkpt lat="44.0483788" lon="11.881406"><ele>596.2</ele><time>2026-05-03T09:28:05.565Z</time></trkpt><trkpt lat="44.0483853" lon="11.8812646"><ele>597.4</ele><time>2026-05-03T09:28:07.573Z</time></trkpt><trkpt lat="44.0483831" lon="11.8811328"><ele>598.6</ele><time>2026-05-03T09:28:09.578Z</time></trkpt><trkpt lat="44.0484025" lon="11.8809971"><ele>599.8</ele><time>2026-05-03T09:28:11.562Z</time></trkpt><trkpt lat="44.0484205" lon="11.8808579"><ele>601.0</ele><time>2026-05-03T09:28:13.567Z</time></trkpt><trkpt lat="44.0484412" lon="11.8807723"><ele>599.0</ele><time>2026-05-03T09:28:14.57Z</time></trkpt><trkpt lat="44.0484649" lon="11.8806871"><ele>597.0</ele><time>2026-05-03T09:28:15.573Z</time></trkpt><trkpt lat="44.0484853" lon="11.8805969"><ele>595.0</ele><time>2026-05-03T09:28:16.572Z</time></trkpt><trkpt lat="44.0485008" lon="11.8804982"><ele>593.0</ele><time>2026-05-03T09:28:17.573Z</time></trkpt><trkpt lat="44.048509" lon="11.8803907"><ele>591.0</ele><time>2026-05-03T09:28:18.573Z</time></trkpt><trkpt lat="44.0485199" lon="11.8802708"><ele>589.0</ele><time>2026-05-03T09:28:19.574Z</time></trkpt><trkpt lat="44.0485266" lon="11.8801451"><ele>587.1666666666667</ele><time>2026-05-03T09:28:20.572Z</time></trkpt><trkpt lat="44.0485216" lon="11.8800276"><ele>585.3333333333334</ele><time>2026-05-03T09:28:21.565Z</time></trkpt><trkpt lat="44.0485252" lon="11.8799228"><ele>583.5</ele><time>2026-05-03T09:28:22.57Z</time></trkpt><trkpt lat="44.048538" lon="11.8798172"><ele>581.6666666666666</ele><time>2026-05-03T09:28:23.569Z</time></trkpt><trkpt lat="44.0485536" lon="11.8797194"><ele>579.8333333333333</ele><time>2026-05-03T09:28:24.569Z</time></trkpt><trkpt lat="44.0485778" lon="11.8796352"><ele>578.0</ele><time>2026-05-03T09:28:25.567Z</time></trkpt><trkpt lat="44.0486401" lon="11.8794834"><ele>578.0</ele><time>2026-05-03T09:28:27.568Z</time></trkpt><trkpt lat="44.048699" lon="11.879341"><ele>578.0</ele><time>2026-05-03T09:28:29.566Z</time></trkpt><trkpt lat="44.0487444" lon="11.8792692"><ele>578.0</ele><time>2026-05-03T09:28:30.565Z</time></trkpt><trkpt lat="44.0488122" lon="11.8791578"><ele>578.0</ele><time>2026-05-03T09:28:32.565Z</time></trkpt><trkpt lat="44.0488768" lon="11.8790475"><ele>578.0</ele><time>2026-05-03T09:28:34.57Z</time></trkpt><trkpt lat="44.0489217" lon="11.8789353"><ele>576.8</ele><time>2026-05-03T09:28:36.572Z</time></trkpt><trkpt lat="44.0489745" lon="11.8788416"><ele>575.5999999999999</ele><time>2026-05-03T09:28:38.576Z</time></trkpt><trkpt lat="44.0490351" lon="11.8787449"><ele>574.4000000000001</ele><time>2026-05-03T09:28:40.574Z</time></trkpt><trkpt lat="44.0491092" lon="11.8786413"><ele>573.2</ele><time>2026-05-03T09:28:42.573Z</time></trkpt><trkpt lat="44.0492034" lon="11.878562"><ele>572.0</ele><time>2026-05-03T09:28:44.576Z</time></trkpt><trkpt lat="44.0493124" lon="11.8785457"><ele>574.6</ele><time>2026-05-03T09:28:46.574Z</time></trkpt><trkpt lat="44.0494311" lon="11.8785894"><ele>577.2</ele><time>2026-05-03T09:28:48.573Z</time></trkpt><trkpt lat="44.0494855" lon="11.8786377"><ele>579.8</ele><time>2026-05-03T09:28:49.579Z</time></trkpt><trkpt lat="44.0495864" lon="11.8787172"><ele>582.4</ele><time>2026-05-03T09:28:51.574Z</time></trkpt><trkpt lat="44.0496899" lon="11.8787454"><ele>585.0</ele><time>2026-05-03T09:28:53.574Z</time></trkpt><trkpt lat="44.0497851" lon="11.8786825"><ele>585.0</ele><time>2026-05-03T09:28:55.573Z</time></trkpt><trkpt lat="44.049852" lon="11.8785883"><ele>585.0</ele><time>2026-05-03T09:28:57.574Z</time></trkpt><trkpt lat="44.0498956" lon="11.8784689"><ele>585.0</ele><time>2026-05-03T09:28:59.574Z</time></trkpt><trkpt lat="44.0499417" lon="11.8783233"><ele>585.0</ele><time>2026-05-03T09:29:01.569Z</time></trkpt><trkpt lat="44.0499781" lon="11.8781582"><ele>585.0</ele><time>2026-05-03T09:29:03.563Z</time></trkpt><trkpt lat="44.050039" lon="11.8780354"><ele>582.0</ele><time>2026-05-03T09:29:05.57Z</time></trkpt><trkpt lat="44.0501101" lon="11.877943"><ele>579.0</ele><time>2026-05-03T09:29:07.569Z</time></trkpt><trkpt lat="44.0501755" lon="11.8778482"><ele>576.0</ele><time>2026-05-03T09:29:09.567Z</time></trkpt><trkpt lat="44.0502281" lon="11.8777445"><ele>573.0</ele><time>2026-05-03T09:29:11.572Z</time></trkpt><trkpt lat="44.0502902" lon="11.8776177"><ele>570.0</ele><time>2026-05-03T09:29:13.567Z</time></trkpt><trkpt lat="44.0503446" lon="11.8774941"><ele>567.5</ele><time>2026-05-03T09:29:15.565Z</time></trkpt><trkpt lat="44.0503702" lon="11.8773634"><ele>565.0</ele><time>2026-05-03T09:29:17.562Z</time></trkpt><trkpt lat="44.0503698" lon="11.8772135"><ele>562.5</ele><time>2026-05-03T09:29:19.557Z</time></trkpt><trkpt lat="44.0503441" lon="11.8771162"><ele>560.0</ele><time>2026-05-03T09:29:20.563Z</time></trkpt><trkpt lat="44.0503288" lon="11.8770249"><ele>557.5</ele><time>2026-05-03T09:29:21.566Z</time></trkpt><trkpt lat="44.0503054" lon="11.8769265"><ele>555.0</ele><time>2026-05-03T09:29:22.563Z</time></trkpt><trkpt lat="44.0502899" lon="11.8768112"><ele>552.6</ele><time>2026-05-03T09:29:23.57Z</time></trkpt><trkpt lat="44.0502763" lon="11.8766892"><ele>550.2</ele><time>2026-05-03T09:29:24.573Z</time></trkpt><trkpt lat="44.0502627" lon="11.8765586"><ele>547.8</ele><time>2026-05-03T09:29:25.564Z</time></trkpt><trkpt lat="44.0502404" lon="11.8764094"><ele>545.4</ele><time>2026-05-03T09:29:26.568Z</time></trkpt><trkpt lat="44.050218" lon="11.8762705"><ele>543.0</ele><time>2026-05-03T09:29:27.566Z</time></trkpt><trkpt lat="44.0501964" lon="11.876133"><ele>543.0</ele><time>2026-05-03T09:29:28.573Z</time></trkpt><trkpt lat="44.0501808" lon="11.8760135"><ele>543.0</ele><time>2026-05-03T09:29:29.567Z</time></trkpt><trkpt lat="44.0501631" lon="11.8758885"><ele>543.0</ele><time>2026-05-03T09:29:30.572Z</time></trkpt><trkpt lat="44.0501415" lon="11.8757624"><ele>543.0</ele><time>2026-05-03T09:29:31.564Z</time></trkpt><trkpt lat="44.050112" lon="11.8756376"><ele>543.0</ele><time>2026-05-03T09:29:32.566Z</time></trkpt><trkpt lat="44.0500738" lon="11.8755182"><ele>542.5</ele><time>2026-05-03T09:29:33.566Z</time></trkpt><trkpt lat="44.0500432" lon="11.8754113"><ele>542.0</ele><time>2026-05-03T09:29:34.57Z</time></trkpt><trkpt lat="44.0500115" lon="11.8753065"><ele>541.5</ele><time>2026-05-03T09:29:35.565Z</time></trkpt><trkpt lat="44.0499874" lon="11.8752124"><ele>541.0</ele><time>2026-05-03T09:29:36.563Z</time></trkpt><trkpt lat="44.0499605" lon="11.8751173"><ele>540.5</ele><time>2026-05-03T09:29:37.567Z</time></trkpt><trkpt lat="44.049904" lon="11.8749678"><ele>540.0</ele><time>2026-05-03T09:29:39.57Z</time></trkpt><trkpt lat="44.0498231" lon="11.874854"><ele>539.3333333333334</ele><time>2026-05-03T09:29:41.573Z</time></trkpt><trkpt lat="44.0497617" lon="11.8747218"><ele>538.6666666666666</ele><time>2026-05-03T09:29:43.574Z</time></trkpt><trkpt lat="44.0497389" lon="11.8746394"><ele>538.0</ele><time>2026-05-03T09:29:44.566Z</time></trkpt><trkpt lat="44.0497136" lon="11.874497"><ele>537.3333333333333</ele><time>2026-05-03T09:29:46.567Z</time></trkpt><trkpt lat="44.0496912" lon="11.874412"><ele>536.6666666666666</ele><time>2026-05-03T09:29:47.572Z</time></trkpt><trkpt lat="44.0496707" lon="11.8743256"><ele>536.0</ele><time>2026-05-03T09:29:48.569Z</time></trkpt><trkpt lat="44.0496198" lon="11.8741729"><ele>536.0</ele><time>2026-05-03T09:29:50.574Z</time></trkpt><trkpt lat="44.0495288" lon="11.8740588"><ele>536.0</ele><time>2026-05-03T09:29:52.565Z</time></trkpt><trkpt lat="44.0494255" lon="11.8739727"><ele>536.0</ele><time>2026-05-03T09:29:54.57Z</time></trkpt><trkpt lat="44.049356" lon="11.8739406"><ele>536.0</ele><time>2026-05-03T09:29:55.573Z</time></trkpt><trkpt lat="44.0492904" lon="11.8738913"><ele>536.0</ele><time>2026-05-03T09:29:56.568Z</time></trkpt><trkpt lat="44.0492248" lon="11.8738305"><ele>536.0</ele><time>2026-05-03T09:29:57.57Z</time></trkpt><trkpt lat="44.0491531" lon="11.8737392"><ele>536.0</ele><time>2026-05-03T09:29:58.572Z</time></trkpt><trkpt lat="44.0490899" lon="11.8736259"><ele>536.0</ele><time>2026-05-03T09:29:59.58Z</time></trkpt><trkpt lat="44.0490264" lon="11.8735014"><ele>536.0</ele><time>2026-05-03T09:30:00.573Z</time></trkpt><trkpt lat="44.0489671" lon="11.8733852"><ele>536.0</ele><time>2026-05-03T09:30:01.572Z</time></trkpt><trkpt lat="44.0489119" lon="11.8732813"><ele>534.8333333333333</ele><time>2026-05-03T09:30:02.573Z</time></trkpt><trkpt lat="44.0488633" lon="11.8731626"><ele>533.6666666666666</ele><time>2026-05-03T09:30:03.573Z</time></trkpt><trkpt lat="44.0488299" lon="11.8730503"><ele>532.5</ele><time>2026-05-03T09:30:04.572Z</time></trkpt><trkpt lat="44.0487947" lon="11.8729568"><ele>531.3333333333334</ele><time>2026-05-03T09:30:05.575Z</time></trkpt><trkpt lat="44.0487529" lon="11.8728719"><ele>530.1666666666667</ele><time>2026-05-03T09:30:06.578Z</time></trkpt><trkpt lat="44.0487076" lon="11.8727845"><ele>529.0</ele><time>2026-05-03T09:30:07.572Z</time></trkpt><trkpt lat="44.0486629" lon="11.8727012"><ele>529.0</ele><time>2026-05-03T09:30:08.576Z</time></trkpt><trkpt lat="44.0486117" lon="11.8726218"><ele>529.0</ele><time>2026-05-03T09:30:09.571Z</time></trkpt><trkpt lat="44.048553" lon="11.8725474"><ele>529.0</ele><time>2026-05-03T09:30:10.569Z</time></trkpt><trkpt lat="44.0484866" lon="11.8724892"><ele>529.0</ele><time>2026-05-03T09:30:11.577Z</time></trkpt><trkpt lat="44.0484115" lon="11.8724498"><ele>529.0</ele><time>2026-05-03T09:30:12.572Z</time></trkpt><trkpt lat="44.0483263" lon="11.8724263"><ele>529.0</ele><time>2026-05-03T09:30:13.574Z</time></trkpt><trkpt lat="44.0482397" lon="11.872406"><ele>528.5</ele><time>2026-05-03T09:30:14.565Z</time></trkpt><trkpt lat="44.0481541" lon="11.8723869"><ele>528.0</ele><time>2026-05-03T09:30:15.57Z</time></trkpt><trkpt lat="44.0480755" lon="11.872373"><ele>527.5</ele><time>2026-05-03T09:30:16.572Z</time></trkpt><trkpt lat="44.0479925" lon="11.8723706"><ele>527.0</ele><time>2026-05-03T09:30:17.576Z</time></trkpt><trkpt lat="44.0479187" lon="11.8723891"><ele>526.5</ele><time>2026-05-03T09:30:18.573Z</time></trkpt><trkpt lat="44.0478553" lon="11.8723924"><ele>526.0</ele><time>2026-05-03T09:30:19.577Z</time></trkpt><trkpt lat="44.047733" lon="11.8723568"><ele>526.0</ele><time>2026-05-03T09:30:21.571Z</time></trkpt><trkpt lat="44.0476515" lon="11.872269"><ele>526.0</ele><time>2026-05-03T09:30:23.573Z</time></trkpt><trkpt lat="44.0476446" lon="11.872118"><ele>526.0</ele><time>2026-05-03T09:30:25.573Z</time></trkpt><trkpt lat="44.0476814" lon="11.8720377"><ele>526.0</ele><time>2026-05-03T09:30:26.573Z</time></trkpt><trkpt lat="44.0477178" lon="11.8719616"><ele>526.0</ele><time>2026-05-03T09:30:27.576Z</time></trkpt><trkpt lat="44.0477346" lon="11.8718327"><ele>526.0</ele><time>2026-05-03T09:30:29.584Z</time></trkpt><trkpt lat="44.0476892" lon="11.8717393"><ele>525.1666666666667</ele><time>2026-05-03T09:30:31.58Z</time></trkpt><trkpt lat="44.0476173" lon="11.8716321"><ele>524.3333333333334</ele><time>2026-05-03T09:30:33.59Z</time></trkpt><trkpt lat="44.0475673" lon="11.8715786"><ele>523.5</ele><time>2026-05-03T09:30:34.596Z</time></trkpt><trkpt lat="44.0475105" lon="11.8715053"><ele>522.6666666666666</ele><time>2026-05-03T09:30:35.584Z</time></trkpt><trkpt lat="44.0474468" lon="11.8714224"><ele>521.8333333333333</ele><time>2026-05-03T09:30:36.582Z</time></trkpt><trkpt lat="44.0473795" lon="11.8713365"><ele>521.0</ele><time>2026-05-03T09:30:37.588Z</time></trkpt><trkpt lat="44.047303" lon="11.8712449"><ele>518.0</ele><time>2026-05-03T09:30:38.585Z</time></trkpt><trkpt lat="44.0472216" lon="11.8711587"><ele>515.0</ele><time>2026-05-03T09:30:39.586Z</time></trkpt><trkpt lat="44.0471587" lon="11.8710666"><ele>512.0</ele><time>2026-05-03T09:30:40.582Z</time></trkpt><trkpt lat="44.0471006" lon="11.8709682"><ele>509.0</ele><time>2026-05-03T09:30:41.588Z</time></trkpt><trkpt lat="44.0470327" lon="11.870859"><ele>506.0</ele><time>2026-05-03T09:30:42.589Z</time></trkpt><trkpt lat="44.0469723" lon="11.8707585"><ele>505.49999999999994</ele><time>2026-05-03T09:30:43.588Z</time></trkpt><trkpt lat="44.0469157" lon="11.8706635"><ele>505.0</ele><time>2026-05-03T09:30:44.587Z</time></trkpt><trkpt lat="44.0468651" lon="11.8705593"><ele>504.5</ele><time>2026-05-03T09:30:45.593Z</time></trkpt><trkpt lat="44.0468411" lon="11.8704757"><ele>504.0</ele><time>2026-05-03T09:30:46.584Z</time></trkpt><trkpt lat="44.046909" lon="11.8704282"><ele>503.49999999999994</ele><time>2026-05-03T09:30:50.57Z</time></trkpt><trkpt lat="44.0469588" lon="11.8704874"><ele>503.0</ele><time>2026-05-03T09:30:51.567Z</time></trkpt><trkpt lat="44.0470212" lon="11.8705575"><ele>502.99999999999994</ele><time>2026-05-03T09:30:52.576Z</time></trkpt><trkpt lat="44.0471089" lon="11.8706252"><ele>503.0</ele><time>2026-05-03T09:30:53.563Z</time></trkpt><trkpt lat="44.0471898" lon="11.8706596"><ele>503.0</ele><time>2026-05-03T09:30:54.567Z</time></trkpt><trkpt lat="44.0472807" lon="11.8706882"><ele>503.0</ele><time>2026-05-03T09:30:55.562Z</time></trkpt><trkpt lat="44.047374" lon="11.8707027"><ele>502.99999999999994</ele><time>2026-05-03T09:30:56.561Z</time></trkpt><trkpt lat="44.0474428" lon="11.870746"><ele>503.0</ele><time>2026-05-03T09:30:57.562Z</time></trkpt><trkpt lat="44.0475145" lon="11.8708111"><ele>501.8333333333333</ele><time>2026-05-03T09:30:58.562Z</time></trkpt><trkpt lat="44.0475842" lon="11.8708633"><ele>500.66666666666663</ele><time>2026-05-03T09:30:59.562Z</time></trkpt><trkpt lat="44.0476621" lon="11.87092"><ele>499.5</ele><time>2026-05-03T09:31:00.565Z</time></trkpt><trkpt lat="44.0477499" lon="11.8709748"><ele>498.33333333333337</ele><time>2026-05-03T09:31:01.563Z</time></trkpt><trkpt lat="44.0478269" lon="11.8710139"><ele>497.1666666666667</ele><time>2026-05-03T09:31:02.561Z</time></trkpt><trkpt lat="44.0478956" lon="11.8710237"><ele>496.0</ele><time>2026-05-03T09:31:03.561Z</time></trkpt><trkpt lat="44.0480209" lon="11.8710477"><ele>494.1666666666667</ele><time>2026-05-03T09:31:05.562Z</time></trkpt><trkpt lat="44.0481661" lon="11.8710466"><ele>492.33333333333337</ele><time>2026-05-03T09:31:07.564Z</time></trkpt><trkpt lat="44.0482542" lon="11.8710497"><ele>490.5</ele><time>2026-05-03T09:31:08.563Z</time></trkpt><trkpt lat="44.0483263" lon="11.8710377"><ele>488.66666666666663</ele><time>2026-05-03T09:31:09.566Z</time></trkpt><trkpt lat="44.0483982" lon="11.8710017"><ele>486.8333333333333</ele><time>2026-05-03T09:31:10.573Z</time></trkpt><trkpt lat="44.0484578" lon="11.8709653"><ele>485.0</ele><time>2026-05-03T09:31:11.567Z</time></trkpt><trkpt lat="44.0485219" lon="11.8708714"><ele>484.99999999999994</ele><time>2026-05-03T09:31:13.563Z</time></trkpt><trkpt lat="44.0485489" lon="11.8707458"><ele>485.0</ele><time>2026-05-03T09:31:15.571Z</time></trkpt><trkpt lat="44.0485613" lon="11.8706294"><ele>485.0</ele><time>2026-05-03T09:31:17.576Z</time></trkpt><trkpt lat="44.0485842" lon="11.8705336"><ele>485.0</ele><time>2026-05-03T09:31:22.576Z</time></trkpt><trkpt lat="44.0486463" lon="11.8704908"><ele>484.99999999999994</ele><time>2026-05-03T09:31:24.581Z</time></trkpt><trkpt lat="44.0487509" lon="11.8704361"><ele>485.0</ele><time>2026-05-03T09:31:26.57Z</time></trkpt><trkpt lat="44.0488149" lon="11.8704"><ele>485.0</ele><time>2026-05-03T09:31:27.568Z</time></trkpt><trkpt lat="44.0488774" lon="11.8703617"><ele>485.0</ele><time>2026-05-03T09:31:28.575Z</time></trkpt><trkpt lat="44.0489879" lon="11.8702824"><ele>485.0</ele><time>2026-05-03T09:31:30.566Z</time></trkpt><trkpt lat="44.0490949" lon="11.8702017"><ele>485.0</ele><time>2026-05-03T09:31:32.569Z</time></trkpt><trkpt lat="44.0491601" lon="11.8700641"><ele>485.0</ele><time>2026-05-03T09:31:34.566Z</time></trkpt><trkpt lat="44.0491815" lon="11.8699705"><ele>481.8</ele><time>2026-05-03T09:31:35.57Z</time></trkpt><trkpt lat="44.0491928" lon="11.869868"><ele>478.6</ele><time>2026-05-03T09:31:36.57Z</time></trkpt><trkpt lat="44.0492018" lon="11.869766"><ele>475.4</ele><time>2026-05-03T09:31:37.57Z</time></trkpt><trkpt lat="44.0492113" lon="11.8696656"><ele>472.2</ele><time>2026-05-03T09:31:38.571Z</time></trkpt><trkpt lat="44.0492577" lon="11.8695076"><ele>469.0</ele><time>2026-05-03T09:31:40.574Z</time></trkpt><trkpt lat="44.0493024" lon="11.8693454"><ele>470.7142857142857</ele><time>2026-05-03T09:31:42.571Z</time></trkpt><trkpt lat="44.0493293" lon="11.8692634"><ele>472.42857142857144</ele><time>2026-05-03T09:31:43.572Z</time></trkpt><trkpt lat="44.0493623" lon="11.8691839"><ele>474.1428571428571</ele><time>2026-05-03T09:31:44.574Z</time></trkpt><trkpt lat="44.0494" lon="11.8691028"><ele>475.85714285714283</ele><time>2026-05-03T09:31:45.574Z</time></trkpt><trkpt lat="44.0494389" lon="11.8690281"><ele>477.57142857142856</ele><time>2026-05-03T09:31:46.577Z</time></trkpt><trkpt lat="44.0494733" lon="11.8689472"><ele>479.2857142857142</ele><time>2026-05-03T09:31:47.572Z</time></trkpt><trkpt lat="44.0495021" lon="11.868861"><ele>480.99999999999994</ele><time>2026-05-03T09:31:48.569Z</time></trkpt><trkpt lat="44.0495185" lon="11.8687709"><ele>481.00000000000006</ele><time>2026-05-03T09:31:49.574Z</time></trkpt><trkpt lat="44.0495382" lon="11.8686808"><ele>481.0</ele><time>2026-05-03T09:31:50.574Z</time></trkpt><trkpt lat="44.0495517" lon="11.8685906"><ele>481.0</ele><time>2026-05-03T09:31:51.573Z</time></trkpt><trkpt lat="44.049564" lon="11.8685025"><ele>481.0</ele><time>2026-05-03T09:31:52.573Z</time></trkpt><trkpt lat="44.049575" lon="11.8683362"><ele>481.00000000000006</ele><time>2026-05-03T09:31:54.576Z</time></trkpt><trkpt lat="44.0495913" lon="11.8681898"><ele>481.0</ele><time>2026-05-03T09:31:56.575Z</time></trkpt><trkpt lat="44.0496174" lon="11.8680637"><ele>481.50000000000006</ele><time>2026-05-03T09:31:58.58Z</time></trkpt><trkpt lat="44.049674" lon="11.8679546"><ele>482.0</ele><time>2026-05-03T09:32:00.581Z</time></trkpt><trkpt lat="44.0497754" lon="11.8678596"><ele>482.5</ele><time>2026-05-03T09:32:02.577Z</time></trkpt><trkpt lat="44.0498394" lon="11.8677855"><ele>483.0</ele><time>2026-05-03T09:32:03.576Z</time></trkpt><trkpt lat="44.0499047" lon="11.8677292"><ele>483.50000000000006</ele><time>2026-05-03T09:32:04.578Z</time></trkpt><trkpt lat="44.049969" lon="11.8676907"><ele>484.0</ele><time>2026-05-03T09:32:05.575Z</time></trkpt><trkpt lat="44.0500341" lon="11.8676562"><ele>481.79999999999995</ele><time>2026-05-03T09:32:06.573Z</time></trkpt><trkpt lat="44.0501312" lon="11.8675842"><ele>479.59999999999997</ele><time>2026-05-03T09:32:08.57Z</time></trkpt><trkpt lat="44.0501947" lon="11.867467"><ele>477.4</ele><time>2026-05-03T09:32:10.577Z</time></trkpt><trkpt lat="44.0502132" lon="11.8673"><ele>475.2</ele><time>2026-05-03T09:32:12.573Z</time></trkpt><trkpt lat="44.0502192" lon="11.8672061"><ele>473.0</ele><time>2026-05-03T09:32:13.576Z</time></trkpt><trkpt lat="44.0502163" lon="11.8670627"><ele>472.99999999999994</ele><time>2026-05-03T09:32:15.578Z</time></trkpt><trkpt lat="44.0502089" lon="11.866948"><ele>473.0</ele><time>2026-05-03T09:32:17.585Z</time></trkpt><trkpt lat="44.0501983" lon="11.8668277"><ele>473.0</ele><time>2026-05-03T09:32:19.587Z</time></trkpt><trkpt lat="44.0502029" lon="11.8667114"><ele>473.0</ele><time>2026-05-03T09:32:21.579Z</time></trkpt><trkpt lat="44.0502164" lon="11.8666179"><ele>472.99999999999994</ele><time>2026-05-03T09:32:23.584Z</time></trkpt><trkpt lat="44.0502598" lon="11.8665044"><ele>473.0</ele><time>2026-05-03T09:32:26.589Z</time></trkpt><trkpt lat="44.0503193" lon="11.8664299"><ele>474.8333333333333</ele><time>2026-05-03T09:32:29.584Z</time></trkpt><trkpt lat="44.050373" lon="11.8663694"><ele>476.66666666666663</ele><time>2026-05-03T09:32:32.583Z</time></trkpt><trkpt lat="44.0503965" lon="11.8662684"><ele>478.5</ele><time>2026-05-03T09:32:35.583Z</time></trkpt><trkpt lat="44.0504351" lon="11.8661641"><ele>480.33333333333337</ele><time>2026-05-03T09:32:38.582Z</time></trkpt><trkpt lat="44.0504837" lon="11.8660454"><ele>482.1666666666667</ele><time>2026-05-03T09:32:41.579Z</time></trkpt><trkpt lat="44.0505183" lon="11.865945"><ele>484.0</ele><time>2026-05-03T09:32:43.576Z</time></trkpt><trkpt lat="44.0505453" lon="11.8658632"><ele>486.33333333333337</ele><time>2026-05-03T09:32:44.577Z</time></trkpt><trkpt lat="44.0505748" lon="11.8657572"><ele>488.6666666666667</ele><time>2026-05-03T09:32:45.571Z</time></trkpt><trkpt lat="44.0505968" lon="11.8656415"><ele>491.0</ele><time>2026-05-03T09:32:46.569Z</time></trkpt><trkpt lat="44.0506168" lon="11.8655304"><ele>493.33333333333337</ele><time>2026-05-03T09:32:47.57Z</time></trkpt><trkpt lat="44.0506228" lon="11.8654116"><ele>495.6666666666667</ele><time>2026-05-03T09:32:48.57Z</time></trkpt><trkpt lat="44.050622" lon="11.8652849"><ele>498.0</ele><time>2026-05-03T09:32:49.572Z</time></trkpt><trkpt lat="44.0506296" lon="11.8651683"><ele>499.2</ele><time>2026-05-03T09:32:50.573Z</time></trkpt><trkpt lat="44.0506167" lon="11.8650644"><ele>500.4</ele><time>2026-05-03T09:32:51.573Z</time></trkpt><trkpt lat="44.0505721" lon="11.8649007"><ele>501.59999999999997</ele><time>2026-05-03T09:32:53.571Z</time></trkpt><trkpt lat="44.0505436" lon="11.8647659"><ele>502.79999999999995</ele><time>2026-05-03T09:32:55.575Z</time></trkpt><trkpt lat="44.0505199" lon="11.8646437"><ele>504.0</ele><time>2026-05-03T09:32:57.574Z</time></trkpt><trkpt lat="44.050492" lon="11.8645081"><ele>504.0</ele><time>2026-05-03T09:32:59.578Z</time></trkpt><trkpt lat="44.0504639" lon="11.8643776"><ele>504.0</ele><time>2026-05-03T09:33:01.573Z</time></trkpt><trkpt lat="44.0504107" lon="11.8642586"><ele>504.0</ele><time>2026-05-03T09:33:03.574Z</time></trkpt><trkpt lat="44.0503584" lon="11.8641348"><ele>504.0</ele><time>2026-05-03T09:33:05.574Z</time></trkpt><trkpt lat="44.0503226" lon="11.8640008"><ele>504.0</ele><time>2026-05-03T09:33:07.579Z</time></trkpt><trkpt lat="44.0502852" lon="11.8638635"><ele>502.2</ele><time>2026-05-03T09:33:09.584Z</time></trkpt><trkpt lat="44.0501965" lon="11.8637637"><ele>500.4</ele><time>2026-05-03T09:33:11.579Z</time></trkpt><trkpt lat="44.050142" lon="11.8637136"><ele>498.6</ele><time>2026-05-03T09:33:12.577Z</time></trkpt><trkpt lat="44.0500605" lon="11.8636139"><ele>496.8</ele><time>2026-05-03T09:33:14.572Z</time></trkpt><trkpt lat="44.0499961" lon="11.8634857"><ele>495.0</ele><time>2026-05-03T09:33:16.569Z</time></trkpt><trkpt lat="44.0499764" lon="11.8633558"><ele>491.8333333333333</ele><time>2026-05-03T09:33:18.569Z</time></trkpt><trkpt lat="44.0499438" lon="11.863198"><ele>488.66666666666663</ele><time>2026-05-03T09:33:20.57Z</time></trkpt><trkpt lat="44.0499276" lon="11.8631081"><ele>485.5</ele><time>2026-05-03T09:33:21.572Z</time></trkpt><trkpt lat="44.0499167" lon="11.8630088"><ele>482.3333333333333</ele><time>2026-05-03T09:33:22.573Z</time></trkpt><trkpt lat="44.0499008" lon="11.8629038"><ele>479.16666666666663</ele><time>2026-05-03T09:33:23.575Z</time></trkpt><trkpt lat="44.0498856" lon="11.8627948"><ele>476.0</ele><time>2026-05-03T09:33:24.577Z</time></trkpt><trkpt lat="44.049871" lon="11.8626846"><ele>473.16666666666663</ele><time>2026-05-03T09:33:25.57Z</time></trkpt><trkpt lat="44.0498545" lon="11.8625818"><ele>470.3333333333333</ele><time>2026-05-03T09:33:26.572Z</time></trkpt><trkpt lat="44.0498354" lon="11.862498"><ele>467.5</ele><time>2026-05-03T09:33:27.574Z</time></trkpt><trkpt lat="44.0497668" lon="11.8623837"><ele>464.66666666666663</ele><time>2026-05-03T09:33:29.571Z</time></trkpt><trkpt lat="44.0496633" lon="11.8623315"><ele>461.8333333333333</ele><time>2026-05-03T09:33:31.572Z</time></trkpt><trkpt lat="44.049603" lon="11.8622674"><ele>459.0</ele><time>2026-05-03T09:33:33.575Z</time></trkpt><trkpt lat="44.0496413" lon="11.8621872"><ele>459.0</ele><time>2026-05-03T09:33:35.582Z</time></trkpt><trkpt lat="44.0497332" lon="11.8621227"><ele>459.0</ele><time>2026-05-03T09:33:37.574Z</time></trkpt><trkpt lat="44.0497926" lon="11.862079"><ele>459.0</ele><time>2026-05-03T09:33:38.569Z</time></trkpt><trkpt lat="44.049848" lon="11.8620274"><ele>459.0</ele><time>2026-05-03T09:33:39.568Z</time></trkpt><trkpt lat="44.0499011" lon="11.8619719"><ele>459.0</ele><time>2026-05-03T09:33:40.566Z</time></trkpt><trkpt lat="44.0499731" lon="11.8618251"><ele>459.0</ele><time>2026-05-03T09:33:42.569Z</time></trkpt><trkpt lat="44.0500139" lon="11.8616486"><ele>458.8333333333333</ele><time>2026-05-03T09:33:44.568Z</time></trkpt><trkpt lat="44.0500264" lon="11.8615467"><ele>458.66666666666663</ele><time>2026-05-03T09:33:45.567Z</time></trkpt><trkpt lat="44.0500389" lon="11.8614407"><ele>458.5</ele><time>2026-05-03T09:33:46.566Z</time></trkpt><trkpt lat="44.0500636" lon="11.8613165"><ele>458.3333333333333</ele><time>2026-05-03T09:33:47.571Z</time></trkpt><trkpt lat="44.0500958" lon="11.8612102"><ele>458.16666666666663</ele><time>2026-05-03T09:33:48.576Z</time></trkpt><trkpt lat="44.0500846" lon="11.8610702"><ele>458.0</ele><time>2026-05-03T09:33:50.575Z</time></trkpt><trkpt lat="44.0499995" lon="11.8609724"><ele>455.99999999999994</ele><time>2026-05-03T09:33:52.58Z</time></trkpt><trkpt lat="44.0499257" lon="11.8608944"><ele>454.0</ele><time>2026-05-03T09:33:54.579Z</time></trkpt><trkpt lat="44.0499282" lon="11.8607538"><ele>452.0</ele><time>2026-05-03T09:33:56.577Z</time></trkpt><trkpt lat="44.0499574" lon="11.8606533"><ele>450.0</ele><time>2026-05-03T09:33:57.57Z</time></trkpt><trkpt lat="44.0499846" lon="11.8605502"><ele>447.99999999999994</ele><time>2026-05-03T09:33:58.573Z</time></trkpt><trkpt lat="44.0500132" lon="11.8604494"><ele>446.0</ele><time>2026-05-03T09:33:59.572Z</time></trkpt><trkpt lat="44.0500338" lon="11.86034"><ele>445.99999999999994</ele><time>2026-05-03T09:34:00.571Z</time></trkpt><trkpt lat="44.050046" lon="11.8602293"><ele>446.0</ele><time>2026-05-03T09:34:01.57Z</time></trkpt><trkpt lat="44.0500615" lon="11.8601193"><ele>446.0</ele><time>2026-05-03T09:34:02.568Z</time></trkpt><trkpt lat="44.0500851" lon="11.8600228"><ele>446.0</ele><time>2026-05-03T09:34:03.567Z</time></trkpt><trkpt lat="44.0501039" lon="11.8599311"><ele>445.99999999999994</ele><time>2026-05-03T09:34:04.565Z</time></trkpt><trkpt lat="44.0501166" lon="11.8597667"><ele>446.0</ele><time>2026-05-03T09:34:06.565Z</time></trkpt><trkpt lat="44.0501262" lon="11.8595897"><ele>444.6</ele><time>2026-05-03T09:34:08.568Z</time></trkpt><trkpt lat="44.0501074" lon="11.8594172"><ele>443.20000000000005</ele><time>2026-05-03T09:34:10.567Z</time></trkpt><trkpt lat="44.0500878" lon="11.8593272"><ele>441.79999999999995</ele><time>2026-05-03T09:34:11.566Z</time></trkpt><trkpt lat="44.0500498" lon="11.8591687"><ele>440.4</ele><time>2026-05-03T09:34:13.567Z</time></trkpt><trkpt lat="44.0500198" lon="11.8590209"><ele>439.0</ele><time>2026-05-03T09:34:15.566Z</time></trkpt><trkpt lat="44.0499366" lon="11.8588906"><ele>435.2857142857143</ele><time>2026-05-03T09:34:17.568Z</time></trkpt><trkpt lat="44.0498851" lon="11.8588299"><ele>431.57142857142856</ele><time>2026-05-03T09:34:18.569Z</time></trkpt><trkpt lat="44.0498258" lon="11.85878"><ele>427.8571428571429</ele><time>2026-05-03T09:34:19.571Z</time></trkpt><trkpt lat="44.0497622" lon="11.858733"><ele>424.1428571428571</ele><time>2026-05-03T09:34:20.574Z</time></trkpt><trkpt lat="44.0496956" lon="11.8586937"><ele>420.42857142857144</ele><time>2026-05-03T09:34:21.569Z</time></trkpt><trkpt lat="44.0496322" lon="11.8586717"><ele>416.7142857142857</ele><time>2026-05-03T09:34:22.572Z</time></trkpt><trkpt lat="44.0495649" lon="11.8586674"><ele>413.0</ele><time>2026-05-03T09:34:23.561Z</time></trkpt><trkpt lat="44.0494948" lon="11.8586994"><ele>412.99999999999994</ele><time>2026-05-03T09:34:24.577Z</time></trkpt><trkpt lat="44.0494263" lon="11.8587535"><ele>413.0</ele><time>2026-05-03T09:34:25.567Z</time></trkpt><trkpt lat="44.0493573" lon="11.8588338"><ele>413.0</ele><time>2026-05-03T09:34:26.561Z</time></trkpt><trkpt lat="44.0492828" lon="11.8589103"><ele>413.0</ele><time>2026-05-03T09:34:27.562Z</time></trkpt><trkpt lat="44.0492237" lon="11.8589824"><ele>412.99999999999994</ele><time>2026-05-03T09:34:28.562Z</time></trkpt><trkpt lat="44.0491641" lon="11.8590561"><ele>413.0</ele><time>2026-05-03T09:34:29.57Z</time></trkpt><trkpt lat="44.049099" lon="11.8591402"><ele>409.16666666666663</ele><time>2026-05-03T09:34:30.566Z</time></trkpt><trkpt lat="44.0490298" lon="11.8592281"><ele>405.3333333333333</ele><time>2026-05-03T09:34:31.568Z</time></trkpt><trkpt lat="44.0489755" lon="11.85931"><ele>401.5</ele><time>2026-05-03T09:34:32.568Z</time></trkpt><trkpt lat="44.0489207" lon="11.8594065"><ele>397.66666666666663</ele><time>2026-05-03T09:34:33.567Z</time></trkpt><trkpt lat="44.0488668" lon="11.8595114"><ele>393.8333333333333</ele><time>2026-05-03T09:34:34.567Z</time></trkpt><trkpt lat="44.0488094" lon="11.8595949"><ele>390.0</ele><time>2026-05-03T09:34:35.569Z</time></trkpt><trkpt lat="44.0487513" lon="11.8596458"><ele>390.0</ele><time>2026-05-03T09:34:36.567Z</time></trkpt><trkpt lat="44.0486489" lon="11.8595538"><ele>390.0</ele><time>2026-05-03T09:34:38.568Z</time></trkpt><trkpt lat="44.0486247" lon="11.8594524"><ele>390.0</ele><time>2026-05-03T09:34:39.565Z</time></trkpt><trkpt lat="44.0486168" lon="11.8593418"><ele>390.0</ele><time>2026-05-03T09:34:40.563Z</time></trkpt><trkpt lat="44.0486282" lon="11.8592341"><ele>390.0</ele><time>2026-05-03T09:34:41.566Z</time></trkpt><trkpt lat="44.0486582" lon="11.8591432"><ele>390.0</ele><time>2026-05-03T09:34:42.562Z</time></trkpt><trkpt lat="44.0486965" lon="11.8590724"><ele>387.3333333333333</ele><time>2026-05-03T09:34:43.562Z</time></trkpt><trkpt lat="44.0487526" lon="11.8589971"><ele>384.6666666666667</ele><time>2026-05-03T09:34:44.563Z</time></trkpt><trkpt lat="44.0488132" lon="11.8589194"><ele>382.0</ele><time>2026-05-03T09:34:45.562Z</time></trkpt><trkpt lat="44.0488731" lon="11.8588372"><ele>379.33333333333337</ele><time>2026-05-03T09:34:46.562Z</time></trkpt><trkpt lat="44.0489175" lon="11.8587395"><ele>376.6666666666667</ele><time>2026-05-03T09:34:47.562Z</time></trkpt><trkpt lat="44.0489688" lon="11.8586507"><ele>374.0</ele><time>2026-05-03T09:34:48.562Z</time></trkpt><trkpt lat="44.0490153" lon="11.8585613"><ele>374.0</ele><time>2026-05-03T09:34:49.568Z</time></trkpt><trkpt lat="44.0490333" lon="11.8584661"><ele>374.0</ele><time>2026-05-03T09:34:50.564Z</time></trkpt><trkpt lat="44.0490341" lon="11.8583619"><ele>374.0</ele><time>2026-05-03T09:34:51.567Z</time></trkpt><trkpt lat="44.0490348" lon="11.8582594"><ele>374.0</ele><time>2026-05-03T09:34:52.574Z</time></trkpt><trkpt lat="44.0490361" lon="11.8581577"><ele>374.0</ele><time>2026-05-03T09:34:53.569Z</time></trkpt><trkpt lat="44.0490349" lon="11.8580655"><ele>374.0</ele><time>2026-05-03T09:34:54.57Z</time></trkpt><trkpt lat="44.0490407" lon="11.8579116"><ele>370.79999999999995</ele><time>2026-05-03T09:34:56.568Z</time></trkpt><trkpt lat="44.0490753" lon="11.857833"><ele>367.59999999999997</ele><time>2026-05-03T09:34:58.565Z</time></trkpt><trkpt lat="44.0491814" lon="11.8578049"><ele>364.4</ele><time>2026-05-03T09:35:00.574Z</time></trkpt><trkpt lat="44.0492679" lon="11.8578081"><ele>361.2</ele><time>2026-05-03T09:35:01.566Z</time></trkpt><trkpt lat="44.0493691" lon="11.8578338"><ele>358.0</ele><time>2026-05-03T09:35:02.565Z</time></trkpt><trkpt lat="44.0494605" lon="11.8578757"><ele>364.79999999999995</ele><time>2026-05-03T09:35:03.559Z</time></trkpt><trkpt lat="44.0495678" lon="11.8579064"><ele>371.6</ele><time>2026-05-03T09:35:04.565Z</time></trkpt><trkpt lat="44.0496824" lon="11.8579217"><ele>378.4</ele><time>2026-05-03T09:35:05.562Z</time></trkpt><trkpt lat="44.0497702" lon="11.8579285"><ele>385.20000000000005</ele><time>2026-05-03T09:35:06.561Z</time></trkpt><trkpt lat="44.0498442" lon="11.8579048"><ele>392.0</ele><time>2026-05-03T09:35:07.565Z</time></trkpt><trkpt lat="44.0499113" lon="11.8578779"><ele>392.5</ele><time>2026-05-03T09:35:08.561Z</time></trkpt><trkpt lat="44.0500263" lon="11.8578675"><ele>393.0</ele><time>2026-05-03T09:35:10.564Z</time></trkpt><trkpt lat="44.0501386" lon="11.8578846"><ele>393.5</ele><time>2026-05-03T09:35:12.566Z</time></trkpt><trkpt lat="44.0502705" lon="11.8578745"><ele>394.0</ele><time>2026-05-03T09:35:14.569Z</time></trkpt><trkpt lat="44.0503715" lon="11.8578714"><ele>394.00000000000006</ele><time>2026-05-03T09:35:16.566Z</time></trkpt><trkpt lat="44.0504559" lon="11.8579168"><ele>394.0</ele><time>2026-05-03T09:35:18.562Z</time></trkpt><trkpt lat="44.0505276" lon="11.8579655"><ele>394.0</ele><time>2026-05-03T09:35:21.573Z</time></trkpt><trkpt lat="44.0506302" lon="11.8579769"><ele>394.0</ele><time>2026-05-03T09:35:24.579Z</time></trkpt><trkpt lat="44.0507113" lon="11.8579368"><ele>394.00000000000006</ele><time>2026-05-03T09:35:26.578Z</time></trkpt><trkpt lat="44.0507845" lon="11.8579021"><ele>394.0</ele><time>2026-05-03T09:35:28.58Z</time></trkpt><trkpt lat="44.050856" lon="11.8578618"><ele>390.0</ele><time>2026-05-03T09:35:30.575Z</time></trkpt><trkpt lat="44.0509608" lon="11.8578444"><ele>386.0</ele><time>2026-05-03T09:35:32.577Z</time></trkpt><trkpt lat="44.0510879" lon="11.8578713"><ele>382.0</ele><time>2026-05-03T09:35:34.572Z</time></trkpt><trkpt lat="44.0511534" lon="11.8578785"><ele>378.0</ele><time>2026-05-03T09:35:35.573Z</time></trkpt><trkpt lat="44.0512373" lon="11.8578787"><ele>374.0</ele><time>2026-05-03T09:35:37.58Z</time></trkpt><trkpt lat="44.051309" lon="11.8578673"><ele>374.0</ele><time>2026-05-03T09:35:39.578Z</time></trkpt><trkpt lat="44.0514055" lon="11.8578614"><ele>374.0</ele><time>2026-05-03T09:35:42.576Z</time></trkpt><trkpt lat="44.0514641" lon="11.8578239"><ele>374.0</ele><time>2026-05-03T09:35:43.572Z</time></trkpt><trkpt lat="44.0515416" lon="11.8577881"><ele>374.0</ele><time>2026-05-03T09:35:44.569Z</time></trkpt><trkpt lat="44.0516203" lon="11.8577915"><ele>374.0</ele><time>2026-05-03T09:35:45.57Z</time></trkpt><trkpt lat="44.0517016" lon="11.8578102"><ele>374.0</ele><time>2026-05-03T09:35:46.569Z</time></trkpt><trkpt lat="44.0517819" lon="11.8578271"><ele>372.2</ele><time>2026-05-03T09:35:47.569Z</time></trkpt><trkpt lat="44.0518621" lon="11.8578488"><ele>370.4</ele><time>2026-05-03T09:35:48.57Z</time></trkpt><trkpt lat="44.0519573" lon="11.8578645"><ele>368.6</ele><time>2026-05-03T09:35:49.572Z</time></trkpt><trkpt lat="44.0520617" lon="11.8578884"><ele>366.8</ele><time>2026-05-03T09:35:50.574Z</time></trkpt><trkpt lat="44.0521617" lon="11.8579123"><ele>365.0</ele><time>2026-05-03T09:35:51.574Z</time></trkpt><trkpt lat="44.0522494" lon="11.8579153"><ele>365.0</ele><time>2026-05-03T09:35:52.57Z</time></trkpt><trkpt lat="44.052328" lon="11.8579093"><ele>365.0</ele><time>2026-05-03T09:35:53.576Z</time></trkpt><trkpt lat="44.0523957" lon="11.8578972"><ele>365.0</ele><time>2026-05-03T09:35:54.576Z</time></trkpt><trkpt lat="44.0525008" lon="11.8578483"><ele>365.0</ele><time>2026-05-03T09:35:56.574Z</time></trkpt><trkpt lat="44.0525531" lon="11.8577947"><ele>365.0</ele><time>2026-05-03T09:35:57.579Z</time></trkpt><trkpt lat="44.0526212" lon="11.8577251"><ele>365.0</ele><time>2026-05-03T09:35:58.577Z</time></trkpt><trkpt lat="44.0526846" lon="11.8576518"><ele>359.83333333333337</ele><time>2026-05-03T09:35:59.583Z</time></trkpt><trkpt lat="44.0527375" lon="11.8575766"><ele>354.6666666666667</ele><time>2026-05-03T09:36:00.583Z</time></trkpt><trkpt lat="44.0527861" lon="11.8575015"><ele>349.5</ele><time>2026-05-03T09:36:01.583Z</time></trkpt><trkpt lat="44.0528328" lon="11.8574223"><ele>344.3333333333333</ele><time>2026-05-03T09:36:02.586Z</time></trkpt><trkpt lat="44.0528743" lon="11.8573278"><ele>339.16666666666663</ele><time>2026-05-03T09:36:03.577Z</time></trkpt><trkpt lat="44.0529049" lon="11.8572146"><ele>334.0</ele><time>2026-05-03T09:36:04.578Z</time></trkpt><trkpt lat="44.0529248" lon="11.8570962"><ele>334.0</ele><time>2026-05-03T09:36:05.58Z</time></trkpt><trkpt lat="44.052941" lon="11.856981"><ele>334.0</ele><time>2026-05-03T09:36:06.58Z</time></trkpt><trkpt lat="44.0529527" lon="11.8568684"><ele>334.0</ele><time>2026-05-03T09:36:07.58Z</time></trkpt><trkpt lat="44.0529588" lon="11.8567182"><ele>334.0</ele><time>2026-05-03T09:36:09.58Z</time></trkpt><trkpt lat="44.0528717" lon="11.8566275"><ele>334.0</ele><time>2026-05-03T09:36:11.579Z</time></trkpt><trkpt lat="44.0528129" lon="11.8565784"><ele>332.7142857142857</ele><time>2026-05-03T09:36:12.579Z</time></trkpt><trkpt lat="44.0527459" lon="11.8565344"><ele>331.42857142857144</ele><time>2026-05-03T09:36:13.578Z</time></trkpt><trkpt lat="44.052684" lon="11.8564779"><ele>330.1428571428571</ele><time>2026-05-03T09:36:14.576Z</time></trkpt><trkpt lat="44.0526265" lon="11.8564224"><ele>328.8571428571429</ele><time>2026-05-03T09:36:15.577Z</time></trkpt><trkpt lat="44.0525697" lon="11.8563702"><ele>327.5714285714286</ele><time>2026-05-03T09:36:16.579Z</time></trkpt><trkpt lat="44.0525164" lon="11.8563092"><ele>326.2857142857143</ele><time>2026-05-03T09:36:17.58Z</time></trkpt><trkpt lat="44.0524652" lon="11.8562511"><ele>325.0</ele><time>2026-05-03T09:36:18.577Z</time></trkpt><trkpt lat="44.052417" lon="11.8561873"><ele>325.0</ele><time>2026-05-03T09:36:19.583Z</time></trkpt><trkpt lat="44.0523696" lon="11.856128"><ele>325.0</ele><time>2026-05-03T09:36:20.579Z</time></trkpt><trkpt lat="44.0523185" lon="11.8560644"><ele>325.0</ele><time>2026-05-03T09:36:21.576Z</time></trkpt><trkpt lat="44.0522655" lon="11.8559893"><ele>325.0</ele><time>2026-05-03T09:36:22.579Z</time></trkpt><trkpt lat="44.0522196" lon="11.8559171"><ele>325.0</ele><time>2026-05-03T09:36:23.577Z</time></trkpt><trkpt lat="44.0521632" lon="11.8558438"><ele>325.0</ele><time>2026-05-03T09:36:24.581Z</time></trkpt><trkpt lat="44.0521022" lon="11.8557718"><ele>325.0</ele><time>2026-05-03T09:36:25.577Z</time></trkpt><trkpt lat="44.0520208" lon="11.8557005"><ele>322.5</ele><time>2026-05-03T09:36:26.573Z</time></trkpt><trkpt lat="44.0519383" lon="11.8556466"><ele>320.0</ele><time>2026-05-03T09:36:27.573Z</time></trkpt><trkpt lat="44.0518543" lon="11.8556139"><ele>317.5</ele><time>2026-05-03T09:36:28.571Z</time></trkpt><trkpt lat="44.0517758" lon="11.8556042"><ele>315.0</ele><time>2026-05-03T09:36:29.57Z</time></trkpt><trkpt lat="44.0517015" lon="11.855592"><ele>312.5</ele><time>2026-05-03T09:36:30.569Z</time></trkpt><trkpt lat="44.051633" lon="11.8555731"><ele>310.0</ele><time>2026-05-03T09:36:31.567Z</time></trkpt><trkpt lat="44.051565" lon="11.8555723"><ele>309.42857142857144</ele><time>2026-05-03T09:36:32.572Z</time></trkpt><trkpt lat="44.0514971" lon="11.8555672"><ele>308.85714285714283</ele><time>2026-05-03T09:36:33.572Z</time></trkpt><trkpt lat="44.0514287" lon="11.8555636"><ele>308.2857142857143</ele><time>2026-05-03T09:36:34.571Z</time></trkpt><trkpt lat="44.0513572" lon="11.8555548"><ele>307.7142857142857</ele><time>2026-05-03T09:36:35.569Z</time></trkpt><trkpt lat="44.0512889" lon="11.8555453"><ele>307.14285714285717</ele><time>2026-05-03T09:36:36.566Z</time></trkpt><trkpt lat="44.0512087" lon="11.8555426"><ele>306.57142857142856</ele><time>2026-05-03T09:36:37.567Z</time></trkpt><trkpt lat="44.0511193" lon="11.8555387"><ele>306.0</ele><time>2026-05-03T09:36:38.567Z</time></trkpt><trkpt lat="44.0510359" lon="11.8555307"><ele>306.0</ele><time>2026-05-03T09:36:39.569Z</time></trkpt><trkpt lat="44.0509614" lon="11.8555124"><ele>306.0</ele><time>2026-05-03T09:36:40.57Z</time></trkpt><trkpt lat="44.0508599" lon="11.8554634"><ele>306.0</ele><time>2026-05-03T09:36:42.57Z</time></trkpt><trkpt lat="44.050813" lon="11.8553838"><ele>306.0</ele><time>2026-05-03T09:36:44.577Z</time></trkpt><trkpt lat="44.0508241" lon="11.8552768"><ele>306.0</ele><time>2026-05-03T09:36:46.577Z</time></trkpt><trkpt lat="44.0508939" lon="11.8551663"><ele>306.0</ele><time>2026-05-03T09:36:48.581Z</time></trkpt><trkpt lat="44.050963" lon="11.8550331"><ele>302.6</ele><time>2026-05-03T09:36:50.58Z</time></trkpt><trkpt lat="44.0510201" lon="11.8548739"><ele>299.20000000000005</ele><time>2026-05-03T09:36:52.575Z</time></trkpt><trkpt lat="44.0510488" lon="11.8547891"><ele>295.79999999999995</ele><time>2026-05-03T09:36:53.573Z</time></trkpt><trkpt lat="44.0510812" lon="11.8547056"><ele>292.4</ele><time>2026-05-03T09:36:54.577Z</time></trkpt><trkpt lat="44.0511299" lon="11.854568"><ele>289.0</ele><time>2026-05-03T09:36:56.572Z</time></trkpt><trkpt lat="44.0511868" lon="11.8544501"><ele>289.0</ele><time>2026-05-03T09:36:58.571Z</time></trkpt><trkpt lat="44.05126" lon="11.8543825"><ele>289.0</ele><time>2026-05-03T09:37:00.58Z</time></trkpt><trkpt lat="44.0513641" lon="11.8543327"><ele>289.0</ele><time>2026-05-03T09:37:02.571Z</time></trkpt><trkpt lat="44.051468" lon="11.854304"><ele>289.0</ele><time>2026-05-03T09:37:04.578Z</time></trkpt><trkpt lat="44.0515617" lon="11.8542408"><ele>289.0</ele><time>2026-05-03T09:37:06.568Z</time></trkpt><trkpt lat="44.0516476" lon="11.8541182"><ele>288.2</ele><time>2026-05-03T09:37:08.57Z</time></trkpt><trkpt lat="44.0517077" lon="11.8539723"><ele>287.4</ele><time>2026-05-03T09:37:10.568Z</time></trkpt><trkpt lat="44.0517516" lon="11.8538493"><ele>286.6</ele><time>2026-05-03T09:37:12.569Z</time></trkpt><trkpt lat="44.0517905" lon="11.8537354"><ele>285.8</ele><time>2026-05-03T09:37:14.581Z</time></trkpt><trkpt lat="44.0518181" lon="11.8536352"><ele>285.0</ele><time>2026-05-03T09:37:16.58Z</time></trkpt><trkpt lat="44.0518412" lon="11.8535216"><ele>286.6666666666667</ele><time>2026-05-03T09:37:19.585Z</time></trkpt><trkpt lat="44.0518601" lon="11.8534134"><ele>288.3333333333333</ele><time>2026-05-03T09:37:22.583Z</time></trkpt><trkpt lat="44.0518859" lon="11.8533143"><ele>290.0</ele><time>2026-05-03T09:37:25.581Z</time></trkpt><trkpt lat="44.0519126" lon="11.8532134"><ele>291.66666666666663</ele><time>2026-05-03T09:37:28.583Z</time></trkpt><trkpt lat="44.0519316" lon="11.8531154"><ele>293.3333333333333</ele><time>2026-05-03T09:37:31.584Z</time></trkpt><trkpt lat="44.0519772" lon="11.8530307"><ele>295.0</ele><time>2026-05-03T09:37:37.582Z</time></trkpt><trkpt lat="44.0520443" lon="11.8529967"><ele>295.0</ele><time>2026-05-03T09:37:42.581Z</time></trkpt><trkpt lat="44.0521103" lon="11.8529502"><ele>295.0</ele><time>2026-05-03T09:37:48.58Z</time></trkpt><trkpt lat="44.0521395" lon="11.8528635"><ele>295.0</ele><time>2026-05-03T09:37:56.588Z</time></trkpt><trkpt lat="44.0522003" lon="11.8527659"><ele>295.0</ele><time>2026-05-03T09:37:59.576Z</time></trkpt><trkpt lat="44.0522584" lon="11.8526891"><ele>295.0</ele><time>2026-05-03T09:38:02.582Z</time></trkpt><trkpt lat="44.0523017" lon="11.8526073"><ele>295.0</ele><time>2026-05-03T09:38:05.587Z</time></trkpt><trkpt lat="44.0523427" lon="11.8525132"><ele>295.00000000000006</ele><time>2026-05-03T09:38:08.585Z</time></trkpt><trkpt lat="44.0523813" lon="11.8524386"><ele>295.0</ele><time>2026-05-03T09:38:11.585Z</time></trkpt><trkpt lat="44.0524" lon="11.8523286"><ele>295.0</ele><time>2026-05-03T09:38:15.585Z</time></trkpt><trkpt lat="44.05244" lon="11.8522389"><ele>295.0</ele><time>2026-05-03T09:38:19.589Z</time></trkpt><trkpt lat="44.0524931" lon="11.8521911"><ele>295.0</ele><time>2026-05-03T09:38:22.586Z</time></trkpt><trkpt lat="44.0525611" lon="11.8521303"><ele>295.00000000000006</ele><time>2026-05-03T09:38:26.59Z</time></trkpt><trkpt lat="44.0526122" lon="11.8520745"><ele>295.0</ele><time>2026-05-03T09:38:29.588Z</time></trkpt><trkpt lat="44.0526792" lon="11.8520033"><ele>295.0</ele><time>2026-05-03T09:38:32.584Z</time></trkpt><trkpt lat="44.052753" lon="11.8519749"><ele>295.0</ele><time>2026-05-03T09:38:34.584Z</time></trkpt><trkpt lat="44.0528565" lon="11.8519099"><ele>295.0</ele><time>2026-05-03T09:38:36.586Z</time></trkpt><trkpt lat="44.0529082" lon="11.8518445"><ele>295.0</ele><time>2026-05-03T09:38:37.577Z</time></trkpt><trkpt lat="44.0529494" lon="11.8517583"><ele>295.0</ele><time>2026-05-03T09:38:38.578Z</time></trkpt><trkpt lat="44.0529855" lon="11.8516589"><ele>295.0</ele><time>2026-05-03T09:38:39.577Z</time></trkpt><trkpt lat="44.0530665" lon="11.8515567"><ele>294.0</ele><time>2026-05-03T09:38:41.577Z</time></trkpt><trkpt lat="44.0531625" lon="11.8515178"><ele>293.0</ele><time>2026-05-03T09:38:43.587Z</time></trkpt><trkpt lat="44.0532666" lon="11.8514835"><ele>292.0</ele><time>2026-05-03T09:38:45.578Z</time></trkpt><trkpt lat="44.0533505" lon="11.8514047"><ele>291.0</ele><time>2026-05-03T09:38:47.581Z</time></trkpt><trkpt lat="44.0533879" lon="11.8512736"><ele>290.0</ele><time>2026-05-03T09:38:49.582Z</time></trkpt><trkpt lat="44.0534034" lon="11.8511857"><ele>290.0</ele><time>2026-05-03T09:38:50.581Z</time></trkpt><trkpt lat="44.053426" lon="11.851101"><ele>290.0</ele><time>2026-05-03T09:38:51.579Z</time></trkpt><trkpt lat="44.0534564" lon="11.8509498"><ele>290.0</ele><time>2026-05-03T09:38:53.586Z</time></trkpt><trkpt lat="44.0535007" lon="11.8508125"><ele>290.0</ele><time>2026-05-03T09:38:55.58Z</time></trkpt><trkpt lat="44.0535411" lon="11.8506931"><ele>290.0</ele><time>2026-05-03T09:38:57.587Z</time></trkpt><trkpt lat="44.0535657" lon="11.8505938"><ele>293.83333333333337</ele><time>2026-05-03T09:38:59.593Z</time></trkpt><trkpt lat="44.0536057" lon="11.8504782"><ele>297.6666666666667</ele><time>2026-05-03T09:39:02.586Z</time></trkpt><trkpt lat="44.0536642" lon="11.8503758"><ele>301.5</ele><time>2026-05-03T09:39:05.584Z</time></trkpt><trkpt lat="44.0537306" lon="11.850319"><ele>305.3333333333333</ele><time>2026-05-03T09:39:07.588Z</time></trkpt><trkpt lat="44.0537983" lon="11.8502809"><ele>309.16666666666663</ele><time>2026-05-03T09:39:09.585Z</time></trkpt><trkpt lat="44.0538946" lon="11.8502611"><ele>313.0</ele><time>2026-05-03T09:39:11.586Z</time></trkpt><trkpt lat="44.0539991" lon="11.850289"><ele>313.0</ele><time>2026-05-03T09:39:13.6Z</time></trkpt><trkpt lat="44.0540665" lon="11.8502775"><ele>313.0</ele><time>2026-05-03T09:39:15.598Z</time></trkpt><trkpt lat="44.0541375" lon="11.8503161"><ele>313.0</ele><time>2026-05-03T09:39:17.589Z</time></trkpt><trkpt lat="44.0542062" lon="11.8503994"><ele>313.0</ele><time>2026-05-03T09:39:19.589Z</time></trkpt><trkpt lat="44.0542821" lon="11.8504782"><ele>313.0</ele><time>2026-05-03T09:39:21.585Z</time></trkpt><trkpt lat="44.0543812" lon="11.8505758"><ele>310.16666666666663</ele><time>2026-05-03T09:39:23.58Z</time></trkpt><trkpt lat="44.0544351" lon="11.8506316"><ele>307.3333333333333</ele><time>2026-05-03T09:39:24.593Z</time></trkpt><trkpt lat="44.054491" lon="11.8506876"><ele>304.5</ele><time>2026-05-03T09:39:25.577Z</time></trkpt><trkpt lat="44.0545505" lon="11.8507357"><ele>301.6666666666667</ele><time>2026-05-03T09:39:26.576Z</time></trkpt><trkpt lat="44.0546388" lon="11.8507675"><ele>298.83333333333337</ele><time>2026-05-03T09:39:28.584Z</time></trkpt><trkpt lat="44.0547236" lon="11.8507575"><ele>296.0</ele><time>2026-05-03T09:39:31.585Z</time></trkpt><trkpt lat="44.0548118" lon="11.8507207"><ele>296.0</ele><time>2026-05-03T09:39:35.587Z</time></trkpt><trkpt lat="44.0549012" lon="11.8506779"><ele>296.0</ele><time>2026-05-03T09:39:38.586Z</time></trkpt><trkpt lat="44.05498" lon="11.8506014"><ele>296.0</ele><time>2026-05-03T09:39:41.586Z</time></trkpt><trkpt lat="44.0550269" lon="11.8505215"><ele>296.0</ele><time>2026-05-03T09:39:43.584Z</time></trkpt><trkpt lat="44.0550702" lon="11.8504121"><ele>296.0</ele><time>2026-05-03T09:39:45.587Z</time></trkpt><trkpt lat="44.0551039" lon="11.8502913"><ele>296.0</ele><time>2026-05-03T09:39:47.594Z</time></trkpt><trkpt lat="44.055151" lon="11.8501804"><ele>297.40000000000003</ele><time>2026-05-03T09:39:49.592Z</time></trkpt><trkpt lat="44.0552006" lon="11.8500568"><ele>298.8</ele><time>2026-05-03T09:39:51.581Z</time></trkpt><trkpt lat="44.0552439" lon="11.8499263"><ele>300.20000000000005</ele><time>2026-05-03T09:39:53.583Z</time></trkpt><trkpt lat="44.0552922" lon="11.8498052"><ele>301.6</ele><time>2026-05-03T09:39:55.582Z</time></trkpt><trkpt lat="44.0553446" lon="11.8496875"><ele>303.0</ele><time>2026-05-03T09:39:57.581Z</time></trkpt><trkpt lat="44.055394" lon="11.8495682"><ele>303.0</ele><time>2026-05-03T09:39:59.585Z</time></trkpt><trkpt lat="44.0554552" lon="11.8494657"><ele>303.0</ele><time>2026-05-03T09:40:01.584Z</time></trkpt><trkpt lat="44.0555511" lon="11.8494623"><ele>303.0</ele><time>2026-05-03T09:40:03.582Z</time></trkpt><trkpt lat="44.0556127" lon="11.8494884"><ele>303.0</ele><time>2026-05-03T09:40:04.59Z</time></trkpt><trkpt lat="44.0556835" lon="11.8495092"><ele>303.0</ele><time>2026-05-03T09:40:05.58Z</time></trkpt><trkpt lat="44.0557623" lon="11.8495395"><ele>303.0</ele><time>2026-05-03T09:40:06.582Z</time></trkpt><trkpt lat="44.0558529" lon="11.8495769"><ele>302.0</ele><time>2026-05-03T09:40:07.581Z</time></trkpt><trkpt lat="44.0559386" lon="11.8496223"><ele>301.0</ele><time>2026-05-03T09:40:08.577Z</time></trkpt><trkpt lat="44.056034" lon="11.8496787"><ele>300.0</ele><time>2026-05-03T09:40:09.581Z</time></trkpt><trkpt lat="44.0561218" lon="11.8497431"><ele>299.0</ele><time>2026-05-03T09:40:10.567Z</time></trkpt><trkpt lat="44.0562047" lon="11.8498118"><ele>298.0</ele><time>2026-05-03T09:40:11.582Z</time></trkpt><trkpt lat="44.0562708" lon="11.8498696"><ele>298.0</ele><time>2026-05-03T09:40:12.575Z</time></trkpt><trkpt lat="44.0563282" lon="11.8499074"><ele>298.0</ele><time>2026-05-03T09:40:13.579Z</time></trkpt><trkpt lat="44.056411" lon="11.8498638"><ele>298.0</ele><time>2026-05-03T09:40:15.578Z</time></trkpt><trkpt lat="44.0564509" lon="11.849698"><ele>298.0</ele><time>2026-05-03T09:40:17.579Z</time></trkpt><trkpt lat="44.0564703" lon="11.8495749"><ele>298.0</ele><time>2026-05-03T09:40:18.577Z</time></trkpt><trkpt lat="44.0564829" lon="11.8494362"><ele>298.0</ele><time>2026-05-03T09:40:19.581Z</time></trkpt><trkpt lat="44.0564938" lon="11.8493029"><ele>298.0</ele><time>2026-05-03T09:40:20.573Z</time></trkpt><trkpt lat="44.0565044" lon="11.8491667"><ele>298.0</ele><time>2026-05-03T09:40:21.582Z</time></trkpt><trkpt lat="44.0565281" lon="11.8490503"><ele>298.0</ele><time>2026-05-03T09:40:22.578Z</time></trkpt><trkpt lat="44.0565755" lon="11.8489516"><ele>298.0</ele><time>2026-05-03T09:40:23.578Z</time></trkpt><trkpt lat="44.0566278" lon="11.8488523"><ele>299.0</ele><time>2026-05-03T09:40:24.592Z</time></trkpt><trkpt lat="44.0566814" lon="11.8487542"><ele>300.0</ele><time>2026-05-03T09:40:25.578Z</time></trkpt><trkpt lat="44.0567311" lon="11.8486439"><ele>301.0</ele><time>2026-05-03T09:40:26.59Z</time></trkpt><trkpt lat="44.0567818" lon="11.8485463"><ele>302.0</ele><time>2026-05-03T09:40:27.58Z</time></trkpt><trkpt lat="44.0568376" lon="11.8484404"><ele>303.0</ele><time>2026-05-03T09:40:28.574Z</time></trkpt><trkpt lat="44.056885" lon="11.8483329"><ele>303.0</ele><time>2026-05-03T09:40:29.58Z</time></trkpt><trkpt lat="44.0569423" lon="11.848235"><ele>303.0</ele><time>2026-05-03T09:40:30.578Z</time></trkpt><trkpt lat="44.0570026" lon="11.8481479"><ele>303.0</ele><time>2026-05-03T09:40:31.58Z</time></trkpt><trkpt lat="44.0570607" lon="11.8480703"><ele>303.0</ele><time>2026-05-03T09:40:32.58Z</time></trkpt><trkpt lat="44.0571086" lon="11.8480115"><ele>303.0</ele><time>2026-05-03T09:40:33.582Z</time></trkpt><trkpt lat="44.057185" lon="11.84802"><ele>303.0</ele><time>2026-05-03T09:40:35.589Z</time></trkpt><trkpt lat="44.0571689" lon="11.8481817"><ele>303.0</ele><time>2026-05-03T09:40:37.597Z</time></trkpt><trkpt lat="44.057134" lon="11.8483135"><ele>303.0</ele><time>2026-05-03T09:40:38.586Z</time></trkpt><trkpt lat="44.057101" lon="11.8484597"><ele>303.0</ele><time>2026-05-03T09:40:39.585Z</time></trkpt><trkpt lat="44.0570575" lon="11.8485833"><ele>303.0</ele><time>2026-05-03T09:40:40.602Z</time></trkpt><trkpt lat="44.0570155" lon="11.8486946"><ele>303.0</ele><time>2026-05-03T09:40:41.589Z</time></trkpt><trkpt lat="44.0569828" lon="11.8487871"><ele>300.3333333333333</ele><time>2026-05-03T09:40:42.581Z</time></trkpt><trkpt lat="44.0569519" lon="11.8488639"><ele>297.6666666666667</ele><time>2026-05-03T09:40:43.58Z</time></trkpt><trkpt lat="44.0569101" lon="11.8490142"><ele>295.0</ele><time>2026-05-03T09:40:45.581Z</time></trkpt><trkpt lat="44.0569015" lon="11.8491093"><ele>292.33333333333337</ele><time>2026-05-03T09:40:46.58Z</time></trkpt><trkpt lat="44.0568982" lon="11.8491996"><ele>289.6666666666667</ele><time>2026-05-03T09:40:47.578Z</time></trkpt><trkpt lat="44.0569089" lon="11.8493372"><ele>287.0</ele><time>2026-05-03T09:40:49.583Z</time></trkpt><trkpt lat="44.0569295" lon="11.8494766"><ele>284.33333333333337</ele><time>2026-05-03T09:40:51.576Z</time></trkpt><trkpt lat="44.0569379" lon="11.8496506"><ele>281.6666666666667</ele><time>2026-05-03T09:40:53.584Z</time></trkpt><trkpt lat="44.0569539" lon="11.8497534"><ele>279.0</ele><time>2026-05-03T09:40:54.58Z</time></trkpt><trkpt lat="44.0569722" lon="11.8498555"><ele>276.3333333333333</ele><time>2026-05-03T09:40:55.577Z</time></trkpt><trkpt lat="44.0569856" lon="11.8499585"><ele>273.66666666666663</ele><time>2026-05-03T09:40:56.579Z</time></trkpt><trkpt lat="44.0570058" lon="11.8500479"><ele>271.0</ele><time>2026-05-03T09:40:57.579Z</time></trkpt><trkpt lat="44.057028" lon="11.8501348"><ele>271.0</ele><time>2026-05-03T09:40:58.578Z</time></trkpt><trkpt lat="44.0570769" lon="11.8502804"><ele>271.0</ele><time>2026-05-03T09:41:00.583Z</time></trkpt><trkpt lat="44.0571484" lon="11.8502285"><ele>271.0</ele><time>2026-05-03T09:41:07.587Z</time></trkpt><trkpt lat="44.0572294" lon="11.8501067"><ele>271.0</ele><time>2026-05-03T09:41:09.584Z</time></trkpt><trkpt lat="44.0573145" lon="11.8499751"><ele>271.0</ele><time>2026-05-03T09:41:11.583Z</time></trkpt><trkpt lat="44.0573712" lon="11.849908"><ele>271.0</ele><time>2026-05-03T09:41:12.577Z</time></trkpt><trkpt lat="44.0574403" lon="11.8498462"><ele>271.0</ele><time>2026-05-03T09:41:13.582Z</time></trkpt><trkpt lat="44.0575064" lon="11.8497775"><ele>271.0</ele><time>2026-05-03T09:41:14.578Z</time></trkpt><trkpt lat="44.0575742" lon="11.8497002"><ele>271.0</ele><time>2026-05-03T09:41:15.59Z</time></trkpt><trkpt lat="44.0576434" lon="11.8496108"><ele>271.0</ele><time>2026-05-03T09:41:16.581Z</time></trkpt><trkpt lat="44.0577063" lon="11.8495253"><ele>271.0</ele><time>2026-05-03T09:41:17.578Z</time></trkpt><trkpt lat="44.0577528" lon="11.8494481"><ele>264.8333333333333</ele><time>2026-05-03T09:41:18.583Z</time></trkpt><trkpt lat="44.0578073" lon="11.8494007"><ele>258.66666666666663</ele><time>2026-05-03T09:41:20.582Z</time></trkpt><trkpt lat="44.0578252" lon="11.849524"><ele>252.5</ele><time>2026-05-03T09:41:24.586Z</time></trkpt><trkpt lat="44.0578494" lon="11.8496092"><ele>246.33333333333331</ele><time>2026-05-03T09:41:25.579Z</time></trkpt><trkpt lat="44.0579339" lon="11.8496341"><ele>240.16666666666666</ele><time>2026-05-03T09:41:27.584Z</time></trkpt><trkpt lat="44.0580001" lon="11.8495502"><ele>234.0</ele><time>2026-05-03T09:41:29.587Z</time></trkpt><trkpt lat="44.0580523" lon="11.8494367"><ele>234.0</ele><time>2026-05-03T09:41:31.589Z</time></trkpt><trkpt lat="44.0581147" lon="11.8493277"><ele>233.99999999999997</ele><time>2026-05-03T09:41:33.586Z</time></trkpt><trkpt lat="44.0581797" lon="11.8492212"><ele>233.99999999999997</ele><time>2026-05-03T09:41:35.585Z</time></trkpt><trkpt lat="44.0582726" lon="11.8490841"><ele>234.0</ele><time>2026-05-03T09:41:37.57Z</time></trkpt><trkpt lat="44.0583494" lon="11.8490193"><ele>234.0</ele><time>2026-05-03T09:41:38.577Z</time></trkpt><trkpt lat="44.0584298" lon="11.8489674"><ele>233.16666666666666</ele><time>2026-05-03T09:41:39.575Z</time></trkpt><trkpt lat="44.0585101" lon="11.8489224"><ele>232.33333333333331</ele><time>2026-05-03T09:41:40.567Z</time></trkpt><trkpt lat="44.0585909" lon="11.8488813"><ele>231.5</ele><time>2026-05-03T09:41:41.574Z</time></trkpt><trkpt lat="44.0586617" lon="11.8488431"><ele>230.66666666666666</ele><time>2026-05-03T09:41:42.577Z</time></trkpt><trkpt lat="44.0587285" lon="11.8488112"><ele>229.83333333333331</ele><time>2026-05-03T09:41:43.572Z</time></trkpt><trkpt lat="44.0588085" lon="11.8487826"><ele>229.0</ele><time>2026-05-03T09:41:44.574Z</time></trkpt><trkpt lat="44.0588767" lon="11.8487707"><ele>229.0</ele><time>2026-05-03T09:41:45.57Z</time></trkpt><trkpt lat="44.0589438" lon="11.8487456"><ele>229.0</ele><time>2026-05-03T09:41:46.563Z</time></trkpt><trkpt lat="44.0590114" lon="11.8487156"><ele>229.0</ele><time>2026-05-03T09:41:47.569Z</time></trkpt><trkpt lat="44.0590745" lon="11.8486659"><ele>229.0</ele><time>2026-05-03T09:41:48.564Z</time></trkpt><trkpt lat="44.0591332" lon="11.84862"><ele>229.0</ele><time>2026-05-03T09:41:49.572Z</time></trkpt><trkpt lat="44.0591936" lon="11.8485641"><ele>229.0</ele><time>2026-05-03T09:41:50.572Z</time></trkpt><trkpt lat="44.0592565" lon="11.848504"><ele>229.0</ele><time>2026-05-03T09:41:51.571Z</time></trkpt><trkpt lat="44.0593159" lon="11.8484353"><ele>227.66666666666666</ele><time>2026-05-03T09:41:52.569Z</time></trkpt><trkpt lat="44.059372" lon="11.8483603"><ele>226.33333333333331</ele><time>2026-05-03T09:41:53.571Z</time></trkpt><trkpt lat="44.0594319" lon="11.8482234"><ele>225.0</ele><time>2026-05-03T09:41:55.571Z</time></trkpt><trkpt lat="44.0594556" lon="11.8481408"><ele>223.66666666666669</ele><time>2026-05-03T09:41:56.571Z</time></trkpt><trkpt lat="44.0594739" lon="11.8479791"><ele>222.33333333333334</ele><time>2026-05-03T09:41:58.569Z</time></trkpt><trkpt lat="44.0594841" lon="11.8478858"><ele>221.0</ele><time>2026-05-03T09:41:59.573Z</time></trkpt><trkpt lat="44.0595093" lon="11.8477994"><ele>221.0</ele><time>2026-05-03T09:42:00.569Z</time></trkpt><trkpt lat="44.0595406" lon="11.8476424"><ele>221.00000000000003</ele><time>2026-05-03T09:42:02.571Z</time></trkpt><trkpt lat="44.0595317" lon="11.847497"><ele>221.00000000000003</ele><time>2026-05-03T09:42:04.569Z</time></trkpt><trkpt lat="44.0594864" lon="11.8473725"><ele>221.0</ele><time>2026-05-03T09:42:06.569Z</time></trkpt><trkpt lat="44.0594449" lon="11.8472969"><ele>221.0</ele><time>2026-05-03T09:42:07.567Z</time></trkpt><trkpt lat="44.059408" lon="11.8472128"><ele>221.50000000000003</ele><time>2026-05-03T09:42:08.568Z</time></trkpt><trkpt lat="44.0593734" lon="11.8471112"><ele>222.0</ele><time>2026-05-03T09:42:09.567Z</time></trkpt><trkpt lat="44.0593448" lon="11.8470091"><ele>222.5</ele><time>2026-05-03T09:42:10.569Z</time></trkpt><trkpt lat="44.0593294" lon="11.8468674"><ele>223.0</ele><time>2026-05-03T09:42:12.564Z</time></trkpt><trkpt lat="44.0593885" lon="11.8467386"><ele>223.50000000000003</ele><time>2026-05-03T09:42:14.571Z</time></trkpt><trkpt lat="44.059462" lon="11.8467279"><ele>224.0</ele><time>2026-05-03T09:42:15.57Z</time></trkpt><trkpt lat="44.059543" lon="11.8467307"><ele>224.00000000000003</ele><time>2026-05-03T09:42:16.569Z</time></trkpt><trkpt lat="44.0596312" lon="11.846752"><ele>224.0</ele><time>2026-05-03T09:42:17.573Z</time></trkpt><trkpt lat="44.0597214" lon="11.8467807"><ele>224.0</ele><time>2026-05-03T09:42:18.573Z</time></trkpt><trkpt lat="44.0598052" lon="11.8468153"><ele>224.0</ele><time>2026-05-03T09:42:19.577Z</time></trkpt><trkpt lat="44.0598768" lon="11.8468191"><ele>224.00000000000003</ele><time>2026-05-03T09:42:20.573Z</time></trkpt><trkpt lat="44.0599513" lon="11.8467944"><ele>224.0</ele><time>2026-05-03T09:42:21.575Z</time></trkpt><trkpt lat="44.0600623" lon="11.8466736"><ele>223.66666666666669</ele><time>2026-05-03T09:42:23.574Z</time></trkpt><trkpt lat="44.0601271" lon="11.8465921"><ele>223.33333333333334</ele><time>2026-05-03T09:42:24.576Z</time></trkpt><trkpt lat="44.0601923" lon="11.8465077"><ele>223.0</ele><time>2026-05-03T09:42:25.573Z</time></trkpt><trkpt lat="44.0602534" lon="11.8464316"><ele>222.66666666666669</ele><time>2026-05-03T09:42:26.572Z</time></trkpt><trkpt lat="44.0603072" lon="11.8463587"><ele>222.33333333333334</ele><time>2026-05-03T09:42:27.573Z</time></trkpt><trkpt lat="44.0603624" lon="11.8462886"><ele>222.0</ele><time>2026-05-03T09:42:28.57Z</time></trkpt><trkpt lat="44.0604185" lon="11.8462268"><ele>222.0</ele><time>2026-05-03T09:42:29.574Z</time></trkpt><trkpt lat="44.0604655" lon="11.8461682"><ele>222.0</ele><time>2026-05-03T09:42:30.57Z</time></trkpt><trkpt lat="44.0605209" lon="11.8460238"><ele>222.0</ele><time>2026-05-03T09:42:32.572Z</time></trkpt><trkpt lat="44.0605489" lon="11.8458642"><ele>222.0</ele><time>2026-05-03T09:42:34.569Z</time></trkpt><trkpt lat="44.0605748" lon="11.8457788"><ele>222.0</ele><time>2026-05-03T09:42:35.568Z</time></trkpt><trkpt lat="44.0606568" lon="11.8456785"><ele>223.16666666666666</ele><time>2026-05-03T09:42:37.572Z</time></trkpt><trkpt lat="44.0607625" lon="11.8457498"><ele>224.33333333333331</ele><time>2026-05-03T09:42:39.577Z</time></trkpt><trkpt lat="44.0608368" lon="11.8457712"><ele>225.5</ele><time>2026-05-03T09:42:40.572Z</time></trkpt><trkpt lat="44.0609139" lon="11.8457922"><ele>226.66666666666666</ele><time>2026-05-03T09:42:41.573Z</time></trkpt><trkpt lat="44.0610011" lon="11.845813"><ele>227.83333333333331</ele><time>2026-05-03T09:42:42.574Z</time></trkpt><trkpt lat="44.0610666" lon="11.845831"><ele>229.0</ele><time>2026-05-03T09:42:43.575Z</time></trkpt><trkpt lat="44.0611737" lon="11.8458536"><ele>227.6</ele><time>2026-05-03T09:42:45.568Z</time></trkpt><trkpt lat="44.0612997" lon="11.8458932"><ele>226.2</ele><time>2026-05-03T09:42:47.575Z</time></trkpt><trkpt lat="44.0614164" lon="11.8459228"><ele>224.79999999999998</ele><time>2026-05-03T09:42:49.573Z</time></trkpt><trkpt lat="44.0615059" lon="11.8459532"><ele>223.39999999999998</ele><time>2026-05-03T09:42:51.572Z</time></trkpt><trkpt lat="44.0615632" lon="11.846007"><ele>222.0</ele><time>2026-05-03T09:42:53.583Z</time></trkpt><trkpt lat="44.0616316" lon="11.846046"><ele>222.0</ele><time>2026-05-03T09:42:55.581Z</time></trkpt><trkpt lat="44.0617044" lon="11.8460716"><ele>222.0</ele><time>2026-05-03T09:42:57.59Z</time></trkpt></trkseg></trk></gpx>